<?xml version='1.0' encoding='UTF-8'?><gpx version="1.1" creator="JPX - https://github.com/jenetics/jpx" xmlns="http://www.topografix.com/GPX/1/1"><trk><trkseg><trkpt lat="43.6316108" lon="11.2294409"><ele>297.0</ele><time>2026-04-22T15:39:54.623Z</time></trkpt><trkpt lat="43.6315762" lon="11.2293627"><ele>297.0</ele><time>2026-04-22T15:40:01.623Z</time></trkpt><trkpt lat="43.6315352" lon="11.229285"><ele>297.0</ele><time>2026-04-22T15:40:40.622Z</time></trkpt><trkpt lat="43.6315707" lon="11.2291842"><ele>297.0</ele><time>2026-04-22T15:40:42.622Z</time></trkpt><trkpt lat="43.6316853" lon="11.2291199"><ele>297.0</ele><time>2026-04-22T15:40:44.623Z</time></trkpt><trkpt lat="43.631752" lon="11.2291421"><ele>297.0</ele><time>2026-04-22T15:40:45.622Z</time></trkpt><trkpt lat="43.6318275" lon="11.2291871"><ele>297.0</ele><time>2026-04-22T15:40:46.623Z</time></trkpt><trkpt lat="43.6319148" lon="11.22925"><ele>297.0</ele><time>2026-04-22T15:40:47.622Z</time></trkpt><trkpt lat="43.6319942" lon="11.2293244"><ele>297.0</ele><time>2026-04-22T15:40:48.622Z</time></trkpt><trkpt lat="43.6320783" lon="11.2293889"><ele>297.0</ele><time>2026-04-22T15:40:49.623Z</time></trkpt><trkpt lat="43.6321645" lon="11.2294617"><ele>297.0</ele><time>2026-04-22T15:40:50.622Z</time></trkpt><trkpt lat="43.6322559" lon="11.2295248"><ele>296.4</ele><time>2026-04-22T15:40:51.623Z</time></trkpt><trkpt lat="43.6323456" lon="11.2295877"><ele>295.79999999999995</ele><time>2026-04-22T15:40:52.622Z</time></trkpt><trkpt lat="43.6324311" lon="11.229654"><ele>295.2</ele><time>2026-04-22T15:40:53.622Z</time></trkpt><trkpt lat="43.6325268" lon="11.2297198"><ele>294.59999999999997</ele><time>2026-04-22T15:40:54.623Z</time></trkpt><trkpt lat="43.6326225" lon="11.229763"><ele>294.0</ele><time>2026-04-22T15:40:55.623Z</time></trkpt><trkpt lat="43.632723" lon="11.2297808"><ele>293.0</ele><time>2026-04-22T15:40:56.622Z</time></trkpt><trkpt lat="43.6328178" lon="11.2297912"><ele>292.0</ele><time>2026-04-22T15:40:57.622Z</time></trkpt><trkpt lat="43.632907" lon="11.2297931"><ele>291.0</ele><time>2026-04-22T15:40:58.623Z</time></trkpt><trkpt lat="43.6330011" lon="11.2297938"><ele>290.0</ele><time>2026-04-22T15:40:59.622Z</time></trkpt><trkpt lat="43.6330924" lon="11.2297901"><ele>289.0</ele><time>2026-04-22T15:41:00.623Z</time></trkpt><trkpt lat="43.633182" lon="11.2297951"><ele>289.0</ele><time>2026-04-22T15:41:01.623Z</time></trkpt><trkpt lat="43.6332751" lon="11.2297975"><ele>289.0</ele><time>2026-04-22T15:41:02.622Z</time></trkpt><trkpt lat="43.6333682" lon="11.2297994"><ele>289.0</ele><time>2026-04-22T15:41:03.622Z</time></trkpt><trkpt lat="43.633451" lon="11.2298055"><ele>289.0</ele><time>2026-04-22T15:41:04.622Z</time></trkpt><trkpt lat="43.6335306" lon="11.2298056"><ele>289.0</ele><time>2026-04-22T15:41:05.622Z</time></trkpt><trkpt lat="43.6336057" lon="11.229812"><ele>289.0</ele><time>2026-04-22T15:41:06.623Z</time></trkpt><trkpt lat="43.6336787" lon="11.2298113"><ele>290.0</ele><time>2026-04-22T15:41:07.623Z</time></trkpt><trkpt lat="43.6337951" lon="11.229814"><ele>291.0</ele><time>2026-04-22T15:41:09.623Z</time></trkpt><trkpt lat="43.6339089" lon="11.2298372"><ele>292.0</ele><time>2026-04-22T15:41:11.622Z</time></trkpt><trkpt lat="43.633968" lon="11.2298784"><ele>293.0</ele><time>2026-04-22T15:41:12.622Z</time></trkpt><trkpt lat="43.6340376" lon="11.2299446"><ele>294.0</ele><time>2026-04-22T15:41:13.622Z</time></trkpt><trkpt lat="43.6341004" lon="11.2300055"><ele>294.0</ele><time>2026-04-22T15:41:14.622Z</time></trkpt><trkpt lat="43.6341626" lon="11.2300522"><ele>294.0</ele><time>2026-04-22T15:41:15.623Z</time></trkpt><trkpt lat="43.6342578" lon="11.2301545"><ele>294.0</ele><time>2026-04-22T15:41:17.622Z</time></trkpt><trkpt lat="43.6343361" lon="11.2302252"><ele>294.0</ele><time>2026-04-22T15:41:19.623Z</time></trkpt><trkpt lat="43.6343991" lon="11.2302944"><ele>294.0</ele><time>2026-04-22T15:41:22.622Z</time></trkpt><trkpt lat="43.6343967" lon="11.2303937"><ele>294.0</ele><time>2026-04-22T15:41:25.622Z</time></trkpt><trkpt lat="43.6343422" lon="11.2304591"><ele>294.0</ele><time>2026-04-22T15:41:26.622Z</time></trkpt><trkpt lat="43.6342834" lon="11.2305388"><ele>294.0</ele><time>2026-04-22T15:41:27.622Z</time></trkpt><trkpt lat="43.6342248" lon="11.2306279"><ele>294.0</ele><time>2026-04-22T15:41:28.623Z</time></trkpt><trkpt lat="43.6341548" lon="11.2307233"><ele>294.0</ele><time>2026-04-22T15:41:29.622Z</time></trkpt><trkpt lat="43.6340857" lon="11.2308198"><ele>294.0</ele><time>2026-04-22T15:41:30.623Z</time></trkpt><trkpt lat="43.6340199" lon="11.2309114"><ele>293.59999999999997</ele><time>2026-04-22T15:41:31.623Z</time></trkpt><trkpt lat="43.6339603" lon="11.2309926"><ele>293.2</ele><time>2026-04-22T15:41:32.622Z</time></trkpt><trkpt lat="43.6339124" lon="11.2310697"><ele>292.79999999999995</ele><time>2026-04-22T15:41:33.622Z</time></trkpt><trkpt lat="43.6338321" lon="11.2311888"><ele>292.4</ele><time>2026-04-22T15:41:35.622Z</time></trkpt><trkpt lat="43.6337435" lon="11.2313104"><ele>292.0</ele><time>2026-04-22T15:41:37.622Z</time></trkpt><trkpt lat="43.6336915" lon="11.2313899"><ele>291.6</ele><time>2026-04-22T15:41:38.622Z</time></trkpt><trkpt lat="43.6336361" lon="11.2314899"><ele>291.2</ele><time>2026-04-22T15:41:39.623Z</time></trkpt><trkpt lat="43.6335801" lon="11.231606"><ele>290.8</ele><time>2026-04-22T15:41:40.622Z</time></trkpt><trkpt lat="43.6335437" lon="11.2317502"><ele>290.4</ele><time>2026-04-22T15:41:41.622Z</time></trkpt><trkpt lat="43.6335134" lon="11.2319172"><ele>290.0</ele><time>2026-04-22T15:41:42.622Z</time></trkpt><trkpt lat="43.6334852" lon="11.2320918"><ele>290.0</ele><time>2026-04-22T15:41:43.623Z</time></trkpt><trkpt lat="43.6334544" lon="11.2322646"><ele>290.0</ele><time>2026-04-22T15:41:44.623Z</time></trkpt><trkpt lat="43.6334231" lon="11.232444"><ele>290.0</ele><time>2026-04-22T15:41:45.623Z</time></trkpt><trkpt lat="43.633392" lon="11.2326296"><ele>290.0</ele><time>2026-04-22T15:41:46.622Z</time></trkpt><trkpt lat="43.6333578" lon="11.2328264"><ele>288.5</ele><time>2026-04-22T15:41:47.623Z</time></trkpt><trkpt lat="43.6333294" lon="11.2330215"><ele>287.0</ele><time>2026-04-22T15:41:48.623Z</time></trkpt><trkpt lat="43.6333017" lon="11.2332235"><ele>285.5</ele><time>2026-04-22T15:41:49.622Z</time></trkpt><trkpt lat="43.6332696" lon="11.233423"><ele>284.0</ele><time>2026-04-22T15:41:50.622Z</time></trkpt><trkpt lat="43.6332361" lon="11.2336296"><ele>284.0</ele><time>2026-04-22T15:41:51.622Z</time></trkpt><trkpt lat="43.6332022" lon="11.2338338"><ele>284.0</ele><time>2026-04-22T15:41:52.622Z</time></trkpt><trkpt lat="43.6331669" lon="11.2340414"><ele>284.0</ele><time>2026-04-22T15:41:53.623Z</time></trkpt><trkpt lat="43.6331328" lon="11.2342521"><ele>284.0</ele><time>2026-04-22T15:41:54.623Z</time></trkpt><trkpt lat="43.633096" lon="11.2344602"><ele>284.0</ele><time>2026-04-22T15:41:55.623Z</time></trkpt><trkpt lat="43.6330533" lon="11.2346696"><ele>284.0</ele><time>2026-04-22T15:41:56.623Z</time></trkpt><trkpt lat="43.6329973" lon="11.2348644"><ele>284.33333333333337</ele><time>2026-04-22T15:41:57.623Z</time></trkpt><trkpt lat="43.632913" lon="11.2350437"><ele>284.6666666666667</ele><time>2026-04-22T15:41:58.622Z</time></trkpt><trkpt lat="43.6328155" lon="11.2352038"><ele>285.0</ele><time>2026-04-22T15:41:59.622Z</time></trkpt><trkpt lat="43.6326971" lon="11.2353515"><ele>285.6666666666667</ele><time>2026-04-22T15:42:00.622Z</time></trkpt><trkpt lat="43.6325609" lon="11.2354805"><ele>286.33333333333337</ele><time>2026-04-22T15:42:01.622Z</time></trkpt><trkpt lat="43.6324132" lon="11.2355883"><ele>287.0</ele><time>2026-04-22T15:42:02.623Z</time></trkpt><trkpt lat="43.6322643" lon="11.2356669"><ele>287.0</ele><time>2026-04-22T15:42:03.622Z</time></trkpt><trkpt lat="43.6321122" lon="11.2357389"><ele>287.0</ele><time>2026-04-22T15:42:04.622Z</time></trkpt><trkpt lat="43.6319608" lon="11.2358101"><ele>287.0</ele><time>2026-04-22T15:42:05.623Z</time></trkpt><trkpt lat="43.6318114" lon="11.2358713"><ele>288.0</ele><time>2026-04-22T15:42:06.622Z</time></trkpt><trkpt lat="43.6316632" lon="11.2359306"><ele>289.0</ele><time>2026-04-22T15:42:07.622Z</time></trkpt><trkpt lat="43.6315214" lon="11.2359933"><ele>290.0</ele><time>2026-04-22T15:42:08.623Z</time></trkpt><trkpt lat="43.631381" lon="11.2360638"><ele>290.0</ele><time>2026-04-22T15:42:09.622Z</time></trkpt><trkpt lat="43.6312447" lon="11.2361279"><ele>290.0</ele><time>2026-04-22T15:42:10.622Z</time></trkpt><trkpt lat="43.6311032" lon="11.2361958"><ele>290.0</ele><time>2026-04-22T15:42:11.622Z</time></trkpt><trkpt lat="43.6309587" lon="11.2362684"><ele>290.0</ele><time>2026-04-22T15:42:12.622Z</time></trkpt><trkpt lat="43.6308144" lon="11.2363432"><ele>290.33333333333337</ele><time>2026-04-22T15:42:13.623Z</time></trkpt><trkpt lat="43.6306685" lon="11.2364156"><ele>290.6666666666667</ele><time>2026-04-22T15:42:14.622Z</time></trkpt><trkpt lat="43.6305226" lon="11.2364918"><ele>291.0</ele><time>2026-04-22T15:42:15.622Z</time></trkpt><trkpt lat="43.6303806" lon="11.2365698"><ele>291.5</ele><time>2026-04-22T15:42:16.622Z</time></trkpt><trkpt lat="43.6302471" lon="11.236656"><ele>292.0</ele><time>2026-04-22T15:42:17.622Z</time></trkpt><trkpt lat="43.6301261" lon="11.2367593"><ele>292.5</ele><time>2026-04-22T15:42:18.622Z</time></trkpt><trkpt lat="43.6300071" lon="11.2368745"><ele>293.0</ele><time>2026-04-22T15:42:19.622Z</time></trkpt><trkpt lat="43.629893" lon="11.2369967"><ele>293.0</ele><time>2026-04-22T15:42:20.622Z</time></trkpt><trkpt lat="43.629787" lon="11.2371171"><ele>293.0</ele><time>2026-04-22T15:42:21.623Z</time></trkpt><trkpt lat="43.6296882" lon="11.2372329"><ele>293.0</ele><time>2026-04-22T15:42:22.622Z</time></trkpt><trkpt lat="43.62959" lon="11.2373449"><ele>293.0</ele><time>2026-04-22T15:42:23.622Z</time></trkpt><trkpt lat="43.6295032" lon="11.2374707"><ele>292.0</ele><time>2026-04-22T15:42:24.623Z</time></trkpt><trkpt lat="43.6294391" lon="11.2376136"><ele>291.0</ele><time>2026-04-22T15:42:25.622Z</time></trkpt><trkpt lat="43.6294026" lon="11.2377758"><ele>290.0</ele><time>2026-04-22T15:42:26.622Z</time></trkpt><trkpt lat="43.6293981" lon="11.237953"><ele>289.0</ele><time>2026-04-22T15:42:27.623Z</time></trkpt><trkpt lat="43.6293873" lon="11.238122"><ele>290.75</ele><time>2026-04-22T15:42:28.622Z</time></trkpt><trkpt lat="43.6293199" lon="11.2382553"><ele>292.5</ele><time>2026-04-22T15:42:29.622Z</time></trkpt><trkpt lat="43.6292579" lon="11.2383781"><ele>294.25</ele><time>2026-04-22T15:42:30.622Z</time></trkpt><trkpt lat="43.6291792" lon="11.2384804"><ele>296.0</ele><time>2026-04-22T15:42:31.622Z</time></trkpt><trkpt lat="43.6290802" lon="11.2385642"><ele>296.0</ele><time>2026-04-22T15:42:32.622Z</time></trkpt><trkpt lat="43.6289688" lon="11.2386209"><ele>296.0</ele><time>2026-04-22T15:42:33.622Z</time></trkpt><trkpt lat="43.6288486" lon="11.2386659"><ele>296.0</ele><time>2026-04-22T15:42:34.623Z</time></trkpt><trkpt lat="43.6287241" lon="11.238704"><ele>296.0</ele><time>2026-04-22T15:42:35.623Z</time></trkpt><trkpt lat="43.6285975" lon="11.2387476"><ele>295.75</ele><time>2026-04-22T15:42:36.623Z</time></trkpt><trkpt lat="43.6284673" lon="11.2387955"><ele>295.5</ele><time>2026-04-22T15:42:37.622Z</time></trkpt><trkpt lat="43.6283409" lon="11.2388547"><ele>295.25</ele><time>2026-04-22T15:42:38.623Z</time></trkpt><trkpt lat="43.6282113" lon="11.2389243"><ele>295.0</ele><time>2026-04-22T15:42:39.622Z</time></trkpt><trkpt lat="43.6280959" lon="11.2389991"><ele>295.8</ele><time>2026-04-22T15:42:40.622Z</time></trkpt><trkpt lat="43.6279923" lon="11.2390731"><ele>296.6</ele><time>2026-04-22T15:42:41.622Z</time></trkpt><trkpt lat="43.6279004" lon="11.2391433"><ele>297.4</ele><time>2026-04-22T15:42:42.622Z</time></trkpt><trkpt lat="43.627827" lon="11.2392115"><ele>298.2</ele><time>2026-04-22T15:42:43.622Z</time></trkpt><trkpt lat="43.6277693" lon="11.2392983"><ele>299.0</ele><time>2026-04-22T15:42:44.622Z</time></trkpt><trkpt lat="43.6277172" lon="11.2394092"><ele>299.0</ele><time>2026-04-22T15:42:45.623Z</time></trkpt><trkpt lat="43.6276644" lon="11.2395427"><ele>299.0</ele><time>2026-04-22T15:42:46.623Z</time></trkpt><trkpt lat="43.6276071" lon="11.2396924"><ele>299.0</ele><time>2026-04-22T15:42:47.623Z</time></trkpt><trkpt lat="43.6275573" lon="11.2398574"><ele>299.0</ele><time>2026-04-22T15:42:48.622Z</time></trkpt><trkpt lat="43.6275025" lon="11.2400224"><ele>301.0</ele><time>2026-04-22T15:42:49.623Z</time></trkpt><trkpt lat="43.6274479" lon="11.2401834"><ele>303.0</ele><time>2026-04-22T15:42:50.623Z</time></trkpt><trkpt lat="43.6273667" lon="11.2403575"><ele>305.0</ele><time>2026-04-22T15:42:51.622Z</time></trkpt><trkpt lat="43.6273029" lon="11.2405272"><ele>307.0</ele><time>2026-04-22T15:42:52.622Z</time></trkpt><trkpt lat="43.6272299" lon="11.2406999"><ele>308.25</ele><time>2026-04-22T15:42:53.623Z</time></trkpt><trkpt lat="43.6271753" lon="11.2408641"><ele>309.5</ele><time>2026-04-22T15:42:54.622Z</time></trkpt><trkpt lat="43.6271171" lon="11.241019"><ele>310.75</ele><time>2026-04-22T15:42:55.623Z</time></trkpt><trkpt lat="43.6270558" lon="11.2411673"><ele>312.0</ele><time>2026-04-22T15:42:56.622Z</time></trkpt><trkpt lat="43.6270017" lon="11.2413013"><ele>312.6666666666667</ele><time>2026-04-22T15:42:57.623Z</time></trkpt><trkpt lat="43.6269672" lon="11.2414175"><ele>313.3333333333333</ele><time>2026-04-22T15:42:58.622Z</time></trkpt><trkpt lat="43.6269784" lon="11.241529"><ele>314.0</ele><time>2026-04-22T15:42:59.622Z</time></trkpt><trkpt lat="43.6269112" lon="11.2416101"><ele>314.66666666666663</ele><time>2026-04-22T15:43:00.622Z</time></trkpt><trkpt lat="43.6268331" lon="11.2416683"><ele>315.3333333333333</ele><time>2026-04-22T15:43:01.622Z</time></trkpt><trkpt lat="43.6267393" lon="11.2416992"><ele>316.0</ele><time>2026-04-22T15:43:02.622Z</time></trkpt><trkpt lat="43.6266403" lon="11.2417251"><ele>316.0</ele><time>2026-04-22T15:43:03.622Z</time></trkpt><trkpt lat="43.6265284" lon="11.2417461"><ele>316.0</ele><time>2026-04-22T15:43:04.622Z</time></trkpt><trkpt lat="43.626419" lon="11.2417793"><ele>316.0</ele><time>2026-04-22T15:43:05.623Z</time></trkpt><trkpt lat="43.626309" lon="11.2418095"><ele>316.0</ele><time>2026-04-22T15:43:06.622Z</time></trkpt><trkpt lat="43.6262114" lon="11.2418474"><ele>316.0</ele><time>2026-04-22T15:43:07.623Z</time></trkpt><trkpt lat="43.6261036" lon="11.2418864"><ele>315.0</ele><time>2026-04-22T15:43:08.622Z</time></trkpt><trkpt lat="43.6259865" lon="11.2419166"><ele>314.0</ele><time>2026-04-22T15:43:09.622Z</time></trkpt><trkpt lat="43.6258617" lon="11.2419435"><ele>313.0</ele><time>2026-04-22T15:43:10.622Z</time></trkpt><trkpt lat="43.6257431" lon="11.2419676"><ele>312.0</ele><time>2026-04-22T15:43:11.622Z</time></trkpt><trkpt lat="43.6256317" lon="11.2419879"><ele>312.0</ele><time>2026-04-22T15:43:12.622Z</time></trkpt><trkpt lat="43.6255208" lon="11.2420004"><ele>312.0</ele><time>2026-04-22T15:43:13.623Z</time></trkpt><trkpt lat="43.6254116" lon="11.2419866"><ele>312.0</ele><time>2026-04-22T15:43:14.622Z</time></trkpt><trkpt lat="43.6253095" lon="11.2419743"><ele>312.0</ele><time>2026-04-22T15:43:15.622Z</time></trkpt><trkpt lat="43.6252097" lon="11.2419732"><ele>312.0</ele><time>2026-04-22T15:43:16.622Z</time></trkpt><trkpt lat="43.6251037" lon="11.2419984"><ele>311.5</ele><time>2026-04-22T15:43:17.623Z</time></trkpt><trkpt lat="43.6249995" lon="11.2420392"><ele>311.0</ele><time>2026-04-22T15:43:18.623Z</time></trkpt><trkpt lat="43.6248943" lon="11.2421139"><ele>310.5</ele><time>2026-04-22T15:43:19.622Z</time></trkpt><trkpt lat="43.6247987" lon="11.2422102"><ele>310.0</ele><time>2026-04-22T15:43:20.622Z</time></trkpt><trkpt lat="43.6247176" lon="11.2423048"><ele>310.0</ele><time>2026-04-22T15:43:21.622Z</time></trkpt><trkpt lat="43.6246422" lon="11.2423967"><ele>310.0</ele><time>2026-04-22T15:43:22.622Z</time></trkpt><trkpt lat="43.6245627" lon="11.242494"><ele>310.0</ele><time>2026-04-22T15:43:23.622Z</time></trkpt><trkpt lat="43.6244877" lon="11.2425937"><ele>310.0</ele><time>2026-04-22T15:43:24.623Z</time></trkpt><trkpt lat="43.6244121" lon="11.2426814"><ele>310.0</ele><time>2026-04-22T15:43:25.623Z</time></trkpt><trkpt lat="43.6243277" lon="11.2427463"><ele>308.75</ele><time>2026-04-22T15:43:26.622Z</time></trkpt><trkpt lat="43.6242385" lon="11.2428156"><ele>307.5</ele><time>2026-04-22T15:43:27.622Z</time></trkpt><trkpt lat="43.624152" lon="11.2429102"><ele>306.25</ele><time>2026-04-22T15:43:28.622Z</time></trkpt><trkpt lat="43.6240565" lon="11.2430289"><ele>305.0</ele><time>2026-04-22T15:43:29.622Z</time></trkpt><trkpt lat="43.6239728" lon="11.2431784"><ele>305.0</ele><time>2026-04-22T15:43:30.622Z</time></trkpt><trkpt lat="43.6238922" lon="11.2433454"><ele>305.0</ele><time>2026-04-22T15:43:31.622Z</time></trkpt><trkpt lat="43.6238175" lon="11.2435234"><ele>305.0</ele><time>2026-04-22T15:43:32.622Z</time></trkpt><trkpt lat="43.6237553" lon="11.2437015"><ele>305.0</ele><time>2026-04-22T15:43:33.622Z</time></trkpt><trkpt lat="43.6236878" lon="11.2438753"><ele>303.0</ele><time>2026-04-22T15:43:34.622Z</time></trkpt><trkpt lat="43.6236286" lon="11.2440419"><ele>301.0</ele><time>2026-04-22T15:43:35.622Z</time></trkpt><trkpt lat="43.6235691" lon="11.2441949"><ele>299.0</ele><time>2026-04-22T15:43:36.622Z</time></trkpt><trkpt lat="43.6235131" lon="11.2443288"><ele>297.0</ele><time>2026-04-22T15:43:37.622Z</time></trkpt><trkpt lat="43.6234596" lon="11.2444565"><ele>297.0</ele><time>2026-04-22T15:43:38.622Z</time></trkpt><trkpt lat="43.623398" lon="11.244561"><ele>297.0</ele><time>2026-04-22T15:43:39.623Z</time></trkpt><trkpt lat="43.623314" lon="11.2446347"><ele>297.0</ele><time>2026-04-22T15:43:40.622Z</time></trkpt><trkpt lat="43.6232144" lon="11.244651"><ele>297.0</ele><time>2026-04-22T15:43:41.623Z</time></trkpt><trkpt lat="43.6231209" lon="11.2446544"><ele>297.0</ele><time>2026-04-22T15:43:42.622Z</time></trkpt><trkpt lat="43.6230439" lon="11.2446075"><ele>297.0</ele><time>2026-04-22T15:43:43.622Z</time></trkpt><trkpt lat="43.6229734" lon="11.2445163"><ele>297.0</ele><time>2026-04-22T15:43:44.623Z</time></trkpt><trkpt lat="43.622899" lon="11.244391"><ele>297.0</ele><time>2026-04-22T15:43:45.623Z</time></trkpt><trkpt lat="43.6228243" lon="11.24426"><ele>297.0</ele><time>2026-04-22T15:43:46.622Z</time></trkpt><trkpt lat="43.6227528" lon="11.2441428"><ele>297.0</ele><time>2026-04-22T15:43:47.622Z</time></trkpt><trkpt lat="43.6226856" lon="11.2440416"><ele>298.0</ele><time>2026-04-22T15:43:48.622Z</time></trkpt><trkpt lat="43.6226193" lon="11.2439538"><ele>299.0</ele><time>2026-04-22T15:43:49.622Z</time></trkpt><trkpt lat="43.6225449" lon="11.2438795"><ele>300.0</ele><time>2026-04-22T15:43:50.623Z</time></trkpt><trkpt lat="43.6224677" lon="11.2438396"><ele>301.0</ele><time>2026-04-22T15:43:51.622Z</time></trkpt><trkpt lat="43.6223828" lon="11.2438374"><ele>302.0</ele><time>2026-04-22T15:43:52.623Z</time></trkpt><trkpt lat="43.6223046" lon="11.2438719"><ele>303.0</ele><time>2026-04-22T15:43:53.622Z</time></trkpt><trkpt lat="43.6222338" lon="11.2439296"><ele>304.2</ele><time>2026-04-22T15:43:54.623Z</time></trkpt><trkpt lat="43.6221794" lon="11.244025"><ele>305.4</ele><time>2026-04-22T15:43:55.622Z</time></trkpt><trkpt lat="43.6221284" lon="11.2441452"><ele>306.59999999999997</ele><time>2026-04-22T15:43:56.623Z</time></trkpt><trkpt lat="43.6220876" lon="11.2442837"><ele>307.8</ele><time>2026-04-22T15:43:57.622Z</time></trkpt><trkpt lat="43.6220458" lon="11.2444283"><ele>309.0</ele><time>2026-04-22T15:43:58.622Z</time></trkpt><trkpt lat="43.6220068" lon="11.2445831"><ele>309.2</ele><time>2026-04-22T15:43:59.623Z</time></trkpt><trkpt lat="43.6219572" lon="11.2447254"><ele>309.4</ele><time>2026-04-22T15:44:00.623Z</time></trkpt><trkpt lat="43.6218947" lon="11.2448533"><ele>309.6</ele><time>2026-04-22T15:44:01.623Z</time></trkpt><trkpt lat="43.6218243" lon="11.2449631"><ele>309.8</ele><time>2026-04-22T15:44:02.622Z</time></trkpt><trkpt lat="43.6217365" lon="11.2450591"><ele>310.0</ele><time>2026-04-22T15:44:03.622Z</time></trkpt><trkpt lat="43.6216333" lon="11.2451413"><ele>311.25</ele><time>2026-04-22T15:44:04.622Z</time></trkpt><trkpt lat="43.6215239" lon="11.2452227"><ele>312.5</ele><time>2026-04-22T15:44:05.622Z</time></trkpt><trkpt lat="43.6214145" lon="11.2453072"><ele>313.75</ele><time>2026-04-22T15:44:06.622Z</time></trkpt><trkpt lat="43.6213095" lon="11.245405"><ele>315.0</ele><time>2026-04-22T15:44:07.622Z</time></trkpt><trkpt lat="43.6212133" lon="11.2455255"><ele>317.25</ele><time>2026-04-22T15:44:08.622Z</time></trkpt><trkpt lat="43.6211142" lon="11.2456503"><ele>319.5</ele><time>2026-04-22T15:44:09.623Z</time></trkpt><trkpt lat="43.6210193" lon="11.245781"><ele>321.75</ele><time>2026-04-22T15:44:10.622Z</time></trkpt><trkpt lat="43.620917" lon="11.2459174"><ele>324.0</ele><time>2026-04-22T15:44:11.622Z</time></trkpt><trkpt lat="43.6208172" lon="11.2460512"><ele>324.0</ele><time>2026-04-22T15:44:12.623Z</time></trkpt><trkpt lat="43.6207074" lon="11.2461815"><ele>324.0</ele><time>2026-04-22T15:44:13.622Z</time></trkpt><trkpt lat="43.6205998" lon="11.2463097"><ele>324.0</ele><time>2026-04-22T15:44:14.622Z</time></trkpt><trkpt lat="43.6204933" lon="11.2464449"><ele>324.0</ele><time>2026-04-22T15:44:15.622Z</time></trkpt><trkpt lat="43.6204007" lon="11.2465925"><ele>325.5</ele><time>2026-04-22T15:44:16.623Z</time></trkpt><trkpt lat="43.6203363" lon="11.2467603"><ele>327.0</ele><time>2026-04-22T15:44:17.622Z</time></trkpt><trkpt lat="43.6202816" lon="11.2469304"><ele>328.5</ele><time>2026-04-22T15:44:18.622Z</time></trkpt><trkpt lat="43.6202303" lon="11.2471326"><ele>330.0</ele><time>2026-04-22T15:44:19.622Z</time></trkpt><trkpt lat="43.6201755" lon="11.2473602"><ele>334.3333333333333</ele><time>2026-04-22T15:44:20.623Z</time></trkpt><trkpt lat="43.6201302" lon="11.2475661"><ele>338.66666666666663</ele><time>2026-04-22T15:44:21.622Z</time></trkpt><trkpt lat="43.6200864" lon="11.2477796"><ele>343.0</ele><time>2026-04-22T15:44:22.623Z</time></trkpt><trkpt lat="43.6200407" lon="11.2479938"><ele>345.3333333333333</ele><time>2026-04-22T15:44:23.622Z</time></trkpt><trkpt lat="43.619997" lon="11.2482023"><ele>347.6666666666667</ele><time>2026-04-22T15:44:24.622Z</time></trkpt><trkpt lat="43.6199585" lon="11.2484173"><ele>350.0</ele><time>2026-04-22T15:44:25.622Z</time></trkpt><trkpt lat="43.6199391" lon="11.2486381"><ele>350.0</ele><time>2026-04-22T15:44:26.623Z</time></trkpt><trkpt lat="43.6199286" lon="11.2488649"><ele>350.0</ele><time>2026-04-22T15:44:27.622Z</time></trkpt><trkpt lat="43.6199324" lon="11.2490912"><ele>350.0</ele><time>2026-04-22T15:44:28.622Z</time></trkpt><trkpt lat="43.6199313" lon="11.2493234"><ele>350.33333333333337</ele><time>2026-04-22T15:44:29.622Z</time></trkpt><trkpt lat="43.6199334" lon="11.2495525"><ele>350.6666666666667</ele><time>2026-04-22T15:44:30.622Z</time></trkpt><trkpt lat="43.6199334" lon="11.2497797"><ele>351.0</ele><time>2026-04-22T15:44:31.622Z</time></trkpt><trkpt lat="43.6199329" lon="11.2499969"><ele>352.5</ele><time>2026-04-22T15:44:32.622Z</time></trkpt><trkpt lat="43.6199336" lon="11.2501975"><ele>354.0</ele><time>2026-04-22T15:44:33.623Z</time></trkpt><trkpt lat="43.6199341" lon="11.2503937"><ele>355.5</ele><time>2026-04-22T15:44:34.622Z</time></trkpt><trkpt lat="43.6199366" lon="11.2505779"><ele>357.0</ele><time>2026-04-22T15:44:35.623Z</time></trkpt><trkpt lat="43.6199347" lon="11.2507493"><ele>357.6666666666667</ele><time>2026-04-22T15:44:36.622Z</time></trkpt><trkpt lat="43.6199276" lon="11.2509035"><ele>358.3333333333333</ele><time>2026-04-22T15:44:37.622Z</time></trkpt><trkpt lat="43.6199062" lon="11.2510021"><ele>359.0</ele><time>2026-04-22T15:44:38.623Z</time></trkpt><trkpt lat="43.6198629" lon="11.2510742"><ele>359.66666666666663</ele><time>2026-04-22T15:44:39.622Z</time></trkpt><trkpt lat="43.6198005" lon="11.2511049"><ele>360.3333333333333</ele><time>2026-04-22T15:44:40.622Z</time></trkpt><trkpt lat="43.6197162" lon="11.2511042"><ele>361.0</ele><time>2026-04-22T15:44:41.622Z</time></trkpt><trkpt lat="43.6196364" lon="11.2510581"><ele>361.0</ele><time>2026-04-22T15:44:42.622Z</time></trkpt><trkpt lat="43.6195554" lon="11.2509831"><ele>361.0</ele><time>2026-04-22T15:44:43.623Z</time></trkpt><trkpt lat="43.6194792" lon="11.2508887"><ele>361.0</ele><time>2026-04-22T15:44:44.623Z</time></trkpt><trkpt lat="43.6194164" lon="11.250781"><ele>361.0</ele><time>2026-04-22T15:44:45.622Z</time></trkpt><trkpt lat="43.6193718" lon="11.2506695"><ele>361.0</ele><time>2026-04-22T15:44:46.623Z</time></trkpt><trkpt lat="43.6193203" lon="11.2505703"><ele>363.0</ele><time>2026-04-22T15:44:47.622Z</time></trkpt><trkpt lat="43.6192663" lon="11.2504829"><ele>365.0</ele><time>2026-04-22T15:44:48.622Z</time></trkpt><trkpt lat="43.6191979" lon="11.2504221"><ele>367.0</ele><time>2026-04-22T15:44:49.623Z</time></trkpt><trkpt lat="43.6191132" lon="11.2504119"><ele>369.0</ele><time>2026-04-22T15:44:50.622Z</time></trkpt><trkpt lat="43.6190246" lon="11.2504543"><ele>371.0</ele><time>2026-04-22T15:44:51.622Z</time></trkpt><trkpt lat="43.6189321" lon="11.2505273"><ele>371.5</ele><time>2026-04-22T15:44:52.623Z</time></trkpt><trkpt lat="43.6188445" lon="11.2506303"><ele>372.0</ele><time>2026-04-22T15:44:53.623Z</time></trkpt><trkpt lat="43.6187364" lon="11.2507298"><ele>372.5</ele><time>2026-04-22T15:44:54.623Z</time></trkpt><trkpt lat="43.6186178" lon="11.2508299"><ele>373.0</ele><time>2026-04-22T15:44:55.622Z</time></trkpt><trkpt lat="43.6184875" lon="11.2508997"><ele>375.59999999999997</ele><time>2026-04-22T15:44:56.621Z</time></trkpt><trkpt lat="43.6183595" lon="11.2509607"><ele>378.2</ele><time>2026-04-22T15:44:57.622Z</time></trkpt><trkpt lat="43.618251" lon="11.251023"><ele>380.8</ele><time>2026-04-22T15:44:58.621Z</time></trkpt><trkpt lat="43.618166" lon="11.2510991"><ele>383.4</ele><time>2026-04-22T15:44:59.622Z</time></trkpt><trkpt lat="43.6181151" lon="11.2512077"><ele>386.0</ele><time>2026-04-22T15:45:00.621Z</time></trkpt><trkpt lat="43.6180991" lon="11.2513272"><ele>387.75</ele><time>2026-04-22T15:45:01.621Z</time></trkpt><trkpt lat="43.6181123" lon="11.2514736"><ele>389.5</ele><time>2026-04-22T15:45:02.621Z</time></trkpt><trkpt lat="43.6181301" lon="11.2516412"><ele>391.25</ele><time>2026-04-22T15:45:03.621Z</time></trkpt><trkpt lat="43.6181223" lon="11.2518185"><ele>393.0</ele><time>2026-04-22T15:45:04.621Z</time></trkpt><trkpt lat="43.6181038" lon="11.2520236"><ele>393.0</ele><time>2026-04-22T15:45:05.622Z</time></trkpt><trkpt lat="43.618087" lon="11.2522302"><ele>393.0</ele><time>2026-04-22T15:45:06.622Z</time></trkpt><trkpt lat="43.6180788" lon="11.252414"><ele>393.0</ele><time>2026-04-22T15:45:07.621Z</time></trkpt><trkpt lat="43.6180609" lon="11.2525808"><ele>393.0</ele><time>2026-04-22T15:45:08.621Z</time></trkpt><trkpt lat="43.6180218" lon="11.2527226"><ele>394.25</ele><time>2026-04-22T15:45:09.622Z</time></trkpt><trkpt lat="43.6179422" lon="11.252837"><ele>395.5</ele><time>2026-04-22T15:45:10.621Z</time></trkpt><trkpt lat="43.6178455" lon="11.2529308"><ele>396.75</ele><time>2026-04-22T15:45:11.622Z</time></trkpt><trkpt lat="43.6177338" lon="11.2530226"><ele>398.0</ele><time>2026-04-22T15:45:12.621Z</time></trkpt><trkpt lat="43.6176205" lon="11.2531055"><ele>400.5</ele><time>2026-04-22T15:45:13.621Z</time></trkpt><trkpt lat="43.6175088" lon="11.2531636"><ele>403.0</ele><time>2026-04-22T15:45:14.622Z</time></trkpt><trkpt lat="43.6174045" lon="11.2531925"><ele>405.5</ele><time>2026-04-22T15:45:15.621Z</time></trkpt><trkpt lat="43.6172969" lon="11.2531819"><ele>408.0</ele><time>2026-04-22T15:45:16.622Z</time></trkpt><trkpt lat="43.6171951" lon="11.2530656"><ele>408.75</ele><time>2026-04-22T15:45:17.621Z</time></trkpt><trkpt lat="43.617063" lon="11.2530007"><ele>409.5</ele><time>2026-04-22T15:45:18.622Z</time></trkpt><trkpt lat="43.6169314" lon="11.2529516"><ele>410.25</ele><time>2026-04-22T15:45:19.621Z</time></trkpt><trkpt lat="43.616798" lon="11.2529008"><ele>411.0</ele><time>2026-04-22T15:45:20.621Z</time></trkpt><trkpt lat="43.6166784" lon="11.2528532"><ele>412.75</ele><time>2026-04-22T15:45:21.621Z</time></trkpt><trkpt lat="43.6165693" lon="11.2528228"><ele>414.5</ele><time>2026-04-22T15:45:22.621Z</time></trkpt><trkpt lat="43.616458" lon="11.25282"><ele>416.25</ele><time>2026-04-22T15:45:23.621Z</time></trkpt><trkpt lat="43.6163412" lon="11.2528573"><ele>418.0</ele><time>2026-04-22T15:45:24.621Z</time></trkpt><trkpt lat="43.6162182" lon="11.2529453"><ele>415.6666666666667</ele><time>2026-04-22T15:45:25.622Z</time></trkpt><trkpt lat="43.6160842" lon="11.2530451"><ele>413.33333333333337</ele><time>2026-04-22T15:45:26.621Z</time></trkpt><trkpt lat="43.6159404" lon="11.2531403"><ele>411.0</ele><time>2026-04-22T15:45:27.621Z</time></trkpt><trkpt lat="43.6157897" lon="11.2532251"><ele>411.0</ele><time>2026-04-22T15:45:28.621Z</time></trkpt><trkpt lat="43.6156441" lon="11.2533156"><ele>411.0</ele><time>2026-04-22T15:45:29.621Z</time></trkpt><trkpt lat="43.6155055" lon="11.2534216"><ele>411.0</ele><time>2026-04-22T15:45:30.621Z</time></trkpt><trkpt lat="43.6153883" lon="11.2535559"><ele>412.75</ele><time>2026-04-22T15:45:31.621Z</time></trkpt><trkpt lat="43.6152732" lon="11.2536918"><ele>414.5</ele><time>2026-04-22T15:45:32.621Z</time></trkpt><trkpt lat="43.6151502" lon="11.2538061"><ele>416.25</ele><time>2026-04-22T15:45:33.621Z</time></trkpt><trkpt lat="43.6150149" lon="11.2538903"><ele>418.0</ele><time>2026-04-22T15:45:34.621Z</time></trkpt><trkpt lat="43.614875" lon="11.2539431"><ele>418.0</ele><time>2026-04-22T15:45:35.621Z</time></trkpt><trkpt lat="43.6147419" lon="11.2539445"><ele>418.0</ele><time>2026-04-22T15:45:36.621Z</time></trkpt><trkpt lat="43.6146375" lon="11.2538007"><ele>418.0</ele><time>2026-04-22T15:45:37.621Z</time></trkpt><trkpt lat="43.6145069" lon="11.2537355"><ele>418.0</ele><time>2026-04-22T15:45:38.621Z</time></trkpt><trkpt lat="43.6143758" lon="11.2536761"><ele>420.0</ele><time>2026-04-22T15:45:39.621Z</time></trkpt><trkpt lat="43.6142479" lon="11.2536277"><ele>422.0</ele><time>2026-04-22T15:45:40.622Z</time></trkpt><trkpt lat="43.6141366" lon="11.2536024"><ele>423.99999999999994</ele><time>2026-04-22T15:45:41.621Z</time></trkpt><trkpt lat="43.6140408" lon="11.2535806"><ele>426.0</ele><time>2026-04-22T15:45:42.621Z</time></trkpt><trkpt lat="43.6139638" lon="11.2535507"><ele>428.0</ele><time>2026-04-22T15:45:43.622Z</time></trkpt><trkpt lat="43.6138816" lon="11.2535034"><ele>428.0</ele><time>2026-04-22T15:45:45.621Z</time></trkpt><trkpt lat="43.6138195" lon="11.2534129"><ele>428.0</ele><time>2026-04-22T15:45:47.621Z</time></trkpt><trkpt lat="43.613747" lon="11.2534252"><ele>428.0</ele><time>2026-04-22T15:45:52.622Z</time></trkpt><trkpt lat="43.6119683" lon="11.2519996"><ele>437.0</ele><time>2026-04-22T15:45:54.621Z</time></trkpt><trkpt lat="43.6117779" lon="11.2519857"><ele>446.0</ele><time>2026-04-22T15:45:55.621Z</time></trkpt><trkpt lat="43.6115867" lon="11.2519723"><ele>455.0</ele><time>2026-04-22T15:45:56.622Z</time></trkpt><trkpt lat="43.6114014" lon="11.251951"><ele>455.0</ele><time>2026-04-22T15:45:57.621Z</time></trkpt><trkpt lat="43.6112346" lon="11.2519421"><ele>455.0</ele><time>2026-04-22T15:45:58.621Z</time></trkpt><trkpt lat="43.6110803" lon="11.2519412"><ele>455.0</ele><time>2026-04-22T15:45:59.622Z</time></trkpt><trkpt lat="43.6109382" lon="11.2519515"><ele>455.25</ele><time>2026-04-22T15:46:00.621Z</time></trkpt><trkpt lat="43.6108016" lon="11.2519743"><ele>455.5</ele><time>2026-04-22T15:46:01.622Z</time></trkpt><trkpt lat="43.6106677" lon="11.2520161"><ele>455.75</ele><time>2026-04-22T15:46:02.621Z</time></trkpt><trkpt lat="43.6105392" lon="11.2520647"><ele>456.0</ele><time>2026-04-22T15:46:03.622Z</time></trkpt><trkpt lat="43.610415" lon="11.252128"><ele>456.8</ele><time>2026-04-22T15:46:04.621Z</time></trkpt><trkpt lat="43.6103025" lon="11.2521989"><ele>457.6</ele><time>2026-04-22T15:46:05.622Z</time></trkpt><trkpt lat="43.6102013" lon="11.2522621"><ele>458.4</ele><time>2026-04-22T15:46:06.621Z</time></trkpt><trkpt lat="43.6101253" lon="11.2523136"><ele>459.2</ele><time>2026-04-22T15:46:07.622Z</time></trkpt><trkpt lat="43.6100686" lon="11.2523604"><ele>460.0</ele><time>2026-04-22T15:46:08.621Z</time></trkpt><trkpt lat="43.6099906" lon="11.2524156"><ele>460.0</ele><time>2026-04-22T15:46:10.621Z</time></trkpt><trkpt lat="43.6099149" lon="11.2524181"><ele>460.0</ele><time>2026-04-22T15:46:13.622Z</time></trkpt><trkpt lat="43.6098163" lon="11.2523622"><ele>460.0</ele><time>2026-04-22T15:46:56.622Z</time></trkpt><trkpt lat="43.6097738" lon="11.252287"><ele>460.0</ele><time>2026-04-22T15:46:58.621Z</time></trkpt><trkpt lat="43.6097239" lon="11.252232"><ele>460.0</ele><time>2026-04-22T15:47:01.622Z</time></trkpt><trkpt lat="43.6095561" lon="11.2521885"><ele>463.0</ele><time>2026-04-22T15:47:05.621Z</time></trkpt><trkpt lat="43.6094887" lon="11.2521258"><ele>466.0</ele><time>2026-04-22T15:47:08.621Z</time></trkpt><trkpt lat="43.6094204" lon="11.2520505"><ele>469.0</ele><time>2026-04-22T15:47:10.621Z</time></trkpt><trkpt lat="43.6093481" lon="11.2520851"><ele>472.0</ele><time>2026-04-22T15:47:13.621Z</time></trkpt><trkpt lat="43.6093148" lon="11.2521633"><ele>475.0</ele><time>2026-04-22T15:47:15.621Z</time></trkpt><trkpt lat="43.6092795" lon="11.2523487"><ele>475.0</ele><time>2026-04-22T15:47:17.622Z</time></trkpt><trkpt lat="43.6092739" lon="11.2524693"><ele>475.0</ele><time>2026-04-22T15:47:18.622Z</time></trkpt><trkpt lat="43.6092793" lon="11.2525795"><ele>475.0</ele><time>2026-04-22T15:47:19.622Z</time></trkpt><trkpt lat="43.6092973" lon="11.2526794"><ele>475.0</ele><time>2026-04-22T15:47:20.622Z</time></trkpt><trkpt lat="43.6092872" lon="11.2524804"><ele>475.0</ele><time>2026-04-22T15:47:22.621Z</time></trkpt><trkpt lat="43.6093161" lon="11.2523717"><ele>475.00000000000006</ele><time>2026-04-22T15:47:32.621Z</time></trkpt><trkpt lat="43.609354" lon="11.2522991"><ele>475.0</ele><time>2026-04-22T15:47:37.621Z</time></trkpt><trkpt lat="43.6094276" lon="11.2522811"><ele>475.0</ele><time>2026-04-22T15:47:41.621Z</time></trkpt><trkpt lat="43.6095168" lon="11.2522739"><ele>475.0</ele><time>2026-04-22T15:47:44.622Z</time></trkpt><trkpt lat="43.6096063" lon="11.2522835"><ele>475.00000000000006</ele><time>2026-04-22T15:47:47.621Z</time></trkpt><trkpt lat="43.6096734" lon="11.2522894"><ele>475.0</ele><time>2026-04-22T15:47:49.621Z</time></trkpt><trkpt lat="43.6097518" lon="11.2523292"><ele>474.00000000000006</ele><time>2026-04-22T15:47:51.621Z</time></trkpt><trkpt lat="43.609825" lon="11.2523802"><ele>473.0</ele><time>2026-04-22T15:47:53.622Z</time></trkpt><trkpt lat="43.6098953" lon="11.2524434"><ele>472.0</ele><time>2026-04-22T15:47:56.621Z</time></trkpt><trkpt lat="43.6099307" lon="11.2525225"><ele>471.0</ele><time>2026-04-22T15:48:00.622Z</time></trkpt><trkpt lat="43.6099236" lon="11.2526298"><ele>470.00000000000006</ele><time>2026-04-22T15:48:02.621Z</time></trkpt><trkpt lat="43.6098336" lon="11.2527313"><ele>469.0</ele><time>2026-04-22T15:48:04.621Z</time></trkpt><trkpt lat="43.6097538" lon="11.2527891"><ele>469.0</ele><time>2026-04-22T15:48:05.621Z</time></trkpt><trkpt lat="43.6096651" lon="11.2528445"><ele>469.0</ele><time>2026-04-22T15:48:06.622Z</time></trkpt><trkpt lat="43.6095936" lon="11.2529135"><ele>469.0</ele><time>2026-04-22T15:48:07.621Z</time></trkpt><trkpt lat="43.609495" lon="11.2530219"><ele>469.0</ele><time>2026-04-22T15:48:08.622Z</time></trkpt><trkpt lat="43.6093839" lon="11.2531079"><ele>469.0</ele><time>2026-04-22T15:48:09.621Z</time></trkpt><trkpt lat="43.6092498" lon="11.2532019"><ele>468.33333333333337</ele><time>2026-04-22T15:48:10.621Z</time></trkpt><trkpt lat="43.6090834" lon="11.2532741"><ele>467.66666666666663</ele><time>2026-04-22T15:48:11.622Z</time></trkpt><trkpt lat="43.608903" lon="11.2533424"><ele>467.0</ele><time>2026-04-22T15:48:12.622Z</time></trkpt><trkpt lat="43.6087355" lon="11.2534161"><ele>467.66666666666663</ele><time>2026-04-22T15:48:13.621Z</time></trkpt><trkpt lat="43.608575" lon="11.2535078"><ele>468.33333333333337</ele><time>2026-04-22T15:48:14.621Z</time></trkpt><trkpt lat="43.6084232" lon="11.2536362"><ele>469.0</ele><time>2026-04-22T15:48:15.621Z</time></trkpt><trkpt lat="43.6082757" lon="11.2537873"><ele>469.0</ele><time>2026-04-22T15:48:16.621Z</time></trkpt><trkpt lat="43.6081239" lon="11.2539531"><ele>469.0</ele><time>2026-04-22T15:48:17.621Z</time></trkpt><trkpt lat="43.6079694" lon="11.2541108"><ele>469.0</ele><time>2026-04-22T15:48:18.621Z</time></trkpt><trkpt lat="43.6078074" lon="11.2542728"><ele>463.0</ele><time>2026-04-22T15:48:19.621Z</time></trkpt><trkpt lat="43.6076396" lon="11.2544279"><ele>457.0</ele><time>2026-04-22T15:48:20.621Z</time></trkpt><trkpt lat="43.6074552" lon="11.2545858"><ele>451.0</ele><time>2026-04-22T15:48:21.621Z</time></trkpt><trkpt lat="43.6072858" lon="11.254725"><ele>450.6666666666667</ele><time>2026-04-22T15:48:22.621Z</time></trkpt><trkpt lat="43.607118" lon="11.2548722"><ele>450.33333333333337</ele><time>2026-04-22T15:48:23.621Z</time></trkpt><trkpt lat="43.6069381" lon="11.2549944"><ele>450.0</ele><time>2026-04-22T15:48:24.621Z</time></trkpt><trkpt lat="43.6067557" lon="11.2551311"><ele>447.66666666666663</ele><time>2026-04-22T15:48:25.621Z</time></trkpt><trkpt lat="43.6065643" lon="11.2552701"><ele>445.3333333333333</ele><time>2026-04-22T15:48:26.621Z</time></trkpt><trkpt lat="43.6063747" lon="11.255411"><ele>443.0</ele><time>2026-04-22T15:48:27.621Z</time></trkpt><trkpt lat="43.6061891" lon="11.2555487"><ele>446.5</ele><time>2026-04-22T15:48:28.621Z</time></trkpt><trkpt lat="43.6060157" lon="11.2556721"><ele>450.0</ele><time>2026-04-22T15:48:29.622Z</time></trkpt><trkpt lat="43.6076423" lon="11.2550701"><ele>450.0</ele><time>2026-04-22T15:48:30.621Z</time></trkpt><trkpt lat="43.6076118" lon="11.2552185"><ele>450.0</ele><time>2026-04-22T15:48:54.622Z</time></trkpt><trkpt lat="43.6076074" lon="11.2553185"><ele>450.0</ele><time>2026-04-22T15:48:55.622Z</time></trkpt><trkpt lat="43.6075943" lon="11.2554259"><ele>450.0</ele><time>2026-04-22T15:48:56.621Z</time></trkpt><trkpt lat="43.6075802" lon="11.2555737"><ele>450.0</ele><time>2026-04-22T15:48:57.622Z</time></trkpt><trkpt lat="43.6075681" lon="11.2557394"><ele>451.33333333333337</ele><time>2026-04-22T15:48:58.622Z</time></trkpt><trkpt lat="43.6075342" lon="11.2559289"><ele>452.6666666666667</ele><time>2026-04-22T15:48:59.622Z</time></trkpt><trkpt lat="43.6075009" lon="11.2561363"><ele>454.0</ele><time>2026-04-22T15:49:00.621Z</time></trkpt><trkpt lat="43.6074675" lon="11.2563537"><ele>454.0</ele><time>2026-04-22T15:49:01.621Z</time></trkpt><trkpt lat="43.607431" lon="11.2565679"><ele>454.0</ele><time>2026-04-22T15:49:02.622Z</time></trkpt><trkpt lat="43.6073789" lon="11.2567816"><ele>454.0</ele><time>2026-04-22T15:49:03.622Z</time></trkpt><trkpt lat="43.6073235" lon="11.2569828"><ele>454.0</ele><time>2026-04-22T15:49:04.621Z</time></trkpt><trkpt lat="43.6072545" lon="11.2571662"><ele>454.0</ele><time>2026-04-22T15:49:05.622Z</time></trkpt><trkpt lat="43.6071847" lon="11.2573456"><ele>454.0</ele><time>2026-04-22T15:49:06.621Z</time></trkpt><trkpt lat="43.6071165" lon="11.2575201"><ele>454.0</ele><time>2026-04-22T15:49:07.621Z</time></trkpt><trkpt lat="43.6070514" lon="11.2577013"><ele>454.5</ele><time>2026-04-22T15:49:08.621Z</time></trkpt><trkpt lat="43.6069996" lon="11.2578932"><ele>455.0</ele><time>2026-04-22T15:49:09.622Z</time></trkpt><trkpt lat="43.6070204" lon="11.2580372"><ele>455.5</ele><time>2026-04-22T15:49:10.621Z</time></trkpt><trkpt lat="43.6069738" lon="11.2582456"><ele>456.0</ele><time>2026-04-22T15:49:11.621Z</time></trkpt><trkpt lat="43.6069052" lon="11.2584257"><ele>457.4</ele><time>2026-04-22T15:49:12.622Z</time></trkpt><trkpt lat="43.6068276" lon="11.2585779"><ele>458.8</ele><time>2026-04-22T15:49:13.622Z</time></trkpt><trkpt lat="43.6067321" lon="11.2586765"><ele>460.19999999999993</ele><time>2026-04-22T15:49:14.621Z</time></trkpt><trkpt lat="43.6066378" lon="11.2587286"><ele>461.59999999999997</ele><time>2026-04-22T15:49:15.622Z</time></trkpt><trkpt lat="43.6065527" lon="11.2587502"><ele>463.0</ele><time>2026-04-22T15:49:16.622Z</time></trkpt><trkpt lat="43.6063775" lon="11.2588386"><ele>463.0</ele><time>2026-04-22T15:49:17.621Z</time></trkpt><trkpt lat="43.6062101" lon="11.2588613"><ele>463.0</ele><time>2026-04-22T15:49:18.622Z</time></trkpt><trkpt lat="43.606063" lon="11.258866"><ele>463.0</ele><time>2026-04-22T15:49:19.621Z</time></trkpt><trkpt lat="43.6059065" lon="11.2588745"><ele>463.6666666666667</ele><time>2026-04-22T15:49:20.621Z</time></trkpt><trkpt lat="43.6057344" lon="11.25889"><ele>464.33333333333337</ele><time>2026-04-22T15:49:21.621Z</time></trkpt><trkpt lat="43.60555" lon="11.2589017"><ele>465.0</ele><time>2026-04-22T15:49:22.621Z</time></trkpt><trkpt lat="43.6053622" lon="11.258919"><ele>466.0</ele><time>2026-04-22T15:49:23.622Z</time></trkpt><trkpt lat="43.6051673" lon="11.2589313"><ele>467.0</ele><time>2026-04-22T15:49:24.621Z</time></trkpt><trkpt lat="43.6049661" lon="11.2589342"><ele>468.0</ele><time>2026-04-22T15:49:25.621Z</time></trkpt><trkpt lat="43.6047921" lon="11.2589439"><ele>471.0</ele><time>2026-04-22T15:49:26.622Z</time></trkpt><trkpt lat="43.6046004" lon="11.2589541"><ele>474.0</ele><time>2026-04-22T15:49:27.621Z</time></trkpt><trkpt lat="43.6044294" lon="11.2589608"><ele>477.0</ele><time>2026-04-22T15:49:28.622Z</time></trkpt><trkpt lat="43.6042646" lon="11.2589536"><ele>477.33333333333337</ele><time>2026-04-22T15:49:29.621Z</time></trkpt><trkpt lat="43.6041198" lon="11.2589789"><ele>477.6666666666667</ele><time>2026-04-22T15:49:30.621Z</time></trkpt><trkpt lat="43.603949" lon="11.2589883"><ele>478.0</ele><time>2026-04-22T15:49:31.622Z</time></trkpt><trkpt lat="43.6037945" lon="11.2589953"><ele>480.0</ele><time>2026-04-22T15:49:32.622Z</time></trkpt><trkpt lat="43.6036384" lon="11.258985"><ele>482.0</ele><time>2026-04-22T15:49:33.621Z</time></trkpt><trkpt lat="43.6034837" lon="11.2589737"><ele>484.0</ele><time>2026-04-22T15:49:34.621Z</time></trkpt><trkpt lat="43.6033231" lon="11.2589593"><ele>484.0</ele><time>2026-04-22T15:49:35.622Z</time></trkpt><trkpt lat="43.6031528" lon="11.2589427"><ele>484.0</ele><time>2026-04-22T15:49:36.621Z</time></trkpt><trkpt lat="43.6029867" lon="11.2589279"><ele>484.0</ele><time>2026-04-22T15:49:37.621Z</time></trkpt><trkpt lat="43.6028292" lon="11.2589122"><ele>486.25</ele><time>2026-04-22T15:49:38.621Z</time></trkpt><trkpt lat="43.6026842" lon="11.2588852"><ele>488.5</ele><time>2026-04-22T15:49:39.622Z</time></trkpt><trkpt lat="43.6025513" lon="11.2588371"><ele>490.75</ele><time>2026-04-22T15:49:40.622Z</time></trkpt><trkpt lat="43.6024164" lon="11.2587644"><ele>493.0</ele><time>2026-04-22T15:49:41.621Z</time></trkpt><trkpt lat="43.6022837" lon="11.2586596"><ele>493.0</ele><time>2026-04-22T15:49:42.622Z</time></trkpt><trkpt lat="43.6021456" lon="11.2585301"><ele>493.0</ele><time>2026-04-22T15:49:43.621Z</time></trkpt><trkpt lat="43.6020021" lon="11.2584202"><ele>493.0</ele><time>2026-04-22T15:49:44.622Z</time></trkpt><trkpt lat="43.601859" lon="11.2583009"><ele>492.6666666666667</ele><time>2026-04-22T15:49:45.622Z</time></trkpt><trkpt lat="43.6017097" lon="11.258189"><ele>492.33333333333337</ele><time>2026-04-22T15:49:46.621Z</time></trkpt><trkpt lat="43.6015505" lon="11.2580936"><ele>492.0</ele><time>2026-04-22T15:49:47.621Z</time></trkpt><trkpt lat="43.601397" lon="11.2580131"><ele>492.0</ele><time>2026-04-22T15:49:48.621Z</time></trkpt><trkpt lat="43.6012267" lon="11.2579474"><ele>492.0</ele><time>2026-04-22T15:49:49.621Z</time></trkpt><trkpt lat="43.6010525" lon="11.2578844"><ele>492.0</ele><time>2026-04-22T15:49:50.622Z</time></trkpt><trkpt lat="43.6008755" lon="11.2578273"><ele>494.66666666666663</ele><time>2026-04-22T15:49:51.621Z</time></trkpt><trkpt lat="43.6006925" lon="11.2577763"><ele>497.3333333333333</ele><time>2026-04-22T15:49:52.622Z</time></trkpt><trkpt lat="43.6005012" lon="11.2577395"><ele>500.0</ele><time>2026-04-22T15:49:53.621Z</time></trkpt><trkpt lat="43.6003059" lon="11.2577169"><ele>500.3333333333333</ele><time>2026-04-22T15:49:54.621Z</time></trkpt><trkpt lat="43.6001126" lon="11.2577041"><ele>500.66666666666663</ele><time>2026-04-22T15:49:55.621Z</time></trkpt><trkpt lat="43.5999142" lon="11.2577196"><ele>501.0</ele><time>2026-04-22T15:49:56.621Z</time></trkpt><trkpt lat="43.5997124" lon="11.2577463"><ele>501.0</ele><time>2026-04-22T15:49:57.622Z</time></trkpt><trkpt lat="43.5995049" lon="11.257775"><ele>501.0</ele><time>2026-04-22T15:49:58.622Z</time></trkpt><trkpt lat="43.5992875" lon="11.2578153"><ele>501.0</ele><time>2026-04-22T15:49:59.621Z</time></trkpt><trkpt lat="43.5990446" lon="11.2578571"><ele>500.5</ele><time>2026-04-22T15:50:00.622Z</time></trkpt><trkpt lat="43.598813" lon="11.2578986"><ele>500.0</ele><time>2026-04-22T15:50:01.621Z</time></trkpt><trkpt lat="43.5985593" lon="11.2579355"><ele>498.0</ele><time>2026-04-22T15:50:02.622Z</time></trkpt><trkpt lat="43.5982956" lon="11.2579762"><ele>496.0</ele><time>2026-04-22T15:50:03.622Z</time></trkpt><trkpt lat="43.5980472" lon="11.2580166"><ele>494.5</ele><time>2026-04-22T15:50:04.621Z</time></trkpt><trkpt lat="43.5978115" lon="11.2580538"><ele>493.0</ele><time>2026-04-22T15:50:05.621Z</time></trkpt><trkpt lat="43.597584" lon="11.2580933"><ele>498.33333333333337</ele><time>2026-04-22T15:50:06.621Z</time></trkpt><trkpt lat="43.5973771" lon="11.2581223"><ele>503.66666666666663</ele><time>2026-04-22T15:50:07.621Z</time></trkpt><trkpt lat="43.5971699" lon="11.25814"><ele>509.0</ele><time>2026-04-22T15:50:08.621Z</time></trkpt><trkpt lat="43.5969615" lon="11.2581221"><ele>505.0</ele><time>2026-04-22T15:50:09.621Z</time></trkpt><trkpt lat="43.5967619" lon="11.2580901"><ele>501.0</ele><time>2026-04-22T15:50:10.621Z</time></trkpt><trkpt lat="43.5965596" lon="11.2580648"><ele>497.0</ele><time>2026-04-22T15:50:11.621Z</time></trkpt><trkpt lat="43.5963491" lon="11.2580544"><ele>497.66666666666663</ele><time>2026-04-22T15:50:12.621Z</time></trkpt><trkpt lat="43.5961357" lon="11.2580515"><ele>498.33333333333337</ele><time>2026-04-22T15:50:13.621Z</time></trkpt><trkpt lat="43.5959335" lon="11.2580547"><ele>499.0</ele><time>2026-04-22T15:50:14.621Z</time></trkpt><trkpt lat="43.5957464" lon="11.2580649"><ele>499.0</ele><time>2026-04-22T15:50:15.621Z</time></trkpt><trkpt lat="43.5955778" lon="11.258072"><ele>499.0</ele><time>2026-04-22T15:50:16.621Z</time></trkpt><trkpt lat="43.5954206" lon="11.2581064"><ele>499.0</ele><time>2026-04-22T15:50:17.622Z</time></trkpt><trkpt lat="43.5952717" lon="11.2581751"><ele>500.6666666666667</ele><time>2026-04-22T15:50:18.621Z</time></trkpt><trkpt lat="43.5951222" lon="11.2582946"><ele>502.33333333333337</ele><time>2026-04-22T15:50:19.621Z</time></trkpt><trkpt lat="43.5949717" lon="11.2584612"><ele>504.0</ele><time>2026-04-22T15:50:20.622Z</time></trkpt><trkpt lat="43.594815" lon="11.2586593"><ele>504.0</ele><time>2026-04-22T15:50:21.621Z</time></trkpt><trkpt lat="43.594647" lon="11.2588725"><ele>504.0</ele><time>2026-04-22T15:50:22.621Z</time></trkpt><trkpt lat="43.5944674" lon="11.2590967"><ele>502.5</ele><time>2026-04-22T15:50:23.622Z</time></trkpt><trkpt lat="43.5942811" lon="11.2593233"><ele>501.0</ele><time>2026-04-22T15:50:24.621Z</time></trkpt><trkpt lat="43.5941028" lon="11.2595394"><ele>501.0</ele><time>2026-04-22T15:50:25.622Z</time></trkpt><trkpt lat="43.5939301" lon="11.2597579"><ele>501.0</ele><time>2026-04-22T15:50:26.621Z</time></trkpt><trkpt lat="43.5937741" lon="11.2599669"><ele>503.33333333333337</ele><time>2026-04-22T15:50:27.621Z</time></trkpt><trkpt lat="43.593625" lon="11.2601612"><ele>505.6666666666667</ele><time>2026-04-22T15:50:28.621Z</time></trkpt><trkpt lat="43.5934766" lon="11.260332"><ele>508.0</ele><time>2026-04-22T15:50:29.622Z</time></trkpt><trkpt lat="43.5933184" lon="11.2604765"><ele>508.0</ele><time>2026-04-22T15:50:30.622Z</time></trkpt><trkpt lat="43.5931463" lon="11.2605873"><ele>508.0</ele><time>2026-04-22T15:50:31.621Z</time></trkpt><trkpt lat="43.5929705" lon="11.2606768"><ele>508.0</ele><time>2026-04-22T15:50:32.622Z</time></trkpt><trkpt lat="43.5927951" lon="11.2607407"><ele>512.0</ele><time>2026-04-22T15:50:33.622Z</time></trkpt><trkpt lat="43.5926336" lon="11.260805"><ele>516.0</ele><time>2026-04-22T15:50:34.622Z</time></trkpt><trkpt lat="43.5924814" lon="11.2608564"><ele>520.0</ele><time>2026-04-22T15:50:35.621Z</time></trkpt><trkpt lat="43.5923392" lon="11.2608766"><ele>520.0</ele><time>2026-04-22T15:50:36.621Z</time></trkpt><trkpt lat="43.5921893" lon="11.2608539"><ele>520.0</ele><time>2026-04-22T15:50:37.621Z</time></trkpt><trkpt lat="43.5920431" lon="11.2607702"><ele>520.0</ele><time>2026-04-22T15:50:38.621Z</time></trkpt><trkpt lat="43.5918917" lon="11.2606474"><ele>524.6666666666667</ele><time>2026-04-22T15:50:39.621Z</time></trkpt><trkpt lat="43.5917399" lon="11.2605291"><ele>529.3333333333334</ele><time>2026-04-22T15:50:40.621Z</time></trkpt><trkpt lat="43.5915917" lon="11.260423"><ele>534.0</ele><time>2026-04-22T15:50:41.621Z</time></trkpt><trkpt lat="43.5914331" lon="11.2603584"><ele>534.0</ele><time>2026-04-22T15:50:42.622Z</time></trkpt><trkpt lat="43.5912431" lon="11.2603642"><ele>534.0</ele><time>2026-04-22T15:50:43.622Z</time></trkpt><trkpt lat="43.591042" lon="11.2603948"><ele>534.0</ele><time>2026-04-22T15:50:44.622Z</time></trkpt><trkpt lat="43.5908397" lon="11.2604532"><ele>534.3333333333334</ele><time>2026-04-22T15:50:45.622Z</time></trkpt><trkpt lat="43.5906368" lon="11.2605207"><ele>534.6666666666667</ele><time>2026-04-22T15:50:46.622Z</time></trkpt><trkpt lat="43.5904364" lon="11.2605972"><ele>535.0</ele><time>2026-04-22T15:50:47.621Z</time></trkpt><trkpt lat="43.5902547" lon="11.2606896"><ele>536.3333333333334</ele><time>2026-04-22T15:50:48.621Z</time></trkpt><trkpt lat="43.5900924" lon="11.26079"><ele>537.6666666666666</ele><time>2026-04-22T15:50:49.622Z</time></trkpt><trkpt lat="43.58995" lon="11.26089"><ele>539.0</ele><time>2026-04-22T15:50:50.622Z</time></trkpt><trkpt lat="43.589829" lon="11.260982"><ele>539.0</ele><time>2026-04-22T15:50:51.621Z</time></trkpt><trkpt lat="43.5897168" lon="11.2610724"><ele>539.0</ele><time>2026-04-22T15:50:52.621Z</time></trkpt><trkpt lat="43.5896262" lon="11.261184"><ele>539.0</ele><time>2026-04-22T15:50:53.621Z</time></trkpt><trkpt lat="43.5895521" lon="11.2613333"><ele>539.0</ele><time>2026-04-22T15:50:54.621Z</time></trkpt><trkpt lat="43.5894992" lon="11.2615084"><ele>536.6666666666666</ele><time>2026-04-22T15:50:55.621Z</time></trkpt><trkpt lat="43.589462" lon="11.2617123"><ele>534.3333333333334</ele><time>2026-04-22T15:50:56.622Z</time></trkpt><trkpt lat="43.5894298" lon="11.2619407"><ele>532.0</ele><time>2026-04-22T15:50:57.622Z</time></trkpt><trkpt lat="43.5893977" lon="11.262167"><ele>531.3333333333334</ele><time>2026-04-22T15:50:58.622Z</time></trkpt><trkpt lat="43.5893465" lon="11.2623741"><ele>530.6666666666666</ele><time>2026-04-22T15:50:59.622Z</time></trkpt><trkpt lat="43.5892751" lon="11.2625731"><ele>530.0</ele><time>2026-04-22T15:51:00.622Z</time></trkpt><trkpt lat="43.5892048" lon="11.2627588"><ele>530.0</ele><time>2026-04-22T15:51:01.622Z</time></trkpt><trkpt lat="43.5891373" lon="11.262939"><ele>530.0</ele><time>2026-04-22T15:51:02.622Z</time></trkpt><trkpt lat="43.5890628" lon="11.2631114"><ele>530.0</ele><time>2026-04-22T15:51:03.621Z</time></trkpt><trkpt lat="43.5889829" lon="11.2632624"><ele>530.0</ele><time>2026-04-22T15:51:04.621Z</time></trkpt><trkpt lat="43.5888974" lon="11.2633969"><ele>530.75</ele><time>2026-04-22T15:51:05.622Z</time></trkpt><trkpt lat="43.5888091" lon="11.2635187"><ele>531.5</ele><time>2026-04-22T15:51:06.622Z</time></trkpt><trkpt lat="43.5887151" lon="11.2636376"><ele>532.25</ele><time>2026-04-22T15:51:07.621Z</time></trkpt><trkpt lat="43.5886194" lon="11.2637504"><ele>533.0</ele><time>2026-04-22T15:51:08.622Z</time></trkpt><trkpt lat="43.58854" lon="11.2638567"><ele>530.4</ele><time>2026-04-22T15:51:09.621Z</time></trkpt><trkpt lat="43.5884594" lon="11.2639669"><ele>527.8</ele><time>2026-04-22T15:51:10.621Z</time></trkpt><trkpt lat="43.5883925" lon="11.2640855"><ele>525.2</ele><time>2026-04-22T15:51:11.622Z</time></trkpt><trkpt lat="43.5883315" lon="11.2642036"><ele>522.6</ele><time>2026-04-22T15:51:12.621Z</time></trkpt><trkpt lat="43.588276" lon="11.264321"><ele>520.0</ele><time>2026-04-22T15:51:13.622Z</time></trkpt><trkpt lat="43.5882402" lon="11.2644379"><ele>520.0</ele><time>2026-04-22T15:51:14.622Z</time></trkpt><trkpt lat="43.5882327" lon="11.2645749"><ele>520.0</ele><time>2026-04-22T15:51:15.622Z</time></trkpt><trkpt lat="43.5882526" lon="11.2647292"><ele>520.0</ele><time>2026-04-22T15:51:16.622Z</time></trkpt><trkpt lat="43.5882729" lon="11.2648659"><ele>520.0</ele><time>2026-04-22T15:51:17.622Z</time></trkpt><trkpt lat="43.5882915" lon="11.2649991"><ele>520.0</ele><time>2026-04-22T15:51:18.621Z</time></trkpt><trkpt lat="43.5883072" lon="11.2651292"><ele>519.0</ele><time>2026-04-22T15:51:19.622Z</time></trkpt><trkpt lat="43.5883106" lon="11.2652687"><ele>518.0</ele><time>2026-04-22T15:51:20.621Z</time></trkpt><trkpt lat="43.5882968" lon="11.2654281"><ele>517.0</ele><time>2026-04-22T15:51:21.621Z</time></trkpt><trkpt lat="43.5882638" lon="11.2655998"><ele>516.0</ele><time>2026-04-22T15:51:22.621Z</time></trkpt><trkpt lat="43.5882476" lon="11.2657664"><ele>514.0</ele><time>2026-04-22T15:51:23.621Z</time></trkpt><trkpt lat="43.588231" lon="11.265927"><ele>512.0</ele><time>2026-04-22T15:51:24.622Z</time></trkpt><trkpt lat="43.5882155" lon="11.2660803"><ele>510.0</ele><time>2026-04-22T15:51:25.622Z</time></trkpt><trkpt lat="43.5881821" lon="11.2662139"><ele>508.0</ele><time>2026-04-22T15:51:26.622Z</time></trkpt><trkpt lat="43.5881363" lon="11.2663567"><ele>506.0</ele><time>2026-04-22T15:51:27.621Z</time></trkpt><trkpt lat="43.5880738" lon="11.2664983"><ele>504.25</ele><time>2026-04-22T15:51:28.622Z</time></trkpt><trkpt lat="43.5880136" lon="11.2666428"><ele>502.5</ele><time>2026-04-22T15:51:29.621Z</time></trkpt><trkpt lat="43.5879752" lon="11.2667999"><ele>500.75</ele><time>2026-04-22T15:51:30.62Z</time></trkpt><trkpt lat="43.5879457" lon="11.266985"><ele>499.0</ele><time>2026-04-22T15:51:31.62Z</time></trkpt><trkpt lat="43.5879144" lon="11.2671622"><ele>497.75</ele><time>2026-04-22T15:51:32.62Z</time></trkpt><trkpt lat="43.5878757" lon="11.2673175"><ele>496.5</ele><time>2026-04-22T15:51:33.621Z</time></trkpt><trkpt lat="43.5878292" lon="11.267481"><ele>495.25</ele><time>2026-04-22T15:51:34.621Z</time></trkpt><trkpt lat="43.5877819" lon="11.2676189"><ele>494.0</ele><time>2026-04-22T15:51:35.62Z</time></trkpt><trkpt lat="43.587737" lon="11.2677803"><ele>494.0</ele><time>2026-04-22T15:51:36.62Z</time></trkpt><trkpt lat="43.5876771" lon="11.2679023"><ele>494.0</ele><time>2026-04-22T15:51:37.62Z</time></trkpt><trkpt lat="43.5875891" lon="11.2680041"><ele>494.0</ele><time>2026-04-22T15:51:38.621Z</time></trkpt><trkpt lat="43.5874842" lon="11.2680908"><ele>494.0</ele><time>2026-04-22T15:51:39.621Z</time></trkpt><trkpt lat="43.5873701" lon="11.2681584"><ele>492.0</ele><time>2026-04-22T15:51:40.62Z</time></trkpt><trkpt lat="43.5872389" lon="11.2682088"><ele>490.0</ele><time>2026-04-22T15:51:41.62Z</time></trkpt><trkpt lat="43.5871004" lon="11.2682411"><ele>488.0</ele><time>2026-04-22T15:51:42.62Z</time></trkpt><trkpt lat="43.5869568" lon="11.268262"><ele>486.0</ele><time>2026-04-22T15:51:43.621Z</time></trkpt><trkpt lat="43.5868048" lon="11.2682722"><ele>484.66666666666663</ele><time>2026-04-22T15:51:44.621Z</time></trkpt><trkpt lat="43.5866355" lon="11.2683159"><ele>483.3333333333333</ele><time>2026-04-22T15:51:45.62Z</time></trkpt><trkpt lat="43.5864668" lon="11.2683834"><ele>482.0</ele><time>2026-04-22T15:51:46.62Z</time></trkpt><trkpt lat="43.586305" lon="11.2684504"><ele>482.0</ele><time>2026-04-22T15:51:47.62Z</time></trkpt><trkpt lat="43.586142" lon="11.2685288"><ele>482.0</ele><time>2026-04-22T15:51:48.62Z</time></trkpt><trkpt lat="43.5859901" lon="11.268682"><ele>482.0</ele><time>2026-04-22T15:51:49.621Z</time></trkpt><trkpt lat="43.5858554" lon="11.268761"><ele>482.0</ele><time>2026-04-22T15:51:50.62Z</time></trkpt><trkpt lat="43.5857113" lon="11.2688301"><ele>482.0</ele><time>2026-04-22T15:51:51.621Z</time></trkpt><trkpt lat="43.5855603" lon="11.2688874"><ele>482.0</ele><time>2026-04-22T15:51:52.62Z</time></trkpt><trkpt lat="43.5854071" lon="11.2689381"><ele>482.3333333333333</ele><time>2026-04-22T15:51:53.62Z</time></trkpt><trkpt lat="43.5852546" lon="11.2689577"><ele>482.66666666666663</ele><time>2026-04-22T15:51:54.621Z</time></trkpt><trkpt lat="43.5850953" lon="11.2689677"><ele>483.0</ele><time>2026-04-22T15:51:55.62Z</time></trkpt><trkpt lat="43.5849436" lon="11.2689817"><ele>483.0</ele><time>2026-04-22T15:51:56.62Z</time></trkpt><trkpt lat="43.5848051" lon="11.2690076"><ele>483.0</ele><time>2026-04-22T15:51:57.62Z</time></trkpt><trkpt lat="43.5846561" lon="11.269049"><ele>483.0</ele><time>2026-04-22T15:51:58.62Z</time></trkpt><trkpt lat="43.584501" lon="11.2691205"><ele>483.33333333333337</ele><time>2026-04-22T15:51:59.621Z</time></trkpt><trkpt lat="43.5843447" lon="11.2692042"><ele>483.6666666666667</ele><time>2026-04-22T15:52:00.621Z</time></trkpt><trkpt lat="43.5841944" lon="11.2692982"><ele>484.0</ele><time>2026-04-22T15:52:01.621Z</time></trkpt><trkpt lat="43.5840397" lon="11.2693984"><ele>484.0</ele><time>2026-04-22T15:52:02.62Z</time></trkpt><trkpt lat="43.5838889" lon="11.2695031"><ele>484.0</ele><time>2026-04-22T15:52:03.62Z</time></trkpt><trkpt lat="43.5837373" lon="11.2696106"><ele>484.0</ele><time>2026-04-22T15:52:04.621Z</time></trkpt><trkpt lat="43.5835893" lon="11.2697324"><ele>483.6666666666667</ele><time>2026-04-22T15:52:05.621Z</time></trkpt><trkpt lat="43.5834441" lon="11.269857"><ele>483.33333333333337</ele><time>2026-04-22T15:52:06.621Z</time></trkpt><trkpt lat="43.5833042" lon="11.269984"><ele>483.0</ele><time>2026-04-22T15:52:07.62Z</time></trkpt><trkpt lat="43.5831632" lon="11.2701173"><ele>483.0</ele><time>2026-04-22T15:52:08.62Z</time></trkpt><trkpt lat="43.5830155" lon="11.270247"><ele>483.0</ele><time>2026-04-22T15:52:09.62Z</time></trkpt><trkpt lat="43.5828698" lon="11.2703791"><ele>483.0</ele><time>2026-04-22T15:52:10.621Z</time></trkpt><trkpt lat="43.5827236" lon="11.2705017"><ele>483.0</ele><time>2026-04-22T15:52:11.62Z</time></trkpt><trkpt lat="43.5825735" lon="11.270613"><ele>483.0</ele><time>2026-04-22T15:52:12.62Z</time></trkpt><trkpt lat="43.5824147" lon="11.2707181"><ele>483.0</ele><time>2026-04-22T15:52:13.62Z</time></trkpt><trkpt lat="43.5822571" lon="11.2708275"><ele>483.0</ele><time>2026-04-22T15:52:14.62Z</time></trkpt><trkpt lat="43.5820911" lon="11.2709467"><ele>483.0</ele><time>2026-04-22T15:52:15.62Z</time></trkpt><trkpt lat="43.5819111" lon="11.2710832"><ele>483.0</ele><time>2026-04-22T15:52:16.62Z</time></trkpt><trkpt lat="43.5817312" lon="11.2712202"><ele>482.66666666666663</ele><time>2026-04-22T15:52:17.62Z</time></trkpt><trkpt lat="43.5815581" lon="11.2713427"><ele>482.3333333333333</ele><time>2026-04-22T15:52:18.62Z</time></trkpt><trkpt lat="43.5813846" lon="11.271471"><ele>482.0</ele><time>2026-04-22T15:52:19.62Z</time></trkpt><trkpt lat="43.5812456" lon="11.2716196"><ele>479.66666666666663</ele><time>2026-04-22T15:52:20.62Z</time></trkpt><trkpt lat="43.5810918" lon="11.2717929"><ele>477.33333333333337</ele><time>2026-04-22T15:52:21.62Z</time></trkpt><trkpt lat="43.5809148" lon="11.2719789"><ele>475.0</ele><time>2026-04-22T15:52:22.621Z</time></trkpt><trkpt lat="43.5807252" lon="11.2721275"><ele>475.0</ele><time>2026-04-22T15:52:23.621Z</time></trkpt><trkpt lat="43.5804916" lon="11.2722727"><ele>475.0</ele><time>2026-04-22T15:52:24.62Z</time></trkpt><trkpt lat="43.5802435" lon="11.2723594"><ele>476.33333333333337</ele><time>2026-04-22T15:52:25.621Z</time></trkpt><trkpt lat="43.5799981" lon="11.2724014"><ele>477.66666666666663</ele><time>2026-04-22T15:52:26.621Z</time></trkpt><trkpt lat="43.5798014" lon="11.2724521"><ele>479.0</ele><time>2026-04-22T15:52:27.62Z</time></trkpt><trkpt lat="43.5795534" lon="11.272533"><ele>479.0</ele><time>2026-04-22T15:52:28.621Z</time></trkpt><trkpt lat="43.5793054" lon="11.2726517"><ele>479.0</ele><time>2026-04-22T15:52:29.62Z</time></trkpt><trkpt lat="43.5790406" lon="11.2727819"><ele>479.0</ele><time>2026-04-22T15:52:30.621Z</time></trkpt><trkpt lat="43.5787834" lon="11.2729114"><ele>479.0</ele><time>2026-04-22T15:52:31.621Z</time></trkpt><trkpt lat="43.5785242" lon="11.2730578"><ele>479.0</ele><time>2026-04-22T15:52:32.62Z</time></trkpt><trkpt lat="43.5782467" lon="11.2732298"><ele>479.0</ele><time>2026-04-22T15:52:33.62Z</time></trkpt><trkpt lat="43.5796424" lon="11.2727103"><ele>479.0</ele><time>2026-04-22T15:52:34.621Z</time></trkpt><trkpt lat="43.5795087" lon="11.2728306"><ele>479.0</ele><time>2026-04-22T15:52:35.62Z</time></trkpt><trkpt lat="43.5793729" lon="11.2729393"><ele>479.0</ele><time>2026-04-22T15:52:36.621Z</time></trkpt><trkpt lat="43.5792438" lon="11.2730496"><ele>481.4</ele><time>2026-04-22T15:52:37.62Z</time></trkpt><trkpt lat="43.5791288" lon="11.2731459"><ele>483.79999999999995</ele><time>2026-04-22T15:52:38.62Z</time></trkpt><trkpt lat="43.5790302" lon="11.273228"><ele>486.20000000000005</ele><time>2026-04-22T15:52:39.621Z</time></trkpt><trkpt lat="43.5789524" lon="11.2733107"><ele>488.6</ele><time>2026-04-22T15:52:40.62Z</time></trkpt><trkpt lat="43.5789001" lon="11.2734047"><ele>491.0</ele><time>2026-04-22T15:52:41.62Z</time></trkpt><trkpt lat="43.5788746" lon="11.2735117"><ele>490.99999999999994</ele><time>2026-04-22T15:52:42.621Z</time></trkpt><trkpt lat="43.5788564" lon="11.2736189"><ele>491.0</ele><time>2026-04-22T15:52:43.621Z</time></trkpt><trkpt lat="43.5788261" lon="11.2737111"><ele>491.0</ele><time>2026-04-22T15:52:44.621Z</time></trkpt><trkpt lat="43.5787637" lon="11.2737822"><ele>491.0</ele><time>2026-04-22T15:52:45.62Z</time></trkpt><trkpt lat="43.5786756" lon="11.273818"><ele>490.99999999999994</ele><time>2026-04-22T15:52:46.62Z</time></trkpt><trkpt lat="43.5785689" lon="11.2738204"><ele>491.0</ele><time>2026-04-22T15:52:47.62Z</time></trkpt><trkpt lat="43.5784577" lon="11.2738375"><ele>491.0</ele><time>2026-04-22T15:52:48.62Z</time></trkpt><trkpt lat="43.5783389" lon="11.2738507"><ele>491.0</ele><time>2026-04-22T15:52:49.62Z</time></trkpt><trkpt lat="43.578225" lon="11.2738794"><ele>491.0</ele><time>2026-04-22T15:52:50.621Z</time></trkpt><trkpt lat="43.5781196" lon="11.2739442"><ele>491.0</ele><time>2026-04-22T15:52:51.62Z</time></trkpt><trkpt lat="43.5780151" lon="11.2740484"><ele>493.0</ele><time>2026-04-22T15:52:52.621Z</time></trkpt><trkpt lat="43.5779069" lon="11.2741844"><ele>495.0</ele><time>2026-04-22T15:52:53.62Z</time></trkpt><trkpt lat="43.5778016" lon="11.2743378"><ele>497.0</ele><time>2026-04-22T15:52:54.621Z</time></trkpt><trkpt lat="43.5776848" lon="11.2744992"><ele>501.0</ele><time>2026-04-22T15:52:55.62Z</time></trkpt><trkpt lat="43.5775476" lon="11.2746547"><ele>505.0</ele><time>2026-04-22T15:52:56.62Z</time></trkpt><trkpt lat="43.5774036" lon="11.2748083"><ele>509.0</ele><time>2026-04-22T15:52:57.62Z</time></trkpt><trkpt lat="43.5772405" lon="11.2749585"><ele>509.66666666666663</ele><time>2026-04-22T15:52:58.62Z</time></trkpt><trkpt lat="43.5770809" lon="11.2751074"><ele>510.33333333333337</ele><time>2026-04-22T15:52:59.621Z</time></trkpt><trkpt lat="43.5769261" lon="11.2752503"><ele>511.0</ele><time>2026-04-22T15:53:00.621Z</time></trkpt><trkpt lat="43.5767723" lon="11.2753898"><ele>514.3333333333334</ele><time>2026-04-22T15:53:01.62Z</time></trkpt><trkpt lat="43.5766308" lon="11.2755164"><ele>517.6666666666666</ele><time>2026-04-22T15:53:02.62Z</time></trkpt><trkpt lat="43.576498" lon="11.2756254"><ele>521.0</ele><time>2026-04-22T15:53:03.62Z</time></trkpt><trkpt lat="43.5763683" lon="11.2757273"><ele>521.0</ele><time>2026-04-22T15:53:04.62Z</time></trkpt><trkpt lat="43.57624" lon="11.2758255"><ele>521.0</ele><time>2026-04-22T15:53:05.62Z</time></trkpt><trkpt lat="43.576112" lon="11.2759187"><ele>521.0</ele><time>2026-04-22T15:53:06.621Z</time></trkpt><trkpt lat="43.5759758" lon="11.2760029"><ele>521.0</ele><time>2026-04-22T15:53:07.62Z</time></trkpt><trkpt lat="43.575847" lon="11.2760826"><ele>520.5</ele><time>2026-04-22T15:53:08.621Z</time></trkpt><trkpt lat="43.5757183" lon="11.2761521"><ele>520.0</ele><time>2026-04-22T15:53:09.62Z</time></trkpt><trkpt lat="43.5755893" lon="11.2762244"><ele>519.5</ele><time>2026-04-22T15:53:10.62Z</time></trkpt><trkpt lat="43.5754574" lon="11.2763052"><ele>519.0</ele><time>2026-04-22T15:53:11.621Z</time></trkpt><trkpt lat="43.5753252" lon="11.2763867"><ele>519.0</ele><time>2026-04-22T15:53:12.621Z</time></trkpt><trkpt lat="43.5751885" lon="11.2764672"><ele>519.0</ele><time>2026-04-22T15:53:13.62Z</time></trkpt><trkpt lat="43.5750546" lon="11.2765398"><ele>519.0</ele><time>2026-04-22T15:53:14.62Z</time></trkpt><trkpt lat="43.5749442" lon="11.2766223"><ele>519.0</ele><time>2026-04-22T15:53:15.621Z</time></trkpt><trkpt lat="43.5748035" lon="11.2766705"><ele>519.0</ele><time>2026-04-22T15:53:16.621Z</time></trkpt><trkpt lat="43.5746735" lon="11.2767543"><ele>519.0</ele><time>2026-04-22T15:53:17.62Z</time></trkpt><trkpt lat="43.5745525" lon="11.2768205"><ele>519.0</ele><time>2026-04-22T15:53:18.621Z</time></trkpt><trkpt lat="43.5744299" lon="11.2769021"><ele>519.0</ele><time>2026-04-22T15:53:19.62Z</time></trkpt><trkpt lat="43.5743035" lon="11.2770046"><ele>517.75</ele><time>2026-04-22T15:53:20.62Z</time></trkpt><trkpt lat="43.5741875" lon="11.2771125"><ele>516.5</ele><time>2026-04-22T15:53:21.62Z</time></trkpt><trkpt lat="43.5740888" lon="11.2772237"><ele>515.25</ele><time>2026-04-22T15:53:22.62Z</time></trkpt><trkpt lat="43.5739727" lon="11.2773137"><ele>514.0</ele><time>2026-04-22T15:53:23.62Z</time></trkpt><trkpt lat="43.5738702" lon="11.2774265"><ele>514.0</ele><time>2026-04-22T15:53:24.62Z</time></trkpt><trkpt lat="43.5737756" lon="11.2775618"><ele>514.0</ele><time>2026-04-22T15:53:25.621Z</time></trkpt><trkpt lat="43.573685" lon="11.2777056"><ele>514.0</ele><time>2026-04-22T15:53:26.62Z</time></trkpt><trkpt lat="43.5735863" lon="11.2778409"><ele>514.0</ele><time>2026-04-22T15:53:27.62Z</time></trkpt><trkpt lat="43.5734843" lon="11.2779652"><ele>512.0</ele><time>2026-04-22T15:53:28.621Z</time></trkpt><trkpt lat="43.5733861" lon="11.278088"><ele>510.0</ele><time>2026-04-22T15:53:29.62Z</time></trkpt><trkpt lat="43.5732795" lon="11.2781975"><ele>508.0</ele><time>2026-04-22T15:53:30.62Z</time></trkpt><trkpt lat="43.5731713" lon="11.2782891"><ele>506.0</ele><time>2026-04-22T15:53:31.621Z</time></trkpt><trkpt lat="43.5730717" lon="11.2783625"><ele>506.0</ele><time>2026-04-22T15:53:32.621Z</time></trkpt><trkpt lat="43.5729782" lon="11.2784235"><ele>506.0</ele><time>2026-04-22T15:53:33.621Z</time></trkpt><trkpt lat="43.5729012" lon="11.2784834"><ele>506.0</ele><time>2026-04-22T15:53:34.62Z</time></trkpt><trkpt lat="43.5728288" lon="11.2785561"><ele>506.0</ele><time>2026-04-22T15:53:35.621Z</time></trkpt><trkpt lat="43.5727463" lon="11.2786409"><ele>506.0</ele><time>2026-04-22T15:53:36.62Z</time></trkpt><trkpt lat="43.5726565" lon="11.2787471"><ele>504.5</ele><time>2026-04-22T15:53:37.62Z</time></trkpt><trkpt lat="43.5725691" lon="11.2788539"><ele>503.0</ele><time>2026-04-22T15:53:38.62Z</time></trkpt><trkpt lat="43.5724812" lon="11.2789575"><ele>501.5</ele><time>2026-04-22T15:53:39.62Z</time></trkpt><trkpt lat="43.5723941" lon="11.2790639"><ele>500.0</ele><time>2026-04-22T15:53:40.62Z</time></trkpt><trkpt lat="43.572321" lon="11.2791834"><ele>499.6</ele><time>2026-04-22T15:53:41.62Z</time></trkpt><trkpt lat="43.5722693" lon="11.2793056"><ele>499.2</ele><time>2026-04-22T15:53:42.621Z</time></trkpt><trkpt lat="43.5722247" lon="11.2794447"><ele>498.79999999999995</ele><time>2026-04-22T15:53:43.621Z</time></trkpt><trkpt lat="43.5721783" lon="11.2795534"><ele>498.4</ele><time>2026-04-22T15:53:44.621Z</time></trkpt><trkpt lat="43.5721241" lon="11.2796843"><ele>498.0</ele><time>2026-04-22T15:53:45.62Z</time></trkpt><trkpt lat="43.5720511" lon="11.2798215"><ele>495.25</ele><time>2026-04-22T15:53:46.62Z</time></trkpt><trkpt lat="43.5719554" lon="11.2799501"><ele>492.5</ele><time>2026-04-22T15:53:47.62Z</time></trkpt><trkpt lat="43.5718488" lon="11.2800678"><ele>489.75</ele><time>2026-04-22T15:53:48.62Z</time></trkpt><trkpt lat="43.5717271" lon="11.2801786"><ele>487.0</ele><time>2026-04-22T15:53:49.62Z</time></trkpt><trkpt lat="43.5716008" lon="11.2802433"><ele>487.0</ele><time>2026-04-22T15:53:50.62Z</time></trkpt><trkpt lat="43.5715134" lon="11.2802562"><ele>487.00000000000006</ele><time>2026-04-22T15:53:51.62Z</time></trkpt><trkpt lat="43.5714188" lon="11.2802523"><ele>487.00000000000006</ele><time>2026-04-22T15:53:52.62Z</time></trkpt><trkpt lat="43.5713075" lon="11.2802658"><ele>487.0</ele><time>2026-04-22T15:53:53.62Z</time></trkpt><trkpt lat="43.5712015" lon="11.2802666"><ele>487.0</ele><time>2026-04-22T15:53:54.621Z</time></trkpt><trkpt lat="43.5711021" lon="11.2802475"><ele>484.83333333333337</ele><time>2026-04-22T15:53:55.621Z</time></trkpt><trkpt lat="43.5710085" lon="11.2802242"><ele>482.6666666666667</ele><time>2026-04-22T15:53:56.621Z</time></trkpt><trkpt lat="43.5709237" lon="11.280196"><ele>480.5</ele><time>2026-04-22T15:53:57.621Z</time></trkpt><trkpt lat="43.5708432" lon="11.2801503"><ele>478.33333333333337</ele><time>2026-04-22T15:53:58.62Z</time></trkpt><trkpt lat="43.570773" lon="11.2801089"><ele>476.1666666666667</ele><time>2026-04-22T15:53:59.621Z</time></trkpt><trkpt lat="43.5707001" lon="11.2800855"><ele>474.0</ele><time>2026-04-22T15:54:00.62Z</time></trkpt><trkpt lat="43.5705913" lon="11.2801391"><ele>474.0</ele><time>2026-04-22T15:54:02.621Z</time></trkpt><trkpt lat="43.5705538" lon="11.2802102"><ele>474.0</ele><time>2026-04-22T15:54:03.62Z</time></trkpt><trkpt lat="43.5705385" lon="11.2803123"><ele>474.0</ele><time>2026-04-22T15:54:04.621Z</time></trkpt><trkpt lat="43.5705504" lon="11.2804598"><ele>474.0</ele><time>2026-04-22T15:54:05.62Z</time></trkpt><trkpt lat="43.5705802" lon="11.280609"><ele>474.0</ele><time>2026-04-22T15:54:06.621Z</time></trkpt><trkpt lat="43.5706118" lon="11.2807451"><ele>472.25</ele><time>2026-04-22T15:54:07.62Z</time></trkpt><trkpt lat="43.5706496" lon="11.2808702"><ele>470.5</ele><time>2026-04-22T15:54:08.621Z</time></trkpt><trkpt lat="43.5707177" lon="11.2809918"><ele>468.75</ele><time>2026-04-22T15:54:09.621Z</time></trkpt><trkpt lat="43.5708138" lon="11.2810994"><ele>467.0</ele><time>2026-04-22T15:54:10.62Z</time></trkpt><trkpt lat="43.570918" lon="11.2811894"><ele>467.0</ele><time>2026-04-22T15:54:11.62Z</time></trkpt><trkpt lat="43.5710197" lon="11.2812718"><ele>467.00000000000006</ele><time>2026-04-22T15:54:12.621Z</time></trkpt><trkpt lat="43.5711148" lon="11.2813392"><ele>467.00000000000006</ele><time>2026-04-22T15:54:13.62Z</time></trkpt><trkpt lat="43.5712051" lon="11.2813849"><ele>467.0</ele><time>2026-04-22T15:54:14.621Z</time></trkpt><trkpt lat="43.5712864" lon="11.2814466"><ele>467.0</ele><time>2026-04-22T15:54:15.62Z</time></trkpt><trkpt lat="43.5713632" lon="11.2815369"><ele>465.20000000000005</ele><time>2026-04-22T15:54:16.621Z</time></trkpt><trkpt lat="43.5714336" lon="11.2816308"><ele>463.40000000000003</ele><time>2026-04-22T15:54:17.62Z</time></trkpt><trkpt lat="43.5714797" lon="11.2817403"><ele>461.59999999999997</ele><time>2026-04-22T15:54:18.62Z</time></trkpt><trkpt lat="43.5714954" lon="11.2818924"><ele>459.79999999999995</ele><time>2026-04-22T15:54:19.62Z</time></trkpt><trkpt lat="43.5714786" lon="11.2820398"><ele>458.0</ele><time>2026-04-22T15:54:20.62Z</time></trkpt><trkpt lat="43.5714275" lon="11.2821915"><ele>456.0</ele><time>2026-04-22T15:54:21.621Z</time></trkpt><trkpt lat="43.571358" lon="11.2823395"><ele>454.0</ele><time>2026-04-22T15:54:22.621Z</time></trkpt><trkpt lat="43.5712744" lon="11.2824825"><ele>452.0</ele><time>2026-04-22T15:54:23.62Z</time></trkpt><trkpt lat="43.5711822" lon="11.2826321"><ele>450.0</ele><time>2026-04-22T15:54:24.62Z</time></trkpt><trkpt lat="43.5710974" lon="11.2828017"><ele>450.0</ele><time>2026-04-22T15:54:25.62Z</time></trkpt><trkpt lat="43.571022" lon="11.2829894"><ele>450.0</ele><time>2026-04-22T15:54:26.621Z</time></trkpt><trkpt lat="43.5709341" lon="11.283168"><ele>450.0</ele><time>2026-04-22T15:54:27.62Z</time></trkpt><trkpt lat="43.5708525" lon="11.283343"><ele>449.5</ele><time>2026-04-22T15:54:28.62Z</time></trkpt><trkpt lat="43.5707678" lon="11.2835108"><ele>449.0</ele><time>2026-04-22T15:54:29.621Z</time></trkpt><trkpt lat="43.5706953" lon="11.2836682"><ele>448.5</ele><time>2026-04-22T15:54:30.62Z</time></trkpt><trkpt lat="43.5706544" lon="11.2838384"><ele>448.0</ele><time>2026-04-22T15:54:31.621Z</time></trkpt><trkpt lat="43.5706017" lon="11.2839822"><ele>446.0</ele><time>2026-04-22T15:54:32.621Z</time></trkpt><trkpt lat="43.5705338" lon="11.2841029"><ele>444.0</ele><time>2026-04-22T15:54:33.62Z</time></trkpt><trkpt lat="43.5704446" lon="11.2842058"><ele>442.0</ele><time>2026-04-22T15:54:34.62Z</time></trkpt><trkpt lat="43.5703297" lon="11.2842906"><ele>440.0</ele><time>2026-04-22T15:54:35.62Z</time></trkpt><trkpt lat="43.5701899" lon="11.2843592"><ele>438.5</ele><time>2026-04-22T15:54:36.621Z</time></trkpt><trkpt lat="43.5700615" lon="11.2844293"><ele>437.0</ele><time>2026-04-22T15:54:37.621Z</time></trkpt><trkpt lat="43.5699378" lon="11.2845151"><ele>435.5</ele><time>2026-04-22T15:54:38.62Z</time></trkpt><trkpt lat="43.5698147" lon="11.284618"><ele>434.0</ele><time>2026-04-22T15:54:39.621Z</time></trkpt><trkpt lat="43.5696949" lon="11.2847252"><ele>431.0</ele><time>2026-04-22T15:54:40.62Z</time></trkpt><trkpt lat="43.569579" lon="11.2848345"><ele>428.0</ele><time>2026-04-22T15:54:41.621Z</time></trkpt><trkpt lat="43.5694745" lon="11.2849473"><ele>425.0</ele><time>2026-04-22T15:54:42.62Z</time></trkpt><trkpt lat="43.5693898" lon="11.2850751"><ele>422.0</ele><time>2026-04-22T15:54:43.62Z</time></trkpt><trkpt lat="43.5693266" lon="11.2852241"><ele>422.5</ele><time>2026-04-22T15:54:44.62Z</time></trkpt><trkpt lat="43.5692784" lon="11.2853876"><ele>423.0</ele><time>2026-04-22T15:54:45.62Z</time></trkpt><trkpt lat="43.5692447" lon="11.2855709"><ele>423.5</ele><time>2026-04-22T15:54:46.621Z</time></trkpt><trkpt lat="43.5692321" lon="11.2857668"><ele>424.0</ele><time>2026-04-22T15:54:47.621Z</time></trkpt><trkpt lat="43.5692389" lon="11.285965"><ele>424.0</ele><time>2026-04-22T15:54:48.621Z</time></trkpt><trkpt lat="43.5692649" lon="11.2861433"><ele>424.0</ele><time>2026-04-22T15:54:49.62Z</time></trkpt><trkpt lat="43.5692804" lon="11.2863046"><ele>424.0</ele><time>2026-04-22T15:54:50.621Z</time></trkpt><trkpt lat="43.5692805" lon="11.2864551"><ele>424.0</ele><time>2026-04-22T15:54:51.621Z</time></trkpt><trkpt lat="43.5692558" lon="11.2866013"><ele>425.2</ele><time>2026-04-22T15:54:52.62Z</time></trkpt><trkpt lat="43.5691941" lon="11.2867149"><ele>426.4</ele><time>2026-04-22T15:54:53.62Z</time></trkpt><trkpt lat="43.5691172" lon="11.2868063"><ele>427.6</ele><time>2026-04-22T15:54:54.62Z</time></trkpt><trkpt lat="43.5690313" lon="11.2868741"><ele>428.8</ele><time>2026-04-22T15:54:55.621Z</time></trkpt><trkpt lat="43.5689514" lon="11.2869219"><ele>430.0</ele><time>2026-04-22T15:54:56.62Z</time></trkpt><trkpt lat="43.5688812" lon="11.2869512"><ele>430.0</ele><time>2026-04-22T15:54:57.62Z</time></trkpt><trkpt lat="43.5688019" lon="11.2870524"><ele>430.0</ele><time>2026-04-22T15:54:59.62Z</time></trkpt><trkpt lat="43.5686987" lon="11.2871542"><ele>430.0</ele><time>2026-04-22T15:55:01.621Z</time></trkpt><trkpt lat="43.5686304" lon="11.2872625"><ele>430.0</ele><time>2026-04-22T15:55:02.62Z</time></trkpt><trkpt lat="43.5685844" lon="11.2873513"><ele>430.0</ele><time>2026-04-22T15:55:04.62Z</time></trkpt><trkpt lat="43.56858" lon="11.2874482"><ele>432.75</ele><time>2026-04-22T15:55:06.621Z</time></trkpt><trkpt lat="43.5685483" lon="11.2875334"><ele>435.5</ele><time>2026-04-22T15:55:08.62Z</time></trkpt><trkpt lat="43.5684799" lon="11.287626"><ele>438.25</ele><time>2026-04-22T15:55:09.62Z</time></trkpt><trkpt lat="43.568334" lon="11.2877691"><ele>441.0</ele><time>2026-04-22T15:55:11.62Z</time></trkpt><trkpt lat="43.5682637" lon="11.2879703"><ele>452.0</ele><time>2026-04-22T15:55:12.62Z</time></trkpt><trkpt lat="43.5674554" lon="11.2895875"><ele>452.0</ele><time>2026-04-22T15:55:13.62Z</time></trkpt><trkpt lat="43.5673861" lon="11.2897165"><ele>452.00000000000006</ele><time>2026-04-22T15:55:14.621Z</time></trkpt><trkpt lat="43.5673171" lon="11.2898357"><ele>452.00000000000006</ele><time>2026-04-22T15:55:15.621Z</time></trkpt><trkpt lat="43.5672494" lon="11.2899302"><ele>452.0</ele><time>2026-04-22T15:55:16.621Z</time></trkpt><trkpt lat="43.5671606" lon="11.2899958"><ele>452.0</ele><time>2026-04-22T15:55:17.62Z</time></trkpt><trkpt lat="43.5670443" lon="11.2900278"><ele>452.5</ele><time>2026-04-22T15:55:18.621Z</time></trkpt><trkpt lat="43.566923" lon="11.2900369"><ele>453.0</ele><time>2026-04-22T15:55:19.621Z</time></trkpt><trkpt lat="43.5667878" lon="11.2900379"><ele>453.5</ele><time>2026-04-22T15:55:20.62Z</time></trkpt><trkpt lat="43.5666446" lon="11.2900497"><ele>454.0</ele><time>2026-04-22T15:55:21.621Z</time></trkpt><trkpt lat="43.5664992" lon="11.2900871"><ele>454.0</ele><time>2026-04-22T15:55:22.62Z</time></trkpt><trkpt lat="43.5663776" lon="11.2901383"><ele>454.0</ele><time>2026-04-22T15:55:23.621Z</time></trkpt><trkpt lat="43.5662682" lon="11.2901892"><ele>454.0</ele><time>2026-04-22T15:55:24.621Z</time></trkpt><trkpt lat="43.5661801" lon="11.2902218"><ele>454.0</ele><time>2026-04-22T15:55:25.62Z</time></trkpt><trkpt lat="43.5660961" lon="11.2902407"><ele>454.0</ele><time>2026-04-22T15:55:26.62Z</time></trkpt><trkpt lat="43.5660189" lon="11.2902305"><ele>454.79999999999995</ele><time>2026-04-22T15:55:27.621Z</time></trkpt><trkpt lat="43.5659483" lon="11.2901861"><ele>455.59999999999997</ele><time>2026-04-22T15:55:28.62Z</time></trkpt><trkpt lat="43.565873" lon="11.2901206"><ele>456.4</ele><time>2026-04-22T15:55:29.62Z</time></trkpt><trkpt lat="43.5657705" lon="11.2900575"><ele>457.2</ele><time>2026-04-22T15:55:30.62Z</time></trkpt><trkpt lat="43.5656651" lon="11.2900118"><ele>458.0</ele><time>2026-04-22T15:55:31.62Z</time></trkpt><trkpt lat="43.5655751" lon="11.2899917"><ele>457.99999999999994</ele><time>2026-04-22T15:55:32.62Z</time></trkpt><trkpt lat="43.5654823" lon="11.2899819"><ele>458.0</ele><time>2026-04-22T15:55:33.62Z</time></trkpt><trkpt lat="43.565397" lon="11.2899958"><ele>458.0</ele><time>2026-04-22T15:55:34.62Z</time></trkpt><trkpt lat="43.5653209" lon="11.2900295"><ele>458.0</ele><time>2026-04-22T15:55:35.62Z</time></trkpt><trkpt lat="43.5652625" lon="11.2900958"><ele>457.99999999999994</ele><time>2026-04-22T15:55:36.621Z</time></trkpt><trkpt lat="43.5652089" lon="11.290184"><ele>458.0</ele><time>2026-04-22T15:55:37.62Z</time></trkpt><trkpt lat="43.5651446" lon="11.2902913"><ele>457.75</ele><time>2026-04-22T15:55:38.62Z</time></trkpt><trkpt lat="43.5650466" lon="11.2904102"><ele>457.5</ele><time>2026-04-22T15:55:39.62Z</time></trkpt><trkpt lat="43.5649396" lon="11.2905394"><ele>457.25</ele><time>2026-04-22T15:55:40.62Z</time></trkpt><trkpt lat="43.5648235" lon="11.2906661"><ele>457.0</ele><time>2026-04-22T15:55:41.62Z</time></trkpt><trkpt lat="43.564698" lon="11.2907711"><ele>456.75</ele><time>2026-04-22T15:55:42.621Z</time></trkpt><trkpt lat="43.5645773" lon="11.2908603"><ele>456.5</ele><time>2026-04-22T15:55:43.621Z</time></trkpt><trkpt lat="43.5644646" lon="11.2909427"><ele>456.25</ele><time>2026-04-22T15:55:44.62Z</time></trkpt><trkpt lat="43.5643693" lon="11.2910186"><ele>456.0</ele><time>2026-04-22T15:55:45.62Z</time></trkpt><trkpt lat="43.5642918" lon="11.2910934"><ele>456.0</ele><time>2026-04-22T15:55:46.62Z</time></trkpt><trkpt lat="43.5642456" lon="11.2911854"><ele>456.0</ele><time>2026-04-22T15:55:47.621Z</time></trkpt><trkpt lat="43.5642514" lon="11.2913003"><ele>456.0</ele><time>2026-04-22T15:55:48.62Z</time></trkpt><trkpt lat="43.5642778" lon="11.2914147"><ele>456.0</ele><time>2026-04-22T15:55:49.62Z</time></trkpt><trkpt lat="43.5643079" lon="11.2915325"><ele>456.0</ele><time>2026-04-22T15:55:50.62Z</time></trkpt><trkpt lat="43.5643229" lon="11.2916503"><ele>456.0</ele><time>2026-04-22T15:55:51.621Z</time></trkpt><trkpt lat="43.5643029" lon="11.2917688"><ele>457.4</ele><time>2026-04-22T15:55:52.62Z</time></trkpt><trkpt lat="43.5642487" lon="11.2918699"><ele>458.8</ele><time>2026-04-22T15:55:53.62Z</time></trkpt><trkpt lat="43.5641508" lon="11.2919301"><ele>460.19999999999993</ele><time>2026-04-22T15:55:54.62Z</time></trkpt><trkpt lat="43.5640364" lon="11.2919646"><ele>461.59999999999997</ele><time>2026-04-22T15:55:55.62Z</time></trkpt><trkpt lat="43.5639084" lon="11.2919882"><ele>463.0</ele><time>2026-04-22T15:55:56.62Z</time></trkpt><trkpt lat="43.56377" lon="11.2920341"><ele>463.6666666666667</ele><time>2026-04-22T15:55:57.62Z</time></trkpt><trkpt lat="43.5636592" lon="11.292041"><ele>464.33333333333337</ele><time>2026-04-22T15:55:58.62Z</time></trkpt><trkpt lat="43.5634995" lon="11.2921427"><ele>465.0</ele><time>2026-04-22T15:55:59.62Z</time></trkpt><trkpt lat="43.5633533" lon="11.2922764"><ele>468.66666666666663</ele><time>2026-04-22T15:56:00.621Z</time></trkpt><trkpt lat="43.5632247" lon="11.2924389"><ele>472.3333333333333</ele><time>2026-04-22T15:56:01.62Z</time></trkpt><trkpt lat="43.5630938" lon="11.2926104"><ele>476.0</ele><time>2026-04-22T15:56:02.62Z</time></trkpt><trkpt lat="43.5629652" lon="11.2928076"><ele>482.0</ele><time>2026-04-22T15:56:03.621Z</time></trkpt><trkpt lat="43.5627728" lon="11.2932083"><ele>488.0</ele><time>2026-04-22T15:56:04.621Z</time></trkpt><trkpt lat="43.5626727" lon="11.2934545"><ele>488.0</ele><time>2026-04-22T15:56:05.62Z</time></trkpt><trkpt lat="43.562589" lon="11.2937101"><ele>488.0</ele><time>2026-04-22T15:56:06.62Z</time></trkpt><trkpt lat="43.5625117" lon="11.2939676"><ele>488.0</ele><time>2026-04-22T15:56:07.621Z</time></trkpt><trkpt lat="43.5624408" lon="11.2942223"><ele>489.3333333333333</ele><time>2026-04-22T15:56:08.62Z</time></trkpt><trkpt lat="43.5623769" lon="11.2944727"><ele>490.66666666666663</ele><time>2026-04-22T15:56:09.621Z</time></trkpt><trkpt lat="43.5623396" lon="11.2947044"><ele>492.0</ele><time>2026-04-22T15:56:10.62Z</time></trkpt><trkpt lat="43.562318" lon="11.2949055"><ele>492.6</ele><time>2026-04-22T15:56:11.621Z</time></trkpt><trkpt lat="43.5623062" lon="11.2950915"><ele>493.20000000000005</ele><time>2026-04-22T15:56:12.62Z</time></trkpt><trkpt lat="43.562296" lon="11.2952478"><ele>493.8</ele><time>2026-04-22T15:56:13.62Z</time></trkpt><trkpt lat="43.5622612" lon="11.2953726"><ele>494.4</ele><time>2026-04-22T15:56:14.62Z</time></trkpt><trkpt lat="43.5622053" lon="11.2954603"><ele>495.0</ele><time>2026-04-22T15:56:15.62Z</time></trkpt><trkpt lat="43.5621192" lon="11.295517"><ele>495.0</ele><time>2026-04-22T15:56:16.621Z</time></trkpt><trkpt lat="43.5620107" lon="11.2955388"><ele>495.0</ele><time>2026-04-22T15:56:17.62Z</time></trkpt><trkpt lat="43.5618967" lon="11.2955641"><ele>495.0</ele><time>2026-04-22T15:56:18.62Z</time></trkpt><trkpt lat="43.5617783" lon="11.2955992"><ele>495.0</ele><time>2026-04-22T15:56:19.62Z</time></trkpt><trkpt lat="43.5616588" lon="11.2956622"><ele>499.66666666666663</ele><time>2026-04-22T15:56:20.62Z</time></trkpt><trkpt lat="43.5615303" lon="11.2957608"><ele>504.3333333333333</ele><time>2026-04-22T15:56:21.621Z</time></trkpt><trkpt lat="43.561395" lon="11.2958956"><ele>509.0</ele><time>2026-04-22T15:56:22.62Z</time></trkpt><trkpt lat="43.5612396" lon="11.296049"><ele>505.66666666666663</ele><time>2026-04-22T15:56:23.62Z</time></trkpt><trkpt lat="43.5610587" lon="11.2961872"><ele>502.33333333333337</ele><time>2026-04-22T15:56:24.62Z</time></trkpt><trkpt lat="43.5608676" lon="11.2963088"><ele>499.0</ele><time>2026-04-22T15:56:25.62Z</time></trkpt><trkpt lat="43.5606826" lon="11.2964184"><ele>499.6666666666667</ele><time>2026-04-22T15:56:26.62Z</time></trkpt><trkpt lat="43.560511" lon="11.2965155"><ele>500.33333333333337</ele><time>2026-04-22T15:56:27.62Z</time></trkpt><trkpt lat="43.5603462" lon="11.2966017"><ele>501.0</ele><time>2026-04-22T15:56:28.62Z</time></trkpt><trkpt lat="43.5601861" lon="11.2966685"><ele>501.0</ele><time>2026-04-22T15:56:29.62Z</time></trkpt><trkpt lat="43.5600219" lon="11.2967123"><ele>501.0</ele><time>2026-04-22T15:56:30.62Z</time></trkpt><trkpt lat="43.559852" lon="11.2967268"><ele>501.0</ele><time>2026-04-22T15:56:31.62Z</time></trkpt><trkpt lat="43.5596776" lon="11.2967195"><ele>501.33333333333337</ele><time>2026-04-22T15:56:32.621Z</time></trkpt><trkpt lat="43.5595026" lon="11.2967194"><ele>501.6666666666667</ele><time>2026-04-22T15:56:33.62Z</time></trkpt><trkpt lat="43.5593301" lon="11.2967482"><ele>502.0</ele><time>2026-04-22T15:56:34.62Z</time></trkpt><trkpt lat="43.5591419" lon="11.2968076"><ele>502.0</ele><time>2026-04-22T15:56:35.621Z</time></trkpt><trkpt lat="43.5589663" lon="11.2968855"><ele>502.0</ele><time>2026-04-22T15:56:36.621Z</time></trkpt><trkpt lat="43.5587933" lon="11.296944"><ele>502.0</ele><time>2026-04-22T15:56:37.62Z</time></trkpt><trkpt lat="43.558613" lon="11.2969944"><ele>502.0</ele><time>2026-04-22T15:56:38.62Z</time></trkpt><trkpt lat="43.5584334" lon="11.2970376"><ele>502.0</ele><time>2026-04-22T15:56:39.621Z</time></trkpt><trkpt lat="43.5582697" lon="11.2971003"><ele>502.0</ele><time>2026-04-22T15:56:40.62Z</time></trkpt><trkpt lat="43.558115" lon="11.2971705"><ele>501.25</ele><time>2026-04-22T15:56:41.621Z</time></trkpt><trkpt lat="43.5579839" lon="11.2972577"><ele>500.5</ele><time>2026-04-22T15:56:42.62Z</time></trkpt><trkpt lat="43.557868" lon="11.297344"><ele>499.75</ele><time>2026-04-22T15:56:43.621Z</time></trkpt><trkpt lat="43.557746" lon="11.2974173"><ele>499.0</ele><time>2026-04-22T15:56:44.62Z</time></trkpt><trkpt lat="43.5576214" lon="11.2974612"><ele>499.0</ele><time>2026-04-22T15:56:45.62Z</time></trkpt><trkpt lat="43.5574837" lon="11.2974491"><ele>499.0</ele><time>2026-04-22T15:56:46.62Z</time></trkpt><trkpt lat="43.557345" lon="11.2974136"><ele>499.0</ele><time>2026-04-22T15:56:47.62Z</time></trkpt><trkpt lat="43.5571976" lon="11.2974012"><ele>499.0</ele><time>2026-04-22T15:56:48.62Z</time></trkpt><trkpt lat="43.5570425" lon="11.2974301"><ele>497.0</ele><time>2026-04-22T15:56:49.62Z</time></trkpt><trkpt lat="43.5568573" lon="11.2975137"><ele>495.0</ele><time>2026-04-22T15:56:50.621Z</time></trkpt><trkpt lat="43.5566995" lon="11.2975593"><ele>493.0</ele><time>2026-04-22T15:56:51.621Z</time></trkpt><trkpt lat="43.5565208" lon="11.2975945"><ele>493.0</ele><time>2026-04-22T15:56:52.62Z</time></trkpt><trkpt lat="43.5563545" lon="11.2976131"><ele>493.0</ele><time>2026-04-22T15:56:53.62Z</time></trkpt><trkpt lat="43.5561862" lon="11.2976461"><ele>493.0</ele><time>2026-04-22T15:56:54.62Z</time></trkpt><trkpt lat="43.5560111" lon="11.2976913"><ele>491.0</ele><time>2026-04-22T15:56:55.621Z</time></trkpt><trkpt lat="43.5558651" lon="11.297724"><ele>489.0</ele><time>2026-04-22T15:56:56.62Z</time></trkpt><trkpt lat="43.5557109" lon="11.2977775"><ele>487.0</ele><time>2026-04-22T15:56:57.62Z</time></trkpt><trkpt lat="43.555555" lon="11.2978162"><ele>487.0</ele><time>2026-04-22T15:56:58.621Z</time></trkpt><trkpt lat="43.5554071" lon="11.2978535"><ele>487.0</ele><time>2026-04-22T15:56:59.621Z</time></trkpt><trkpt lat="43.5552686" lon="11.2978975"><ele>487.0</ele><time>2026-04-22T15:57:00.62Z</time></trkpt><trkpt lat="43.5551391" lon="11.2979429"><ele>487.0</ele><time>2026-04-22T15:57:01.62Z</time></trkpt><trkpt lat="43.5550266" lon="11.2979989"><ele>486.0</ele><time>2026-04-22T15:57:02.621Z</time></trkpt><trkpt lat="43.5549333" lon="11.2980633"><ele>485.00000000000006</ele><time>2026-04-22T15:57:03.621Z</time></trkpt><trkpt lat="43.5548396" lon="11.2981321"><ele>484.00000000000006</ele><time>2026-04-22T15:57:04.62Z</time></trkpt><trkpt lat="43.5547502" lon="11.2981905"><ele>483.0</ele><time>2026-04-22T15:57:05.621Z</time></trkpt><trkpt lat="43.5546763" lon="11.298266"><ele>482.0</ele><time>2026-04-22T15:57:06.62Z</time></trkpt><trkpt lat="43.554597" lon="11.2983588"><ele>482.0</ele><time>2026-04-22T15:57:07.62Z</time></trkpt><trkpt lat="43.5544864" lon="11.2984902"><ele>482.0</ele><time>2026-04-22T15:57:08.62Z</time></trkpt><trkpt lat="43.5543855" lon="11.298613"><ele>482.0</ele><time>2026-04-22T15:57:09.62Z</time></trkpt><trkpt lat="43.5542791" lon="11.2987055"><ele>482.0</ele><time>2026-04-22T15:57:10.62Z</time></trkpt><trkpt lat="43.5541606" lon="11.2987762"><ele>482.0</ele><time>2026-04-22T15:57:11.621Z</time></trkpt><trkpt lat="43.5540288" lon="11.2988164"><ele>482.0</ele><time>2026-04-22T15:57:12.62Z</time></trkpt><trkpt lat="43.5538896" lon="11.2988283"><ele>482.0</ele><time>2026-04-22T15:57:13.62Z</time></trkpt><trkpt lat="43.553755" lon="11.298818"><ele>482.0</ele><time>2026-04-22T15:57:14.62Z</time></trkpt><trkpt lat="43.5536188" lon="11.2988186"><ele>483.0</ele><time>2026-04-22T15:57:15.621Z</time></trkpt><trkpt lat="43.5534869" lon="11.298838"><ele>484.0</ele><time>2026-04-22T15:57:16.62Z</time></trkpt><trkpt lat="43.553342" lon="11.2988802"><ele>485.0</ele><time>2026-04-22T15:57:17.621Z</time></trkpt><trkpt lat="43.5532325" lon="11.2989678"><ele>486.0</ele><time>2026-04-22T15:57:18.621Z</time></trkpt><trkpt lat="43.5531378" lon="11.2990885"><ele>488.5</ele><time>2026-04-22T15:57:19.621Z</time></trkpt><trkpt lat="43.5530553" lon="11.2992342"><ele>491.0</ele><time>2026-04-22T15:57:20.62Z</time></trkpt><trkpt lat="43.5529848" lon="11.2994012"><ele>493.5</ele><time>2026-04-22T15:57:21.62Z</time></trkpt><trkpt lat="43.5529119" lon="11.299583"><ele>496.0</ele><time>2026-04-22T15:57:22.62Z</time></trkpt><trkpt lat="43.5528354" lon="11.2997708"><ele>497.25</ele><time>2026-04-22T15:57:23.621Z</time></trkpt><trkpt lat="43.5527574" lon="11.2999452"><ele>498.5</ele><time>2026-04-22T15:57:24.62Z</time></trkpt><trkpt lat="43.5526731" lon="11.3001107"><ele>499.75</ele><time>2026-04-22T15:57:25.62Z</time></trkpt><trkpt lat="43.5525933" lon="11.3002685"><ele>501.0</ele><time>2026-04-22T15:57:26.62Z</time></trkpt><trkpt lat="43.5525112" lon="11.3004324"><ele>501.0</ele><time>2026-04-22T15:57:27.62Z</time></trkpt><trkpt lat="43.552434" lon="11.3006015"><ele>501.0</ele><time>2026-04-22T15:57:28.62Z</time></trkpt><trkpt lat="43.5523642" lon="11.3007774"><ele>501.0</ele><time>2026-04-22T15:57:29.62Z</time></trkpt><trkpt lat="43.5522991" lon="11.3009757"><ele>501.0</ele><time>2026-04-22T15:57:30.62Z</time></trkpt><trkpt lat="43.5522447" lon="11.3011442"><ele>501.0</ele><time>2026-04-22T15:57:31.621Z</time></trkpt><trkpt lat="43.5521881" lon="11.3013425"><ele>501.0</ele><time>2026-04-22T15:57:32.621Z</time></trkpt><trkpt lat="43.5521383" lon="11.3015573"><ele>501.0</ele><time>2026-04-22T15:57:33.62Z</time></trkpt><trkpt lat="43.5520673" lon="11.3017609"><ele>501.0</ele><time>2026-04-22T15:57:34.621Z</time></trkpt><trkpt lat="43.5519979" lon="11.3019798"><ele>501.0</ele><time>2026-04-22T15:57:35.62Z</time></trkpt><trkpt lat="43.5519319" lon="11.3021961"><ele>501.0</ele><time>2026-04-22T15:57:36.62Z</time></trkpt><trkpt lat="43.5518561" lon="11.3024098"><ele>501.0</ele><time>2026-04-22T15:57:37.62Z</time></trkpt><trkpt lat="43.5517712" lon="11.3026087"><ele>501.0</ele><time>2026-04-22T15:57:38.621Z</time></trkpt><trkpt lat="43.5516895" lon="11.3027684"><ele>501.0</ele><time>2026-04-22T15:57:39.621Z</time></trkpt><trkpt lat="43.5515921" lon="11.3029113"><ele>501.0</ele><time>2026-04-22T15:57:40.62Z</time></trkpt><trkpt lat="43.5514908" lon="11.3030316"><ele>501.0</ele><time>2026-04-22T15:57:41.62Z</time></trkpt><trkpt lat="43.5513804" lon="11.3031236"><ele>501.0</ele><time>2026-04-22T15:57:42.62Z</time></trkpt><trkpt lat="43.5512644" lon="11.3032219"><ele>501.0</ele><time>2026-04-22T15:57:43.62Z</time></trkpt><trkpt lat="43.5511502" lon="11.3032614"><ele>500.0</ele><time>2026-04-22T15:57:44.62Z</time></trkpt><trkpt lat="43.5510393" lon="11.3033766"><ele>499.0</ele><time>2026-04-22T15:57:45.62Z</time></trkpt><trkpt lat="43.5509297" lon="11.3034861"><ele>498.0</ele><time>2026-04-22T15:57:46.62Z</time></trkpt><trkpt lat="43.5508194" lon="11.3036034"><ele>497.0</ele><time>2026-04-22T15:57:47.621Z</time></trkpt><trkpt lat="43.5507158" lon="11.3037184"><ele>497.0</ele><time>2026-04-22T15:57:48.62Z</time></trkpt><trkpt lat="43.5506171" lon="11.3038394"><ele>497.0</ele><time>2026-04-22T15:57:49.62Z</time></trkpt><trkpt lat="43.5505254" lon="11.3039561"><ele>497.0</ele><time>2026-04-22T15:57:50.621Z</time></trkpt><trkpt lat="43.5504345" lon="11.3040655"><ele>497.0</ele><time>2026-04-22T15:57:51.62Z</time></trkpt><trkpt lat="43.5503387" lon="11.3041768"><ele>495.5</ele><time>2026-04-22T15:57:52.621Z</time></trkpt><trkpt lat="43.5502372" lon="11.3042903"><ele>494.0</ele><time>2026-04-22T15:57:53.62Z</time></trkpt><trkpt lat="43.5501338" lon="11.3044001"><ele>492.5</ele><time>2026-04-22T15:57:54.621Z</time></trkpt><trkpt lat="43.5500194" lon="11.3045157"><ele>491.0</ele><time>2026-04-22T15:57:55.62Z</time></trkpt><trkpt lat="43.5499078" lon="11.3046343"><ele>491.0</ele><time>2026-04-22T15:57:56.62Z</time></trkpt><trkpt lat="43.5497929" lon="11.3047444"><ele>491.0</ele><time>2026-04-22T15:57:57.62Z</time></trkpt><trkpt lat="43.5496903" lon="11.3048542"><ele>491.0</ele><time>2026-04-22T15:57:58.621Z</time></trkpt><trkpt lat="43.549588" lon="11.3049696"><ele>491.0</ele><time>2026-04-22T15:57:59.62Z</time></trkpt><trkpt lat="43.5494863" lon="11.3050975"><ele>488.25</ele><time>2026-04-22T15:58:00.621Z</time></trkpt><trkpt lat="43.5493863" lon="11.3052259"><ele>485.5</ele><time>2026-04-22T15:58:01.621Z</time></trkpt><trkpt lat="43.54929" lon="11.3053555"><ele>482.75</ele><time>2026-04-22T15:58:02.62Z</time></trkpt><trkpt lat="43.5491957" lon="11.3054822"><ele>480.0</ele><time>2026-04-22T15:58:03.62Z</time></trkpt><trkpt lat="43.5491038" lon="11.3056097"><ele>477.5</ele><time>2026-04-22T15:58:04.62Z</time></trkpt><trkpt lat="43.5490139" lon="11.3057338"><ele>475.0</ele><time>2026-04-22T15:58:05.621Z</time></trkpt><trkpt lat="43.5489272" lon="11.3058544"><ele>472.5</ele><time>2026-04-22T15:58:06.621Z</time></trkpt><trkpt lat="43.5488455" lon="11.3059666"><ele>470.0</ele><time>2026-04-22T15:58:07.621Z</time></trkpt><trkpt lat="43.5487725" lon="11.3060574"><ele>469.99999999999994</ele><time>2026-04-22T15:58:08.62Z</time></trkpt><trkpt lat="43.5487098" lon="11.3061266"><ele>470.0</ele><time>2026-04-22T15:58:09.62Z</time></trkpt><trkpt lat="43.5486523" lon="11.3061699"><ele>470.0</ele><time>2026-04-22T15:58:10.621Z</time></trkpt><trkpt lat="43.5485608" lon="11.3061744"><ele>470.0</ele><time>2026-04-22T15:58:12.62Z</time></trkpt><trkpt lat="43.5484929" lon="11.3061061"><ele>469.99999999999994</ele><time>2026-04-22T15:58:14.62Z</time></trkpt><trkpt lat="43.5484457" lon="11.3059423"><ele>470.0</ele><time>2026-04-22T15:58:16.62Z</time></trkpt><trkpt lat="43.5484206" lon="11.3058417"><ele>470.2</ele><time>2026-04-22T15:58:17.62Z</time></trkpt><trkpt lat="43.5483736" lon="11.3057383"><ele>470.4</ele><time>2026-04-22T15:58:18.62Z</time></trkpt><trkpt lat="43.5483232" lon="11.3056095"><ele>470.6</ele><time>2026-04-22T15:58:19.62Z</time></trkpt><trkpt lat="43.54827" lon="11.3054812"><ele>470.8</ele><time>2026-04-22T15:58:20.62Z</time></trkpt><trkpt lat="43.5482195" lon="11.3053597"><ele>471.0</ele><time>2026-04-22T15:58:21.621Z</time></trkpt><trkpt lat="43.5481752" lon="11.3052464"><ele>471.4</ele><time>2026-04-22T15:58:22.62Z</time></trkpt><trkpt lat="43.5481305" lon="11.305125"><ele>471.8</ele><time>2026-04-22T15:58:23.62Z</time></trkpt><trkpt lat="43.548093" lon="11.3050148"><ele>472.19999999999993</ele><time>2026-04-22T15:58:24.62Z</time></trkpt><trkpt lat="43.5480584" lon="11.3048973"><ele>472.59999999999997</ele><time>2026-04-22T15:58:25.621Z</time></trkpt><trkpt lat="43.5480237" lon="11.3047794"><ele>473.0</ele><time>2026-04-22T15:58:26.62Z</time></trkpt><trkpt lat="43.5479912" lon="11.3046598"><ele>473.16666666666663</ele><time>2026-04-22T15:58:27.62Z</time></trkpt><trkpt lat="43.5479686" lon="11.3045537"><ele>473.3333333333333</ele><time>2026-04-22T15:58:28.62Z</time></trkpt><trkpt lat="43.5479527" lon="11.3044539"><ele>473.5</ele><time>2026-04-22T15:58:29.62Z</time></trkpt><trkpt lat="43.5479423" lon="11.3043594"><ele>473.66666666666663</ele><time>2026-04-22T15:58:30.62Z</time></trkpt><trkpt lat="43.547939" lon="11.3042121"><ele>473.8333333333333</ele><time>2026-04-22T15:58:32.62Z</time></trkpt><trkpt lat="43.5479306" lon="11.3041035"><ele>474.0</ele><time>2026-04-22T15:58:34.62Z</time></trkpt><trkpt lat="43.5479501" lon="11.3040114"><ele>473.6</ele><time>2026-04-22T15:59:05.62Z</time></trkpt><trkpt lat="43.5479439" lon="11.3038732"><ele>473.2</ele><time>2026-04-22T15:59:07.621Z</time></trkpt><trkpt lat="43.54796" lon="11.3036861"><ele>472.80000000000007</ele><time>2026-04-22T15:59:09.62Z</time></trkpt><trkpt lat="43.5479775" lon="11.3036003"><ele>472.40000000000003</ele><time>2026-04-22T15:59:10.62Z</time></trkpt><trkpt lat="43.5480054" lon="11.3034703"><ele>472.0</ele><time>2026-04-22T15:59:12.621Z</time></trkpt><trkpt lat="43.5480399" lon="11.3033527"><ele>472.0</ele><time>2026-04-22T15:59:14.621Z</time></trkpt><trkpt lat="43.548081" lon="11.3031951"><ele>472.00000000000006</ele><time>2026-04-22T15:59:16.621Z</time></trkpt><trkpt lat="43.5481067" lon="11.3031071"><ele>472.00000000000006</ele><time>2026-04-22T15:59:17.621Z</time></trkpt><trkpt lat="43.5481436" lon="11.3030093"><ele>472.0</ele><time>2026-04-22T15:59:18.621Z</time></trkpt><trkpt lat="43.5481998" lon="11.3028668"><ele>472.0</ele><time>2026-04-22T15:59:19.62Z</time></trkpt><trkpt lat="43.5482477" lon="11.3027576"><ele>470.20000000000005</ele><time>2026-04-22T15:59:20.62Z</time></trkpt><trkpt lat="43.5482953" lon="11.3026516"><ele>468.40000000000003</ele><time>2026-04-22T15:59:21.62Z</time></trkpt><trkpt lat="43.5483494" lon="11.3025398"><ele>466.59999999999997</ele><time>2026-04-22T15:59:22.62Z</time></trkpt><trkpt lat="43.5484072" lon="11.3024312"><ele>464.79999999999995</ele><time>2026-04-22T15:59:23.62Z</time></trkpt><trkpt lat="43.5484642" lon="11.3023327"><ele>463.0</ele><time>2026-04-22T15:59:24.621Z</time></trkpt><trkpt lat="43.5485132" lon="11.3022435"><ele>462.00000000000006</ele><time>2026-04-22T15:59:25.62Z</time></trkpt><trkpt lat="43.5485546" lon="11.3021563"><ele>461.0</ele><time>2026-04-22T15:59:26.62Z</time></trkpt><trkpt lat="43.5485907" lon="11.3020665"><ele>460.0</ele><time>2026-04-22T15:59:27.62Z</time></trkpt><trkpt lat="43.5486187" lon="11.3019764"><ele>459.0</ele><time>2026-04-22T15:59:28.62Z</time></trkpt><trkpt lat="43.5486427" lon="11.3018756"><ele>458.00000000000006</ele><time>2026-04-22T15:59:29.62Z</time></trkpt><trkpt lat="43.5486608" lon="11.3017849"><ele>457.0</ele><time>2026-04-22T15:59:30.621Z</time></trkpt><trkpt lat="43.5486826" lon="11.3016361"><ele>457.0</ele><time>2026-04-22T15:59:32.62Z</time></trkpt><trkpt lat="43.5486729" lon="11.3015168"><ele>457.00000000000006</ele><time>2026-04-22T15:59:34.619Z</time></trkpt><trkpt lat="43.5485939" lon="11.301392"><ele>457.00000000000006</ele><time>2026-04-22T15:59:36.619Z</time></trkpt><trkpt lat="43.5485301" lon="11.3013136"><ele>457.0</ele><time>2026-04-22T15:59:37.619Z</time></trkpt><trkpt lat="43.5484583" lon="11.3012317"><ele>457.0</ele><time>2026-04-22T15:59:38.619Z</time></trkpt><trkpt lat="43.5483752" lon="11.3011592"><ele>456.40000000000003</ele><time>2026-04-22T15:59:39.619Z</time></trkpt><trkpt lat="43.5482977" lon="11.3010912"><ele>455.80000000000007</ele><time>2026-04-22T15:59:40.62Z</time></trkpt><trkpt lat="43.548217" lon="11.3010155"><ele>455.2</ele><time>2026-04-22T15:59:41.62Z</time></trkpt><trkpt lat="43.5481463" lon="11.3009223"><ele>454.6</ele><time>2026-04-22T15:59:42.62Z</time></trkpt><trkpt lat="43.5480817" lon="11.3008048"><ele>454.0</ele><time>2026-04-22T15:59:43.62Z</time></trkpt><trkpt lat="43.5480288" lon="11.3006859"><ele>452.50000000000006</ele><time>2026-04-22T15:59:44.619Z</time></trkpt><trkpt lat="43.5479895" lon="11.3005673"><ele>451.0</ele><time>2026-04-22T15:59:45.62Z</time></trkpt><trkpt lat="43.5479516" lon="11.3004537"><ele>449.5</ele><time>2026-04-22T15:59:46.62Z</time></trkpt><trkpt lat="43.5479091" lon="11.3003524"><ele>448.0</ele><time>2026-04-22T15:59:47.62Z</time></trkpt><trkpt lat="43.5478547" lon="11.3002634"><ele>446.50000000000006</ele><time>2026-04-22T15:59:48.619Z</time></trkpt><trkpt lat="43.5477931" lon="11.3001821"><ele>445.0</ele><time>2026-04-22T15:59:49.62Z</time></trkpt><trkpt lat="43.5477261" lon="11.3001142"><ele>445.00000000000006</ele><time>2026-04-22T15:59:50.619Z</time></trkpt><trkpt lat="43.5476489" lon="11.3000514"><ele>445.0</ele><time>2026-04-22T15:59:51.62Z</time></trkpt><trkpt lat="43.5475707" lon="11.3000013"><ele>445.0</ele><time>2026-04-22T15:59:52.619Z</time></trkpt><trkpt lat="43.5474847" lon="11.2999609"><ele>445.0</ele><time>2026-04-22T15:59:53.619Z</time></trkpt><trkpt lat="43.5473992" lon="11.2999142"><ele>445.00000000000006</ele><time>2026-04-22T15:59:54.62Z</time></trkpt><trkpt lat="43.5473221" lon="11.2998762"><ele>445.0</ele><time>2026-04-22T15:59:55.62Z</time></trkpt><trkpt lat="43.5472397" lon="11.2998403"><ele>445.00000000000006</ele><time>2026-04-22T15:59:56.62Z</time></trkpt><trkpt lat="43.5471618" lon="11.2997935"><ele>445.0</ele><time>2026-04-22T15:59:57.619Z</time></trkpt><trkpt lat="43.5471021" lon="11.299691"><ele>445.0</ele><time>2026-04-22T15:59:58.619Z</time></trkpt><trkpt lat="43.547018" lon="11.2996098"><ele>445.0</ele><time>2026-04-22T15:59:59.619Z</time></trkpt><trkpt lat="43.5469605" lon="11.299564"><ele>445.00000000000006</ele><time>2026-04-22T16:00:00.619Z</time></trkpt><trkpt lat="43.5468942" lon="11.2994758"><ele>445.0</ele><time>2026-04-22T16:00:01.619Z</time></trkpt><trkpt lat="43.5468211" lon="11.2994148"><ele>443.0</ele><time>2026-04-22T16:00:02.619Z</time></trkpt><trkpt lat="43.5467468" lon="11.2993629"><ele>441.0</ele><time>2026-04-22T16:00:03.62Z</time></trkpt><trkpt lat="43.5466592" lon="11.2993261"><ele>439.0</ele><time>2026-04-22T16:00:04.619Z</time></trkpt><trkpt lat="43.5465801" lon="11.2992807"><ele>437.0</ele><time>2026-04-22T16:00:05.619Z</time></trkpt><trkpt lat="43.5464883" lon="11.2992302"><ele>435.0</ele><time>2026-04-22T16:00:06.619Z</time></trkpt><trkpt lat="43.5463941" lon="11.2991484"><ele>435.0</ele><time>2026-04-22T16:00:07.619Z</time></trkpt><trkpt lat="43.5462907" lon="11.2990423"><ele>435.0</ele><time>2026-04-22T16:00:08.619Z</time></trkpt><trkpt lat="43.5461799" lon="11.2989405"><ele>435.0</ele><time>2026-04-22T16:00:09.619Z</time></trkpt><trkpt lat="43.54607" lon="11.2988437"><ele>435.0</ele><time>2026-04-22T16:00:10.619Z</time></trkpt><trkpt lat="43.5459571" lon="11.2987488"><ele>430.75</ele><time>2026-04-22T16:00:11.619Z</time></trkpt><trkpt lat="43.5458403" lon="11.2986505"><ele>426.5</ele><time>2026-04-22T16:00:12.619Z</time></trkpt><trkpt lat="43.5457346" lon="11.2985544"><ele>422.25</ele><time>2026-04-22T16:00:13.619Z</time></trkpt><trkpt lat="43.5456279" lon="11.2984575"><ele>418.0</ele><time>2026-04-22T16:00:14.619Z</time></trkpt><trkpt lat="43.5455252" lon="11.2983586"><ele>418.0</ele><time>2026-04-22T16:00:15.62Z</time></trkpt><trkpt lat="43.5454235" lon="11.2982615"><ele>418.0</ele><time>2026-04-22T16:00:16.619Z</time></trkpt><trkpt lat="43.5453178" lon="11.2981667"><ele>418.0</ele><time>2026-04-22T16:00:17.62Z</time></trkpt><trkpt lat="43.5452143" lon="11.29807"><ele>418.0</ele><time>2026-04-22T16:00:18.62Z</time></trkpt><trkpt lat="43.5451136" lon="11.2979768"><ele>416.5</ele><time>2026-04-22T16:00:19.619Z</time></trkpt><trkpt lat="43.5450224" lon="11.2978894"><ele>415.0</ele><time>2026-04-22T16:00:20.62Z</time></trkpt><trkpt lat="43.5449287" lon="11.2978053"><ele>413.5</ele><time>2026-04-22T16:00:21.619Z</time></trkpt><trkpt lat="43.5448311" lon="11.2977207"><ele>412.0</ele><time>2026-04-22T16:00:22.62Z</time></trkpt><trkpt lat="43.5447348" lon="11.2976288"><ele>412.0</ele><time>2026-04-22T16:00:23.619Z</time></trkpt><trkpt lat="43.5446377" lon="11.2975476"><ele>412.0</ele><time>2026-04-22T16:00:24.62Z</time></trkpt><trkpt lat="43.5445414" lon="11.2974712"><ele>412.0</ele><time>2026-04-22T16:00:25.619Z</time></trkpt><trkpt lat="43.5444494" lon="11.2973922"><ele>412.0</ele><time>2026-04-22T16:00:26.62Z</time></trkpt><trkpt lat="43.5443655" lon="11.2973117"><ele>412.0</ele><time>2026-04-22T16:00:27.619Z</time></trkpt><trkpt lat="43.5442908" lon="11.2972288"><ele>411.40000000000003</ele><time>2026-04-22T16:00:28.62Z</time></trkpt><trkpt lat="43.5442025" lon="11.2971652"><ele>410.8</ele><time>2026-04-22T16:00:29.619Z</time></trkpt><trkpt lat="43.5441224" lon="11.2971109"><ele>410.2</ele><time>2026-04-22T16:00:30.619Z</time></trkpt><trkpt lat="43.5440423" lon="11.2970648"><ele>409.6</ele><time>2026-04-22T16:00:31.62Z</time></trkpt><trkpt lat="43.5439514" lon="11.2970203"><ele>409.0</ele><time>2026-04-22T16:00:32.62Z</time></trkpt><trkpt lat="43.5438526" lon="11.2969757"><ele>409.0</ele><time>2026-04-22T16:00:33.62Z</time></trkpt><trkpt lat="43.5437545" lon="11.296927"><ele>409.0</ele><time>2026-04-22T16:00:34.62Z</time></trkpt><trkpt lat="43.5436573" lon="11.2968682"><ele>409.0</ele><time>2026-04-22T16:00:35.62Z</time></trkpt><trkpt lat="43.5435572" lon="11.2968144"><ele>409.0</ele><time>2026-04-22T16:00:36.619Z</time></trkpt><trkpt lat="43.543453" lon="11.2967711"><ele>409.0</ele><time>2026-04-22T16:00:37.619Z</time></trkpt><trkpt lat="43.5433587" lon="11.296727"><ele>407.4</ele><time>2026-04-22T16:00:38.62Z</time></trkpt><trkpt lat="43.5432764" lon="11.2966799"><ele>405.79999999999995</ele><time>2026-04-22T16:00:39.619Z</time></trkpt><trkpt lat="43.5432003" lon="11.2966129"><ele>404.20000000000005</ele><time>2026-04-22T16:00:40.619Z</time></trkpt><trkpt lat="43.5431252" lon="11.2965335"><ele>402.6</ele><time>2026-04-22T16:00:41.619Z</time></trkpt><trkpt lat="43.5430515" lon="11.2964518"><ele>401.0</ele><time>2026-04-22T16:00:42.62Z</time></trkpt><trkpt lat="43.5429596" lon="11.2963642"><ele>398.6</ele><time>2026-04-22T16:00:43.619Z</time></trkpt><trkpt lat="43.5428711" lon="11.2962776"><ele>396.20000000000005</ele><time>2026-04-22T16:00:44.62Z</time></trkpt><trkpt lat="43.5427819" lon="11.2962023"><ele>393.79999999999995</ele><time>2026-04-22T16:00:45.619Z</time></trkpt><trkpt lat="43.5427157" lon="11.2961102"><ele>391.4</ele><time>2026-04-22T16:00:46.62Z</time></trkpt><trkpt lat="43.542641" lon="11.2960163"><ele>389.0</ele><time>2026-04-22T16:00:47.619Z</time></trkpt><trkpt lat="43.5425602" lon="11.2959175"><ele>389.0</ele><time>2026-04-22T16:00:48.62Z</time></trkpt><trkpt lat="43.5424772" lon="11.2958144"><ele>389.0</ele><time>2026-04-22T16:00:49.619Z</time></trkpt><trkpt lat="43.5423918" lon="11.295702"><ele>389.0</ele><time>2026-04-22T16:00:50.62Z</time></trkpt><trkpt lat="43.5423006" lon="11.2955819"><ele>389.0</ele><time>2026-04-22T16:00:51.62Z</time></trkpt><trkpt lat="43.5422101" lon="11.295453"><ele>386.75</ele><time>2026-04-22T16:00:52.619Z</time></trkpt><trkpt lat="43.5421189" lon="11.2953221"><ele>384.5</ele><time>2026-04-22T16:00:53.619Z</time></trkpt><trkpt lat="43.5420411" lon="11.2952018"><ele>382.25</ele><time>2026-04-22T16:00:54.619Z</time></trkpt><trkpt lat="43.5419747" lon="11.2950855"><ele>380.0</ele><time>2026-04-22T16:00:55.619Z</time></trkpt><trkpt lat="43.5419139" lon="11.2949583"><ele>379.8</ele><time>2026-04-22T16:00:56.619Z</time></trkpt><trkpt lat="43.5418421" lon="11.2948345"><ele>379.6</ele><time>2026-04-22T16:00:57.619Z</time></trkpt><trkpt lat="43.5417742" lon="11.2947216"><ele>379.4</ele><time>2026-04-22T16:00:58.62Z</time></trkpt><trkpt lat="43.541706" lon="11.2946208"><ele>379.2</ele><time>2026-04-22T16:00:59.619Z</time></trkpt><trkpt lat="43.5416154" lon="11.2945251"><ele>379.0</ele><time>2026-04-22T16:01:00.62Z</time></trkpt><trkpt lat="43.5415391" lon="11.2944284"><ele>377.5</ele><time>2026-04-22T16:01:01.619Z</time></trkpt><trkpt lat="43.5414744" lon="11.2943471"><ele>376.0</ele><time>2026-04-22T16:01:02.62Z</time></trkpt><trkpt lat="43.5414178" lon="11.2942667"><ele>374.5</ele><time>2026-04-22T16:01:03.619Z</time></trkpt><trkpt lat="43.5413618" lon="11.2941937"><ele>373.0</ele><time>2026-04-22T16:01:04.619Z</time></trkpt><trkpt lat="43.5413088" lon="11.2941275"><ele>371.5</ele><time>2026-04-22T16:01:05.62Z</time></trkpt><trkpt lat="43.5412599" lon="11.2940659"><ele>370.0</ele><time>2026-04-22T16:01:06.619Z</time></trkpt><trkpt lat="43.5411733" lon="11.2939746"><ele>370.0</ele><time>2026-04-22T16:01:08.619Z</time></trkpt><trkpt lat="43.5411255" lon="11.2939156"><ele>370.0</ele><time>2026-04-22T16:01:10.62Z</time></trkpt><trkpt lat="43.5411184" lon="11.2940032"><ele>370.0</ele><time>2026-04-22T16:01:46.62Z</time></trkpt><trkpt lat="43.541225" lon="11.294065"><ele>370.0</ele><time>2026-04-22T16:02:23.619Z</time></trkpt><trkpt lat="43.5412989" lon="11.2941381"><ele>370.0</ele><time>2026-04-22T16:02:24.619Z</time></trkpt><trkpt lat="43.5413952" lon="11.2942425"><ele>370.0</ele><time>2026-04-22T16:02:25.62Z</time></trkpt><trkpt lat="43.5415077" lon="11.2943558"><ele>370.0</ele><time>2026-04-22T16:02:26.62Z</time></trkpt><trkpt lat="43.5416188" lon="11.2944581"><ele>370.0</ele><time>2026-04-22T16:02:27.62Z</time></trkpt><trkpt lat="43.5417316" lon="11.2945854"><ele>370.0</ele><time>2026-04-22T16:02:28.619Z</time></trkpt><trkpt lat="43.5418444" lon="11.2947253"><ele>372.25</ele><time>2026-04-22T16:02:29.619Z</time></trkpt><trkpt lat="43.5419446" lon="11.2948506"><ele>374.5</ele><time>2026-04-22T16:02:30.62Z</time></trkpt><trkpt lat="43.542039" lon="11.2950078"><ele>376.75</ele><time>2026-04-22T16:02:31.619Z</time></trkpt><trkpt lat="43.5421368" lon="11.29517"><ele>379.0</ele><time>2026-04-22T16:02:32.62Z</time></trkpt><trkpt lat="43.5422395" lon="11.2953331"><ele>379.25</ele><time>2026-04-22T16:02:33.62Z</time></trkpt><trkpt lat="43.5423237" lon="11.2954825"><ele>379.5</ele><time>2026-04-22T16:02:34.619Z</time></trkpt><trkpt lat="43.5424082" lon="11.2956263"><ele>379.75</ele><time>2026-04-22T16:02:35.619Z</time></trkpt><trkpt lat="43.5424867" lon="11.2957649"><ele>380.0</ele><time>2026-04-22T16:02:36.619Z</time></trkpt><trkpt lat="43.542568" lon="11.2959019"><ele>381.8</ele><time>2026-04-22T16:02:37.619Z</time></trkpt><trkpt lat="43.5426618" lon="11.2960307"><ele>383.6</ele><time>2026-04-22T16:02:38.62Z</time></trkpt><trkpt lat="43.5427259" lon="11.2961087"><ele>385.4</ele><time>2026-04-22T16:02:39.62Z</time></trkpt><trkpt lat="43.5428149" lon="11.2962149"><ele>387.2</ele><time>2026-04-22T16:02:40.619Z</time></trkpt><trkpt lat="43.542898" lon="11.2963139"><ele>389.0</ele><time>2026-04-22T16:02:41.619Z</time></trkpt><trkpt lat="43.5429764" lon="11.2963963"><ele>390.99999999999994</ele><time>2026-04-22T16:02:42.619Z</time></trkpt><trkpt lat="43.54305" lon="11.2964787"><ele>393.0</ele><time>2026-04-22T16:02:43.619Z</time></trkpt><trkpt lat="43.5431156" lon="11.2965485"><ele>395.0</ele><time>2026-04-22T16:02:44.619Z</time></trkpt><trkpt lat="43.5431685" lon="11.296604"><ele>397.0</ele><time>2026-04-22T16:02:45.619Z</time></trkpt><trkpt lat="43.5432709" lon="11.2966799"><ele>398.99999999999994</ele><time>2026-04-22T16:02:47.62Z</time></trkpt><trkpt lat="43.5433296" lon="11.2967116"><ele>401.0</ele><time>2026-04-22T16:02:48.62Z</time></trkpt><trkpt lat="43.543398" lon="11.296742"><ele>401.0</ele><time>2026-04-22T16:02:49.619Z</time></trkpt><trkpt lat="43.5434799" lon="11.2967755"><ele>401.0</ele><time>2026-04-22T16:02:50.619Z</time></trkpt><trkpt lat="43.5435733" lon="11.2968202"><ele>401.0</ele><time>2026-04-22T16:02:51.62Z</time></trkpt><trkpt lat="43.5436772" lon="11.2968809"><ele>401.0</ele><time>2026-04-22T16:02:52.619Z</time></trkpt><trkpt lat="43.5437901" lon="11.2969336"><ele>401.0</ele><time>2026-04-22T16:02:53.619Z</time></trkpt><trkpt lat="43.5438953" lon="11.2969843"><ele>402.3333333333333</ele><time>2026-04-22T16:02:54.619Z</time></trkpt><trkpt lat="43.5439705" lon="11.2970312"><ele>403.66666666666663</ele><time>2026-04-22T16:02:55.62Z</time></trkpt><trkpt lat="43.5440385" lon="11.2970779"><ele>405.0</ele><time>2026-04-22T16:02:56.619Z</time></trkpt><trkpt lat="43.5441132" lon="11.2971058"><ele>406.33333333333337</ele><time>2026-04-22T16:02:57.62Z</time></trkpt><trkpt lat="43.5441972" lon="11.2971492"><ele>407.6666666666667</ele><time>2026-04-22T16:02:58.62Z</time></trkpt><trkpt lat="43.5442593" lon="11.2971978"><ele>409.0</ele><time>2026-04-22T16:02:59.619Z</time></trkpt><trkpt lat="43.5443161" lon="11.2972559"><ele>409.2</ele><time>2026-04-22T16:03:00.619Z</time></trkpt><trkpt lat="43.544391" lon="11.2973258"><ele>409.4</ele><time>2026-04-22T16:03:01.62Z</time></trkpt><trkpt lat="43.5444678" lon="11.2973967"><ele>409.6</ele><time>2026-04-22T16:03:02.62Z</time></trkpt><trkpt lat="43.544545" lon="11.2974563"><ele>409.8</ele><time>2026-04-22T16:03:03.62Z</time></trkpt><trkpt lat="43.5446296" lon="11.2975219"><ele>410.0</ele><time>2026-04-22T16:03:04.62Z</time></trkpt><trkpt lat="43.5447192" lon="11.2976014"><ele>410.66666666666663</ele><time>2026-04-22T16:03:05.619Z</time></trkpt><trkpt lat="43.5448418" lon="11.2977059"><ele>411.33333333333337</ele><time>2026-04-22T16:03:06.619Z</time></trkpt><trkpt lat="43.5450013" lon="11.2978304"><ele>412.0</ele><time>2026-04-22T16:03:07.62Z</time></trkpt><trkpt lat="43.5451825" lon="11.2979832"><ele>412.33333333333337</ele><time>2026-04-22T16:03:08.619Z</time></trkpt><trkpt lat="43.5453451" lon="11.298128"><ele>412.66666666666663</ele><time>2026-04-22T16:03:09.62Z</time></trkpt><trkpt lat="43.5455322" lon="11.2982985"><ele>413.0</ele><time>2026-04-22T16:03:10.619Z</time></trkpt><trkpt lat="43.545723" lon="11.298477"><ele>414.66666666666663</ele><time>2026-04-22T16:03:11.62Z</time></trkpt><trkpt lat="43.5458844" lon="11.2986259"><ele>416.33333333333337</ele><time>2026-04-22T16:03:12.619Z</time></trkpt><trkpt lat="43.5460386" lon="11.2987683"><ele>418.0</ele><time>2026-04-22T16:03:13.62Z</time></trkpt><trkpt lat="43.5461736" lon="11.2988874"><ele>422.25</ele><time>2026-04-22T16:03:14.619Z</time></trkpt><trkpt lat="43.5462952" lon="11.2989968"><ele>426.5</ele><time>2026-04-22T16:03:15.62Z</time></trkpt><trkpt lat="43.5464044" lon="11.2991001"><ele>430.75</ele><time>2026-04-22T16:03:16.62Z</time></trkpt><trkpt lat="43.5465059" lon="11.2991908"><ele>435.0</ele><time>2026-04-22T16:03:17.619Z</time></trkpt><trkpt lat="43.546595" lon="11.2992625"><ele>435.0</ele><time>2026-04-22T16:03:18.62Z</time></trkpt><trkpt lat="43.5466768" lon="11.299318"><ele>435.0</ele><time>2026-04-22T16:03:19.619Z</time></trkpt><trkpt lat="43.5467507" lon="11.2993711"><ele>435.0</ele><time>2026-04-22T16:03:20.619Z</time></trkpt><trkpt lat="43.546818" lon="11.2994328"><ele>435.0</ele><time>2026-04-22T16:03:21.62Z</time></trkpt><trkpt lat="43.5468838" lon="11.2995027"><ele>435.0</ele><time>2026-04-22T16:03:22.619Z</time></trkpt><trkpt lat="43.5469473" lon="11.2995839"><ele>435.0</ele><time>2026-04-22T16:03:23.619Z</time></trkpt><trkpt lat="43.5470181" lon="11.299662"><ele>436.1666666666667</ele><time>2026-04-22T16:03:24.62Z</time></trkpt><trkpt lat="43.5470801" lon="11.2997308"><ele>437.33333333333337</ele><time>2026-04-22T16:03:25.619Z</time></trkpt><trkpt lat="43.5471487" lon="11.2997857"><ele>438.5</ele><time>2026-04-22T16:03:26.619Z</time></trkpt><trkpt lat="43.547224" lon="11.2998289"><ele>439.6666666666667</ele><time>2026-04-22T16:03:27.619Z</time></trkpt><trkpt lat="43.547318" lon="11.2998592"><ele>440.83333333333337</ele><time>2026-04-22T16:03:29.619Z</time></trkpt><trkpt lat="43.5474106" lon="11.299919"><ele>442.0</ele><time>2026-04-22T16:03:30.62Z</time></trkpt><trkpt lat="43.5475336" lon="11.2999884"><ele>442.6</ele><time>2026-04-22T16:03:31.619Z</time></trkpt><trkpt lat="43.5476186" lon="11.300046"><ele>443.20000000000005</ele><time>2026-04-22T16:03:32.619Z</time></trkpt><trkpt lat="43.5477126" lon="11.3001243"><ele>443.8</ele><time>2026-04-22T16:03:33.619Z</time></trkpt><trkpt lat="43.5478104" lon="11.3002159"><ele>444.4</ele><time>2026-04-22T16:03:34.619Z</time></trkpt><trkpt lat="43.5478774" lon="11.3002928"><ele>445.0</ele><time>2026-04-22T16:03:35.619Z</time></trkpt><trkpt lat="43.5479326" lon="11.3003716"><ele>445.00000000000006</ele><time>2026-04-22T16:03:36.619Z</time></trkpt><trkpt lat="43.5479766" lon="11.3004648"><ele>445.0</ele><time>2026-04-22T16:03:37.62Z</time></trkpt><trkpt lat="43.5480045" lon="11.3005783"><ele>445.0</ele><time>2026-04-22T16:03:38.62Z</time></trkpt><trkpt lat="43.5480422" lon="11.3006978"><ele>445.0</ele><time>2026-04-22T16:03:39.619Z</time></trkpt><trkpt lat="43.5480924" lon="11.3008067"><ele>445.00000000000006</ele><time>2026-04-22T16:03:40.619Z</time></trkpt><trkpt lat="43.5481452" lon="11.3009044"><ele>445.0</ele><time>2026-04-22T16:03:41.619Z</time></trkpt><trkpt lat="43.5482041" lon="11.3009921"><ele>446.50000000000006</ele><time>2026-04-22T16:03:42.619Z</time></trkpt><trkpt lat="43.5482685" lon="11.301069"><ele>448.0</ele><time>2026-04-22T16:03:43.62Z</time></trkpt><trkpt lat="43.548331" lon="11.3011256"><ele>449.5</ele><time>2026-04-22T16:03:44.619Z</time></trkpt><trkpt lat="43.5483908" lon="11.3011795"><ele>451.0</ele><time>2026-04-22T16:03:45.619Z</time></trkpt><trkpt lat="43.5484502" lon="11.301241"><ele>452.50000000000006</ele><time>2026-04-22T16:03:46.619Z</time></trkpt><trkpt lat="43.548501" lon="11.3012981"><ele>454.0</ele><time>2026-04-22T16:03:47.619Z</time></trkpt><trkpt lat="43.548583" lon="11.3014002"><ele>454.50000000000006</ele><time>2026-04-22T16:03:49.619Z</time></trkpt><trkpt lat="43.5486647" lon="11.3015062"><ele>455.0</ele><time>2026-04-22T16:03:51.619Z</time></trkpt><trkpt lat="43.5487228" lon="11.3015464"><ele>455.5</ele><time>2026-04-22T16:03:54.619Z</time></trkpt><trkpt lat="43.5487721" lon="11.3014737"><ele>456.0</ele><time>2026-04-22T16:03:56.619Z</time></trkpt><trkpt lat="43.5488086" lon="11.301398"><ele>456.50000000000006</ele><time>2026-04-22T16:03:57.62Z</time></trkpt><trkpt lat="43.5488566" lon="11.3012948"><ele>457.0</ele><time>2026-04-22T16:03:58.62Z</time></trkpt><trkpt lat="43.548909" lon="11.3011819"><ele>457.40000000000003</ele><time>2026-04-22T16:03:59.619Z</time></trkpt><trkpt lat="43.5489696" lon="11.3010543"><ele>457.80000000000007</ele><time>2026-04-22T16:04:00.62Z</time></trkpt><trkpt lat="43.549031" lon="11.3009264"><ele>458.2</ele><time>2026-04-22T16:04:01.619Z</time></trkpt><trkpt lat="43.5490911" lon="11.3008137"><ele>458.6</ele><time>2026-04-22T16:04:02.619Z</time></trkpt><trkpt lat="43.5491486" lon="11.300715"><ele>459.0</ele><time>2026-04-22T16:04:03.619Z</time></trkpt><trkpt lat="43.5492063" lon="11.3006322"><ele>457.6</ele><time>2026-04-22T16:04:04.62Z</time></trkpt><trkpt lat="43.5492579" lon="11.3005503"><ele>456.2</ele><time>2026-04-22T16:04:05.62Z</time></trkpt><trkpt lat="43.5493042" lon="11.3004838"><ele>454.80000000000007</ele><time>2026-04-22T16:04:06.62Z</time></trkpt><trkpt lat="43.5493764" lon="11.3003592"><ele>453.40000000000003</ele><time>2026-04-22T16:04:08.619Z</time></trkpt><trkpt lat="43.5494378" lon="11.3002199"><ele>452.0</ele><time>2026-04-22T16:04:10.62Z</time></trkpt><trkpt lat="43.5494764" lon="11.3001166"><ele>452.0</ele><time>2026-04-22T16:04:11.62Z</time></trkpt><trkpt lat="43.5495268" lon="11.3000009"><ele>452.00000000000006</ele><time>2026-04-22T16:04:12.62Z</time></trkpt><trkpt lat="43.5495934" lon="11.2998644"><ele>452.00000000000006</ele><time>2026-04-22T16:04:13.619Z</time></trkpt><trkpt lat="43.5496428" lon="11.2997604"><ele>452.0</ele><time>2026-04-22T16:04:14.619Z</time></trkpt><trkpt lat="43.5497032" lon="11.2996281"><ele>452.0</ele><time>2026-04-22T16:04:15.62Z</time></trkpt><trkpt lat="43.5497446" lon="11.2995463"><ele>453.0</ele><time>2026-04-22T16:04:16.619Z</time></trkpt><trkpt lat="43.5497989" lon="11.2994415"><ele>454.00000000000006</ele><time>2026-04-22T16:04:17.62Z</time></trkpt><trkpt lat="43.5498676" lon="11.2993291"><ele>455.00000000000006</ele><time>2026-04-22T16:04:18.62Z</time></trkpt><trkpt lat="43.5499486" lon="11.2992108"><ele>456.0</ele><time>2026-04-22T16:04:19.619Z</time></trkpt><trkpt lat="43.5500322" lon="11.2991254"><ele>457.0</ele><time>2026-04-22T16:04:20.62Z</time></trkpt><trkpt lat="43.5501183" lon="11.2990523"><ele>457.0</ele><time>2026-04-22T16:04:21.619Z</time></trkpt><trkpt lat="43.5502089" lon="11.2989804"><ele>457.00000000000006</ele><time>2026-04-22T16:04:22.619Z</time></trkpt><trkpt lat="43.5502954" lon="11.2989123"><ele>457.00000000000006</ele><time>2026-04-22T16:04:23.62Z</time></trkpt><trkpt lat="43.5503775" lon="11.2988494"><ele>457.0</ele><time>2026-04-22T16:04:24.619Z</time></trkpt><trkpt lat="43.5504483" lon="11.2987884"><ele>457.0</ele><time>2026-04-22T16:04:25.619Z</time></trkpt><trkpt lat="43.5505154" lon="11.2987337"><ele>457.6</ele><time>2026-04-22T16:04:26.619Z</time></trkpt><trkpt lat="43.5505725" lon="11.2986833"><ele>458.20000000000005</ele><time>2026-04-22T16:04:27.62Z</time></trkpt><trkpt lat="43.5506915" lon="11.2985792"><ele>458.8</ele><time>2026-04-22T16:04:29.62Z</time></trkpt><trkpt lat="43.5507683" lon="11.2985144"><ele>459.4</ele><time>2026-04-22T16:04:30.619Z</time></trkpt><trkpt lat="43.5508366" lon="11.2984519"><ele>460.0</ele><time>2026-04-22T16:04:31.619Z</time></trkpt><trkpt lat="43.550919" lon="11.29837"><ele>460.00000000000006</ele><time>2026-04-22T16:04:32.619Z</time></trkpt><trkpt lat="43.5509731" lon="11.2983206"><ele>460.0</ele><time>2026-04-22T16:04:33.619Z</time></trkpt><trkpt lat="43.551064" lon="11.298244"><ele>460.0</ele><time>2026-04-22T16:04:35.619Z</time></trkpt><trkpt lat="43.5511219" lon="11.2981803"><ele>460.0</ele><time>2026-04-22T16:04:37.619Z</time></trkpt><trkpt lat="43.5511494" lon="11.2980908"><ele>460.00000000000006</ele><time>2026-04-22T16:04:39.619Z</time></trkpt><trkpt lat="43.5511151" lon="11.2980123"><ele>460.0</ele><time>2026-04-22T16:04:41.619Z</time></trkpt><trkpt lat="43.5510706" lon="11.2978666"><ele>457.83333333333337</ele><time>2026-04-22T16:04:43.619Z</time></trkpt><trkpt lat="43.5510555" lon="11.2977746"><ele>455.6666666666667</ele><time>2026-04-22T16:04:44.62Z</time></trkpt><trkpt lat="43.5510391" lon="11.2976885"><ele>453.5</ele><time>2026-04-22T16:04:45.619Z</time></trkpt><trkpt lat="43.5510287" lon="11.2975987"><ele>451.33333333333337</ele><time>2026-04-22T16:04:46.619Z</time></trkpt><trkpt lat="43.5510346" lon="11.297434"><ele>449.1666666666667</ele><time>2026-04-22T16:04:48.62Z</time></trkpt><trkpt lat="43.551056" lon="11.2973453"><ele>447.0</ele><time>2026-04-22T16:04:49.62Z</time></trkpt><trkpt lat="43.5510861" lon="11.2972654"><ele>447.40000000000003</ele><time>2026-04-22T16:04:50.619Z</time></trkpt><trkpt lat="43.55117" lon="11.2971468"><ele>447.80000000000007</ele><time>2026-04-22T16:04:52.619Z</time></trkpt><trkpt lat="43.5512468" lon="11.2970501"><ele>448.2</ele><time>2026-04-22T16:04:54.62Z</time></trkpt><trkpt lat="43.5513321" lon="11.2969428"><ele>448.6</ele><time>2026-04-22T16:04:56.62Z</time></trkpt><trkpt lat="43.55137" lon="11.2968507"><ele>449.0</ele><time>2026-04-22T16:04:57.62Z</time></trkpt><trkpt lat="43.5513923" lon="11.2967526"><ele>448.99999999999994</ele><time>2026-04-22T16:04:58.619Z</time></trkpt><trkpt lat="43.5514267" lon="11.2966256"><ele>449.0</ele><time>2026-04-22T16:04:59.619Z</time></trkpt><trkpt lat="43.5514494" lon="11.2965318"><ele>449.0</ele><time>2026-04-22T16:05:00.62Z</time></trkpt><trkpt lat="43.5514637" lon="11.2964274"><ele>449.0</ele><time>2026-04-22T16:05:01.62Z</time></trkpt><trkpt lat="43.5514795" lon="11.2963231"><ele>448.99999999999994</ele><time>2026-04-22T16:05:02.619Z</time></trkpt><trkpt lat="43.5514799" lon="11.296215"><ele>449.0</ele><time>2026-04-22T16:05:03.619Z</time></trkpt><trkpt lat="43.5514732" lon="11.2961128"><ele>446.57142857142856</ele><time>2026-04-22T16:05:04.619Z</time></trkpt><trkpt lat="43.5514597" lon="11.2960126"><ele>444.1428571428571</ele><time>2026-04-22T16:05:05.62Z</time></trkpt><trkpt lat="43.5514436" lon="11.2959112"><ele>441.71428571428567</ele><time>2026-04-22T16:05:06.62Z</time></trkpt><trkpt lat="43.5514237" lon="11.2958148"><ele>439.2857142857143</ele><time>2026-04-22T16:05:07.619Z</time></trkpt><trkpt lat="43.5514019" lon="11.2957307"><ele>436.85714285714283</ele><time>2026-04-22T16:05:08.62Z</time></trkpt><trkpt lat="43.5513778" lon="11.2956441"><ele>434.42857142857144</ele><time>2026-04-22T16:05:09.619Z</time></trkpt><trkpt lat="43.5513441" lon="11.2955585"><ele>432.0</ele><time>2026-04-22T16:05:10.619Z</time></trkpt><trkpt lat="43.5513063" lon="11.2954779"><ele>430.0</ele><time>2026-04-22T16:05:11.619Z</time></trkpt><trkpt lat="43.551256" lon="11.2953833"><ele>428.0</ele><time>2026-04-22T16:05:12.619Z</time></trkpt><trkpt lat="43.5511989" lon="11.2953092"><ele>426.0</ele><time>2026-04-22T16:05:13.619Z</time></trkpt><trkpt lat="43.5511404" lon="11.2952342"><ele>424.0</ele><time>2026-04-22T16:05:14.62Z</time></trkpt><trkpt lat="43.5510864" lon="11.2951598"><ele>422.0</ele><time>2026-04-22T16:05:15.619Z</time></trkpt><trkpt lat="43.5510412" lon="11.2950907"><ele>420.0</ele><time>2026-04-22T16:05:16.62Z</time></trkpt><trkpt lat="43.5510087" lon="11.2950044"><ele>419.0</ele><time>2026-04-22T16:05:17.619Z</time></trkpt><trkpt lat="43.5509871" lon="11.2949114"><ele>418.0</ele><time>2026-04-22T16:05:18.62Z</time></trkpt><trkpt lat="43.5509618" lon="11.2948097"><ele>417.0</ele><time>2026-04-22T16:05:19.62Z</time></trkpt><trkpt lat="43.5509424" lon="11.2947138"><ele>416.0</ele><time>2026-04-22T16:05:20.619Z</time></trkpt><trkpt lat="43.5509212" lon="11.2946175"><ele>415.0</ele><time>2026-04-22T16:05:21.619Z</time></trkpt><trkpt lat="43.5508992" lon="11.2945208"><ele>414.0</ele><time>2026-04-22T16:05:22.619Z</time></trkpt><trkpt lat="43.5508828" lon="11.2944289"><ele>413.0</ele><time>2026-04-22T16:05:23.619Z</time></trkpt><trkpt lat="43.5508698" lon="11.2943412"><ele>412.4</ele><time>2026-04-22T16:05:24.619Z</time></trkpt><trkpt lat="43.5508287" lon="11.2941869"><ele>411.79999999999995</ele><time>2026-04-22T16:05:26.62Z</time></trkpt><trkpt lat="43.5508179" lon="11.2940978"><ele>411.2</ele><time>2026-04-22T16:05:27.619Z</time></trkpt><trkpt lat="43.5508036" lon="11.293987"><ele>410.6</ele><time>2026-04-22T16:05:28.62Z</time></trkpt><trkpt lat="43.550768" lon="11.293846"><ele>410.0</ele><time>2026-04-22T16:05:29.619Z</time></trkpt><trkpt lat="43.5507463" lon="11.2937426"><ele>407.8</ele><time>2026-04-22T16:05:30.619Z</time></trkpt><trkpt lat="43.5507105" lon="11.2936229"><ele>405.6</ele><time>2026-04-22T16:05:31.619Z</time></trkpt><trkpt lat="43.5506727" lon="11.2934836"><ele>403.4</ele><time>2026-04-22T16:05:32.62Z</time></trkpt><trkpt lat="43.5506285" lon="11.2933552"><ele>401.2</ele><time>2026-04-22T16:05:33.619Z</time></trkpt><trkpt lat="43.5505784" lon="11.2932214"><ele>399.0</ele><time>2026-04-22T16:05:34.62Z</time></trkpt><trkpt lat="43.550532" lon="11.2930973"><ele>396.2</ele><time>2026-04-22T16:05:35.619Z</time></trkpt><trkpt lat="43.5504904" lon="11.2929696"><ele>393.4</ele><time>2026-04-22T16:05:36.619Z</time></trkpt><trkpt lat="43.5504592" lon="11.2928504"><ele>390.6</ele><time>2026-04-22T16:05:37.619Z</time></trkpt><trkpt lat="43.5504248" lon="11.2927495"><ele>387.8</ele><time>2026-04-22T16:05:38.619Z</time></trkpt><trkpt lat="43.5503926" lon="11.292649"><ele>385.0</ele><time>2026-04-22T16:05:39.619Z</time></trkpt><trkpt lat="43.5503532" lon="11.2925145"><ele>384.6</ele><time>2026-04-22T16:05:41.619Z</time></trkpt><trkpt lat="43.5502708" lon="11.2923003"><ele>384.2</ele><time>2026-04-22T16:05:44.619Z</time></trkpt><trkpt lat="43.5502382" lon="11.2922109"><ele>383.79999999999995</ele><time>2026-04-22T16:05:45.619Z</time></trkpt><trkpt lat="43.5501971" lon="11.2920974"><ele>383.4</ele><time>2026-04-22T16:05:46.62Z</time></trkpt><trkpt lat="43.5501561" lon="11.2919821"><ele>383.0</ele><time>2026-04-22T16:05:47.62Z</time></trkpt><trkpt lat="43.5501161" lon="11.2918692"><ele>381.6666666666667</ele><time>2026-04-22T16:05:48.619Z</time></trkpt><trkpt lat="43.5500859" lon="11.2917845"><ele>380.33333333333337</ele><time>2026-04-22T16:05:49.62Z</time></trkpt><trkpt lat="43.5500597" lon="11.2916512"><ele>379.0</ele><time>2026-04-22T16:05:51.619Z</time></trkpt><trkpt lat="43.5500279" lon="11.2915664"><ele>377.6666666666667</ele><time>2026-04-22T16:05:52.619Z</time></trkpt><trkpt lat="43.5499963" lon="11.2914633"><ele>376.3333333333333</ele><time>2026-04-22T16:05:53.619Z</time></trkpt><trkpt lat="43.5499533" lon="11.2913343"><ele>375.0</ele><time>2026-04-22T16:05:54.619Z</time></trkpt><trkpt lat="43.5498921" lon="11.2911709"><ele>371.3333333333333</ele><time>2026-04-22T16:05:55.62Z</time></trkpt><trkpt lat="43.5498145" lon="11.2909823"><ele>367.66666666666663</ele><time>2026-04-22T16:05:56.619Z</time></trkpt><trkpt lat="43.5497194" lon="11.2907609"><ele>364.0</ele><time>2026-04-22T16:05:57.62Z</time></trkpt><trkpt lat="43.5496119" lon="11.2905092"><ele>360.0</ele><time>2026-04-22T16:05:58.62Z</time></trkpt><trkpt lat="43.5495035" lon="11.2902938"><ele>356.0</ele><time>2026-04-22T16:05:59.619Z</time></trkpt><trkpt lat="43.5493842" lon="11.2900652"><ele>352.0</ele><time>2026-04-22T16:06:00.619Z</time></trkpt><trkpt lat="43.5492542" lon="11.2898102"><ele>350.0</ele><time>2026-04-22T16:06:01.619Z</time></trkpt><trkpt lat="43.5490988" lon="11.2895591"><ele>348.0</ele><time>2026-04-22T16:06:02.62Z</time></trkpt><trkpt lat="43.5489674" lon="11.2893275"><ele>348.0</ele><time>2026-04-22T16:06:03.62Z</time></trkpt><trkpt lat="43.5488272" lon="11.2890809"><ele>348.0</ele><time>2026-04-22T16:06:04.62Z</time></trkpt><trkpt lat="43.5486767" lon="11.2888296"><ele>347.3333333333333</ele><time>2026-04-22T16:06:05.619Z</time></trkpt><trkpt lat="43.5485386" lon="11.2886132"><ele>346.66666666666663</ele><time>2026-04-22T16:06:06.619Z</time></trkpt><trkpt lat="43.548402" lon="11.2883996"><ele>346.0</ele><time>2026-04-22T16:06:07.62Z</time></trkpt><trkpt lat="43.5482584" lon="11.2881701"><ele>346.66666666666663</ele><time>2026-04-22T16:06:08.62Z</time></trkpt><trkpt lat="43.5481112" lon="11.2879514"><ele>347.3333333333333</ele><time>2026-04-22T16:06:09.619Z</time></trkpt><trkpt lat="43.5479582" lon="11.2877284"><ele>348.0</ele><time>2026-04-22T16:06:10.62Z</time></trkpt><trkpt lat="43.5490606" lon="11.2893255"><ele>348.0</ele><time>2026-04-22T16:06:11.62Z</time></trkpt><trkpt lat="43.5490168" lon="11.2892425"><ele>348.0</ele><time>2026-04-22T16:06:12.62Z</time></trkpt><trkpt lat="43.5489706" lon="11.2891615"><ele>348.0</ele><time>2026-04-22T16:06:13.619Z</time></trkpt><trkpt lat="43.5489243" lon="11.2890724"><ele>348.0</ele><time>2026-04-22T16:06:14.619Z</time></trkpt><trkpt lat="43.5488802" lon="11.2889898"><ele>348.0</ele><time>2026-04-22T16:06:15.62Z</time></trkpt><trkpt lat="43.5488373" lon="11.2889058"><ele>348.0</ele><time>2026-04-22T16:06:16.619Z</time></trkpt><trkpt lat="43.5487958" lon="11.2888328"><ele>348.0</ele><time>2026-04-22T16:06:17.619Z</time></trkpt><trkpt lat="43.5487539" lon="11.2887562"><ele>347.6666666666667</ele><time>2026-04-22T16:06:18.619Z</time></trkpt><trkpt lat="43.5487128" lon="11.2886809"><ele>347.3333333333333</ele><time>2026-04-22T16:06:19.62Z</time></trkpt><trkpt lat="43.5486419" lon="11.2885677"><ele>347.0</ele><time>2026-04-22T16:06:21.619Z</time></trkpt><trkpt lat="43.5486081" lon="11.2884718"><ele>346.66666666666663</ele><time>2026-04-22T16:06:58.619Z</time></trkpt><trkpt lat="43.5485421" lon="11.2883571"><ele>346.3333333333333</ele><time>2026-04-22T16:07:00.619Z</time></trkpt><trkpt lat="43.5484996" lon="11.2882928"><ele>346.0</ele><time>2026-04-22T16:07:01.619Z</time></trkpt><trkpt lat="43.5484511" lon="11.288216"><ele>346.0</ele><time>2026-04-22T16:07:02.619Z</time></trkpt><trkpt lat="43.548399" lon="11.2881327"><ele>346.0</ele><time>2026-04-22T16:07:03.619Z</time></trkpt><trkpt lat="43.5483504" lon="11.2880622"><ele>346.0</ele><time>2026-04-22T16:07:04.619Z</time></trkpt><trkpt lat="43.5482754" lon="11.2879506"><ele>346.0</ele><time>2026-04-22T16:07:06.62Z</time></trkpt><trkpt lat="43.5482394" lon="11.2878677"><ele>346.0</ele><time>2026-04-22T16:07:08.62Z</time></trkpt><trkpt lat="43.5483034" lon="11.287993"><ele>346.0</ele><time>2026-04-22T16:07:16.619Z</time></trkpt><trkpt lat="43.5483519" lon="11.288057"><ele>346.0</ele><time>2026-04-22T16:07:17.619Z</time></trkpt><trkpt lat="43.5484013" lon="11.2881364"><ele>346.0</ele><time>2026-04-22T16:07:18.619Z</time></trkpt><trkpt lat="43.5484518" lon="11.2882206"><ele>346.0</ele><time>2026-04-22T16:07:19.619Z</time></trkpt><trkpt lat="43.548503" lon="11.2883163"><ele>346.0</ele><time>2026-04-22T16:07:20.619Z</time></trkpt><trkpt lat="43.5485598" lon="11.2884157"><ele>346.0</ele><time>2026-04-22T16:07:21.619Z</time></trkpt><trkpt lat="43.5486206" lon="11.2885153"><ele>346.0</ele><time>2026-04-22T16:07:22.619Z</time></trkpt><trkpt lat="43.5486794" lon="11.2886177"><ele>346.4</ele><time>2026-04-22T16:07:23.62Z</time></trkpt><trkpt lat="43.5487343" lon="11.2887186"><ele>346.8</ele><time>2026-04-22T16:07:24.619Z</time></trkpt><trkpt lat="43.5487898" lon="11.2888162"><ele>347.2</ele><time>2026-04-22T16:07:25.62Z</time></trkpt><trkpt lat="43.5488493" lon="11.2889231"><ele>347.59999999999997</ele><time>2026-04-22T16:07:26.62Z</time></trkpt><trkpt lat="43.5489083" lon="11.2890305"><ele>348.0</ele><time>2026-04-22T16:07:27.619Z</time></trkpt><trkpt lat="43.5489683" lon="11.2891408"><ele>348.0</ele><time>2026-04-22T16:07:28.619Z</time></trkpt><trkpt lat="43.5490302" lon="11.2892626"><ele>348.0</ele><time>2026-04-22T16:07:29.62Z</time></trkpt><trkpt lat="43.5490952" lon="11.2893832"><ele>348.0</ele><time>2026-04-22T16:07:30.619Z</time></trkpt><trkpt lat="43.5491597" lon="11.2895007"><ele>348.0</ele><time>2026-04-22T16:07:31.619Z</time></trkpt><trkpt lat="43.5492233" lon="11.2896091"><ele>348.0</ele><time>2026-04-22T16:07:32.62Z</time></trkpt><trkpt lat="43.5492841" lon="11.2897114"><ele>348.79999999999995</ele><time>2026-04-22T16:07:33.619Z</time></trkpt><trkpt lat="43.5493431" lon="11.2898123"><ele>349.6</ele><time>2026-04-22T16:07:34.619Z</time></trkpt><trkpt lat="43.5494051" lon="11.28992"><ele>350.4</ele><time>2026-04-22T16:07:35.62Z</time></trkpt><trkpt lat="43.5494608" lon="11.2900311"><ele>351.20000000000005</ele><time>2026-04-22T16:07:36.619Z</time></trkpt><trkpt lat="43.5495138" lon="11.290146"><ele>352.0</ele><time>2026-04-22T16:07:37.619Z</time></trkpt><trkpt lat="43.549566" lon="11.2902649"><ele>352.20000000000005</ele><time>2026-04-22T16:07:38.619Z</time></trkpt><trkpt lat="43.5496197" lon="11.2903904"><ele>352.4</ele><time>2026-04-22T16:07:39.62Z</time></trkpt><trkpt lat="43.5496668" lon="11.2905075"><ele>352.6</ele><time>2026-04-22T16:07:40.619Z</time></trkpt><trkpt lat="43.5497166" lon="11.2906358"><ele>352.79999999999995</ele><time>2026-04-22T16:07:41.62Z</time></trkpt><trkpt lat="43.5497652" lon="11.2907727"><ele>353.0</ele><time>2026-04-22T16:07:42.619Z</time></trkpt><trkpt lat="43.5498129" lon="11.2909111"><ele>355.75</ele><time>2026-04-22T16:07:43.62Z</time></trkpt><trkpt lat="43.549859" lon="11.2910545"><ele>358.5</ele><time>2026-04-22T16:07:44.619Z</time></trkpt><trkpt lat="43.5499025" lon="11.291197"><ele>361.25</ele><time>2026-04-22T16:07:45.619Z</time></trkpt><trkpt lat="43.549942" lon="11.2913205"><ele>364.0</ele><time>2026-04-22T16:07:46.619Z</time></trkpt><trkpt lat="43.5500104" lon="11.2915333"><ele>366.75</ele><time>2026-04-22T16:07:47.619Z</time></trkpt><trkpt lat="43.5500611" lon="11.2916685"><ele>369.5</ele><time>2026-04-22T16:07:48.62Z</time></trkpt><trkpt lat="43.5501092" lon="11.2918045"><ele>372.25</ele><time>2026-04-22T16:07:49.62Z</time></trkpt><trkpt lat="43.5501584" lon="11.2919467"><ele>375.0</ele><time>2026-04-22T16:07:50.619Z</time></trkpt><trkpt lat="43.550211" lon="11.2920948"><ele>375.0</ele><time>2026-04-22T16:07:51.62Z</time></trkpt><trkpt lat="43.5502628" lon="11.2922456"><ele>375.0</ele><time>2026-04-22T16:07:52.62Z</time></trkpt><trkpt lat="43.550317" lon="11.2923942"><ele>375.0</ele><time>2026-04-22T16:07:53.619Z</time></trkpt><trkpt lat="43.5503716" lon="11.2925418"><ele>375.0</ele><time>2026-04-22T16:07:54.619Z</time></trkpt><trkpt lat="43.5504234" lon="11.2926905"><ele>377.5</ele><time>2026-04-22T16:07:55.619Z</time></trkpt><trkpt lat="43.5504728" lon="11.2928401"><ele>380.0</ele><time>2026-04-22T16:07:56.619Z</time></trkpt><trkpt lat="43.5505215" lon="11.2929796"><ele>382.5</ele><time>2026-04-22T16:07:57.619Z</time></trkpt><trkpt lat="43.5505678" lon="11.293118"><ele>385.0</ele><time>2026-04-22T16:07:58.619Z</time></trkpt><trkpt lat="43.5506152" lon="11.2932531"><ele>387.8</ele><time>2026-04-22T16:07:59.62Z</time></trkpt><trkpt lat="43.5506611" lon="11.2933885"><ele>390.6</ele><time>2026-04-22T16:08:00.619Z</time></trkpt><trkpt lat="43.5507091" lon="11.2935248"><ele>393.4</ele><time>2026-04-22T16:08:01.619Z</time></trkpt><trkpt lat="43.550757" lon="11.2936575"><ele>396.2</ele><time>2026-04-22T16:08:02.619Z</time></trkpt><trkpt lat="43.5508025" lon="11.2937908"><ele>399.0</ele><time>2026-04-22T16:08:03.619Z</time></trkpt><trkpt lat="43.5508463" lon="11.2939177"><ele>401.2</ele><time>2026-04-22T16:08:04.62Z</time></trkpt><trkpt lat="43.5508862" lon="11.294045"><ele>403.4</ele><time>2026-04-22T16:08:05.619Z</time></trkpt><trkpt lat="43.5509218" lon="11.2941751"><ele>405.6</ele><time>2026-04-22T16:08:06.62Z</time></trkpt><trkpt lat="43.5509546" lon="11.294301"><ele>407.8</ele><time>2026-04-22T16:08:07.62Z</time></trkpt><trkpt lat="43.5509801" lon="11.2944245"><ele>410.0</ele><time>2026-04-22T16:08:08.62Z</time></trkpt><trkpt lat="43.5510069" lon="11.2945362"><ele>410.0</ele><time>2026-04-22T16:08:09.619Z</time></trkpt><trkpt lat="43.551028" lon="11.2946368"><ele>410.0</ele><time>2026-04-22T16:08:10.62Z</time></trkpt><trkpt lat="43.5510648" lon="11.2947263"><ele>410.0</ele><time>2026-04-22T16:08:11.619Z</time></trkpt><trkpt lat="43.5511051" lon="11.2948103"><ele>410.0</ele><time>2026-04-22T16:08:12.62Z</time></trkpt><trkpt lat="43.5511512" lon="11.2948828"><ele>410.0</ele><time>2026-04-22T16:08:13.62Z</time></trkpt><trkpt lat="43.5512095" lon="11.2949471"><ele>410.0</ele><time>2026-04-22T16:08:14.619Z</time></trkpt><trkpt lat="43.5512649" lon="11.2950034"><ele>410.0</ele><time>2026-04-22T16:08:15.62Z</time></trkpt><trkpt lat="43.551326" lon="11.2950676"><ele>411.66666666666663</ele><time>2026-04-22T16:08:16.619Z</time></trkpt><trkpt lat="43.5513817" lon="11.2951459"><ele>413.3333333333333</ele><time>2026-04-22T16:08:17.619Z</time></trkpt><trkpt lat="43.5514234" lon="11.2952352"><ele>415.0</ele><time>2026-04-22T16:08:18.619Z</time></trkpt><trkpt lat="43.5514585" lon="11.2953356"><ele>416.66666666666663</ele><time>2026-04-22T16:08:19.62Z</time></trkpt><trkpt lat="43.5514881" lon="11.2954413"><ele>418.3333333333333</ele><time>2026-04-22T16:08:20.618Z</time></trkpt><trkpt lat="43.5515159" lon="11.2955552"><ele>420.0</ele><time>2026-04-22T16:08:21.619Z</time></trkpt><trkpt lat="43.5515352" lon="11.2956612"><ele>422.0</ele><time>2026-04-22T16:08:22.618Z</time></trkpt><trkpt lat="43.5515498" lon="11.2957516"><ele>424.0</ele><time>2026-04-22T16:08:23.619Z</time></trkpt><trkpt lat="43.551557" lon="11.2959343"><ele>426.0</ele><time>2026-04-22T16:08:25.618Z</time></trkpt><trkpt lat="43.5515447" lon="11.2960363"><ele>428.0</ele><time>2026-04-22T16:08:26.618Z</time></trkpt><trkpt lat="43.5515288" lon="11.2961423"><ele>430.0</ele><time>2026-04-22T16:08:27.619Z</time></trkpt><trkpt lat="43.5515109" lon="11.2962567"><ele>432.0</ele><time>2026-04-22T16:08:28.618Z</time></trkpt><trkpt lat="43.5514943" lon="11.2963667"><ele>432.7142857142857</ele><time>2026-04-22T16:08:29.619Z</time></trkpt><trkpt lat="43.5514723" lon="11.2964711"><ele>433.42857142857144</ele><time>2026-04-22T16:08:30.619Z</time></trkpt><trkpt lat="43.5514325" lon="11.2965497"><ele>434.1428571428571</ele><time>2026-04-22T16:08:31.619Z</time></trkpt><trkpt lat="43.5513788" lon="11.296617"><ele>434.8571428571429</ele><time>2026-04-22T16:08:32.619Z</time></trkpt><trkpt lat="43.5513198" lon="11.2966798"><ele>435.5714285714286</ele><time>2026-04-22T16:08:33.618Z</time></trkpt><trkpt lat="43.5512695" lon="11.296747"><ele>436.2857142857143</ele><time>2026-04-22T16:08:34.618Z</time></trkpt><trkpt lat="43.5512213" lon="11.2968263"><ele>437.0</ele><time>2026-04-22T16:08:35.619Z</time></trkpt><trkpt lat="43.5511862" lon="11.2969134"><ele>436.99999999999994</ele><time>2026-04-22T16:08:36.618Z</time></trkpt><trkpt lat="43.5511708" lon="11.2970021"><ele>437.0</ele><time>2026-04-22T16:08:37.618Z</time></trkpt><trkpt lat="43.5511815" lon="11.2971624"><ele>437.0</ele><time>2026-04-22T16:08:39.618Z</time></trkpt><trkpt lat="43.5512103" lon="11.2972784"><ele>437.0</ele><time>2026-04-22T16:08:40.619Z</time></trkpt><trkpt lat="43.5512049" lon="11.2973962"><ele>436.99999999999994</ele><time>2026-04-22T16:08:41.618Z</time></trkpt><trkpt lat="43.5512202" lon="11.2975044"><ele>437.0</ele><time>2026-04-22T16:08:42.618Z</time></trkpt><trkpt lat="43.5512658" lon="11.2975946"><ele>441.6</ele><time>2026-04-22T16:08:43.618Z</time></trkpt><trkpt lat="43.5513395" lon="11.2976675"><ele>446.20000000000005</ele><time>2026-04-22T16:08:45.618Z</time></trkpt><trkpt lat="43.5514015" lon="11.2976458"><ele>450.8</ele><time>2026-04-22T16:08:47.618Z</time></trkpt><trkpt lat="43.5514527" lon="11.2975539"><ele>455.4</ele><time>2026-04-22T16:08:49.618Z</time></trkpt><trkpt lat="43.5514674" lon="11.2974594"><ele>460.0</ele><time>2026-04-22T16:08:51.618Z</time></trkpt><trkpt lat="43.5506767" lon="11.2984"><ele>460.0</ele><time>2026-04-22T16:08:52.618Z</time></trkpt><trkpt lat="43.5505938" lon="11.2984761"><ele>460.0</ele><time>2026-04-22T16:08:53.619Z</time></trkpt><trkpt lat="43.5505077" lon="11.2985519"><ele>460.0</ele><time>2026-04-22T16:08:54.619Z</time></trkpt><trkpt lat="43.5504192" lon="11.2986292"><ele>460.0</ele><time>2026-04-22T16:08:55.618Z</time></trkpt><trkpt lat="43.5503252" lon="11.298702"><ele>460.0</ele><time>2026-04-22T16:08:56.619Z</time></trkpt><trkpt lat="43.550235" lon="11.2987718"><ele>459.4</ele><time>2026-04-22T16:08:57.619Z</time></trkpt><trkpt lat="43.5501465" lon="11.2988445"><ele>458.8</ele><time>2026-04-22T16:08:58.618Z</time></trkpt><trkpt lat="43.550059" lon="11.2989149"><ele>458.20000000000005</ele><time>2026-04-22T16:08:59.619Z</time></trkpt><trkpt lat="43.5499795" lon="11.2989908"><ele>457.6</ele><time>2026-04-22T16:09:00.619Z</time></trkpt><trkpt lat="43.5499034" lon="11.2990641"><ele>457.0</ele><time>2026-04-22T16:09:01.618Z</time></trkpt><trkpt lat="43.5498403" lon="11.2991459"><ele>457.0</ele><time>2026-04-22T16:09:02.619Z</time></trkpt><trkpt lat="43.5497796" lon="11.2992456"><ele>457.00000000000006</ele><time>2026-04-22T16:09:03.619Z</time></trkpt><trkpt lat="43.5497297" lon="11.2993623"><ele>457.00000000000006</ele><time>2026-04-22T16:09:04.618Z</time></trkpt><trkpt lat="43.5496684" lon="11.2994849"><ele>457.0</ele><time>2026-04-22T16:09:05.618Z</time></trkpt><trkpt lat="43.5496065" lon="11.2996146"><ele>457.0</ele><time>2026-04-22T16:09:06.618Z</time></trkpt><trkpt lat="43.5495467" lon="11.2997474"><ele>455.75</ele><time>2026-04-22T16:09:07.619Z</time></trkpt><trkpt lat="43.5494857" lon="11.2998515"><ele>454.5</ele><time>2026-04-22T16:09:08.618Z</time></trkpt><trkpt lat="43.5494215" lon="11.2999965"><ele>453.25</ele><time>2026-04-22T16:09:09.618Z</time></trkpt><trkpt lat="43.5493646" lon="11.3001376"><ele>452.0</ele><time>2026-04-22T16:09:10.619Z</time></trkpt><trkpt lat="43.5493054" lon="11.3002724"><ele>452.0</ele><time>2026-04-22T16:09:11.618Z</time></trkpt><trkpt lat="43.5492415" lon="11.3004006"><ele>452.00000000000006</ele><time>2026-04-22T16:09:12.619Z</time></trkpt><trkpt lat="43.5491753" lon="11.3005205"><ele>452.00000000000006</ele><time>2026-04-22T16:09:13.618Z</time></trkpt><trkpt lat="43.5491115" lon="11.3006351"><ele>452.0</ele><time>2026-04-22T16:09:14.618Z</time></trkpt><trkpt lat="43.5490454" lon="11.3007513"><ele>452.0</ele><time>2026-04-22T16:09:15.618Z</time></trkpt><trkpt lat="43.5489857" lon="11.3008645"><ele>453.40000000000003</ele><time>2026-04-22T16:09:16.618Z</time></trkpt><trkpt lat="43.5489224" lon="11.3009646"><ele>454.80000000000007</ele><time>2026-04-22T16:09:17.619Z</time></trkpt><trkpt lat="43.5488694" lon="11.3010738"><ele>456.2</ele><time>2026-04-22T16:09:18.618Z</time></trkpt><trkpt lat="43.5488205" lon="11.3012083"><ele>457.6</ele><time>2026-04-22T16:09:19.619Z</time></trkpt><trkpt lat="43.5487757" lon="11.3013216"><ele>459.0</ele><time>2026-04-22T16:09:20.619Z</time></trkpt><trkpt lat="43.5487428" lon="11.3014298"><ele>458.6</ele><time>2026-04-22T16:09:21.619Z</time></trkpt><trkpt lat="43.5487106" lon="11.3015338"><ele>458.2</ele><time>2026-04-22T16:09:22.619Z</time></trkpt><trkpt lat="43.5486787" lon="11.3016474"><ele>457.80000000000007</ele><time>2026-04-22T16:09:23.619Z</time></trkpt><trkpt lat="43.5486533" lon="11.301783"><ele>457.40000000000003</ele><time>2026-04-22T16:09:24.618Z</time></trkpt><trkpt lat="43.5486184" lon="11.3019213"><ele>457.0</ele><time>2026-04-22T16:09:25.618Z</time></trkpt><trkpt lat="43.5485747" lon="11.3020531"><ele>457.0</ele><time>2026-04-22T16:09:26.619Z</time></trkpt><trkpt lat="43.5485155" lon="11.3021887"><ele>457.0</ele><time>2026-04-22T16:09:27.618Z</time></trkpt><trkpt lat="43.5484503" lon="11.3023264"><ele>457.0</ele><time>2026-04-22T16:09:28.618Z</time></trkpt><trkpt lat="43.5483827" lon="11.3024584"><ele>457.0</ele><time>2026-04-22T16:09:29.619Z</time></trkpt><trkpt lat="43.5483192" lon="11.3025818"><ele>458.00000000000006</ele><time>2026-04-22T16:09:30.618Z</time></trkpt><trkpt lat="43.5482575" lon="11.3027"><ele>459.0</ele><time>2026-04-22T16:09:31.619Z</time></trkpt><trkpt lat="43.5482013" lon="11.3028194"><ele>460.0</ele><time>2026-04-22T16:09:32.618Z</time></trkpt><trkpt lat="43.5481514" lon="11.3029221"><ele>461.0</ele><time>2026-04-22T16:09:33.618Z</time></trkpt><trkpt lat="43.5481148" lon="11.3030175"><ele>462.00000000000006</ele><time>2026-04-22T16:09:34.618Z</time></trkpt><trkpt lat="43.54808" lon="11.3031027"><ele>463.0</ele><time>2026-04-22T16:09:35.618Z</time></trkpt><trkpt lat="43.5480381" lon="11.303231"><ele>464.2857142857143</ele><time>2026-04-22T16:09:37.618Z</time></trkpt><trkpt lat="43.5480306" lon="11.3033228"><ele>465.57142857142856</ele><time>2026-04-22T16:10:02.619Z</time></trkpt><trkpt lat="43.5479929" lon="11.3034723"><ele>466.85714285714283</ele><time>2026-04-22T16:10:04.619Z</time></trkpt><trkpt lat="43.5479776" lon="11.3035585"><ele>468.1428571428571</ele><time>2026-04-22T16:10:05.618Z</time></trkpt><trkpt lat="43.5479642" lon="11.3036436"><ele>469.42857142857144</ele><time>2026-04-22T16:10:06.619Z</time></trkpt><trkpt lat="43.547952" lon="11.3037306"><ele>470.71428571428567</ele><time>2026-04-22T16:10:07.618Z</time></trkpt><trkpt lat="43.5479437" lon="11.3038251"><ele>472.0</ele><time>2026-04-22T16:10:08.618Z</time></trkpt><trkpt lat="43.547937" lon="11.3039253"><ele>472.33333333333337</ele><time>2026-04-22T16:10:09.618Z</time></trkpt><trkpt lat="43.5479289" lon="11.304042"><ele>472.6666666666667</ele><time>2026-04-22T16:10:10.618Z</time></trkpt><trkpt lat="43.5479341" lon="11.3041532"><ele>473.0</ele><time>2026-04-22T16:10:11.619Z</time></trkpt><trkpt lat="43.5479298" lon="11.3042603"><ele>473.33333333333337</ele><time>2026-04-22T16:10:12.618Z</time></trkpt><trkpt lat="43.5479344" lon="11.304368"><ele>473.6666666666667</ele><time>2026-04-22T16:10:13.618Z</time></trkpt><trkpt lat="43.5479449" lon="11.3044644"><ele>474.0</ele><time>2026-04-22T16:10:14.618Z</time></trkpt><trkpt lat="43.5479635" lon="11.3045598"><ele>474.0</ele><time>2026-04-22T16:10:15.618Z</time></trkpt><trkpt lat="43.5479941" lon="11.3046754"><ele>474.0</ele><time>2026-04-22T16:10:16.619Z</time></trkpt><trkpt lat="43.548011" lon="11.3048017"><ele>474.0</ele><time>2026-04-22T16:10:17.618Z</time></trkpt><trkpt lat="43.5480134" lon="11.3048954"><ele>474.0</ele><time>2026-04-22T16:10:18.618Z</time></trkpt><trkpt lat="43.5480171" lon="11.304991"><ele>474.0</ele><time>2026-04-22T16:10:19.618Z</time></trkpt><trkpt lat="43.548027" lon="11.3050939"><ele>474.0</ele><time>2026-04-22T16:10:20.618Z</time></trkpt><trkpt lat="43.5480458" lon="11.3051993"><ele>473.79999999999995</ele><time>2026-04-22T16:10:21.619Z</time></trkpt><trkpt lat="43.5480639" lon="11.3052998"><ele>473.59999999999997</ele><time>2026-04-22T16:10:22.619Z</time></trkpt><trkpt lat="43.548084" lon="11.305447"><ele>473.4</ele><time>2026-04-22T16:10:24.618Z</time></trkpt><trkpt lat="43.5480903" lon="11.3055859"><ele>473.2</ele><time>2026-04-22T16:10:26.618Z</time></trkpt><trkpt lat="43.5481385" lon="11.3057117"><ele>473.0</ele><time>2026-04-22T16:10:28.619Z</time></trkpt><trkpt lat="43.5481619" lon="11.3058029"><ele>472.66666666666663</ele><time>2026-04-22T16:10:31.618Z</time></trkpt><trkpt lat="43.5482278" lon="11.3058535"><ele>472.3333333333333</ele><time>2026-04-22T16:11:23.618Z</time></trkpt><trkpt lat="43.54827" lon="11.3059452"><ele>472.0</ele><time>2026-04-22T16:11:25.619Z</time></trkpt><trkpt lat="43.548313" lon="11.306058"><ele>471.66666666666663</ele><time>2026-04-22T16:11:27.619Z</time></trkpt><trkpt lat="43.5483334" lon="11.3061625"><ele>471.3333333333333</ele><time>2026-04-22T16:11:32.619Z</time></trkpt><trkpt lat="43.548296" lon="11.306277"><ele>471.0</ele><time>2026-04-22T16:11:34.618Z</time></trkpt><trkpt lat="43.5482162" lon="11.3064075"><ele>471.5</ele><time>2026-04-22T16:11:36.619Z</time></trkpt><trkpt lat="43.548166" lon="11.3064608"><ele>472.0</ele><time>2026-04-22T16:11:37.619Z</time></trkpt><trkpt lat="43.5480918" lon="11.3064826"><ele>472.5</ele><time>2026-04-22T16:11:38.618Z</time></trkpt><trkpt lat="43.5480312" lon="11.3065198"><ele>473.0</ele><time>2026-04-22T16:11:39.619Z</time></trkpt><trkpt lat="43.5479388" lon="11.3065032"><ele>473.5</ele><time>2026-04-22T16:11:40.619Z</time></trkpt><trkpt lat="43.5478583" lon="11.3064782"><ele>474.0</ele><time>2026-04-22T16:11:41.618Z</time></trkpt><trkpt lat="43.5477886" lon="11.3064426"><ele>472.8333333333333</ele><time>2026-04-22T16:11:42.618Z</time></trkpt><trkpt lat="43.5477259" lon="11.3064012"><ele>471.66666666666663</ele><time>2026-04-22T16:11:43.618Z</time></trkpt><trkpt lat="43.5476283" lon="11.3063577"><ele>470.5</ele><time>2026-04-22T16:11:44.618Z</time></trkpt><trkpt lat="43.5475427" lon="11.3063484"><ele>469.3333333333333</ele><time>2026-04-22T16:11:45.619Z</time></trkpt><trkpt lat="43.5474573" lon="11.3063867"><ele>468.16666666666663</ele><time>2026-04-22T16:11:46.618Z</time></trkpt><trkpt lat="43.5473679" lon="11.3064312"><ele>467.0</ele><time>2026-04-22T16:11:47.618Z</time></trkpt><trkpt lat="43.5472742" lon="11.306481"><ele>467.0</ele><time>2026-04-22T16:11:48.618Z</time></trkpt><trkpt lat="43.5471676" lon="11.3065459"><ele>467.00000000000006</ele><time>2026-04-22T16:11:49.618Z</time></trkpt><trkpt lat="43.5470671" lon="11.3066142"><ele>467.00000000000006</ele><time>2026-04-22T16:11:50.619Z</time></trkpt><trkpt lat="43.5469677" lon="11.306685"><ele>467.0</ele><time>2026-04-22T16:11:51.619Z</time></trkpt><trkpt lat="43.5468761" lon="11.3067519"><ele>467.0</ele><time>2026-04-22T16:11:52.618Z</time></trkpt><trkpt lat="43.5468152" lon="11.3068172"><ele>464.8</ele><time>2026-04-22T16:11:53.618Z</time></trkpt><trkpt lat="43.5467442" lon="11.3069299"><ele>462.6</ele><time>2026-04-22T16:11:54.618Z</time></trkpt><trkpt lat="43.5466977" lon="11.3070575"><ele>460.40000000000003</ele><time>2026-04-22T16:11:55.618Z</time></trkpt><trkpt lat="43.54666" lon="11.3072039"><ele>458.20000000000005</ele><time>2026-04-22T16:11:56.618Z</time></trkpt><trkpt lat="43.5466172" lon="11.3073375"><ele>456.0</ele><time>2026-04-22T16:11:57.619Z</time></trkpt><trkpt lat="43.546573" lon="11.3074714"><ele>456.0</ele><time>2026-04-22T16:11:58.618Z</time></trkpt><trkpt lat="43.5465135" lon="11.3076147"><ele>456.0</ele><time>2026-04-22T16:11:59.618Z</time></trkpt><trkpt lat="43.5464377" lon="11.3077541"><ele>456.0</ele><time>2026-04-22T16:12:00.618Z</time></trkpt><trkpt lat="43.5463557" lon="11.307877"><ele>456.0</ele><time>2026-04-22T16:12:01.618Z</time></trkpt><trkpt lat="43.5462723" lon="11.3079919"><ele>454.20000000000005</ele><time>2026-04-22T16:12:02.618Z</time></trkpt><trkpt lat="43.5462064" lon="11.3080982"><ele>452.40000000000003</ele><time>2026-04-22T16:12:03.619Z</time></trkpt><trkpt lat="43.546136" lon="11.30821"><ele>450.6</ele><time>2026-04-22T16:12:04.618Z</time></trkpt><trkpt lat="43.5460649" lon="11.308318"><ele>448.8</ele><time>2026-04-22T16:12:05.619Z</time></trkpt><trkpt lat="43.5460071" lon="11.3084312"><ele>447.0</ele><time>2026-04-22T16:12:06.618Z</time></trkpt><trkpt lat="43.5459406" lon="11.3085193"><ele>447.0</ele><time>2026-04-22T16:12:07.618Z</time></trkpt><trkpt lat="43.5458838" lon="11.3086103"><ele>447.00000000000006</ele><time>2026-04-22T16:12:08.618Z</time></trkpt><trkpt lat="43.5458356" lon="11.3087213"><ele>447.00000000000006</ele><time>2026-04-22T16:12:09.618Z</time></trkpt><trkpt lat="43.5457874" lon="11.308843"><ele>447.0</ele><time>2026-04-22T16:12:10.619Z</time></trkpt><trkpt lat="43.5457334" lon="11.308954"><ele>447.0</ele><time>2026-04-22T16:12:11.619Z</time></trkpt><trkpt lat="43.5456786" lon="11.3090883"><ele>448.40000000000003</ele><time>2026-04-22T16:12:12.619Z</time></trkpt><trkpt lat="43.5456168" lon="11.3092122"><ele>449.80000000000007</ele><time>2026-04-22T16:12:13.618Z</time></trkpt><trkpt lat="43.5455576" lon="11.3093232"><ele>451.2</ele><time>2026-04-22T16:12:14.618Z</time></trkpt><trkpt lat="43.5455058" lon="11.3094251"><ele>452.6</ele><time>2026-04-22T16:12:15.618Z</time></trkpt><trkpt lat="43.545455" lon="11.3095369"><ele>454.0</ele><time>2026-04-22T16:12:16.619Z</time></trkpt><trkpt lat="43.5454104" lon="11.3096284"><ele>454.83333333333337</ele><time>2026-04-22T16:12:17.618Z</time></trkpt><trkpt lat="43.5453819" lon="11.3097419"><ele>455.6666666666667</ele><time>2026-04-22T16:12:18.619Z</time></trkpt><trkpt lat="43.5453636" lon="11.3098634"><ele>456.5</ele><time>2026-04-22T16:12:19.618Z</time></trkpt><trkpt lat="43.5453495" lon="11.3099798"><ele>457.33333333333337</ele><time>2026-04-22T16:12:20.618Z</time></trkpt><trkpt lat="43.5453368" lon="11.3100939"><ele>458.1666666666667</ele><time>2026-04-22T16:12:21.618Z</time></trkpt><trkpt lat="43.5453275" lon="11.3101968"><ele>459.0</ele><time>2026-04-22T16:12:22.618Z</time></trkpt><trkpt lat="43.5453147" lon="11.3102838"><ele>456.79999999999995</ele><time>2026-04-22T16:12:23.618Z</time></trkpt><trkpt lat="43.5452801" lon="11.3104405"><ele>454.59999999999997</ele><time>2026-04-22T16:12:25.619Z</time></trkpt><trkpt lat="43.5452584" lon="11.3105237"><ele>452.4</ele><time>2026-04-22T16:12:26.618Z</time></trkpt><trkpt lat="43.5452143" lon="11.3106598"><ele>450.2</ele><time>2026-04-22T16:12:28.618Z</time></trkpt><trkpt lat="43.5451772" lon="11.3107639"><ele>448.0</ele><time>2026-04-22T16:12:30.619Z</time></trkpt><trkpt lat="43.5451786" lon="11.3108765"><ele>448.00000000000006</ele><time>2026-04-22T16:13:41.618Z</time></trkpt><trkpt lat="43.5451716" lon="11.3109823"><ele>448.0</ele><time>2026-04-22T16:13:42.618Z</time></trkpt><trkpt lat="43.545162" lon="11.3110856"><ele>448.0</ele><time>2026-04-22T16:13:43.618Z</time></trkpt><trkpt lat="43.5451518" lon="11.3112083"><ele>448.0</ele><time>2026-04-22T16:13:44.619Z</time></trkpt><trkpt lat="43.5451385" lon="11.311334"><ele>448.00000000000006</ele><time>2026-04-22T16:13:45.619Z</time></trkpt><trkpt lat="43.5451147" lon="11.3114687"><ele>448.0</ele><time>2026-04-22T16:13:46.619Z</time></trkpt><trkpt lat="43.5450706" lon="11.3116106"><ele>448.5</ele><time>2026-04-22T16:13:47.618Z</time></trkpt><trkpt lat="43.5450001" lon="11.3117493"><ele>449.0</ele><time>2026-04-22T16:13:48.618Z</time></trkpt><trkpt lat="43.5449076" lon="11.3118755"><ele>449.5</ele><time>2026-04-22T16:13:49.618Z</time></trkpt><trkpt lat="43.5448089" lon="11.3119876"><ele>450.0</ele><time>2026-04-22T16:13:50.618Z</time></trkpt><trkpt lat="43.5446994" lon="11.3121086"><ele>450.0</ele><time>2026-04-22T16:13:51.619Z</time></trkpt><trkpt lat="43.5445903" lon="11.3122156"><ele>450.0</ele><time>2026-04-22T16:13:52.618Z</time></trkpt><trkpt lat="43.5444825" lon="11.3123118"><ele>450.0</ele><time>2026-04-22T16:13:53.618Z</time></trkpt><trkpt lat="43.5443619" lon="11.3124255"><ele>450.0</ele><time>2026-04-22T16:13:54.618Z</time></trkpt><trkpt lat="43.5442479" lon="11.312528"><ele>449.6</ele><time>2026-04-22T16:13:55.618Z</time></trkpt><trkpt lat="43.544134" lon="11.3126218"><ele>449.2</ele><time>2026-04-22T16:13:56.619Z</time></trkpt><trkpt lat="43.5440347" lon="11.3127124"><ele>448.79999999999995</ele><time>2026-04-22T16:13:57.618Z</time></trkpt><trkpt lat="43.5439472" lon="11.312781"><ele>448.4</ele><time>2026-04-22T16:13:58.618Z</time></trkpt><trkpt lat="43.5438762" lon="11.3128644"><ele>448.0</ele><time>2026-04-22T16:13:59.618Z</time></trkpt><trkpt lat="43.5438134" lon="11.3129573"><ele>448.00000000000006</ele><time>2026-04-22T16:14:00.619Z</time></trkpt><trkpt lat="43.5437704" lon="11.3130515"><ele>448.0</ele><time>2026-04-22T16:14:01.619Z</time></trkpt><trkpt lat="43.5437437" lon="11.3131531"><ele>448.0</ele><time>2026-04-22T16:14:02.618Z</time></trkpt><trkpt lat="43.5437441" lon="11.3132645"><ele>448.0</ele><time>2026-04-22T16:14:03.618Z</time></trkpt><trkpt lat="43.5437751" lon="11.3133866"><ele>448.00000000000006</ele><time>2026-04-22T16:14:04.618Z</time></trkpt><trkpt lat="43.5438184" lon="11.3135197"><ele>448.0</ele><time>2026-04-22T16:14:05.618Z</time></trkpt><trkpt lat="43.5438607" lon="11.3136616"><ele>449.0</ele><time>2026-04-22T16:14:06.618Z</time></trkpt><trkpt lat="43.5439011" lon="11.313795"><ele>449.99999999999994</ele><time>2026-04-22T16:14:07.618Z</time></trkpt><trkpt lat="43.5439384" lon="11.3139214"><ele>450.99999999999994</ele><time>2026-04-22T16:14:08.618Z</time></trkpt><trkpt lat="43.5439642" lon="11.31405"><ele>452.0</ele><time>2026-04-22T16:14:09.619Z</time></trkpt><trkpt lat="43.5439674" lon="11.3141816"><ele>453.0</ele><time>2026-04-22T16:14:10.619Z</time></trkpt><trkpt lat="43.5439529" lon="11.3143012"><ele>453.4</ele><time>2026-04-22T16:14:11.619Z</time></trkpt><trkpt lat="43.5439233" lon="11.3144264"><ele>453.79999999999995</ele><time>2026-04-22T16:14:12.619Z</time></trkpt><trkpt lat="43.5438798" lon="11.3145367"><ele>454.2</ele><time>2026-04-22T16:14:13.618Z</time></trkpt><trkpt lat="43.5438267" lon="11.3146414"><ele>454.6</ele><time>2026-04-22T16:14:14.619Z</time></trkpt><trkpt lat="43.5437547" lon="11.3147264"><ele>455.0</ele><time>2026-04-22T16:14:15.618Z</time></trkpt><trkpt lat="43.5436696" lon="11.3148079"><ele>453.5</ele><time>2026-04-22T16:14:16.618Z</time></trkpt><trkpt lat="43.5435864" lon="11.3148985"><ele>452.0</ele><time>2026-04-22T16:14:17.618Z</time></trkpt><trkpt lat="43.5434892" lon="11.3149832"><ele>450.5</ele><time>2026-04-22T16:14:18.618Z</time></trkpt><trkpt lat="43.5433892" lon="11.315065"><ele>449.0</ele><time>2026-04-22T16:14:19.618Z</time></trkpt><trkpt lat="43.5432797" lon="11.3151434"><ele>449.0</ele><time>2026-04-22T16:14:20.619Z</time></trkpt><trkpt lat="43.5431687" lon="11.3152156"><ele>449.0</ele><time>2026-04-22T16:14:21.619Z</time></trkpt><trkpt lat="43.5430499" lon="11.3152845"><ele>449.0</ele><time>2026-04-22T16:14:22.618Z</time></trkpt><trkpt lat="43.5429318" lon="11.3153418"><ele>449.0</ele><time>2026-04-22T16:14:23.619Z</time></trkpt><trkpt lat="43.5428208" lon="11.315389"><ele>450.0</ele><time>2026-04-22T16:14:24.618Z</time></trkpt><trkpt lat="43.5427066" lon="11.3154431"><ele>451.0</ele><time>2026-04-22T16:14:25.618Z</time></trkpt><trkpt lat="43.5425924" lon="11.3154968"><ele>452.0</ele><time>2026-04-22T16:14:26.619Z</time></trkpt><trkpt lat="43.5424798" lon="11.3155463"><ele>453.0</ele><time>2026-04-22T16:14:27.618Z</time></trkpt><trkpt lat="43.5423727" lon="11.3155921"><ele>453.0</ele><time>2026-04-22T16:14:28.618Z</time></trkpt><trkpt lat="43.5422657" lon="11.3156361"><ele>452.99999999999994</ele><time>2026-04-22T16:14:29.618Z</time></trkpt><trkpt lat="43.5421624" lon="11.315682"><ele>452.99999999999994</ele><time>2026-04-22T16:14:30.618Z</time></trkpt><trkpt lat="43.5420577" lon="11.3157262"><ele>453.0</ele><time>2026-04-22T16:14:31.619Z</time></trkpt><trkpt lat="43.5419485" lon="11.3157661"><ele>453.0</ele><time>2026-04-22T16:14:32.619Z</time></trkpt><trkpt lat="43.5418393" lon="11.31579"><ele>450.2</ele><time>2026-04-22T16:14:33.618Z</time></trkpt><trkpt lat="43.5417256" lon="11.3157922"><ele>447.4</ele><time>2026-04-22T16:14:34.618Z</time></trkpt><trkpt lat="43.5416176" lon="11.3157651"><ele>444.59999999999997</ele><time>2026-04-22T16:14:35.619Z</time></trkpt><trkpt lat="43.5415113" lon="11.3157273"><ele>441.79999999999995</ele><time>2026-04-22T16:14:36.619Z</time></trkpt><trkpt lat="43.5414061" lon="11.3156869"><ele>439.0</ele><time>2026-04-22T16:14:37.619Z</time></trkpt><trkpt lat="43.5412841" lon="11.31566"><ele>438.79999999999995</ele><time>2026-04-22T16:14:38.618Z</time></trkpt><trkpt lat="43.5411804" lon="11.3156495"><ele>438.59999999999997</ele><time>2026-04-22T16:14:39.618Z</time></trkpt><trkpt lat="43.5410807" lon="11.3156555"><ele>438.4</ele><time>2026-04-22T16:14:40.619Z</time></trkpt><trkpt lat="43.5409873" lon="11.315671"><ele>438.2</ele><time>2026-04-22T16:14:41.618Z</time></trkpt><trkpt lat="43.5408943" lon="11.315696"><ele>438.0</ele><time>2026-04-22T16:14:42.618Z</time></trkpt><trkpt lat="43.540802" lon="11.3157419"><ele>438.0</ele><time>2026-04-22T16:14:43.618Z</time></trkpt><trkpt lat="43.5407118" lon="11.315801"><ele>437.99999999999994</ele><time>2026-04-22T16:14:44.618Z</time></trkpt><trkpt lat="43.5406221" lon="11.3158752"><ele>437.99999999999994</ele><time>2026-04-22T16:14:45.618Z</time></trkpt><trkpt lat="43.5405354" lon="11.3159539"><ele>438.0</ele><time>2026-04-22T16:14:46.618Z</time></trkpt><trkpt lat="43.5404497" lon="11.3160607"><ele>438.0</ele><time>2026-04-22T16:14:47.619Z</time></trkpt><trkpt lat="43.540367" lon="11.3161826"><ele>437.25</ele><time>2026-04-22T16:14:48.619Z</time></trkpt><trkpt lat="43.5402994" lon="11.3163179"><ele>436.5</ele><time>2026-04-22T16:14:49.618Z</time></trkpt><trkpt lat="43.540225" lon="11.3164451"><ele>435.75</ele><time>2026-04-22T16:14:50.618Z</time></trkpt><trkpt lat="43.5401336" lon="11.3165572"><ele>435.0</ele><time>2026-04-22T16:14:51.619Z</time></trkpt><trkpt lat="43.5400117" lon="11.3166308"><ele>437.0</ele><time>2026-04-22T16:14:52.618Z</time></trkpt><trkpt lat="43.5398757" lon="11.3166846"><ele>439.0</ele><time>2026-04-22T16:14:53.619Z</time></trkpt><trkpt lat="43.5397423" lon="11.3167219"><ele>441.0</ele><time>2026-04-22T16:14:54.618Z</time></trkpt><trkpt lat="43.5396256" lon="11.3167633"><ele>443.0</ele><time>2026-04-22T16:14:55.618Z</time></trkpt><trkpt lat="43.5395199" lon="11.3168051"><ele>442.99999999999994</ele><time>2026-04-22T16:14:56.619Z</time></trkpt><trkpt lat="43.5394283" lon="11.3168454"><ele>443.0</ele><time>2026-04-22T16:14:57.619Z</time></trkpt><trkpt lat="43.5393417" lon="11.31688"><ele>443.0</ele><time>2026-04-22T16:14:58.618Z</time></trkpt><trkpt lat="43.5392719" lon="11.3169188"><ele>443.0</ele><time>2026-04-22T16:14:59.618Z</time></trkpt><trkpt lat="43.539208" lon="11.3169494"><ele>442.99999999999994</ele><time>2026-04-22T16:15:00.618Z</time></trkpt><trkpt lat="43.5391442" lon="11.3169764"><ele>443.0</ele><time>2026-04-22T16:15:01.618Z</time></trkpt><trkpt lat="43.539072" lon="11.3169915"><ele>443.0</ele><time>2026-04-22T16:15:02.619Z</time></trkpt><trkpt lat="43.5389848" lon="11.3169916"><ele>442.99999999999994</ele><time>2026-04-22T16:15:03.619Z</time></trkpt><trkpt lat="43.5388851" lon="11.3169693"><ele>442.99999999999994</ele><time>2026-04-22T16:15:04.619Z</time></trkpt><trkpt lat="43.5387677" lon="11.3169322"><ele>443.0</ele><time>2026-04-22T16:15:05.618Z</time></trkpt><trkpt lat="43.5386377" lon="11.3168847"><ele>443.0</ele><time>2026-04-22T16:15:06.618Z</time></trkpt><trkpt lat="43.538493" lon="11.3168277"><ele>443.3333333333333</ele><time>2026-04-22T16:15:07.619Z</time></trkpt><trkpt lat="43.5383471" lon="11.3167685"><ele>443.66666666666663</ele><time>2026-04-22T16:15:08.618Z</time></trkpt><trkpt lat="43.5381977" lon="11.3167071"><ele>444.0</ele><time>2026-04-22T16:15:09.619Z</time></trkpt><trkpt lat="43.5380417" lon="11.3166471"><ele>444.0</ele><time>2026-04-22T16:15:10.619Z</time></trkpt><trkpt lat="43.5378951" lon="11.3165857"><ele>444.0</ele><time>2026-04-22T16:15:11.618Z</time></trkpt><trkpt lat="43.5377568" lon="11.316509"><ele>444.0</ele><time>2026-04-22T16:15:12.619Z</time></trkpt><trkpt lat="43.5376225" lon="11.3164063"><ele>441.66666666666663</ele><time>2026-04-22T16:15:13.618Z</time></trkpt><trkpt lat="43.5374968" lon="11.316264"><ele>439.3333333333333</ele><time>2026-04-22T16:15:14.618Z</time></trkpt><trkpt lat="43.5373794" lon="11.3160985"><ele>437.0</ele><time>2026-04-22T16:15:15.618Z</time></trkpt><trkpt lat="43.5372911" lon="11.3158964"><ele>437.0</ele><time>2026-04-22T16:15:16.618Z</time></trkpt><trkpt lat="43.5372025" lon="11.3156984"><ele>437.0</ele><time>2026-04-22T16:15:17.618Z</time></trkpt><trkpt lat="43.537109" lon="11.3155205"><ele>437.0</ele><time>2026-04-22T16:15:18.618Z</time></trkpt><trkpt lat="43.5370087" lon="11.3153603"><ele>437.66666666666663</ele><time>2026-04-22T16:15:19.618Z</time></trkpt><trkpt lat="43.5368933" lon="11.3152156"><ele>438.33333333333337</ele><time>2026-04-22T16:15:20.618Z</time></trkpt><trkpt lat="43.536774" lon="11.315076"><ele>439.0</ele><time>2026-04-22T16:15:21.619Z</time></trkpt><trkpt lat="43.5366471" lon="11.314941"><ele>439.0</ele><time>2026-04-22T16:15:22.618Z</time></trkpt><trkpt lat="43.5365376" lon="11.3147809"><ele>439.0</ele><time>2026-04-22T16:15:23.619Z</time></trkpt><trkpt lat="43.5364545" lon="11.3145962"><ele>439.0</ele><time>2026-04-22T16:15:24.619Z</time></trkpt><trkpt lat="43.536383" lon="11.314394"><ele>437.6666666666667</ele><time>2026-04-22T16:15:25.618Z</time></trkpt><trkpt lat="43.5362959" lon="11.3141881"><ele>436.33333333333337</ele><time>2026-04-22T16:15:26.618Z</time></trkpt><trkpt lat="43.5361905" lon="11.3139926"><ele>435.0</ele><time>2026-04-22T16:15:27.619Z</time></trkpt><trkpt lat="43.5360673" lon="11.3138014"><ele>432.33333333333337</ele><time>2026-04-22T16:15:28.618Z</time></trkpt><trkpt lat="43.5359297" lon="11.3136187"><ele>429.6666666666667</ele><time>2026-04-22T16:15:29.619Z</time></trkpt><trkpt lat="43.535783" lon="11.3134372"><ele>427.0</ele><time>2026-04-22T16:15:30.618Z</time></trkpt><trkpt lat="43.5356447" lon="11.3132519"><ele>425.0</ele><time>2026-04-22T16:15:31.618Z</time></trkpt><trkpt lat="43.535512" lon="11.3130694"><ele>423.0</ele><time>2026-04-22T16:15:32.618Z</time></trkpt><trkpt lat="43.5353755" lon="11.3128839"><ele>421.0</ele><time>2026-04-22T16:15:33.618Z</time></trkpt><trkpt lat="43.5352334" lon="11.3126987"><ele>420.6666666666667</ele><time>2026-04-22T16:15:34.618Z</time></trkpt><trkpt lat="43.535094" lon="11.3125229"><ele>420.33333333333337</ele><time>2026-04-22T16:15:35.618Z</time></trkpt><trkpt lat="43.5349683" lon="11.3123502"><ele>420.0</ele><time>2026-04-22T16:15:36.619Z</time></trkpt><trkpt lat="43.5348447" lon="11.3121862"><ele>420.0</ele><time>2026-04-22T16:15:37.618Z</time></trkpt><trkpt lat="43.5347342" lon="11.3120299"><ele>420.0</ele><time>2026-04-22T16:15:38.619Z</time></trkpt><trkpt lat="43.5346335" lon="11.3118698"><ele>420.0</ele><time>2026-04-22T16:15:39.619Z</time></trkpt><trkpt lat="43.5345469" lon="11.3116975"><ele>422.66666666666663</ele><time>2026-04-22T16:15:40.618Z</time></trkpt><trkpt lat="43.5344795" lon="11.3114969"><ele>425.3333333333333</ele><time>2026-04-22T16:15:41.617Z</time></trkpt><trkpt lat="43.5344305" lon="11.3112798"><ele>428.0</ele><time>2026-04-22T16:15:42.618Z</time></trkpt><trkpt lat="43.5343984" lon="11.3110542"><ele>428.0</ele><time>2026-04-22T16:15:43.617Z</time></trkpt><trkpt lat="43.5343741" lon="11.3108442"><ele>428.0</ele><time>2026-04-22T16:15:44.618Z</time></trkpt><trkpt lat="43.5343505" lon="11.3106408"><ele>428.0</ele><time>2026-04-22T16:15:45.617Z</time></trkpt><trkpt lat="43.5343068" lon="11.3104537"><ele>428.0</ele><time>2026-04-22T16:15:46.617Z</time></trkpt><trkpt lat="43.5342364" lon="11.3102763"><ele>424.66666666666663</ele><time>2026-04-22T16:15:47.617Z</time></trkpt><trkpt lat="43.5341296" lon="11.3101087"><ele>421.33333333333337</ele><time>2026-04-22T16:15:48.617Z</time></trkpt><trkpt lat="43.5339965" lon="11.3099547"><ele>418.0</ele><time>2026-04-22T16:15:49.617Z</time></trkpt><trkpt lat="43.5338431" lon="11.3097998"><ele>418.0</ele><time>2026-04-22T16:15:50.618Z</time></trkpt><trkpt lat="43.5336775" lon="11.3096394"><ele>418.0</ele><time>2026-04-22T16:15:51.617Z</time></trkpt><trkpt lat="43.5335083" lon="11.3094848"><ele>418.0</ele><time>2026-04-22T16:15:52.617Z</time></trkpt><trkpt lat="43.5333477" lon="11.3093387"><ele>418.0</ele><time>2026-04-22T16:15:53.617Z</time></trkpt><trkpt lat="43.533195" lon="11.3091985"><ele>418.0</ele><time>2026-04-22T16:15:54.617Z</time></trkpt><trkpt lat="43.5330457" lon="11.3090759"><ele>418.0</ele><time>2026-04-22T16:15:55.617Z</time></trkpt><trkpt lat="43.532902" lon="11.3089555"><ele>418.0</ele><time>2026-04-22T16:15:56.618Z</time></trkpt><trkpt lat="43.5327809" lon="11.3088386"><ele>418.0</ele><time>2026-04-22T16:15:57.617Z</time></trkpt><trkpt lat="43.5326779" lon="11.3087068"><ele>418.0</ele><time>2026-04-22T16:15:58.618Z</time></trkpt><trkpt lat="43.5325929" lon="11.3085407"><ele>418.0</ele><time>2026-04-22T16:15:59.617Z</time></trkpt><trkpt lat="43.5325309" lon="11.3083473"><ele>418.0</ele><time>2026-04-22T16:16:00.618Z</time></trkpt><trkpt lat="43.5324826" lon="11.3081309"><ele>418.0</ele><time>2026-04-22T16:16:01.617Z</time></trkpt><trkpt lat="43.5324479" lon="11.3079131"><ele>418.0</ele><time>2026-04-22T16:16:02.617Z</time></trkpt><trkpt lat="43.5323793" lon="11.3076724"><ele>415.6666666666667</ele><time>2026-04-22T16:16:03.617Z</time></trkpt><trkpt lat="43.5322971" lon="11.3074408"><ele>413.33333333333337</ele><time>2026-04-22T16:16:04.618Z</time></trkpt><trkpt lat="43.5322031" lon="11.3072243"><ele>411.0</ele><time>2026-04-22T16:16:05.618Z</time></trkpt><trkpt lat="43.5321094" lon="11.3070256"><ele>415.66666666666663</ele><time>2026-04-22T16:16:06.618Z</time></trkpt><trkpt lat="43.5320186" lon="11.3068389"><ele>420.3333333333333</ele><time>2026-04-22T16:16:07.618Z</time></trkpt><trkpt lat="43.5319366" lon="11.3066529"><ele>425.0</ele><time>2026-04-22T16:16:08.617Z</time></trkpt><trkpt lat="43.5318694" lon="11.3064603"><ele>423.3333333333333</ele><time>2026-04-22T16:16:09.617Z</time></trkpt><trkpt lat="43.5318299" lon="11.3062623"><ele>421.66666666666663</ele><time>2026-04-22T16:16:10.618Z</time></trkpt><trkpt lat="43.5318162" lon="11.3060424"><ele>420.0</ele><time>2026-04-22T16:16:11.617Z</time></trkpt><trkpt lat="43.5318189" lon="11.305816"><ele>420.0</ele><time>2026-04-22T16:16:12.618Z</time></trkpt><trkpt lat="43.5318261" lon="11.3055999"><ele>420.0</ele><time>2026-04-22T16:16:13.617Z</time></trkpt><trkpt lat="43.5318335" lon="11.3053856"><ele>420.0</ele><time>2026-04-22T16:16:14.617Z</time></trkpt><trkpt lat="43.5318395" lon="11.3051887"><ele>418.75</ele><time>2026-04-22T16:16:15.617Z</time></trkpt><trkpt lat="43.5318426" lon="11.3050004"><ele>417.5</ele><time>2026-04-22T16:16:16.617Z</time></trkpt><trkpt lat="43.5318263" lon="11.3048252"><ele>416.25</ele><time>2026-04-22T16:16:17.618Z</time></trkpt><trkpt lat="43.5317858" lon="11.3046634"><ele>415.0</ele><time>2026-04-22T16:16:18.617Z</time></trkpt><trkpt lat="43.5317202" lon="11.3045203"><ele>411.5</ele><time>2026-04-22T16:16:19.618Z</time></trkpt><trkpt lat="43.5316298" lon="11.3043966"><ele>408.0</ele><time>2026-04-22T16:16:20.618Z</time></trkpt><trkpt lat="43.5315208" lon="11.3042761"><ele>404.5</ele><time>2026-04-22T16:16:21.617Z</time></trkpt><trkpt lat="43.5314" lon="11.3041586"><ele>401.0</ele><time>2026-04-22T16:16:22.618Z</time></trkpt><trkpt lat="43.5312731" lon="11.3040499"><ele>404.3333333333333</ele><time>2026-04-22T16:16:23.617Z</time></trkpt><trkpt lat="43.5311309" lon="11.3039536"><ele>407.66666666666663</ele><time>2026-04-22T16:16:24.618Z</time></trkpt><trkpt lat="43.5309705" lon="11.303868"><ele>411.0</ele><time>2026-04-22T16:16:25.617Z</time></trkpt><trkpt lat="43.5308053" lon="11.3037986"><ele>403.66666666666663</ele><time>2026-04-22T16:16:26.617Z</time></trkpt><trkpt lat="43.5306165" lon="11.3037557"><ele>396.3333333333333</ele><time>2026-04-22T16:16:27.617Z</time></trkpt><trkpt lat="43.5304273" lon="11.3037341"><ele>389.0</ele><time>2026-04-22T16:16:28.617Z</time></trkpt><trkpt lat="43.5302457" lon="11.303728"><ele>388.66666666666663</ele><time>2026-04-22T16:16:29.618Z</time></trkpt><trkpt lat="43.5300726" lon="11.3037371"><ele>388.33333333333337</ele><time>2026-04-22T16:16:30.618Z</time></trkpt><trkpt lat="43.5299098" lon="11.3037691"><ele>388.0</ele><time>2026-04-22T16:16:31.617Z</time></trkpt><trkpt lat="43.5297576" lon="11.3038122"><ele>388.0</ele><time>2026-04-22T16:16:32.617Z</time></trkpt><trkpt lat="43.529599" lon="11.3038296"><ele>388.0</ele><time>2026-04-22T16:16:33.617Z</time></trkpt><trkpt lat="43.5294308" lon="11.3038185"><ele>388.0</ele><time>2026-04-22T16:16:34.618Z</time></trkpt><trkpt lat="43.5292592" lon="11.3037942"><ele>387.0</ele><time>2026-04-22T16:16:35.617Z</time></trkpt><trkpt lat="43.5290969" lon="11.3037675"><ele>386.0</ele><time>2026-04-22T16:16:36.617Z</time></trkpt><trkpt lat="43.5289377" lon="11.3037418"><ele>385.0</ele><time>2026-04-22T16:16:37.617Z</time></trkpt><trkpt lat="43.5287939" lon="11.3037396"><ele>384.5</ele><time>2026-04-22T16:16:38.617Z</time></trkpt><trkpt lat="43.5286483" lon="11.3037716"><ele>384.0</ele><time>2026-04-22T16:16:39.617Z</time></trkpt><trkpt lat="43.5285192" lon="11.3038304"><ele>383.5</ele><time>2026-04-22T16:16:40.617Z</time></trkpt><trkpt lat="43.5283984" lon="11.3038907"><ele>383.0</ele><time>2026-04-22T16:16:41.617Z</time></trkpt><trkpt lat="43.5282874" lon="11.3039152"><ele>383.0</ele><time>2026-04-22T16:16:42.617Z</time></trkpt><trkpt lat="43.5281817" lon="11.3038883"><ele>383.0</ele><time>2026-04-22T16:16:43.617Z</time></trkpt><trkpt lat="43.5280812" lon="11.303821"><ele>383.0</ele><time>2026-04-22T16:16:44.617Z</time></trkpt><trkpt lat="43.5279853" lon="11.3037069"><ele>383.0</ele><time>2026-04-22T16:16:45.617Z</time></trkpt><trkpt lat="43.5279013" lon="11.3035738"><ele>384.5</ele><time>2026-04-22T16:16:46.617Z</time></trkpt><trkpt lat="43.5278193" lon="11.3034472"><ele>386.0</ele><time>2026-04-22T16:16:47.618Z</time></trkpt><trkpt lat="43.5277193" lon="11.3033418"><ele>387.5</ele><time>2026-04-22T16:16:48.617Z</time></trkpt><trkpt lat="43.527599" lon="11.3032704"><ele>389.0</ele><time>2026-04-22T16:16:49.618Z</time></trkpt><trkpt lat="43.5274804" lon="11.3032157"><ele>389.0</ele><time>2026-04-22T16:16:50.617Z</time></trkpt><trkpt lat="43.5273551" lon="11.3031315"><ele>389.0</ele><time>2026-04-22T16:16:51.617Z</time></trkpt><trkpt lat="43.52724" lon="11.3030299"><ele>389.0</ele><time>2026-04-22T16:16:52.618Z</time></trkpt><trkpt lat="43.5271183" lon="11.3028906"><ele>389.0</ele><time>2026-04-22T16:16:53.617Z</time></trkpt><trkpt lat="43.5270219" lon="11.3027605"><ele>386.5</ele><time>2026-04-22T16:16:54.618Z</time></trkpt><trkpt lat="43.5269319" lon="11.3026115"><ele>384.0</ele><time>2026-04-22T16:16:55.617Z</time></trkpt><trkpt lat="43.5268213" lon="11.3024617"><ele>381.5</ele><time>2026-04-22T16:16:56.618Z</time></trkpt><trkpt lat="43.5267307" lon="11.3022942"><ele>379.0</ele><time>2026-04-22T16:16:57.618Z</time></trkpt><trkpt lat="43.5266683" lon="11.3021109"><ele>377.66666666666663</ele><time>2026-04-22T16:16:58.618Z</time></trkpt><trkpt lat="43.5266281" lon="11.3019038"><ele>376.3333333333333</ele><time>2026-04-22T16:16:59.617Z</time></trkpt><trkpt lat="43.5266072" lon="11.3016768"><ele>375.0</ele><time>2026-04-22T16:17:00.617Z</time></trkpt><trkpt lat="43.5265929" lon="11.3014529"><ele>374.0</ele><time>2026-04-22T16:17:01.617Z</time></trkpt><trkpt lat="43.5265807" lon="11.3012406"><ele>373.0</ele><time>2026-04-22T16:17:02.618Z</time></trkpt><trkpt lat="43.5265597" lon="11.3010311"><ele>372.0</ele><time>2026-04-22T16:17:03.617Z</time></trkpt><trkpt lat="43.5265229" lon="11.3008204"><ele>372.0</ele><time>2026-04-22T16:17:04.617Z</time></trkpt><trkpt lat="43.5264677" lon="11.3006275"><ele>372.0</ele><time>2026-04-22T16:17:05.617Z</time></trkpt><trkpt lat="43.5264054" lon="11.300443"><ele>372.0</ele><time>2026-04-22T16:17:06.617Z</time></trkpt><trkpt lat="43.5263456" lon="11.3002663"><ele>372.0</ele><time>2026-04-22T16:17:07.618Z</time></trkpt><trkpt lat="43.5262935" lon="11.300107"><ele>372.0</ele><time>2026-04-22T16:17:08.618Z</time></trkpt><trkpt lat="43.5262257" lon="11.2999639"><ele>372.0</ele><time>2026-04-22T16:17:09.618Z</time></trkpt><trkpt lat="43.526139" lon="11.2998505"><ele>372.0</ele><time>2026-04-22T16:17:10.617Z</time></trkpt><trkpt lat="43.5260268" lon="11.2997748"><ele>372.0</ele><time>2026-04-22T16:17:11.618Z</time></trkpt><trkpt lat="43.52589" lon="11.2997234"><ele>368.0</ele><time>2026-04-22T16:17:12.617Z</time></trkpt><trkpt lat="43.5257408" lon="11.2996949"><ele>364.0</ele><time>2026-04-22T16:17:13.617Z</time></trkpt><trkpt lat="43.5255977" lon="11.2996833"><ele>360.0</ele><time>2026-04-22T16:17:14.618Z</time></trkpt><trkpt lat="43.5254666" lon="11.2996796"><ele>356.0</ele><time>2026-04-22T16:17:15.617Z</time></trkpt><trkpt lat="43.5253474" lon="11.2996948"><ele>356.0</ele><time>2026-04-22T16:17:16.618Z</time></trkpt><trkpt lat="43.525239" lon="11.2997411"><ele>356.0</ele><time>2026-04-22T16:17:17.618Z</time></trkpt><trkpt lat="43.5251448" lon="11.2998265"><ele>356.0</ele><time>2026-04-22T16:17:18.617Z</time></trkpt><trkpt lat="43.5250725" lon="11.29995"><ele>356.0</ele><time>2026-04-22T16:17:19.617Z</time></trkpt><trkpt lat="43.5250147" lon="11.3001098"><ele>357.75</ele><time>2026-04-22T16:17:20.618Z</time></trkpt><trkpt lat="43.5249637" lon="11.3002908"><ele>359.5</ele><time>2026-04-22T16:17:21.618Z</time></trkpt><trkpt lat="43.5249114" lon="11.3004661"><ele>361.25</ele><time>2026-04-22T16:17:22.618Z</time></trkpt><trkpt lat="43.5248601" lon="11.3006301"><ele>363.0</ele><time>2026-04-22T16:17:23.618Z</time></trkpt><trkpt lat="43.5248286" lon="11.3007916"><ele>363.0</ele><time>2026-04-22T16:17:24.618Z</time></trkpt><trkpt lat="43.5248262" lon="11.300962"><ele>363.0</ele><time>2026-04-22T16:17:25.618Z</time></trkpt><trkpt lat="43.5248576" lon="11.3011281"><ele>363.0</ele><time>2026-04-22T16:17:26.618Z</time></trkpt><trkpt lat="43.5249233" lon="11.3012799"><ele>363.0</ele><time>2026-04-22T16:17:27.617Z</time></trkpt><trkpt lat="43.5250181" lon="11.3014138"><ele>361.75</ele><time>2026-04-22T16:17:28.617Z</time></trkpt><trkpt lat="43.5251248" lon="11.3015393"><ele>360.5</ele><time>2026-04-22T16:17:29.617Z</time></trkpt><trkpt lat="43.5252291" lon="11.3016588"><ele>359.25</ele><time>2026-04-22T16:17:30.617Z</time></trkpt><trkpt lat="43.5253301" lon="11.3017666"><ele>358.0</ele><time>2026-04-22T16:17:31.618Z</time></trkpt><trkpt lat="43.5254203" lon="11.301867"><ele>359.3333333333333</ele><time>2026-04-22T16:17:32.618Z</time></trkpt><trkpt lat="43.5254867" lon="11.301976"><ele>360.66666666666663</ele><time>2026-04-22T16:17:33.618Z</time></trkpt><trkpt lat="43.5255315" lon="11.3020932"><ele>362.0</ele><time>2026-04-22T16:17:34.617Z</time></trkpt><trkpt lat="43.525554" lon="11.3022116"><ele>363.3333333333333</ele><time>2026-04-22T16:17:35.618Z</time></trkpt><trkpt lat="43.5255519" lon="11.3023221"><ele>364.6666666666667</ele><time>2026-04-22T16:17:36.617Z</time></trkpt><trkpt lat="43.5255201" lon="11.3024197"><ele>366.0</ele><time>2026-04-22T16:17:37.618Z</time></trkpt><trkpt lat="43.5254595" lon="11.3024865"><ele>366.0</ele><time>2026-04-22T16:17:38.618Z</time></trkpt><trkpt lat="43.5254108" lon="11.3025457"><ele>366.0</ele><time>2026-04-22T16:17:39.617Z</time></trkpt><trkpt lat="43.5253445" lon="11.3025453"><ele>366.0</ele><time>2026-04-22T16:17:40.618Z</time></trkpt><trkpt lat="43.5252633" lon="11.3024631"><ele>366.0</ele><time>2026-04-22T16:17:41.617Z</time></trkpt><trkpt lat="43.5251723" lon="11.3023605"><ele>366.0</ele><time>2026-04-22T16:17:42.617Z</time></trkpt><trkpt lat="43.5250648" lon="11.3022348"><ele>363.3333333333333</ele><time>2026-04-22T16:17:43.617Z</time></trkpt><trkpt lat="43.5249369" lon="11.302096"><ele>360.66666666666663</ele><time>2026-04-22T16:17:44.617Z</time></trkpt><trkpt lat="43.5247992" lon="11.3019536"><ele>358.0</ele><time>2026-04-22T16:17:45.618Z</time></trkpt><trkpt lat="43.5246672" lon="11.3018126"><ele>355.25</ele><time>2026-04-22T16:17:46.617Z</time></trkpt><trkpt lat="43.5245418" lon="11.3016704"><ele>352.5</ele><time>2026-04-22T16:17:47.617Z</time></trkpt><trkpt lat="43.5244272" lon="11.3015497"><ele>349.75</ele><time>2026-04-22T16:17:48.618Z</time></trkpt><trkpt lat="43.5243252" lon="11.3014373"><ele>347.0</ele><time>2026-04-22T16:17:49.617Z</time></trkpt><trkpt lat="43.5242354" lon="11.3013311"><ele>347.0</ele><time>2026-04-22T16:17:50.617Z</time></trkpt><trkpt lat="43.5241684" lon="11.3012239"><ele>347.0</ele><time>2026-04-22T16:17:51.617Z</time></trkpt><trkpt lat="43.5241331" lon="11.3010985"><ele>347.0</ele><time>2026-04-22T16:17:52.617Z</time></trkpt><trkpt lat="43.5241383" lon="11.3009471"><ele>347.0</ele><time>2026-04-22T16:17:53.617Z</time></trkpt><trkpt lat="43.5241623" lon="11.3007822"><ele>347.0</ele><time>2026-04-22T16:17:54.617Z</time></trkpt><trkpt lat="43.5241953" lon="11.3006088"><ele>347.25</ele><time>2026-04-22T16:17:55.617Z</time></trkpt><trkpt lat="43.5242174" lon="11.3004311"><ele>347.5</ele><time>2026-04-22T16:17:56.618Z</time></trkpt><trkpt lat="43.5242037" lon="11.300251"><ele>347.75</ele><time>2026-04-22T16:17:57.617Z</time></trkpt><trkpt lat="43.5241559" lon="11.3000756"><ele>348.0</ele><time>2026-04-22T16:17:58.617Z</time></trkpt><trkpt lat="43.5240853" lon="11.2999333"><ele>348.0</ele><time>2026-04-22T16:17:59.617Z</time></trkpt><trkpt lat="43.5239912" lon="11.2998162"><ele>348.0</ele><time>2026-04-22T16:18:00.617Z</time></trkpt><trkpt lat="43.52387" lon="11.2996962"><ele>348.0</ele><time>2026-04-22T16:18:01.617Z</time></trkpt><trkpt lat="43.52372" lon="11.2995852"><ele>348.0</ele><time>2026-04-22T16:18:02.618Z</time></trkpt><trkpt lat="43.523565" lon="11.2994688"><ele>345.0</ele><time>2026-04-22T16:18:03.618Z</time></trkpt><trkpt lat="43.5234006" lon="11.2993282"><ele>342.0</ele><time>2026-04-22T16:18:04.618Z</time></trkpt><trkpt lat="43.5232348" lon="11.2991832"><ele>339.0</ele><time>2026-04-22T16:18:05.617Z</time></trkpt><trkpt lat="43.5230712" lon="11.2990398"><ele>340.3333333333333</ele><time>2026-04-22T16:18:06.618Z</time></trkpt><trkpt lat="43.5229162" lon="11.298903"><ele>341.66666666666663</ele><time>2026-04-22T16:18:07.618Z</time></trkpt><trkpt lat="43.5227738" lon="11.2987774"><ele>343.0</ele><time>2026-04-22T16:18:08.617Z</time></trkpt><trkpt lat="43.5226257" lon="11.2986471"><ele>339.66666666666663</ele><time>2026-04-22T16:18:09.617Z</time></trkpt><trkpt lat="43.5224817" lon="11.2985234"><ele>336.3333333333333</ele><time>2026-04-22T16:18:10.618Z</time></trkpt><trkpt lat="43.5223397" lon="11.2984019"><ele>333.0</ele><time>2026-04-22T16:18:11.618Z</time></trkpt><trkpt lat="43.5222042" lon="11.2982906"><ele>333.0</ele><time>2026-04-22T16:18:12.617Z</time></trkpt><trkpt lat="43.5220731" lon="11.2981878"><ele>333.0</ele><time>2026-04-22T16:18:13.617Z</time></trkpt><trkpt lat="43.5219426" lon="11.2981053"><ele>333.0</ele><time>2026-04-22T16:18:14.617Z</time></trkpt><trkpt lat="43.5218069" lon="11.2980497"><ele>333.0</ele><time>2026-04-22T16:18:15.618Z</time></trkpt><trkpt lat="43.5216664" lon="11.2980192"><ele>334.75</ele><time>2026-04-22T16:18:16.617Z</time></trkpt><trkpt lat="43.5215253" lon="11.2980031"><ele>336.5</ele><time>2026-04-22T16:18:17.617Z</time></trkpt><trkpt lat="43.5213885" lon="11.2979958"><ele>338.25</ele><time>2026-04-22T16:18:18.617Z</time></trkpt><trkpt lat="43.5212573" lon="11.2979856"><ele>340.0</ele><time>2026-04-22T16:18:19.617Z</time></trkpt><trkpt lat="43.521126" lon="11.2979654"><ele>334.75</ele><time>2026-04-22T16:18:20.617Z</time></trkpt><trkpt lat="43.5210095" lon="11.2978987"><ele>329.5</ele><time>2026-04-22T16:18:21.618Z</time></trkpt><trkpt lat="43.5209018" lon="11.2977889"><ele>324.25</ele><time>2026-04-22T16:18:22.617Z</time></trkpt><trkpt lat="43.5207948" lon="11.2976382"><ele>319.0</ele><time>2026-04-22T16:18:23.618Z</time></trkpt><trkpt lat="43.5206826" lon="11.2974606"><ele>319.0</ele><time>2026-04-22T16:18:24.618Z</time></trkpt><trkpt lat="43.5205698" lon="11.2972637"><ele>319.0</ele><time>2026-04-22T16:18:25.618Z</time></trkpt><trkpt lat="43.5204555" lon="11.2970879"><ele>319.0</ele><time>2026-04-22T16:18:26.617Z</time></trkpt><trkpt lat="43.5203464" lon="11.2969175"><ele>313.3333333333333</ele><time>2026-04-22T16:18:27.618Z</time></trkpt><trkpt lat="43.5202431" lon="11.29675"><ele>307.6666666666667</ele><time>2026-04-22T16:18:28.617Z</time></trkpt><trkpt lat="43.5201424" lon="11.2965927"><ele>302.0</ele><time>2026-04-22T16:18:29.618Z</time></trkpt><trkpt lat="43.520041" lon="11.2964391"><ele>304.0</ele><time>2026-04-22T16:18:30.618Z</time></trkpt><trkpt lat="43.5199427" lon="11.2962942"><ele>306.0</ele><time>2026-04-22T16:18:31.618Z</time></trkpt><trkpt lat="43.5198494" lon="11.2961568"><ele>308.0</ele><time>2026-04-22T16:18:32.617Z</time></trkpt><trkpt lat="43.5197647" lon="11.2960295"><ele>310.0</ele><time>2026-04-22T16:18:33.617Z</time></trkpt><trkpt lat="43.5196943" lon="11.2958925"><ele>310.0</ele><time>2026-04-22T16:18:34.618Z</time></trkpt><trkpt lat="43.5196411" lon="11.2957442"><ele>310.0</ele><time>2026-04-22T16:18:35.617Z</time></trkpt><trkpt lat="43.5196099" lon="11.2955943"><ele>310.0</ele><time>2026-04-22T16:18:36.618Z</time></trkpt><trkpt lat="43.5196013" lon="11.2954449"><ele>310.0</ele><time>2026-04-22T16:18:37.618Z</time></trkpt><trkpt lat="43.5196163" lon="11.2952899"><ele>308.25</ele><time>2026-04-22T16:18:38.618Z</time></trkpt><trkpt lat="43.519665" lon="11.2951365"><ele>306.5</ele><time>2026-04-22T16:18:39.617Z</time></trkpt><trkpt lat="43.5197391" lon="11.2949935"><ele>304.75</ele><time>2026-04-22T16:18:40.617Z</time></trkpt><trkpt lat="43.5198393" lon="11.2948657"><ele>303.0</ele><time>2026-04-22T16:18:41.617Z</time></trkpt><trkpt lat="43.5199475" lon="11.2947527"><ele>298.0</ele><time>2026-04-22T16:18:42.617Z</time></trkpt><trkpt lat="43.5200547" lon="11.2946558"><ele>293.0</ele><time>2026-04-22T16:18:43.617Z</time></trkpt><trkpt lat="43.5201626" lon="11.2945807"><ele>288.0</ele><time>2026-04-22T16:18:44.617Z</time></trkpt><trkpt lat="43.5202723" lon="11.2945354"><ele>283.0</ele><time>2026-04-22T16:18:45.617Z</time></trkpt><trkpt lat="43.5203941" lon="11.2945344"><ele>283.25</ele><time>2026-04-22T16:18:46.618Z</time></trkpt><trkpt lat="43.5205244" lon="11.2945834"><ele>283.5</ele><time>2026-04-22T16:18:47.618Z</time></trkpt><trkpt lat="43.5206671" lon="11.2946611"><ele>283.75</ele><time>2026-04-22T16:18:48.617Z</time></trkpt><trkpt lat="43.5208147" lon="11.2947378"><ele>284.0</ele><time>2026-04-22T16:18:49.618Z</time></trkpt><trkpt lat="43.5209563" lon="11.2947816"><ele>286.75</ele><time>2026-04-22T16:18:50.618Z</time></trkpt><trkpt lat="43.5210926" lon="11.2948261"><ele>289.5</ele><time>2026-04-22T16:18:51.618Z</time></trkpt><trkpt lat="43.521208" lon="11.2948479"><ele>292.25</ele><time>2026-04-22T16:18:52.618Z</time></trkpt><trkpt lat="43.5213097" lon="11.2948532"><ele>295.0</ele><time>2026-04-22T16:18:53.618Z</time></trkpt><trkpt lat="43.5214003" lon="11.2948268"><ele>295.0</ele><time>2026-04-22T16:18:54.617Z</time></trkpt><trkpt lat="43.5214827" lon="11.2947746"><ele>295.0</ele><time>2026-04-22T16:18:55.617Z</time></trkpt><trkpt lat="43.5215328" lon="11.2946858"><ele>295.0</ele><time>2026-04-22T16:18:56.618Z</time></trkpt><trkpt lat="43.5215458" lon="11.2945729"><ele>295.0</ele><time>2026-04-22T16:18:57.617Z</time></trkpt><trkpt lat="43.5215255" lon="11.2944667"><ele>295.0</ele><time>2026-04-22T16:18:58.618Z</time></trkpt><trkpt lat="43.5214603" lon="11.2943708"><ele>295.0</ele><time>2026-04-22T16:18:59.617Z</time></trkpt><trkpt lat="43.5213681" lon="11.2943006"><ele>291.3333333333333</ele><time>2026-04-22T16:19:00.617Z</time></trkpt><trkpt lat="43.5212471" lon="11.2942436"><ele>287.6666666666667</ele><time>2026-04-22T16:19:01.617Z</time></trkpt><trkpt lat="43.5210982" lon="11.2941879"><ele>284.0</ele><time>2026-04-22T16:19:02.617Z</time></trkpt><trkpt lat="43.5209284" lon="11.294125"><ele>284.0</ele><time>2026-04-22T16:19:03.618Z</time></trkpt><trkpt lat="43.5207444" lon="11.2940596"><ele>284.0</ele><time>2026-04-22T16:19:04.617Z</time></trkpt><trkpt lat="43.5205601" lon="11.2939891"><ele>284.0</ele><time>2026-04-22T16:19:05.618Z</time></trkpt><trkpt lat="43.5203759" lon="11.2939228"><ele>280.0</ele><time>2026-04-22T16:19:06.618Z</time></trkpt><trkpt lat="43.5202001" lon="11.2938541"><ele>276.0</ele><time>2026-04-22T16:19:07.618Z</time></trkpt><trkpt lat="43.5200398" lon="11.2937905"><ele>272.0</ele><time>2026-04-22T16:19:08.617Z</time></trkpt><trkpt lat="43.5199028" lon="11.29372"><ele>272.0</ele><time>2026-04-22T16:19:09.617Z</time></trkpt><trkpt lat="43.5198131" lon="11.2936562"><ele>272.0</ele><time>2026-04-22T16:19:10.617Z</time></trkpt><trkpt lat="43.5197717" lon="11.293496"><ele>272.0</ele><time>2026-04-22T16:19:12.618Z</time></trkpt><trkpt lat="43.5198243" lon="11.293406"><ele>272.0</ele><time>2026-04-22T16:19:13.618Z</time></trkpt><trkpt lat="43.5198993" lon="11.2933149"><ele>272.0</ele><time>2026-04-22T16:19:14.617Z</time></trkpt><trkpt lat="43.5199794" lon="11.2932227"><ele>272.0</ele><time>2026-04-22T16:19:15.618Z</time></trkpt><trkpt lat="43.5200417" lon="11.2931115"><ele>272.0</ele><time>2026-04-22T16:19:16.618Z</time></trkpt><trkpt lat="43.520087" lon="11.2929653"><ele>272.0</ele><time>2026-04-22T16:19:17.617Z</time></trkpt><trkpt lat="43.520118" lon="11.2927954"><ele>272.0</ele><time>2026-04-22T16:19:18.618Z</time></trkpt><trkpt lat="43.5201092" lon="11.2926211"><ele>271.4</ele><time>2026-04-22T16:19:19.617Z</time></trkpt><trkpt lat="43.5200973" lon="11.292455"><ele>270.79999999999995</ele><time>2026-04-22T16:19:20.617Z</time></trkpt><trkpt lat="43.5200859" lon="11.2923004"><ele>270.2</ele><time>2026-04-22T16:19:21.618Z</time></trkpt><trkpt lat="43.5200737" lon="11.2921559"><ele>269.59999999999997</ele><time>2026-04-22T16:19:22.617Z</time></trkpt><trkpt lat="43.5200654" lon="11.2920487"><ele>269.0</ele><time>2026-04-22T16:19:23.618Z</time></trkpt><trkpt lat="43.5200573" lon="11.29195"><ele>271.2</ele><time>2026-04-22T16:19:24.617Z</time></trkpt><trkpt lat="43.5200586" lon="11.2917927"><ele>273.4</ele><time>2026-04-22T16:19:26.617Z</time></trkpt><trkpt lat="43.5201405" lon="11.2916955"><ele>275.6</ele><time>2026-04-22T16:19:28.617Z</time></trkpt><trkpt lat="43.5202135" lon="11.2917047"><ele>277.8</ele><time>2026-04-22T16:19:29.617Z</time></trkpt><trkpt lat="43.5202985" lon="11.2917347"><ele>280.0</ele><time>2026-04-22T16:19:30.617Z</time></trkpt><trkpt lat="43.5204087" lon="11.2917685"><ele>280.5</ele><time>2026-04-22T16:19:31.618Z</time></trkpt><trkpt lat="43.5205244" lon="11.2917716"><ele>281.0</ele><time>2026-04-22T16:19:32.617Z</time></trkpt><trkpt lat="43.52065" lon="11.2917481"><ele>281.5</ele><time>2026-04-22T16:19:33.617Z</time></trkpt><trkpt lat="43.5207796" lon="11.2917255"><ele>282.0</ele><time>2026-04-22T16:19:34.618Z</time></trkpt><trkpt lat="43.5209033" lon="11.2917322"><ele>282.0</ele><time>2026-04-22T16:19:35.618Z</time></trkpt><trkpt lat="43.5210282" lon="11.29177"><ele>282.0</ele><time>2026-04-22T16:19:36.617Z</time></trkpt><trkpt lat="43.5211596" lon="11.2918168"><ele>282.0</ele><time>2026-04-22T16:19:37.617Z</time></trkpt><trkpt lat="43.52131" lon="11.2918528"><ele>282.0</ele><time>2026-04-22T16:19:38.617Z</time></trkpt><trkpt lat="43.5214462" lon="11.2918778"><ele>282.5</ele><time>2026-04-22T16:19:39.618Z</time></trkpt><trkpt lat="43.521559" lon="11.2918943"><ele>283.0</ele><time>2026-04-22T16:19:40.617Z</time></trkpt><trkpt lat="43.5216755" lon="11.2918798"><ele>283.5</ele><time>2026-04-22T16:19:41.617Z</time></trkpt><trkpt lat="43.5217927" lon="11.2918415"><ele>284.0</ele><time>2026-04-22T16:19:42.618Z</time></trkpt><trkpt lat="43.5219134" lon="11.2917636"><ele>284.0</ele><time>2026-04-22T16:19:43.617Z</time></trkpt><trkpt lat="43.5220335" lon="11.2916509"><ele>284.0</ele><time>2026-04-22T16:19:44.618Z</time></trkpt><trkpt lat="43.5221423" lon="11.2915034"><ele>284.0</ele><time>2026-04-22T16:19:45.617Z</time></trkpt><trkpt lat="43.5222453" lon="11.2913567"><ele>284.0</ele><time>2026-04-22T16:19:46.618Z</time></trkpt><trkpt lat="43.5223344" lon="11.2912377"><ele>285.25</ele><time>2026-04-22T16:19:47.617Z</time></trkpt><trkpt lat="43.5224239" lon="11.2911458"><ele>286.5</ele><time>2026-04-22T16:19:48.617Z</time></trkpt><trkpt lat="43.5225187" lon="11.2910594"><ele>287.75</ele><time>2026-04-22T16:19:49.617Z</time></trkpt><trkpt lat="43.5226355" lon="11.2910054"><ele>289.0</ele><time>2026-04-22T16:19:50.617Z</time></trkpt><trkpt lat="43.5227647" lon="11.2909458"><ele>283.66666666666663</ele><time>2026-04-22T16:19:51.618Z</time></trkpt><trkpt lat="43.5229142" lon="11.2908591"><ele>278.3333333333333</ele><time>2026-04-22T16:19:52.618Z</time></trkpt><trkpt lat="43.5230722" lon="11.2907828"><ele>273.0</ele><time>2026-04-22T16:19:53.618Z</time></trkpt><trkpt lat="43.5232493" lon="11.2907226"><ele>273.0</ele><time>2026-04-22T16:19:54.618Z</time></trkpt><trkpt lat="43.5234253" lon="11.2906584"><ele>273.0</ele><time>2026-04-22T16:19:55.617Z</time></trkpt><trkpt lat="43.5236231" lon="11.2905884"><ele>273.0</ele><time>2026-04-22T16:19:56.617Z</time></trkpt><trkpt lat="43.5238218" lon="11.2905588"><ele>271.3333333333333</ele><time>2026-04-22T16:19:57.617Z</time></trkpt><trkpt lat="43.523992" lon="11.2905643"><ele>269.66666666666663</ele><time>2026-04-22T16:19:58.617Z</time></trkpt><trkpt lat="43.5241525" lon="11.2905817"><ele>268.0</ele><time>2026-04-22T16:19:59.618Z</time></trkpt><trkpt lat="43.524308" lon="11.2905925"><ele>268.0</ele><time>2026-04-22T16:20:00.617Z</time></trkpt><trkpt lat="43.5244579" lon="11.2906021"><ele>268.0</ele><time>2026-04-22T16:20:01.617Z</time></trkpt><trkpt lat="43.5246037" lon="11.2905785"><ele>268.0</ele><time>2026-04-22T16:20:02.617Z</time></trkpt><trkpt lat="43.52474" lon="11.290532"><ele>268.0</ele><time>2026-04-22T16:20:03.617Z</time></trkpt><trkpt lat="43.5248772" lon="11.2904838"><ele>271.3333333333333</ele><time>2026-04-22T16:20:04.618Z</time></trkpt><trkpt lat="43.525022" lon="11.2904438"><ele>274.6666666666667</ele><time>2026-04-22T16:20:05.618Z</time></trkpt><trkpt lat="43.5251857" lon="11.2904237"><ele>278.0</ele><time>2026-04-22T16:20:06.618Z</time></trkpt><trkpt lat="43.5253529" lon="11.2904231"><ele>275.33333333333337</ele><time>2026-04-22T16:20:07.617Z</time></trkpt><trkpt lat="43.5255195" lon="11.2904076"><ele>272.6666666666667</ele><time>2026-04-22T16:20:08.617Z</time></trkpt><trkpt lat="43.5256851" lon="11.2903689"><ele>270.0</ele><time>2026-04-22T16:20:09.617Z</time></trkpt><trkpt lat="43.525847" lon="11.2903289"><ele>270.0</ele><time>2026-04-22T16:20:10.617Z</time></trkpt><trkpt lat="43.5260055" lon="11.2902771"><ele>270.0</ele><time>2026-04-22T16:20:11.617Z</time></trkpt><trkpt lat="43.5261587" lon="11.290226"><ele>270.0</ele><time>2026-04-22T16:20:12.617Z</time></trkpt><trkpt lat="43.5263093" lon="11.2901838"><ele>269.25</ele><time>2026-04-22T16:20:13.618Z</time></trkpt><trkpt lat="43.5264402" lon="11.2901395"><ele>268.5</ele><time>2026-04-22T16:20:14.618Z</time></trkpt><trkpt lat="43.5265662" lon="11.2900889"><ele>267.75</ele><time>2026-04-22T16:20:15.618Z</time></trkpt><trkpt lat="43.526693" lon="11.2900235"><ele>267.0</ele><time>2026-04-22T16:20:16.617Z</time></trkpt><trkpt lat="43.5268143" lon="11.2899303"><ele>267.0</ele><time>2026-04-22T16:20:17.617Z</time></trkpt><trkpt lat="43.5269283" lon="11.2898047"><ele>267.0</ele><time>2026-04-22T16:20:18.617Z</time></trkpt><trkpt lat="43.5270272" lon="11.289655"><ele>267.0</ele><time>2026-04-22T16:20:19.618Z</time></trkpt><trkpt lat="43.527098" lon="11.2894892"><ele>267.0</ele><time>2026-04-22T16:20:20.617Z</time></trkpt><trkpt lat="43.5271396" lon="11.2893167"><ele>269.0</ele><time>2026-04-22T16:20:21.618Z</time></trkpt><trkpt lat="43.5271587" lon="11.2891308"><ele>271.0</ele><time>2026-04-22T16:20:22.617Z</time></trkpt><trkpt lat="43.5271569" lon="11.2889323"><ele>273.0</ele><time>2026-04-22T16:20:23.617Z</time></trkpt><trkpt lat="43.5271285" lon="11.2887396"><ele>275.0</ele><time>2026-04-22T16:20:24.617Z</time></trkpt><trkpt lat="43.5270808" lon="11.288524"><ele>275.0</ele><time>2026-04-22T16:20:25.618Z</time></trkpt><trkpt lat="43.5270293" lon="11.288305"><ele>275.0</ele><time>2026-04-22T16:20:26.618Z</time></trkpt><trkpt lat="43.52698" lon="11.2880904"><ele>275.0</ele><time>2026-04-22T16:20:27.617Z</time></trkpt><trkpt lat="43.5269401" lon="11.2878782"><ele>278.0</ele><time>2026-04-22T16:20:28.617Z</time></trkpt><trkpt lat="43.5269126" lon="11.2876645"><ele>281.0</ele><time>2026-04-22T16:20:29.617Z</time></trkpt><trkpt lat="43.5269051" lon="11.2874534"><ele>284.0</ele><time>2026-04-22T16:20:30.618Z</time></trkpt><trkpt lat="43.5269276" lon="11.2872315"><ele>284.25</ele><time>2026-04-22T16:20:31.618Z</time></trkpt><trkpt lat="43.5269617" lon="11.2870292"><ele>284.5</ele><time>2026-04-22T16:20:32.617Z</time></trkpt><trkpt lat="43.5270056" lon="11.2868474"><ele>284.75</ele><time>2026-04-22T16:20:33.618Z</time></trkpt><trkpt lat="43.5270335" lon="11.2866759"><ele>285.0</ele><time>2026-04-22T16:20:34.617Z</time></trkpt><trkpt lat="43.5270724" lon="11.2865438"><ele>287.6</ele><time>2026-04-22T16:20:35.618Z</time></trkpt><trkpt lat="43.5271274" lon="11.2864344"><ele>290.2</ele><time>2026-04-22T16:20:36.617Z</time></trkpt><trkpt lat="43.5272064" lon="11.2863428"><ele>292.8</ele><time>2026-04-22T16:20:37.617Z</time></trkpt><trkpt lat="43.5273056" lon="11.2862669"><ele>295.4</ele><time>2026-04-22T16:20:38.618Z</time></trkpt><trkpt lat="43.5274192" lon="11.2861967"><ele>298.0</ele><time>2026-04-22T16:20:39.618Z</time></trkpt><trkpt lat="43.5275272" lon="11.2861125"><ele>298.0</ele><time>2026-04-22T16:20:40.618Z</time></trkpt><trkpt lat="43.5276349" lon="11.2860163"><ele>298.0</ele><time>2026-04-22T16:20:41.618Z</time></trkpt><trkpt lat="43.5277129" lon="11.2858868"><ele>298.0</ele><time>2026-04-22T16:20:42.617Z</time></trkpt><trkpt lat="43.5277616" lon="11.2857355"><ele>298.0</ele><time>2026-04-22T16:20:43.618Z</time></trkpt><trkpt lat="43.5277983" lon="11.2855625"><ele>297.75</ele><time>2026-04-22T16:20:44.618Z</time></trkpt><trkpt lat="43.5278221" lon="11.2853772"><ele>297.5</ele><time>2026-04-22T16:20:45.618Z</time></trkpt><trkpt lat="43.5278378" lon="11.2852141"><ele>297.25</ele><time>2026-04-22T16:20:46.617Z</time></trkpt><trkpt lat="43.5278251" lon="11.2850427"><ele>297.0</ele><time>2026-04-22T16:20:47.617Z</time></trkpt><trkpt lat="43.5277884" lon="11.2848705"><ele>299.25</ele><time>2026-04-22T16:20:48.617Z</time></trkpt><trkpt lat="43.5277336" lon="11.2847018"><ele>301.5</ele><time>2026-04-22T16:20:49.617Z</time></trkpt><trkpt lat="43.5276735" lon="11.2845554"><ele>303.75</ele><time>2026-04-22T16:20:50.618Z</time></trkpt><trkpt lat="43.5275915" lon="11.2844191"><ele>306.0</ele><time>2026-04-22T16:20:51.617Z</time></trkpt><trkpt lat="43.52751" lon="11.2843209"><ele>306.0</ele><time>2026-04-22T16:20:52.617Z</time></trkpt><trkpt lat="43.5274319" lon="11.284244"><ele>306.0</ele><time>2026-04-22T16:20:53.618Z</time></trkpt><trkpt lat="43.5273672" lon="11.2841656"><ele>306.0</ele><time>2026-04-22T16:20:54.618Z</time></trkpt><trkpt lat="43.5273316" lon="11.2840781"><ele>306.0</ele><time>2026-04-22T16:20:55.618Z</time></trkpt><trkpt lat="43.5273329" lon="11.28399"><ele>306.0</ele><time>2026-04-22T16:20:56.618Z</time></trkpt><trkpt lat="43.5274248" lon="11.2838877"><ele>306.0</ele><time>2026-04-22T16:20:58.617Z</time></trkpt><trkpt lat="43.5275126" lon="11.2838706"><ele>308.25</ele><time>2026-04-22T16:20:59.618Z</time></trkpt><trkpt lat="43.5276273" lon="11.2838575"><ele>310.5</ele><time>2026-04-22T16:21:00.617Z</time></trkpt><trkpt lat="43.5277443" lon="11.2838549"><ele>312.75</ele><time>2026-04-22T16:21:01.618Z</time></trkpt><trkpt lat="43.5278609" lon="11.2838536"><ele>315.0</ele><time>2026-04-22T16:21:02.617Z</time></trkpt><trkpt lat="43.5279853" lon="11.2838681"><ele>315.5</ele><time>2026-04-22T16:21:03.617Z</time></trkpt><trkpt lat="43.5281205" lon="11.2838964"><ele>316.0</ele><time>2026-04-22T16:21:04.617Z</time></trkpt><trkpt lat="43.5282573" lon="11.2839641"><ele>316.5</ele><time>2026-04-22T16:21:05.617Z</time></trkpt><trkpt lat="43.5283982" lon="11.2840471"><ele>317.0</ele><time>2026-04-22T16:21:06.617Z</time></trkpt><trkpt lat="43.5285354" lon="11.2841319"><ele>317.0</ele><time>2026-04-22T16:21:07.617Z</time></trkpt><trkpt lat="43.5286597" lon="11.2842225"><ele>317.0</ele><time>2026-04-22T16:21:08.617Z</time></trkpt><trkpt lat="43.5287744" lon="11.2843218"><ele>317.0</ele><time>2026-04-22T16:21:09.617Z</time></trkpt><trkpt lat="43.5288777" lon="11.2844367"><ele>317.0</ele><time>2026-04-22T16:21:10.618Z</time></trkpt><trkpt lat="43.5289899" lon="11.2845671"><ele>319.25</ele><time>2026-04-22T16:21:11.617Z</time></trkpt><trkpt lat="43.5291176" lon="11.2846963"><ele>321.5</ele><time>2026-04-22T16:21:12.618Z</time></trkpt><trkpt lat="43.5292327" lon="11.2848197"><ele>323.75</ele><time>2026-04-22T16:21:13.617Z</time></trkpt><trkpt lat="43.5293276" lon="11.2849279"><ele>326.0</ele><time>2026-04-22T16:21:14.618Z</time></trkpt><trkpt lat="43.5294152" lon="11.285028"><ele>326.0</ele><time>2026-04-22T16:21:15.617Z</time></trkpt><trkpt lat="43.5295023" lon="11.2851174"><ele>326.0</ele><time>2026-04-22T16:21:16.618Z</time></trkpt><trkpt lat="43.5295816" lon="11.2851848"><ele>326.0</ele><time>2026-04-22T16:21:17.617Z</time></trkpt><trkpt lat="43.529653" lon="11.2852119"><ele>326.0</ele><time>2026-04-22T16:21:18.618Z</time></trkpt><trkpt lat="43.529717" lon="11.2851907"><ele>326.0</ele><time>2026-04-22T16:21:19.617Z</time></trkpt><trkpt lat="43.5297734" lon="11.285126"><ele>326.0</ele><time>2026-04-22T16:21:20.618Z</time></trkpt><trkpt lat="43.5298175" lon="11.2850232"><ele>328.6</ele><time>2026-04-22T16:21:21.617Z</time></trkpt><trkpt lat="43.5298646" lon="11.2848985"><ele>331.20000000000005</ele><time>2026-04-22T16:21:22.618Z</time></trkpt><trkpt lat="43.5299164" lon="11.2847693"><ele>333.79999999999995</ele><time>2026-04-22T16:21:23.617Z</time></trkpt><trkpt lat="43.5299675" lon="11.2846493"><ele>336.4</ele><time>2026-04-22T16:21:24.618Z</time></trkpt><trkpt lat="43.5300272" lon="11.28455"><ele>339.0</ele><time>2026-04-22T16:21:25.617Z</time></trkpt><trkpt lat="43.5300747" lon="11.2844407"><ele>339.25</ele><time>2026-04-22T16:21:26.618Z</time></trkpt><trkpt lat="43.5300985" lon="11.2843044"><ele>339.5</ele><time>2026-04-22T16:21:27.617Z</time></trkpt><trkpt lat="43.5301026" lon="11.2841585"><ele>339.75</ele><time>2026-04-22T16:21:28.618Z</time></trkpt><trkpt lat="43.530098" lon="11.2840066"><ele>340.0</ele><time>2026-04-22T16:21:29.617Z</time></trkpt><trkpt lat="43.5300754" lon="11.2838155"><ele>339.5</ele><time>2026-04-22T16:21:30.617Z</time></trkpt><trkpt lat="43.5300574" lon="11.2836566"><ele>339.0</ele><time>2026-04-22T16:21:31.617Z</time></trkpt><trkpt lat="43.5300326" lon="11.2834984"><ele>338.5</ele><time>2026-04-22T16:21:32.618Z</time></trkpt><trkpt lat="43.5299912" lon="11.2833529"><ele>338.0</ele><time>2026-04-22T16:21:33.617Z</time></trkpt><trkpt lat="43.5299294" lon="11.2832254"><ele>338.0</ele><time>2026-04-22T16:21:34.618Z</time></trkpt><trkpt lat="43.5298488" lon="11.2831156"><ele>338.0</ele><time>2026-04-22T16:21:35.617Z</time></trkpt><trkpt lat="43.5297527" lon="11.2830244"><ele>338.0</ele><time>2026-04-22T16:21:36.617Z</time></trkpt><trkpt lat="43.5296328" lon="11.2829436"><ele>338.0</ele><time>2026-04-22T16:21:37.617Z</time></trkpt><trkpt lat="43.5295317" lon="11.2828702"><ele>338.25</ele><time>2026-04-22T16:21:38.618Z</time></trkpt><trkpt lat="43.5294405" lon="11.2827588"><ele>338.5</ele><time>2026-04-22T16:21:39.617Z</time></trkpt><trkpt lat="43.5293573" lon="11.2826168"><ele>338.75</ele><time>2026-04-22T16:21:40.617Z</time></trkpt><trkpt lat="43.5292841" lon="11.2824598"><ele>339.0</ele><time>2026-04-22T16:21:41.618Z</time></trkpt><trkpt lat="43.5292114" lon="11.2822923"><ele>339.75</ele><time>2026-04-22T16:21:42.617Z</time></trkpt><trkpt lat="43.5291412" lon="11.2821362"><ele>340.5</ele><time>2026-04-22T16:21:43.617Z</time></trkpt><trkpt lat="43.5290743" lon="11.2819863"><ele>341.25</ele><time>2026-04-22T16:21:44.617Z</time></trkpt><trkpt lat="43.5290245" lon="11.2818369"><ele>342.0</ele><time>2026-04-22T16:21:45.618Z</time></trkpt><trkpt lat="43.5289998" lon="11.2816942"><ele>342.0</ele><time>2026-04-22T16:21:46.617Z</time></trkpt><trkpt lat="43.5290038" lon="11.2815574"><ele>342.0</ele><time>2026-04-22T16:21:47.618Z</time></trkpt><trkpt lat="43.5290406" lon="11.2814313"><ele>342.0</ele><time>2026-04-22T16:21:48.617Z</time></trkpt><trkpt lat="43.5291096" lon="11.2813169"><ele>342.0</ele><time>2026-04-22T16:21:49.618Z</time></trkpt><trkpt lat="43.5292115" lon="11.2812298"><ele>342.0</ele><time>2026-04-22T16:21:50.618Z</time></trkpt><trkpt lat="43.5293302" lon="11.2811645"><ele>344.3333333333333</ele><time>2026-04-22T16:21:51.618Z</time></trkpt><trkpt lat="43.5294707" lon="11.2811125"><ele>346.66666666666663</ele><time>2026-04-22T16:21:52.618Z</time></trkpt><trkpt lat="43.5296294" lon="11.2810687"><ele>349.0</ele><time>2026-04-22T16:21:53.617Z</time></trkpt><trkpt lat="43.5297894" lon="11.2810287"><ele>349.0</ele><time>2026-04-22T16:21:54.617Z</time></trkpt><trkpt lat="43.5299467" lon="11.2809887"><ele>349.0</ele><time>2026-04-22T16:21:55.618Z</time></trkpt><trkpt lat="43.5301028" lon="11.2809581"><ele>349.0</ele><time>2026-04-22T16:21:56.617Z</time></trkpt><trkpt lat="43.530248" lon="11.2809194"><ele>349.0</ele><time>2026-04-22T16:21:57.617Z</time></trkpt><trkpt lat="43.530386" lon="11.2808421"><ele>349.0</ele><time>2026-04-22T16:21:58.617Z</time></trkpt><trkpt lat="43.5305131" lon="11.2807613"><ele>349.0</ele><time>2026-04-22T16:21:59.617Z</time></trkpt><trkpt lat="43.530629" lon="11.2806856"><ele>349.0</ele><time>2026-04-22T16:22:00.617Z</time></trkpt><trkpt lat="43.5307496" lon="11.2806414"><ele>350.0</ele><time>2026-04-22T16:22:01.618Z</time></trkpt><trkpt lat="43.5308556" lon="11.2806209"><ele>351.0</ele><time>2026-04-22T16:22:02.617Z</time></trkpt><trkpt lat="43.5309734" lon="11.280639"><ele>352.0</ele><time>2026-04-22T16:22:03.617Z</time></trkpt><trkpt lat="43.531092" lon="11.2806986"><ele>353.0</ele><time>2026-04-22T16:22:04.618Z</time></trkpt><trkpt lat="43.5312048" lon="11.2807687"><ele>354.59999999999997</ele><time>2026-04-22T16:22:05.617Z</time></trkpt><trkpt lat="43.5313159" lon="11.280826"><ele>356.2</ele><time>2026-04-22T16:22:06.618Z</time></trkpt><trkpt lat="43.5314212" lon="11.2808562"><ele>357.8</ele><time>2026-04-22T16:22:07.617Z</time></trkpt><trkpt lat="43.5315349" lon="11.2808686"><ele>359.4</ele><time>2026-04-22T16:22:08.617Z</time></trkpt><trkpt lat="43.5316424" lon="11.2808533"><ele>361.0</ele><time>2026-04-22T16:22:09.618Z</time></trkpt><trkpt lat="43.5317633" lon="11.2808345"><ele>361.0</ele><time>2026-04-22T16:22:10.618Z</time></trkpt><trkpt lat="43.5318848" lon="11.2808072"><ele>361.0</ele><time>2026-04-22T16:22:11.617Z</time></trkpt><trkpt lat="43.5319973" lon="11.2807756"><ele>361.0</ele><time>2026-04-22T16:22:12.618Z</time></trkpt><trkpt lat="43.5321032" lon="11.2807245"><ele>361.0</ele><time>2026-04-22T16:22:13.617Z</time></trkpt><trkpt lat="43.5321995" lon="11.2806394"><ele>362.0</ele><time>2026-04-22T16:22:14.617Z</time></trkpt><trkpt lat="43.5322798" lon="11.2805177"><ele>363.0</ele><time>2026-04-22T16:22:15.617Z</time></trkpt><trkpt lat="43.532323" lon="11.2803872"><ele>364.0</ele><time>2026-04-22T16:22:16.618Z</time></trkpt><trkpt lat="43.5323502" lon="11.2802349"><ele>365.0</ele><time>2026-04-22T16:22:17.618Z</time></trkpt><trkpt lat="43.5323849" lon="11.2800827"><ele>365.0</ele><time>2026-04-22T16:22:18.618Z</time></trkpt><trkpt lat="43.5324345" lon="11.279949"><ele>365.0</ele><time>2026-04-22T16:22:19.617Z</time></trkpt><trkpt lat="43.5325166" lon="11.2798238"><ele>365.0</ele><time>2026-04-22T16:22:20.617Z</time></trkpt><trkpt lat="43.5326185" lon="11.2797478"><ele>365.0</ele><time>2026-04-22T16:22:21.617Z</time></trkpt><trkpt lat="43.5327324" lon="11.2797093"><ele>363.8</ele><time>2026-04-22T16:22:22.617Z</time></trkpt><trkpt lat="43.532841" lon="11.279691"><ele>362.6</ele><time>2026-04-22T16:22:23.617Z</time></trkpt><trkpt lat="43.5329362" lon="11.2796543"><ele>361.4</ele><time>2026-04-22T16:22:24.617Z</time></trkpt><trkpt lat="43.5330034" lon="11.2795879"><ele>360.2</ele><time>2026-04-22T16:22:25.617Z</time></trkpt><trkpt lat="43.5330506" lon="11.2794811"><ele>359.0</ele><time>2026-04-22T16:22:26.618Z</time></trkpt><trkpt lat="43.5330927" lon="11.2793686"><ele>359.0</ele><time>2026-04-22T16:22:27.618Z</time></trkpt><trkpt lat="43.5331294" lon="11.2792482"><ele>359.0</ele><time>2026-04-22T16:22:28.618Z</time></trkpt><trkpt lat="43.5331211" lon="11.2791062"><ele>359.0</ele><time>2026-04-22T16:22:29.618Z</time></trkpt><trkpt lat="43.5330866" lon="11.2789539"><ele>359.0</ele><time>2026-04-22T16:22:30.618Z</time></trkpt><trkpt lat="43.5330478" lon="11.2788096"><ele>359.0</ele><time>2026-04-22T16:22:31.618Z</time></trkpt><trkpt lat="43.5330096" lon="11.2786747"><ele>360.2</ele><time>2026-04-22T16:22:32.617Z</time></trkpt><trkpt lat="43.5329833" lon="11.2785286"><ele>361.4</ele><time>2026-04-22T16:22:33.618Z</time></trkpt><trkpt lat="43.5329877" lon="11.278379"><ele>362.6</ele><time>2026-04-22T16:22:34.618Z</time></trkpt><trkpt lat="43.5330157" lon="11.2782457"><ele>363.8</ele><time>2026-04-22T16:22:35.618Z</time></trkpt><trkpt lat="43.5330585" lon="11.2781279"><ele>365.0</ele><time>2026-04-22T16:22:36.618Z</time></trkpt><trkpt lat="43.533134" lon="11.2780315"><ele>367.25</ele><time>2026-04-22T16:22:37.618Z</time></trkpt><trkpt lat="43.5332306" lon="11.2779553"><ele>369.5</ele><time>2026-04-22T16:22:38.618Z</time></trkpt><trkpt lat="43.5333449" lon="11.2778929"><ele>371.75</ele><time>2026-04-22T16:22:39.618Z</time></trkpt><trkpt lat="43.5334555" lon="11.2778356"><ele>374.0</ele><time>2026-04-22T16:22:40.617Z</time></trkpt><trkpt lat="43.5335626" lon="11.2777719"><ele>374.0</ele><time>2026-04-22T16:22:41.617Z</time></trkpt><trkpt lat="43.5336539" lon="11.2776689"><ele>374.0</ele><time>2026-04-22T16:22:42.617Z</time></trkpt><trkpt lat="43.5337249" lon="11.2775454"><ele>374.0</ele><time>2026-04-22T16:22:43.617Z</time></trkpt><trkpt lat="43.5337669" lon="11.2773874"><ele>374.0</ele><time>2026-04-22T16:22:44.617Z</time></trkpt><trkpt lat="43.5338014" lon="11.2771992"><ele>373.0</ele><time>2026-04-22T16:22:45.618Z</time></trkpt><trkpt lat="43.5338364" lon="11.2770227"><ele>372.0</ele><time>2026-04-22T16:22:46.618Z</time></trkpt><trkpt lat="43.533896" lon="11.2768602"><ele>371.0</ele><time>2026-04-22T16:22:47.617Z</time></trkpt><trkpt lat="43.5339786" lon="11.2767069"><ele>370.0</ele><time>2026-04-22T16:22:48.618Z</time></trkpt><trkpt lat="43.5340712" lon="11.2765643"><ele>375.66666666666663</ele><time>2026-04-22T16:22:49.618Z</time></trkpt><trkpt lat="43.5341779" lon="11.2764163"><ele>381.3333333333333</ele><time>2026-04-22T16:22:50.618Z</time></trkpt><trkpt lat="43.5342988" lon="11.2762731"><ele>387.0</ele><time>2026-04-22T16:22:51.618Z</time></trkpt><trkpt lat="43.5344155" lon="11.2761173"><ele>387.0</ele><time>2026-04-22T16:22:52.617Z</time></trkpt><trkpt lat="43.5345299" lon="11.275947"><ele>387.0</ele><time>2026-04-22T16:22:53.617Z</time></trkpt><trkpt lat="43.5346243" lon="11.275787"><ele>387.0</ele><time>2026-04-22T16:22:54.617Z</time></trkpt><trkpt lat="43.5347236" lon="11.2756279"><ele>384.25</ele><time>2026-04-22T16:22:55.617Z</time></trkpt><trkpt lat="43.5348117" lon="11.2754695"><ele>381.5</ele><time>2026-04-22T16:22:56.617Z</time></trkpt><trkpt lat="43.5348929" lon="11.2753039"><ele>378.75</ele><time>2026-04-22T16:22:57.617Z</time></trkpt><trkpt lat="43.5349597" lon="11.2751247"><ele>376.0</ele><time>2026-04-22T16:22:58.618Z</time></trkpt><trkpt lat="43.5350095" lon="11.2749438"><ele>376.75</ele><time>2026-04-22T16:22:59.617Z</time></trkpt><trkpt lat="43.5350455" lon="11.2747642"><ele>377.5</ele><time>2026-04-22T16:23:00.617Z</time></trkpt><trkpt lat="43.5350618" lon="11.2745866"><ele>378.25</ele><time>2026-04-22T16:23:01.617Z</time></trkpt><trkpt lat="43.5350554" lon="11.2744115"><ele>379.0</ele><time>2026-04-22T16:23:02.617Z</time></trkpt><trkpt lat="43.5350399" lon="11.2742446"><ele>379.0</ele><time>2026-04-22T16:23:03.617Z</time></trkpt><trkpt lat="43.5350378" lon="11.2740776"><ele>379.0</ele><time>2026-04-22T16:23:04.617Z</time></trkpt><trkpt lat="43.5350541" lon="11.2739066"><ele>379.0</ele><time>2026-04-22T16:23:05.617Z</time></trkpt><trkpt lat="43.5350962" lon="11.2737683"><ele>379.0</ele><time>2026-04-22T16:23:06.617Z</time></trkpt><trkpt lat="43.5351487" lon="11.2736214"><ele>381.0</ele><time>2026-04-22T16:23:07.617Z</time></trkpt><trkpt lat="43.5352049" lon="11.2734844"><ele>383.0</ele><time>2026-04-22T16:23:08.618Z</time></trkpt><trkpt lat="43.535234" lon="11.2733255"><ele>385.0</ele><time>2026-04-22T16:23:09.617Z</time></trkpt><trkpt lat="43.5352301" lon="11.2731439"><ele>387.0</ele><time>2026-04-22T16:23:10.618Z</time></trkpt><trkpt lat="43.5352023" lon="11.2729621"><ele>386.8</ele><time>2026-04-22T16:23:11.618Z</time></trkpt><trkpt lat="43.5351703" lon="11.2727891"><ele>386.6</ele><time>2026-04-22T16:23:12.618Z</time></trkpt><trkpt lat="43.5351338" lon="11.2726266"><ele>386.40000000000003</ele><time>2026-04-22T16:23:13.617Z</time></trkpt><trkpt lat="43.535119" lon="11.2724891"><ele>386.20000000000005</ele><time>2026-04-22T16:23:14.618Z</time></trkpt><trkpt lat="43.5351172" lon="11.2723731"><ele>386.0</ele><time>2026-04-22T16:23:15.618Z</time></trkpt><trkpt lat="43.5351219" lon="11.2722726"><ele>385.99999999999994</ele><time>2026-04-22T16:23:16.617Z</time></trkpt><trkpt lat="43.5351331" lon="11.2721746"><ele>386.0</ele><time>2026-04-22T16:23:17.617Z</time></trkpt><trkpt lat="43.5351457" lon="11.2720785"><ele>386.0</ele><time>2026-04-22T16:23:18.617Z</time></trkpt><trkpt lat="43.5351533" lon="11.2719835"><ele>386.0</ele><time>2026-04-22T16:23:19.617Z</time></trkpt><trkpt lat="43.5351433" lon="11.271895"><ele>385.99999999999994</ele><time>2026-04-22T16:23:20.618Z</time></trkpt><trkpt lat="43.5350771" lon="11.2717527"><ele>386.0</ele><time>2026-04-22T16:23:22.617Z</time></trkpt><trkpt lat="43.535008" lon="11.2716981"><ele>386.0</ele><time>2026-04-22T16:23:23.618Z</time></trkpt><trkpt lat="43.5349047" lon="11.2716438"><ele>386.0</ele><time>2026-04-22T16:23:24.617Z</time></trkpt><trkpt lat="43.5347937" lon="11.2716003"><ele>386.0</ele><time>2026-04-22T16:23:25.617Z</time></trkpt><trkpt lat="43.5346661" lon="11.2715372"><ele>386.0</ele><time>2026-04-22T16:23:26.618Z</time></trkpt><trkpt lat="43.5345198" lon="11.2714708"><ele>383.75</ele><time>2026-04-22T16:23:27.617Z</time></trkpt><trkpt lat="43.5343833" lon="11.2714087"><ele>381.5</ele><time>2026-04-22T16:23:28.617Z</time></trkpt><trkpt lat="43.5342534" lon="11.2713353"><ele>379.25</ele><time>2026-04-22T16:23:29.617Z</time></trkpt><trkpt lat="43.5341436" lon="11.2712637"><ele>377.0</ele><time>2026-04-22T16:23:30.617Z</time></trkpt><trkpt lat="43.5340344" lon="11.2712057"><ele>377.0</ele><time>2026-04-22T16:23:31.617Z</time></trkpt><trkpt lat="43.5339454" lon="11.2711548"><ele>377.0</ele><time>2026-04-22T16:23:32.618Z</time></trkpt><trkpt lat="43.5338471" lon="11.271133"><ele>377.0</ele><time>2026-04-22T16:23:33.617Z</time></trkpt><trkpt lat="43.5337374" lon="11.2711637"><ele>377.0</ele><time>2026-04-22T16:23:34.618Z</time></trkpt><trkpt lat="43.5336291" lon="11.271211"><ele>377.0</ele><time>2026-04-22T16:23:35.618Z</time></trkpt><trkpt lat="43.5335223" lon="11.2712587"><ele>377.0</ele><time>2026-04-22T16:23:36.618Z</time></trkpt><trkpt lat="43.5334123" lon="11.2712843"><ele>377.0</ele><time>2026-04-22T16:23:37.618Z</time></trkpt><trkpt lat="43.5332931" lon="11.2712734"><ele>377.0</ele><time>2026-04-22T16:23:38.618Z</time></trkpt><trkpt lat="43.5331809" lon="11.2712076"><ele>377.0</ele><time>2026-04-22T16:23:39.618Z</time></trkpt><trkpt lat="43.5330623" lon="11.2711435"><ele>377.0</ele><time>2026-04-22T16:23:40.617Z</time></trkpt><trkpt lat="43.5329432" lon="11.2710673"><ele>377.0</ele><time>2026-04-22T16:23:41.618Z</time></trkpt><trkpt lat="43.5328386" lon="11.270949"><ele>377.0</ele><time>2026-04-22T16:23:42.617Z</time></trkpt><trkpt lat="43.5327465" lon="11.2707995"><ele>377.0</ele><time>2026-04-22T16:23:43.618Z</time></trkpt><trkpt lat="43.5326634" lon="11.2706571"><ele>374.8</ele><time>2026-04-22T16:23:44.618Z</time></trkpt><trkpt lat="43.5325906" lon="11.2705246"><ele>372.6</ele><time>2026-04-22T16:23:45.617Z</time></trkpt><trkpt lat="43.5325206" lon="11.2704066"><ele>370.40000000000003</ele><time>2026-04-22T16:23:46.618Z</time></trkpt><trkpt lat="43.5324446" lon="11.2703297"><ele>368.20000000000005</ele><time>2026-04-22T16:23:47.618Z</time></trkpt><trkpt lat="43.5323586" lon="11.2702986"><ele>366.0</ele><time>2026-04-22T16:23:48.617Z</time></trkpt><trkpt lat="43.5322713" lon="11.2703121"><ele>366.0</ele><time>2026-04-22T16:23:49.617Z</time></trkpt><trkpt lat="43.5321813" lon="11.2703638"><ele>366.0</ele><time>2026-04-22T16:23:50.618Z</time></trkpt><trkpt lat="43.5320835" lon="11.2704569"><ele>366.0</ele><time>2026-04-22T16:23:51.617Z</time></trkpt><trkpt lat="43.5319677" lon="11.2705289"><ele>366.0</ele><time>2026-04-22T16:23:52.617Z</time></trkpt><trkpt lat="43.5318308" lon="11.2705756"><ele>367.25</ele><time>2026-04-22T16:23:53.618Z</time></trkpt><trkpt lat="43.5316987" lon="11.270602"><ele>368.5</ele><time>2026-04-22T16:23:54.618Z</time></trkpt><trkpt lat="43.5315839" lon="11.2706138"><ele>369.75</ele><time>2026-04-22T16:23:55.617Z</time></trkpt><trkpt lat="43.5314725" lon="11.2705916"><ele>371.0</ele><time>2026-04-22T16:23:56.617Z</time></trkpt><trkpt lat="43.5313827" lon="11.2705274"><ele>371.0</ele><time>2026-04-22T16:23:57.616Z</time></trkpt><trkpt lat="43.5312848" lon="11.2704389"><ele>371.0</ele><time>2026-04-22T16:23:58.616Z</time></trkpt><trkpt lat="43.5311851" lon="11.2703235"><ele>371.0</ele><time>2026-04-22T16:23:59.617Z</time></trkpt><trkpt lat="43.5310986" lon="11.270201"><ele>371.0</ele><time>2026-04-22T16:24:00.617Z</time></trkpt><trkpt lat="43.5310102" lon="11.2700844"><ele>371.0</ele><time>2026-04-22T16:24:01.616Z</time></trkpt><trkpt lat="43.5309336" lon="11.2699248"><ele>371.0</ele><time>2026-04-22T16:24:02.616Z</time></trkpt><trkpt lat="43.5308742" lon="11.2697405"><ele>371.0</ele><time>2026-04-22T16:24:03.616Z</time></trkpt><trkpt lat="43.5308253" lon="11.2695572"><ele>371.0</ele><time>2026-04-22T16:24:04.617Z</time></trkpt><trkpt lat="43.5307856" lon="11.2693955"><ele>371.0</ele><time>2026-04-22T16:24:05.616Z</time></trkpt><trkpt lat="43.5307471" lon="11.2692578"><ele>371.0</ele><time>2026-04-22T16:24:06.616Z</time></trkpt><trkpt lat="43.5306942" lon="11.2691232"><ele>371.0</ele><time>2026-04-22T16:24:07.616Z</time></trkpt><trkpt lat="43.530614" lon="11.2690014"><ele>371.0</ele><time>2026-04-22T16:24:08.616Z</time></trkpt><trkpt lat="43.5305116" lon="11.2688946"><ele>371.0</ele><time>2026-04-22T16:24:09.617Z</time></trkpt><trkpt lat="43.5303997" lon="11.2687823"><ele>371.0</ele><time>2026-04-22T16:24:10.618Z</time></trkpt><trkpt lat="43.5302868" lon="11.2686581"><ele>371.0</ele><time>2026-04-22T16:24:11.618Z</time></trkpt><trkpt lat="43.5301672" lon="11.2685176"><ele>371.0</ele><time>2026-04-22T16:24:12.618Z</time></trkpt><trkpt lat="43.5300619" lon="11.2683637"><ele>371.0</ele><time>2026-04-22T16:24:13.618Z</time></trkpt><trkpt lat="43.5299633" lon="11.268205"><ele>371.0</ele><time>2026-04-22T16:24:14.618Z</time></trkpt><trkpt lat="43.5298742" lon="11.268057"><ele>371.0</ele><time>2026-04-22T16:24:15.618Z</time></trkpt><trkpt lat="43.5298001" lon="11.2679198"><ele>371.0</ele><time>2026-04-22T16:24:16.618Z</time></trkpt><trkpt lat="43.5297425" lon="11.2677875"><ele>369.4</ele><time>2026-04-22T16:24:17.618Z</time></trkpt><trkpt lat="43.5297202" lon="11.2676491"><ele>367.8</ele><time>2026-04-22T16:24:18.617Z</time></trkpt><trkpt lat="43.5297166" lon="11.2674948"><ele>366.2</ele><time>2026-04-22T16:24:19.617Z</time></trkpt><trkpt lat="43.5297162" lon="11.2673482"><ele>364.59999999999997</ele><time>2026-04-22T16:24:20.617Z</time></trkpt><trkpt lat="43.5296873" lon="11.2671978"><ele>363.0</ele><time>2026-04-22T16:24:21.617Z</time></trkpt><trkpt lat="43.5296284" lon="11.2670545"><ele>362.2</ele><time>2026-04-22T16:24:22.618Z</time></trkpt><trkpt lat="43.5295643" lon="11.2669179"><ele>361.4</ele><time>2026-04-22T16:24:23.617Z</time></trkpt><trkpt lat="43.5295233" lon="11.2667796"><ele>360.59999999999997</ele><time>2026-04-22T16:24:24.617Z</time></trkpt><trkpt lat="43.5295037" lon="11.266643"><ele>359.79999999999995</ele><time>2026-04-22T16:24:25.616Z</time></trkpt><trkpt lat="43.5294926" lon="11.2664977"><ele>359.0</ele><time>2026-04-22T16:24:26.617Z</time></trkpt><trkpt lat="43.5294932" lon="11.2663579"><ele>359.6</ele><time>2026-04-22T16:24:27.616Z</time></trkpt><trkpt lat="43.5295118" lon="11.2662419"><ele>360.2</ele><time>2026-04-22T16:24:28.616Z</time></trkpt><trkpt lat="43.5295526" lon="11.266153"><ele>360.8</ele><time>2026-04-22T16:24:29.616Z</time></trkpt><trkpt lat="43.5296206" lon="11.2660795"><ele>361.40000000000003</ele><time>2026-04-22T16:24:30.616Z</time></trkpt><trkpt lat="43.5297043" lon="11.2660058"><ele>362.0</ele><time>2026-04-22T16:24:31.616Z</time></trkpt><trkpt lat="43.5297975" lon="11.2659385"><ele>362.0</ele><time>2026-04-22T16:24:32.617Z</time></trkpt><trkpt lat="43.529877" lon="11.2658269"><ele>362.0</ele><time>2026-04-22T16:24:33.616Z</time></trkpt><trkpt lat="43.5299361" lon="11.2656804"><ele>362.0</ele><time>2026-04-22T16:24:34.616Z</time></trkpt><trkpt lat="43.5299953" lon="11.2655269"><ele>362.0</ele><time>2026-04-22T16:24:35.617Z</time></trkpt><trkpt lat="43.5300735" lon="11.2653812"><ele>364.0</ele><time>2026-04-22T16:24:36.616Z</time></trkpt><trkpt lat="43.5301711" lon="11.2652463"><ele>366.0</ele><time>2026-04-22T16:24:37.616Z</time></trkpt><trkpt lat="43.5302763" lon="11.2651059"><ele>368.0</ele><time>2026-04-22T16:24:38.616Z</time></trkpt><trkpt lat="43.5303868" lon="11.2649715"><ele>370.0</ele><time>2026-04-22T16:24:39.616Z</time></trkpt><trkpt lat="43.5304885" lon="11.2648365"><ele>367.25</ele><time>2026-04-22T16:24:40.616Z</time></trkpt><trkpt lat="43.5305849" lon="11.2646955"><ele>364.5</ele><time>2026-04-22T16:24:41.617Z</time></trkpt><trkpt lat="43.530681" lon="11.2645472"><ele>361.75</ele><time>2026-04-22T16:24:42.617Z</time></trkpt><trkpt lat="43.5307644" lon="11.2644113"><ele>359.0</ele><time>2026-04-22T16:24:43.616Z</time></trkpt><trkpt lat="43.5308439" lon="11.2642898"><ele>359.0</ele><time>2026-04-22T16:24:44.616Z</time></trkpt><trkpt lat="43.5309159" lon="11.2641556"><ele>359.0</ele><time>2026-04-22T16:24:45.617Z</time></trkpt><trkpt lat="43.5309795" lon="11.2640443"><ele>359.0</ele><time>2026-04-22T16:24:46.617Z</time></trkpt><trkpt lat="43.5310239" lon="11.2639338"><ele>359.0</ele><time>2026-04-22T16:24:47.616Z</time></trkpt><trkpt lat="43.531037" lon="11.2638371"><ele>359.0</ele><time>2026-04-22T16:24:48.616Z</time></trkpt><trkpt lat="43.5310193" lon="11.2637426"><ele>359.2</ele><time>2026-04-22T16:24:49.616Z</time></trkpt><trkpt lat="43.5309765" lon="11.263641"><ele>359.4</ele><time>2026-04-22T16:24:50.616Z</time></trkpt><trkpt lat="43.5309151" lon="11.2635254"><ele>359.6</ele><time>2026-04-22T16:24:51.616Z</time></trkpt><trkpt lat="43.5308502" lon="11.2633997"><ele>359.8</ele><time>2026-04-22T16:24:52.616Z</time></trkpt><trkpt lat="43.5307955" lon="11.2632495"><ele>360.0</ele><time>2026-04-22T16:24:53.616Z</time></trkpt><trkpt lat="43.5307474" lon="11.2631096"><ele>360.75</ele><time>2026-04-22T16:24:54.617Z</time></trkpt><trkpt lat="43.5307182" lon="11.262961"><ele>361.5</ele><time>2026-04-22T16:24:55.616Z</time></trkpt><trkpt lat="43.5307089" lon="11.2628067"><ele>362.25</ele><time>2026-04-22T16:24:56.617Z</time></trkpt><trkpt lat="43.5307226" lon="11.2626266"><ele>363.0</ele><time>2026-04-22T16:24:57.616Z</time></trkpt><trkpt lat="43.5307509" lon="11.2624458"><ele>365.0</ele><time>2026-04-22T16:24:58.617Z</time></trkpt><trkpt lat="43.5307709" lon="11.2622443"><ele>367.0</ele><time>2026-04-22T16:24:59.617Z</time></trkpt><trkpt lat="43.5308009" lon="11.2621018"><ele>369.0</ele><time>2026-04-22T16:25:00.616Z</time></trkpt><trkpt lat="43.5308511" lon="11.2619565"><ele>371.0</ele><time>2026-04-22T16:25:01.616Z</time></trkpt><trkpt lat="43.5309111" lon="11.2618225"><ele>371.0</ele><time>2026-04-22T16:25:02.617Z</time></trkpt><trkpt lat="43.5309905" lon="11.2617161"><ele>371.0</ele><time>2026-04-22T16:25:03.616Z</time></trkpt><trkpt lat="43.5310894" lon="11.2616481"><ele>371.0</ele><time>2026-04-22T16:25:04.616Z</time></trkpt><trkpt lat="43.531168" lon="11.261596"><ele>371.0</ele><time>2026-04-22T16:25:05.617Z</time></trkpt><trkpt lat="43.5312494" lon="11.2614949"><ele>371.0</ele><time>2026-04-22T16:25:06.616Z</time></trkpt><trkpt lat="43.5313013" lon="11.261392"><ele>365.4</ele><time>2026-04-22T16:25:07.616Z</time></trkpt><trkpt lat="43.5313495" lon="11.2612939"><ele>359.8</ele><time>2026-04-22T16:25:08.617Z</time></trkpt><trkpt lat="43.5313731" lon="11.2611944"><ele>354.2</ele><time>2026-04-22T16:25:09.616Z</time></trkpt><trkpt lat="43.5314208" lon="11.2610677"><ele>348.59999999999997</ele><time>2026-04-22T16:25:10.616Z</time></trkpt><trkpt lat="43.5314748" lon="11.2609619"><ele>343.0</ele><time>2026-04-22T16:25:11.617Z</time></trkpt><trkpt lat="43.5315491" lon="11.2608753"><ele>343.0</ele><time>2026-04-22T16:25:12.617Z</time></trkpt><trkpt lat="43.5316379" lon="11.2607892"><ele>343.0</ele><time>2026-04-22T16:25:13.617Z</time></trkpt><trkpt lat="43.531734" lon="11.2607011"><ele>343.0</ele><time>2026-04-22T16:25:14.616Z</time></trkpt><trkpt lat="43.5318264" lon="11.260626"><ele>343.0</ele><time>2026-04-22T16:25:15.616Z</time></trkpt><trkpt lat="43.5319203" lon="11.2605538"><ele>343.0</ele><time>2026-04-22T16:25:16.617Z</time></trkpt><trkpt lat="43.5319992" lon="11.2604718"><ele>340.0</ele><time>2026-04-22T16:25:17.617Z</time></trkpt><trkpt lat="43.532061" lon="11.2603943"><ele>337.0</ele><time>2026-04-22T16:25:18.617Z</time></trkpt><trkpt lat="43.5321074" lon="11.2603"><ele>334.0</ele><time>2026-04-22T16:25:19.617Z</time></trkpt><trkpt lat="43.5321265" lon="11.2602007"><ele>331.0</ele><time>2026-04-22T16:25:20.616Z</time></trkpt><trkpt lat="43.5321419" lon="11.2600996"><ele>328.0</ele><time>2026-04-22T16:25:21.617Z</time></trkpt><trkpt lat="43.5321243" lon="11.2599717"><ele>325.0</ele><time>2026-04-22T16:25:22.616Z</time></trkpt><trkpt lat="43.5320927" lon="11.2598114"><ele>323.75</ele><time>2026-04-22T16:25:23.616Z</time></trkpt><trkpt lat="43.532057" lon="11.2596436"><ele>322.5</ele><time>2026-04-22T16:25:24.616Z</time></trkpt><trkpt lat="43.5320156" lon="11.2594765"><ele>321.25</ele><time>2026-04-22T16:25:25.616Z</time></trkpt><trkpt lat="43.5319581" lon="11.2593061"><ele>320.0</ele><time>2026-04-22T16:25:26.616Z</time></trkpt><trkpt lat="43.5318911" lon="11.2591488"><ele>323.5</ele><time>2026-04-22T16:25:27.617Z</time></trkpt><trkpt lat="43.5318119" lon="11.2589763"><ele>327.0</ele><time>2026-04-22T16:25:28.617Z</time></trkpt><trkpt lat="43.5317437" lon="11.2588266"><ele>330.5</ele><time>2026-04-22T16:25:29.616Z</time></trkpt><trkpt lat="43.5316886" lon="11.2586487"><ele>334.0</ele><time>2026-04-22T16:25:30.616Z</time></trkpt><trkpt lat="43.5316596" lon="11.258456"><ele>334.0</ele><time>2026-04-22T16:25:31.616Z</time></trkpt><trkpt lat="43.5316555" lon="11.2582511"><ele>334.0</ele><time>2026-04-22T16:25:32.616Z</time></trkpt><trkpt lat="43.5316428" lon="11.2580607"><ele>334.0</ele><time>2026-04-22T16:25:33.617Z</time></trkpt><trkpt lat="43.5316232" lon="11.2578629"><ele>334.0</ele><time>2026-04-22T16:25:34.616Z</time></trkpt><trkpt lat="43.531615" lon="11.2576869"><ele>332.5</ele><time>2026-04-22T16:25:35.616Z</time></trkpt><trkpt lat="43.5316226" lon="11.2575031"><ele>331.0</ele><time>2026-04-22T16:25:36.617Z</time></trkpt><trkpt lat="43.5316513" lon="11.257331"><ele>329.5</ele><time>2026-04-22T16:25:37.616Z</time></trkpt><trkpt lat="43.5316997" lon="11.2571696"><ele>328.0</ele><time>2026-04-22T16:25:38.616Z</time></trkpt><trkpt lat="43.5317493" lon="11.2570112"><ele>326.4</ele><time>2026-04-22T16:25:39.616Z</time></trkpt><trkpt lat="43.5317853" lon="11.2568654"><ele>324.79999999999995</ele><time>2026-04-22T16:25:40.617Z</time></trkpt><trkpt lat="43.5317967" lon="11.2567349"><ele>323.2</ele><time>2026-04-22T16:25:41.616Z</time></trkpt><trkpt lat="43.5317766" lon="11.2565992"><ele>321.6</ele><time>2026-04-22T16:25:42.616Z</time></trkpt><trkpt lat="43.5317265" lon="11.2564634"><ele>320.0</ele><time>2026-04-22T16:25:43.616Z</time></trkpt><trkpt lat="43.5316284" lon="11.2563091"><ele>319.5</ele><time>2026-04-22T16:25:44.616Z</time></trkpt><trkpt lat="43.5315263" lon="11.2561525"><ele>319.0</ele><time>2026-04-22T16:25:45.616Z</time></trkpt><trkpt lat="43.5314297" lon="11.2560203"><ele>318.5</ele><time>2026-04-22T16:25:46.616Z</time></trkpt><trkpt lat="43.5313262" lon="11.2558955"><ele>318.0</ele><time>2026-04-22T16:25:47.617Z</time></trkpt><trkpt lat="43.531219" lon="11.2558022"><ele>318.0</ele><time>2026-04-22T16:25:48.616Z</time></trkpt><trkpt lat="43.5311092" lon="11.2557325"><ele>318.0</ele><time>2026-04-22T16:25:49.616Z</time></trkpt><trkpt lat="43.5310069" lon="11.2556984"><ele>318.0</ele><time>2026-04-22T16:25:50.616Z</time></trkpt><trkpt lat="43.5309288" lon="11.2556735"><ele>318.0</ele><time>2026-04-22T16:25:51.616Z</time></trkpt><trkpt lat="43.530839" lon="11.2555564"><ele>318.0</ele><time>2026-04-22T16:25:53.617Z</time></trkpt><trkpt lat="43.5308095" lon="11.2554428"><ele>317.6666666666667</ele><time>2026-04-22T16:25:54.616Z</time></trkpt><trkpt lat="43.5307882" lon="11.2553373"><ele>317.3333333333333</ele><time>2026-04-22T16:25:55.617Z</time></trkpt><trkpt lat="43.530768" lon="11.2552427"><ele>317.0</ele><time>2026-04-22T16:25:56.617Z</time></trkpt><trkpt lat="43.5307497" lon="11.2551545"><ele>316.66666666666663</ele><time>2026-04-22T16:25:57.617Z</time></trkpt><trkpt lat="43.5307214" lon="11.2550517"><ele>316.3333333333333</ele><time>2026-04-22T16:25:58.617Z</time></trkpt><trkpt lat="43.5307698" lon="11.2549405"><ele>316.0</ele><time>2026-04-22T16:26:00.617Z</time></trkpt><trkpt lat="43.5308366" lon="11.2549026"><ele>316.0</ele><time>2026-04-22T16:26:01.616Z</time></trkpt><trkpt lat="43.5309149" lon="11.2548299"><ele>316.0</ele><time>2026-04-22T16:26:02.616Z</time></trkpt><trkpt lat="43.5309949" lon="11.254753"><ele>316.0</ele><time>2026-04-22T16:26:03.617Z</time></trkpt><trkpt lat="43.5310777" lon="11.2546432"><ele>316.0</ele><time>2026-04-22T16:26:04.616Z</time></trkpt><trkpt lat="43.5311517" lon="11.2545108"><ele>316.0</ele><time>2026-04-22T16:26:05.616Z</time></trkpt><trkpt lat="43.5312038" lon="11.2543481"><ele>319.25</ele><time>2026-04-22T16:26:06.617Z</time></trkpt><trkpt lat="43.5312604" lon="11.2541857"><ele>322.5</ele><time>2026-04-22T16:26:07.617Z</time></trkpt><trkpt lat="43.5312853" lon="11.2540183"><ele>325.75</ele><time>2026-04-22T16:26:08.616Z</time></trkpt><trkpt lat="43.5312886" lon="11.2538519"><ele>329.0</ele><time>2026-04-22T16:26:09.616Z</time></trkpt><trkpt lat="43.5312697" lon="11.2536808"><ele>331.0</ele><time>2026-04-22T16:26:10.617Z</time></trkpt><trkpt lat="43.531242" lon="11.2534925"><ele>333.0</ele><time>2026-04-22T16:26:11.616Z</time></trkpt><trkpt lat="43.5311944" lon="11.253329"><ele>335.0</ele><time>2026-04-22T16:26:12.617Z</time></trkpt><trkpt lat="43.5311674" lon="11.253188"><ele>337.0</ele><time>2026-04-22T16:26:13.617Z</time></trkpt><trkpt lat="43.5311604" lon="11.2530501"><ele>337.40000000000003</ele><time>2026-04-22T16:26:14.616Z</time></trkpt><trkpt lat="43.5311842" lon="11.252923"><ele>337.8</ele><time>2026-04-22T16:26:15.616Z</time></trkpt><trkpt lat="43.5312349" lon="11.252813"><ele>338.2</ele><time>2026-04-22T16:26:16.616Z</time></trkpt><trkpt lat="43.5312995" lon="11.2527046"><ele>338.6</ele><time>2026-04-22T16:26:17.617Z</time></trkpt><trkpt lat="43.531344" lon="11.2525825"><ele>339.0</ele><time>2026-04-22T16:26:18.617Z</time></trkpt><trkpt lat="43.5313622" lon="11.2524572"><ele>339.5</ele><time>2026-04-22T16:26:19.616Z</time></trkpt><trkpt lat="43.5313456" lon="11.2523079"><ele>340.0</ele><time>2026-04-22T16:26:20.617Z</time></trkpt><trkpt lat="43.5313057" lon="11.2521398"><ele>340.5</ele><time>2026-04-22T16:26:21.616Z</time></trkpt><trkpt lat="43.5312477" lon="11.251934"><ele>341.0</ele><time>2026-04-22T16:26:22.616Z</time></trkpt><trkpt lat="43.5311913" lon="11.2517283"><ele>341.0</ele><time>2026-04-22T16:26:23.616Z</time></trkpt><trkpt lat="43.5311259" lon="11.2514855"><ele>341.0</ele><time>2026-04-22T16:26:24.616Z</time></trkpt><trkpt lat="43.5310647" lon="11.2512188"><ele>341.0</ele><time>2026-04-22T16:26:25.617Z</time></trkpt><trkpt lat="43.5310088" lon="11.2509466"><ele>342.0</ele><time>2026-04-22T16:26:26.616Z</time></trkpt><trkpt lat="43.5309438" lon="11.2506883"><ele>343.0</ele><time>2026-04-22T16:26:27.617Z</time></trkpt><trkpt lat="43.5308782" lon="11.2504555"><ele>344.0</ele><time>2026-04-22T16:26:28.617Z</time></trkpt><trkpt lat="43.5308074" lon="11.2502647"><ele>345.25</ele><time>2026-04-22T16:26:29.617Z</time></trkpt><trkpt lat="43.5307326" lon="11.250094"><ele>346.5</ele><time>2026-04-22T16:26:30.616Z</time></trkpt><trkpt lat="43.5306727" lon="11.2499172"><ele>347.75</ele><time>2026-04-22T16:26:31.617Z</time></trkpt><trkpt lat="43.5306271" lon="11.2497179"><ele>349.0</ele><time>2026-04-22T16:26:32.617Z</time></trkpt><trkpt lat="43.5306253" lon="11.2494922"><ele>351.66666666666663</ele><time>2026-04-22T16:26:33.616Z</time></trkpt><trkpt lat="43.5306386" lon="11.2492525"><ele>354.3333333333333</ele><time>2026-04-22T16:26:34.617Z</time></trkpt><trkpt lat="43.530638" lon="11.2489979"><ele>357.0</ele><time>2026-04-22T16:26:35.616Z</time></trkpt><trkpt lat="43.5306244" lon="11.2487311"><ele>359.0</ele><time>2026-04-22T16:26:36.616Z</time></trkpt><trkpt lat="43.5306205" lon="11.248472"><ele>361.0</ele><time>2026-04-22T16:26:37.616Z</time></trkpt><trkpt lat="43.5305967" lon="11.2482076"><ele>363.0</ele><time>2026-04-22T16:26:38.616Z</time></trkpt><trkpt lat="43.5305644" lon="11.2478969"><ele>366.5</ele><time>2026-04-22T16:26:39.616Z</time></trkpt><trkpt lat="43.5305377" lon="11.2475833"><ele>370.0</ele><time>2026-04-22T16:26:40.617Z</time></trkpt><trkpt lat="43.5305141" lon="11.2472678"><ele>372.0</ele><time>2026-04-22T16:26:41.616Z</time></trkpt><trkpt lat="43.5304955" lon="11.246972"><ele>374.0</ele><time>2026-04-22T16:26:42.617Z</time></trkpt><trkpt lat="43.5304733" lon="11.246702"><ele>376.0</ele><time>2026-04-22T16:26:43.617Z</time></trkpt><trkpt lat="43.5304558" lon="11.2464468"><ele>377.0</ele><time>2026-04-22T16:26:44.616Z</time></trkpt><trkpt lat="43.5304295" lon="11.246218"><ele>378.0</ele><time>2026-04-22T16:26:45.617Z</time></trkpt><trkpt lat="43.5303891" lon="11.2460064"><ele>379.0</ele><time>2026-04-22T16:26:46.616Z</time></trkpt><trkpt lat="43.5303449" lon="11.2458163"><ele>375.75</ele><time>2026-04-22T16:26:47.616Z</time></trkpt><trkpt lat="43.5303099" lon="11.2456287"><ele>372.5</ele><time>2026-04-22T16:26:48.617Z</time></trkpt><trkpt lat="43.530289" lon="11.2454343"><ele>369.25</ele><time>2026-04-22T16:26:49.616Z</time></trkpt><trkpt lat="43.5303034" lon="11.2452376"><ele>366.0</ele><time>2026-04-22T16:26:50.616Z</time></trkpt><trkpt lat="43.5303337" lon="11.2450575"><ele>369.3333333333333</ele><time>2026-04-22T16:26:51.616Z</time></trkpt><trkpt lat="43.5303958" lon="11.2448647"><ele>372.66666666666663</ele><time>2026-04-22T16:26:52.616Z</time></trkpt><trkpt lat="43.5304834" lon="11.2446692"><ele>376.0</ele><time>2026-04-22T16:26:53.617Z</time></trkpt><trkpt lat="43.5305914" lon="11.244461"><ele>376.0</ele><time>2026-04-22T16:26:54.616Z</time></trkpt><trkpt lat="43.530696" lon="11.2442283"><ele>376.0</ele><time>2026-04-22T16:26:55.616Z</time></trkpt><trkpt lat="43.5307874" lon="11.2440043"><ele>376.0</ele><time>2026-04-22T16:26:56.616Z</time></trkpt><trkpt lat="43.5308688" lon="11.2437878"><ele>378.66666666666663</ele><time>2026-04-22T16:26:57.616Z</time></trkpt><trkpt lat="43.5309532" lon="11.2435863"><ele>381.3333333333333</ele><time>2026-04-22T16:26:58.616Z</time></trkpt><trkpt lat="43.531071" lon="11.243407"><ele>384.0</ele><time>2026-04-22T16:26:59.616Z</time></trkpt><trkpt lat="43.5312108" lon="11.2432562"><ele>383.6666666666667</ele><time>2026-04-22T16:27:00.617Z</time></trkpt><trkpt lat="43.5313581" lon="11.2431324"><ele>383.33333333333337</ele><time>2026-04-22T16:27:01.616Z</time></trkpt><trkpt lat="43.5314966" lon="11.2430264"><ele>383.0</ele><time>2026-04-22T16:27:02.617Z</time></trkpt><trkpt lat="43.5316136" lon="11.2429244"><ele>385.5</ele><time>2026-04-22T16:27:03.616Z</time></trkpt><trkpt lat="43.5317217" lon="11.2428201"><ele>388.0</ele><time>2026-04-22T16:27:04.617Z</time></trkpt><trkpt lat="43.5318228" lon="11.2426666"><ele>390.5</ele><time>2026-04-22T16:27:05.616Z</time></trkpt><trkpt lat="43.5319019" lon="11.2425169"><ele>393.0</ele><time>2026-04-22T16:27:06.617Z</time></trkpt><trkpt lat="43.5319405" lon="11.2423608"><ele>393.0</ele><time>2026-04-22T16:27:07.616Z</time></trkpt><trkpt lat="43.5319796" lon="11.2422448"><ele>393.0</ele><time>2026-04-22T16:27:08.616Z</time></trkpt><trkpt lat="43.5320041" lon="11.2421529"><ele>393.0</ele><time>2026-04-22T16:27:09.616Z</time></trkpt><trkpt lat="43.5320401" lon="11.2420335"><ele>393.0</ele><time>2026-04-22T16:27:11.616Z</time></trkpt><trkpt lat="43.5320986" lon="11.2419671"><ele>393.0</ele><time>2026-04-22T16:27:14.617Z</time></trkpt><trkpt lat="43.5321695" lon="11.2420085"><ele>393.0</ele><time>2026-04-22T16:28:02.616Z</time></trkpt><trkpt lat="43.5322837" lon="11.2420001"><ele>392.0</ele><time>2026-04-22T16:28:04.616Z</time></trkpt><trkpt lat="43.5323628" lon="11.2420026"><ele>391.0</ele><time>2026-04-22T16:28:05.616Z</time></trkpt><trkpt lat="43.5324524" lon="11.2420048"><ele>390.0</ele><time>2026-04-22T16:28:06.616Z</time></trkpt><trkpt lat="43.5325427" lon="11.2419996"><ele>389.0</ele><time>2026-04-22T16:28:07.617Z</time></trkpt><trkpt lat="43.5326479" lon="11.2420064"><ele>388.0</ele><time>2026-04-22T16:28:08.617Z</time></trkpt><trkpt lat="43.5327671" lon="11.2420175"><ele>388.0</ele><time>2026-04-22T16:28:09.617Z</time></trkpt><trkpt lat="43.5328704" lon="11.2420137"><ele>388.0</ele><time>2026-04-22T16:28:10.616Z</time></trkpt><trkpt lat="43.5329863" lon="11.242007"><ele>388.0</ele><time>2026-04-22T16:28:11.616Z</time></trkpt><trkpt lat="43.5331089" lon="11.2419861"><ele>388.0</ele><time>2026-04-22T16:28:12.617Z</time></trkpt><trkpt lat="43.5332326" lon="11.2419575"><ele>387.5</ele><time>2026-04-22T16:28:13.617Z</time></trkpt><trkpt lat="43.5333677" lon="11.2419193"><ele>387.0</ele><time>2026-04-22T16:28:14.616Z</time></trkpt><trkpt lat="43.5334954" lon="11.2418923"><ele>386.5</ele><time>2026-04-22T16:28:15.616Z</time></trkpt><trkpt lat="43.5335957" lon="11.241861"><ele>386.0</ele><time>2026-04-22T16:28:16.616Z</time></trkpt><trkpt lat="43.5337124" lon="11.241811"><ele>386.4</ele><time>2026-04-22T16:28:17.617Z</time></trkpt><trkpt lat="43.533818" lon="11.2417743"><ele>386.8</ele><time>2026-04-22T16:28:18.617Z</time></trkpt><trkpt lat="43.5339188" lon="11.2417405"><ele>387.2</ele><time>2026-04-22T16:28:19.616Z</time></trkpt><trkpt lat="43.5340152" lon="11.2417017"><ele>387.59999999999997</ele><time>2026-04-22T16:28:20.616Z</time></trkpt><trkpt lat="43.5341104" lon="11.2416572"><ele>388.0</ele><time>2026-04-22T16:28:21.617Z</time></trkpt><trkpt lat="43.5342168" lon="11.2415934"><ele>388.0</ele><time>2026-04-22T16:28:22.617Z</time></trkpt><trkpt lat="43.5343369" lon="11.2415158"><ele>388.0</ele><time>2026-04-22T16:28:23.616Z</time></trkpt><trkpt lat="43.5344869" lon="11.2414131"><ele>388.0</ele><time>2026-04-22T16:28:24.616Z</time></trkpt><trkpt lat="43.5346491" lon="11.2413041"><ele>388.6666666666667</ele><time>2026-04-22T16:28:25.616Z</time></trkpt><trkpt lat="43.5348365" lon="11.2411732"><ele>389.33333333333337</ele><time>2026-04-22T16:28:26.616Z</time></trkpt><trkpt lat="43.535024" lon="11.2410314"><ele>390.0</ele><time>2026-04-22T16:28:27.617Z</time></trkpt><trkpt lat="43.5352172" lon="11.240881"><ele>390.0</ele><time>2026-04-22T16:28:28.616Z</time></trkpt><trkpt lat="43.5353812" lon="11.2407153"><ele>390.0</ele><time>2026-04-22T16:28:29.617Z</time></trkpt><trkpt lat="43.5355513" lon="11.240516"><ele>390.0</ele><time>2026-04-22T16:28:30.616Z</time></trkpt><trkpt lat="43.5356998" lon="11.2403027"><ele>392.0</ele><time>2026-04-22T16:28:31.616Z</time></trkpt><trkpt lat="43.5358314" lon="11.2400814"><ele>394.0</ele><time>2026-04-22T16:28:32.616Z</time></trkpt><trkpt lat="43.5359489" lon="11.2398648"><ele>396.0</ele><time>2026-04-22T16:28:33.616Z</time></trkpt><trkpt lat="43.5360538" lon="11.2396582"><ele>396.66666666666663</ele><time>2026-04-22T16:28:34.616Z</time></trkpt><trkpt lat="43.5361478" lon="11.2394661"><ele>397.3333333333333</ele><time>2026-04-22T16:28:35.617Z</time></trkpt><trkpt lat="43.5362298" lon="11.2392743"><ele>398.0</ele><time>2026-04-22T16:28:36.617Z</time></trkpt><trkpt lat="43.5363018" lon="11.239066"><ele>398.0</ele><time>2026-04-22T16:28:37.616Z</time></trkpt><trkpt lat="43.5363687" lon="11.2388414"><ele>398.0</ele><time>2026-04-22T16:28:38.617Z</time></trkpt><trkpt lat="43.5364348" lon="11.2386018"><ele>398.0</ele><time>2026-04-22T16:28:39.617Z</time></trkpt><trkpt lat="43.536506" lon="11.2383638"><ele>398.0</ele><time>2026-04-22T16:28:40.616Z</time></trkpt><trkpt lat="43.5365797" lon="11.2381367"><ele>398.0</ele><time>2026-04-22T16:28:41.617Z</time></trkpt><trkpt lat="43.53665" lon="11.237912"><ele>398.0</ele><time>2026-04-22T16:28:42.617Z</time></trkpt><trkpt lat="43.5367295" lon="11.2376942"><ele>398.66666666666663</ele><time>2026-04-22T16:28:43.616Z</time></trkpt><trkpt lat="43.5368221" lon="11.2374924"><ele>399.33333333333337</ele><time>2026-04-22T16:28:44.616Z</time></trkpt><trkpt lat="43.5369307" lon="11.2373127"><ele>400.0</ele><time>2026-04-22T16:28:45.617Z</time></trkpt><trkpt lat="43.5370544" lon="11.2371537"><ele>398.33333333333337</ele><time>2026-04-22T16:28:46.616Z</time></trkpt><trkpt lat="43.5371852" lon="11.2370092"><ele>396.66666666666663</ele><time>2026-04-22T16:28:47.617Z</time></trkpt><trkpt lat="43.5373356" lon="11.2368718"><ele>395.0</ele><time>2026-04-22T16:28:48.616Z</time></trkpt><trkpt lat="43.5374806" lon="11.2367427"><ele>395.0</ele><time>2026-04-22T16:28:49.616Z</time></trkpt><trkpt lat="43.5376166" lon="11.2366239"><ele>395.0</ele><time>2026-04-22T16:28:50.616Z</time></trkpt><trkpt lat="43.5377486" lon="11.2365123"><ele>395.0</ele><time>2026-04-22T16:28:51.616Z</time></trkpt><trkpt lat="43.5378833" lon="11.2364009"><ele>395.0</ele><time>2026-04-22T16:28:52.616Z</time></trkpt><trkpt lat="43.5380095" lon="11.2362871"><ele>395.0</ele><time>2026-04-22T16:28:53.616Z</time></trkpt><trkpt lat="43.5381137" lon="11.23616"><ele>395.0</ele><time>2026-04-22T16:28:54.617Z</time></trkpt><trkpt lat="43.5381986" lon="11.2360087"><ele>395.0</ele><time>2026-04-22T16:28:55.616Z</time></trkpt><trkpt lat="43.5382665" lon="11.2358313"><ele>394.0</ele><time>2026-04-22T16:28:56.616Z</time></trkpt><trkpt lat="43.5383188" lon="11.235636"><ele>393.0</ele><time>2026-04-22T16:28:57.616Z</time></trkpt><trkpt lat="43.5383561" lon="11.2354251"><ele>392.0</ele><time>2026-04-22T16:28:58.616Z</time></trkpt><trkpt lat="43.5383784" lon="11.2351962"><ele>392.0</ele><time>2026-04-22T16:28:59.616Z</time></trkpt><trkpt lat="43.5383949" lon="11.2349584"><ele>392.0</ele><time>2026-04-22T16:29:00.617Z</time></trkpt><trkpt lat="43.5384075" lon="11.2347127"><ele>392.0</ele><time>2026-04-22T16:29:01.617Z</time></trkpt><trkpt lat="43.538415" lon="11.2344657"><ele>389.66666666666663</ele><time>2026-04-22T16:29:02.616Z</time></trkpt><trkpt lat="43.5384198" lon="11.2342237"><ele>387.33333333333337</ele><time>2026-04-22T16:29:03.617Z</time></trkpt><trkpt lat="43.5384242" lon="11.2339829"><ele>385.0</ele><time>2026-04-22T16:29:04.616Z</time></trkpt><trkpt lat="43.5384255" lon="11.2337401"><ele>382.6666666666667</ele><time>2026-04-22T16:29:05.616Z</time></trkpt><trkpt lat="43.5384299" lon="11.2335012"><ele>380.33333333333337</ele><time>2026-04-22T16:29:06.616Z</time></trkpt><trkpt lat="43.5384321" lon="11.2332714"><ele>378.0</ele><time>2026-04-22T16:29:07.617Z</time></trkpt><trkpt lat="43.5384384" lon="11.2330525"><ele>377.6666666666667</ele><time>2026-04-22T16:29:08.616Z</time></trkpt><trkpt lat="43.5384449" lon="11.2328286"><ele>377.33333333333337</ele><time>2026-04-22T16:29:09.616Z</time></trkpt><trkpt lat="43.5384655" lon="11.2326091"><ele>377.0</ele><time>2026-04-22T16:29:10.617Z</time></trkpt><trkpt lat="43.538505" lon="11.2324008"><ele>377.33333333333337</ele><time>2026-04-22T16:29:11.617Z</time></trkpt><trkpt lat="43.5385681" lon="11.2322027"><ele>377.6666666666667</ele><time>2026-04-22T16:29:12.616Z</time></trkpt><trkpt lat="43.5386496" lon="11.232013"><ele>378.0</ele><time>2026-04-22T16:29:13.616Z</time></trkpt><trkpt lat="43.5387493" lon="11.2318401"><ele>378.3333333333333</ele><time>2026-04-22T16:29:14.616Z</time></trkpt><trkpt lat="43.5388662" lon="11.2316871"><ele>378.66666666666663</ele><time>2026-04-22T16:29:15.616Z</time></trkpt><trkpt lat="43.5390136" lon="11.2315478"><ele>379.0</ele><time>2026-04-22T16:29:16.616Z</time></trkpt><trkpt lat="43.5391815" lon="11.2314317"><ele>379.0</ele><time>2026-04-22T16:29:17.617Z</time></trkpt><trkpt lat="43.5393638" lon="11.2313356"><ele>379.0</ele><time>2026-04-22T16:29:18.616Z</time></trkpt><trkpt lat="43.5395547" lon="11.2312318"><ele>379.0</ele><time>2026-04-22T16:29:19.617Z</time></trkpt><trkpt lat="43.5397456" lon="11.2311296"><ele>377.0</ele><time>2026-04-22T16:29:20.617Z</time></trkpt><trkpt lat="43.5399336" lon="11.2310299"><ele>375.0</ele><time>2026-04-22T16:29:21.617Z</time></trkpt><trkpt lat="43.5401147" lon="11.2309374"><ele>373.0</ele><time>2026-04-22T16:29:22.616Z</time></trkpt><trkpt lat="43.540307" lon="11.2308387"><ele>372.0</ele><time>2026-04-22T16:29:23.616Z</time></trkpt><trkpt lat="43.5405005" lon="11.2307432"><ele>371.0</ele><time>2026-04-22T16:29:24.616Z</time></trkpt><trkpt lat="43.5407015" lon="11.2306547"><ele>370.0</ele><time>2026-04-22T16:29:25.617Z</time></trkpt><trkpt lat="43.5409049" lon="11.2305704"><ele>369.3333333333333</ele><time>2026-04-22T16:29:26.617Z</time></trkpt><trkpt lat="43.5411137" lon="11.2304806"><ele>368.6666666666667</ele><time>2026-04-22T16:29:27.616Z</time></trkpt><trkpt lat="43.5413259" lon="11.2303952"><ele>368.0</ele><time>2026-04-22T16:29:28.616Z</time></trkpt><trkpt lat="43.5415333" lon="11.2303189"><ele>367.33333333333337</ele><time>2026-04-22T16:29:29.616Z</time></trkpt><trkpt lat="43.5417415" lon="11.2302426"><ele>366.6666666666667</ele><time>2026-04-22T16:29:30.616Z</time></trkpt><trkpt lat="43.5419497" lon="11.2301765"><ele>366.0</ele><time>2026-04-22T16:29:31.616Z</time></trkpt><trkpt lat="43.5421476" lon="11.2301097"><ele>365.6666666666667</ele><time>2026-04-22T16:29:32.617Z</time></trkpt><trkpt lat="43.5423354" lon="11.2300406"><ele>365.33333333333337</ele><time>2026-04-22T16:29:33.617Z</time></trkpt><trkpt lat="43.5425195" lon="11.2299714"><ele>365.0</ele><time>2026-04-22T16:29:34.616Z</time></trkpt><trkpt lat="43.5427009" lon="11.2299059"><ele>365.0</ele><time>2026-04-22T16:29:35.616Z</time></trkpt><trkpt lat="43.5428809" lon="11.2298413"><ele>365.0</ele><time>2026-04-22T16:29:36.617Z</time></trkpt><trkpt lat="43.5430594" lon="11.2297677"><ele>365.0</ele><time>2026-04-22T16:29:37.617Z</time></trkpt><trkpt lat="43.5432334" lon="11.2296839"><ele>365.0</ele><time>2026-04-22T16:29:38.616Z</time></trkpt><trkpt lat="43.5434033" lon="11.2295808"><ele>365.0</ele><time>2026-04-22T16:29:39.616Z</time></trkpt><trkpt lat="43.5435634" lon="11.2294617"><ele>365.0</ele><time>2026-04-22T16:29:40.617Z</time></trkpt><trkpt lat="43.5437217" lon="11.2293374"><ele>364.33333333333337</ele><time>2026-04-22T16:29:41.616Z</time></trkpt><trkpt lat="43.5438748" lon="11.2292129"><ele>363.6666666666667</ele><time>2026-04-22T16:29:42.616Z</time></trkpt><trkpt lat="43.5440301" lon="11.229089"><ele>363.0</ele><time>2026-04-22T16:29:43.616Z</time></trkpt><trkpt lat="43.5441886" lon="11.2289625"><ele>361.3333333333333</ele><time>2026-04-22T16:29:44.616Z</time></trkpt><trkpt lat="43.5443412" lon="11.2288434"><ele>359.66666666666663</ele><time>2026-04-22T16:29:45.616Z</time></trkpt><trkpt lat="43.5444918" lon="11.2287268"><ele>358.0</ele><time>2026-04-22T16:29:46.617Z</time></trkpt><trkpt lat="43.5446441" lon="11.2286098"><ele>357.66666666666663</ele><time>2026-04-22T16:29:47.616Z</time></trkpt><trkpt lat="43.5447981" lon="11.228488"><ele>357.3333333333333</ele><time>2026-04-22T16:29:48.616Z</time></trkpt><trkpt lat="43.5449535" lon="11.2283707"><ele>357.0</ele><time>2026-04-22T16:29:49.616Z</time></trkpt><trkpt lat="43.5451115" lon="11.2282493"><ele>355.3333333333333</ele><time>2026-04-22T16:29:50.617Z</time></trkpt><trkpt lat="43.5452783" lon="11.228119"><ele>353.66666666666663</ele><time>2026-04-22T16:29:51.617Z</time></trkpt><trkpt lat="43.545445" lon="11.2279903"><ele>352.0</ele><time>2026-04-22T16:29:52.616Z</time></trkpt><trkpt lat="43.5456003" lon="11.2278735"><ele>352.0</ele><time>2026-04-22T16:29:53.617Z</time></trkpt><trkpt lat="43.5457536" lon="11.22776"><ele>352.0</ele><time>2026-04-22T16:29:54.617Z</time></trkpt><trkpt lat="43.5458984" lon="11.2276527"><ele>352.0</ele><time>2026-04-22T16:29:55.616Z</time></trkpt><trkpt lat="43.5460394" lon="11.2275473"><ele>352.0</ele><time>2026-04-22T16:29:56.616Z</time></trkpt><trkpt lat="43.5461806" lon="11.2274395"><ele>352.0</ele><time>2026-04-22T16:29:57.617Z</time></trkpt><trkpt lat="43.5463209" lon="11.2273305"><ele>352.0</ele><time>2026-04-22T16:29:58.617Z</time></trkpt><trkpt lat="43.5464594" lon="11.2272166"><ele>351.5</ele><time>2026-04-22T16:29:59.616Z</time></trkpt><trkpt lat="43.5465897" lon="11.2271152"><ele>351.0</ele><time>2026-04-22T16:30:00.617Z</time></trkpt><trkpt lat="43.5467138" lon="11.2270097"><ele>350.5</ele><time>2026-04-22T16:30:01.617Z</time></trkpt><trkpt lat="43.546825" lon="11.2269134"><ele>350.0</ele><time>2026-04-22T16:30:02.616Z</time></trkpt><trkpt lat="43.546928" lon="11.2268062"><ele>350.0</ele><time>2026-04-22T16:30:03.617Z</time></trkpt><trkpt lat="43.5470216" lon="11.226686"><ele>350.0</ele><time>2026-04-22T16:30:04.616Z</time></trkpt><trkpt lat="43.5471138" lon="11.2265365"><ele>350.0</ele><time>2026-04-22T16:30:05.617Z</time></trkpt><trkpt lat="43.5472039" lon="11.2263567"><ele>350.0</ele><time>2026-04-22T16:30:06.616Z</time></trkpt><trkpt lat="43.5472995" lon="11.2261597"><ele>350.0</ele><time>2026-04-22T16:30:07.617Z</time></trkpt><trkpt lat="43.5473963" lon="11.2259596"><ele>350.0</ele><time>2026-04-22T16:30:08.616Z</time></trkpt><trkpt lat="43.5474932" lon="11.2257613"><ele>350.0</ele><time>2026-04-22T16:30:09.616Z</time></trkpt><trkpt lat="43.5475872" lon="11.2255577"><ele>350.33333333333337</ele><time>2026-04-22T16:30:10.617Z</time></trkpt><trkpt lat="43.5476655" lon="11.2253435"><ele>350.6666666666667</ele><time>2026-04-22T16:30:11.617Z</time></trkpt><trkpt lat="43.5477264" lon="11.2251192"><ele>351.0</ele><time>2026-04-22T16:30:12.617Z</time></trkpt><trkpt lat="43.5477668" lon="11.2248837"><ele>350.3333333333333</ele><time>2026-04-22T16:30:13.616Z</time></trkpt><trkpt lat="43.5477896" lon="11.2246324"><ele>349.66666666666663</ele><time>2026-04-22T16:30:14.617Z</time></trkpt><trkpt lat="43.5477963" lon="11.22437"><ele>349.0</ele><time>2026-04-22T16:30:15.616Z</time></trkpt><trkpt lat="43.5477956" lon="11.2241013"><ele>348.66666666666663</ele><time>2026-04-22T16:30:16.617Z</time></trkpt><trkpt lat="43.5477945" lon="11.2238089"><ele>348.3333333333333</ele><time>2026-04-22T16:30:17.616Z</time></trkpt><trkpt lat="43.5477896" lon="11.2235244"><ele>348.0</ele><time>2026-04-22T16:30:18.616Z</time></trkpt><trkpt lat="43.5477861" lon="11.2232385"><ele>348.0</ele><time>2026-04-22T16:30:19.617Z</time></trkpt><trkpt lat="43.5477816" lon="11.2229427"><ele>348.0</ele><time>2026-04-22T16:30:20.617Z</time></trkpt><trkpt lat="43.5477758" lon="11.2226442"><ele>348.0</ele><time>2026-04-22T16:30:21.616Z</time></trkpt><trkpt lat="43.5477702" lon="11.2223473"><ele>347.6666666666667</ele><time>2026-04-22T16:30:22.616Z</time></trkpt><trkpt lat="43.5477689" lon="11.2220518"><ele>347.33333333333337</ele><time>2026-04-22T16:30:23.617Z</time></trkpt><trkpt lat="43.5477675" lon="11.2217646"><ele>347.0</ele><time>2026-04-22T16:30:24.616Z</time></trkpt><trkpt lat="43.5477662" lon="11.2214802"><ele>347.0</ele><time>2026-04-22T16:30:25.616Z</time></trkpt><trkpt lat="43.5477776" lon="11.2211973"><ele>347.0</ele><time>2026-04-22T16:30:26.616Z</time></trkpt><trkpt lat="43.5477833" lon="11.2209145"><ele>347.0</ele><time>2026-04-22T16:30:27.616Z</time></trkpt><trkpt lat="43.5478024" lon="11.2206354"><ele>346.33333333333337</ele><time>2026-04-22T16:30:28.617Z</time></trkpt><trkpt lat="43.5478388" lon="11.2203567"><ele>345.6666666666667</ele><time>2026-04-22T16:30:29.616Z</time></trkpt><trkpt lat="43.5478928" lon="11.2200761"><ele>345.0</ele><time>2026-04-22T16:30:30.617Z</time></trkpt><trkpt lat="43.5479606" lon="11.2197867"><ele>344.3333333333333</ele><time>2026-04-22T16:30:31.617Z</time></trkpt><trkpt lat="43.5480366" lon="11.2194995"><ele>343.66666666666663</ele><time>2026-04-22T16:30:32.617Z</time></trkpt><trkpt lat="43.5481147" lon="11.2192123"><ele>343.0</ele><time>2026-04-22T16:30:33.617Z</time></trkpt><trkpt lat="43.5482012" lon="11.2189327"><ele>342.66666666666663</ele><time>2026-04-22T16:30:34.616Z</time></trkpt><trkpt lat="43.5482887" lon="11.218655"><ele>342.3333333333333</ele><time>2026-04-22T16:30:35.617Z</time></trkpt><trkpt lat="43.5483759" lon="11.2183832"><ele>342.0</ele><time>2026-04-22T16:30:36.617Z</time></trkpt><trkpt lat="43.5484569" lon="11.2181156"><ele>341.0</ele><time>2026-04-22T16:30:37.617Z</time></trkpt><trkpt lat="43.5485394" lon="11.2178573"><ele>340.0</ele><time>2026-04-22T16:30:38.617Z</time></trkpt><trkpt lat="43.548627" lon="11.2176068"><ele>339.0</ele><time>2026-04-22T16:30:39.617Z</time></trkpt><trkpt lat="43.54874" lon="11.2173685"><ele>336.6666666666667</ele><time>2026-04-22T16:30:40.616Z</time></trkpt><trkpt lat="43.5488647" lon="11.2171358"><ele>334.33333333333337</ele><time>2026-04-22T16:30:41.616Z</time></trkpt><trkpt lat="43.5490045" lon="11.2169146"><ele>332.0</ele><time>2026-04-22T16:30:42.616Z</time></trkpt><trkpt lat="43.5491617" lon="11.2166919"><ele>332.0</ele><time>2026-04-22T16:30:43.617Z</time></trkpt><trkpt lat="43.5493295" lon="11.2164736"><ele>332.0</ele><time>2026-04-22T16:30:44.617Z</time></trkpt><trkpt lat="43.5494939" lon="11.216265"><ele>332.0</ele><time>2026-04-22T16:30:45.616Z</time></trkpt><trkpt lat="43.5496576" lon="11.216062"><ele>332.0</ele><time>2026-04-22T16:30:46.616Z</time></trkpt><trkpt lat="43.5498181" lon="11.2158558"><ele>332.0</ele><time>2026-04-22T16:30:47.617Z</time></trkpt><trkpt lat="43.5499919" lon="11.215646"><ele>331.33333333333337</ele><time>2026-04-22T16:30:48.616Z</time></trkpt><trkpt lat="43.5501666" lon="11.2154355"><ele>330.6666666666667</ele><time>2026-04-22T16:30:49.616Z</time></trkpt><trkpt lat="43.5503263" lon="11.2152392"><ele>330.0</ele><time>2026-04-22T16:30:50.617Z</time></trkpt><trkpt lat="43.5504838" lon="11.2150458"><ele>330.0</ele><time>2026-04-22T16:30:51.617Z</time></trkpt><trkpt lat="43.5506352" lon="11.2148631"><ele>330.0</ele><time>2026-04-22T16:30:52.616Z</time></trkpt><trkpt lat="43.5507877" lon="11.2146909"><ele>330.0</ele><time>2026-04-22T16:30:53.616Z</time></trkpt><trkpt lat="43.5509417" lon="11.2145171"><ele>329.3333333333333</ele><time>2026-04-22T16:30:54.617Z</time></trkpt><trkpt lat="43.5510947" lon="11.2143467"><ele>328.66666666666663</ele><time>2026-04-22T16:30:55.616Z</time></trkpt><trkpt lat="43.5512486" lon="11.2141782"><ele>328.0</ele><time>2026-04-22T16:30:56.617Z</time></trkpt><trkpt lat="43.5513931" lon="11.2140188"><ele>326.66666666666663</ele><time>2026-04-22T16:30:57.616Z</time></trkpt><trkpt lat="43.5515333" lon="11.2138688"><ele>325.3333333333333</ele><time>2026-04-22T16:30:58.616Z</time></trkpt><trkpt lat="43.5516687" lon="11.2137267"><ele>324.0</ele><time>2026-04-22T16:30:59.616Z</time></trkpt><trkpt lat="43.5518002" lon="11.2135828"><ele>324.0</ele><time>2026-04-22T16:31:00.616Z</time></trkpt><trkpt lat="43.5519352" lon="11.213434"><ele>324.0</ele><time>2026-04-22T16:31:01.616Z</time></trkpt><trkpt lat="43.5520634" lon="11.213277"><ele>324.0</ele><time>2026-04-22T16:31:02.616Z</time></trkpt><trkpt lat="43.552175" lon="11.2131014"><ele>323.3333333333333</ele><time>2026-04-22T16:31:03.616Z</time></trkpt><trkpt lat="43.5522583" lon="11.2129077"><ele>322.66666666666663</ele><time>2026-04-22T16:31:04.616Z</time></trkpt><trkpt lat="43.5523114" lon="11.2127045"><ele>322.0</ele><time>2026-04-22T16:31:05.616Z</time></trkpt><trkpt lat="43.552341" lon="11.2124782"><ele>320.66666666666663</ele><time>2026-04-22T16:31:06.616Z</time></trkpt><trkpt lat="43.5523409" lon="11.2122389"><ele>319.3333333333333</ele><time>2026-04-22T16:31:07.616Z</time></trkpt><trkpt lat="43.5523361" lon="11.2120154"><ele>318.0</ele><time>2026-04-22T16:31:08.617Z</time></trkpt><trkpt lat="43.5523335" lon="11.2118079"><ele>318.0</ele><time>2026-04-22T16:31:09.617Z</time></trkpt><trkpt lat="43.5523321" lon="11.2116173"><ele>318.0</ele><time>2026-04-22T16:31:10.616Z</time></trkpt><trkpt lat="43.5523294" lon="11.2114271"><ele>318.0</ele><time>2026-04-22T16:31:11.617Z</time></trkpt><trkpt lat="43.5523228" lon="11.2112439"><ele>318.0</ele><time>2026-04-22T16:31:12.616Z</time></trkpt><trkpt lat="43.5523279" lon="11.2110383"><ele>317.0</ele><time>2026-04-22T16:31:13.616Z</time></trkpt><trkpt lat="43.5523271" lon="11.2108336"><ele>316.0</ele><time>2026-04-22T16:31:14.616Z</time></trkpt><trkpt lat="43.5523253" lon="11.2106309"><ele>315.0</ele><time>2026-04-22T16:31:15.616Z</time></trkpt><trkpt lat="43.5523293" lon="11.2104603"><ele>314.0</ele><time>2026-04-22T16:31:16.616Z</time></trkpt><trkpt lat="43.5523333" lon="11.2102772"><ele>314.0</ele><time>2026-04-22T16:31:17.616Z</time></trkpt><trkpt lat="43.5523332" lon="11.2100822"><ele>314.0</ele><time>2026-04-22T16:31:18.617Z</time></trkpt><trkpt lat="43.552325" lon="11.2098681"><ele>314.0</ele><time>2026-04-22T16:31:19.616Z</time></trkpt><trkpt lat="43.5523127" lon="11.2096743"><ele>314.0</ele><time>2026-04-22T16:31:20.616Z</time></trkpt><trkpt lat="43.5523017" lon="11.2094797"><ele>313.5</ele><time>2026-04-22T16:31:21.617Z</time></trkpt><trkpt lat="43.5522975" lon="11.2092991"><ele>313.0</ele><time>2026-04-22T16:31:22.616Z</time></trkpt><trkpt lat="43.5523097" lon="11.2091214"><ele>312.5</ele><time>2026-04-22T16:31:23.616Z</time></trkpt><trkpt lat="43.5523379" lon="11.2089478"><ele>312.0</ele><time>2026-04-22T16:31:24.616Z</time></trkpt><trkpt lat="43.5523925" lon="11.2087831"><ele>312.0</ele><time>2026-04-22T16:31:25.616Z</time></trkpt><trkpt lat="43.5524685" lon="11.2086325"><ele>312.0</ele><time>2026-04-22T16:31:26.616Z</time></trkpt><trkpt lat="43.5525593" lon="11.2085066"><ele>312.0</ele><time>2026-04-22T16:31:27.616Z</time></trkpt><trkpt lat="43.5526744" lon="11.2084227"><ele>312.0</ele><time>2026-04-22T16:31:28.616Z</time></trkpt><trkpt lat="43.5527998" lon="11.2083729"><ele>314.75</ele><time>2026-04-22T16:31:29.616Z</time></trkpt><trkpt lat="43.5529317" lon="11.2083831"><ele>317.5</ele><time>2026-04-22T16:31:30.617Z</time></trkpt><trkpt lat="43.5530755" lon="11.2084454"><ele>320.25</ele><time>2026-04-22T16:31:31.617Z</time></trkpt><trkpt lat="43.5532236" lon="11.208539"><ele>323.0</ele><time>2026-04-22T16:31:32.616Z</time></trkpt><trkpt lat="43.5533726" lon="11.2086478"><ele>323.0</ele><time>2026-04-22T16:31:33.616Z</time></trkpt><trkpt lat="43.5535082" lon="11.2087566"><ele>323.0</ele><time>2026-04-22T16:31:34.616Z</time></trkpt><trkpt lat="43.553639" lon="11.2088399"><ele>323.0</ele><time>2026-04-22T16:31:35.616Z</time></trkpt><trkpt lat="43.5537744" lon="11.2089005"><ele>323.0</ele><time>2026-04-22T16:31:36.616Z</time></trkpt><trkpt lat="43.5539126" lon="11.2089308"><ele>325.25</ele><time>2026-04-22T16:31:37.616Z</time></trkpt><trkpt lat="43.5540517" lon="11.2089323"><ele>327.5</ele><time>2026-04-22T16:31:38.616Z</time></trkpt><trkpt lat="43.5541909" lon="11.2088953"><ele>329.75</ele><time>2026-04-22T16:31:39.616Z</time></trkpt><trkpt lat="43.5543231" lon="11.2088278"><ele>332.0</ele><time>2026-04-22T16:31:40.616Z</time></trkpt><trkpt lat="43.5544496" lon="11.2087382"><ele>330.0</ele><time>2026-04-22T16:31:41.616Z</time></trkpt><trkpt lat="43.554579" lon="11.2086221"><ele>328.0</ele><time>2026-04-22T16:31:42.616Z</time></trkpt><trkpt lat="43.5547157" lon="11.2085153"><ele>326.0</ele><time>2026-04-22T16:31:43.617Z</time></trkpt><trkpt lat="43.5548599" lon="11.2084263"><ele>326.0</ele><time>2026-04-22T16:31:44.616Z</time></trkpt><trkpt lat="43.5550204" lon="11.2083495"><ele>326.0</ele><time>2026-04-22T16:31:45.616Z</time></trkpt><trkpt lat="43.5551849" lon="11.2083072"><ele>326.0</ele><time>2026-04-22T16:31:46.617Z</time></trkpt><trkpt lat="43.5553553" lon="11.2082885"><ele>324.33333333333337</ele><time>2026-04-22T16:31:47.617Z</time></trkpt><trkpt lat="43.5555364" lon="11.2082675"><ele>322.6666666666667</ele><time>2026-04-22T16:31:48.616Z</time></trkpt><trkpt lat="43.5557268" lon="11.2082489"><ele>321.0</ele><time>2026-04-22T16:31:49.617Z</time></trkpt><trkpt lat="43.5559073" lon="11.2082269"><ele>321.0</ele><time>2026-04-22T16:31:50.617Z</time></trkpt><trkpt lat="43.5560772" lon="11.2082077"><ele>321.0</ele><time>2026-04-22T16:31:51.617Z</time></trkpt><trkpt lat="43.5562451" lon="11.2081854"><ele>321.0</ele><time>2026-04-22T16:31:52.616Z</time></trkpt><trkpt lat="43.5564108" lon="11.208161"><ele>322.0</ele><time>2026-04-22T16:31:53.616Z</time></trkpt><trkpt lat="43.5565741" lon="11.2081334"><ele>323.0</ele><time>2026-04-22T16:31:54.616Z</time></trkpt><trkpt lat="43.5567343" lon="11.2081053"><ele>324.0</ele><time>2026-04-22T16:31:55.616Z</time></trkpt><trkpt lat="43.5568869" lon="11.2080539"><ele>324.0</ele><time>2026-04-22T16:31:56.616Z</time></trkpt><trkpt lat="43.5570332" lon="11.2079885"><ele>324.0</ele><time>2026-04-22T16:31:57.616Z</time></trkpt><trkpt lat="43.5571811" lon="11.2079137"><ele>324.0</ele><time>2026-04-22T16:31:58.616Z</time></trkpt><trkpt lat="43.5573336" lon="11.2078436"><ele>323.0</ele><time>2026-04-22T16:31:59.617Z</time></trkpt><trkpt lat="43.5574914" lon="11.207773"><ele>322.0</ele><time>2026-04-22T16:32:00.616Z</time></trkpt><trkpt lat="43.557646" lon="11.2077058"><ele>321.0</ele><time>2026-04-22T16:32:01.617Z</time></trkpt><trkpt lat="43.5577924" lon="11.2076535"><ele>320.0</ele><time>2026-04-22T16:32:02.616Z</time></trkpt><trkpt lat="43.5579741" lon="11.2076296"><ele>319.0</ele><time>2026-04-22T16:32:03.617Z</time></trkpt><trkpt lat="43.5581503" lon="11.2076252"><ele>318.0</ele><time>2026-04-22T16:32:04.617Z</time></trkpt><trkpt lat="43.5583169" lon="11.2076234"><ele>318.0</ele><time>2026-04-22T16:32:05.616Z</time></trkpt><trkpt lat="43.5584798" lon="11.2076146"><ele>318.0</ele><time>2026-04-22T16:32:06.616Z</time></trkpt><trkpt lat="43.5586381" lon="11.2075925"><ele>318.0</ele><time>2026-04-22T16:32:07.616Z</time></trkpt><trkpt lat="43.5587949" lon="11.2075529"><ele>317.75</ele><time>2026-04-22T16:32:08.616Z</time></trkpt><trkpt lat="43.5589395" lon="11.2075015"><ele>317.5</ele><time>2026-04-22T16:32:09.616Z</time></trkpt><trkpt lat="43.5590803" lon="11.2074385"><ele>317.25</ele><time>2026-04-22T16:32:10.616Z</time></trkpt><trkpt lat="43.5592097" lon="11.2073582"><ele>317.0</ele><time>2026-04-22T16:32:11.616Z</time></trkpt><trkpt lat="43.5593219" lon="11.2072694"><ele>316.8</ele><time>2026-04-22T16:32:12.616Z</time></trkpt><trkpt lat="43.5594242" lon="11.2071862"><ele>316.6</ele><time>2026-04-22T16:32:13.616Z</time></trkpt><trkpt lat="43.5595154" lon="11.2071116"><ele>316.40000000000003</ele><time>2026-04-22T16:32:14.616Z</time></trkpt><trkpt lat="43.5595963" lon="11.2070447"><ele>316.2</ele><time>2026-04-22T16:32:15.617Z</time></trkpt><trkpt lat="43.5596665" lon="11.2069909"><ele>316.0</ele><time>2026-04-22T16:32:16.617Z</time></trkpt><trkpt lat="43.5597293" lon="11.2069514"><ele>316.0</ele><time>2026-04-22T16:32:17.617Z</time></trkpt><trkpt lat="43.559848" lon="11.20699"><ele>316.0</ele><time>2026-04-22T16:32:19.617Z</time></trkpt><trkpt lat="43.5598981" lon="11.2070546"><ele>316.0</ele><time>2026-04-22T16:32:20.616Z</time></trkpt><trkpt lat="43.5599426" lon="11.2071412"><ele>316.0</ele><time>2026-04-22T16:32:21.616Z</time></trkpt><trkpt lat="43.5599934" lon="11.2072385"><ele>316.0</ele><time>2026-04-22T16:32:22.617Z</time></trkpt><trkpt lat="43.5600501" lon="11.2073421"><ele>316.0</ele><time>2026-04-22T16:32:23.616Z</time></trkpt><trkpt lat="43.5601126" lon="11.2074651"><ele>315.5</ele><time>2026-04-22T16:32:24.616Z</time></trkpt><trkpt lat="43.5601725" lon="11.2075975"><ele>315.0</ele><time>2026-04-22T16:32:25.616Z</time></trkpt><trkpt lat="43.5602229" lon="11.2077558"><ele>314.5</ele><time>2026-04-22T16:32:26.617Z</time></trkpt><trkpt lat="43.5602746" lon="11.2079349"><ele>314.0</ele><time>2026-04-22T16:32:27.617Z</time></trkpt><trkpt lat="43.5603252" lon="11.2080971"><ele>310.5</ele><time>2026-04-22T16:32:28.616Z</time></trkpt><trkpt lat="43.5603915" lon="11.2082374"><ele>307.0</ele><time>2026-04-22T16:32:29.616Z</time></trkpt><trkpt lat="43.5605041" lon="11.2083787"><ele>303.5</ele><time>2026-04-22T16:32:30.617Z</time></trkpt><trkpt lat="43.5606258" lon="11.2085081"><ele>300.0</ele><time>2026-04-22T16:32:31.616Z</time></trkpt><trkpt lat="43.5607688" lon="11.2086222"><ele>300.0</ele><time>2026-04-22T16:32:32.617Z</time></trkpt><trkpt lat="43.5609331" lon="11.2087298"><ele>300.0</ele><time>2026-04-22T16:32:33.616Z</time></trkpt><trkpt lat="43.5611085" lon="11.2088172"><ele>300.0</ele><time>2026-04-22T16:32:34.616Z</time></trkpt><trkpt lat="43.5612776" lon="11.2088896"><ele>298.6666666666667</ele><time>2026-04-22T16:32:35.616Z</time></trkpt><trkpt lat="43.5614369" lon="11.2089567"><ele>297.33333333333337</ele><time>2026-04-22T16:32:36.617Z</time></trkpt><trkpt lat="43.5615963" lon="11.2090035"><ele>296.0</ele><time>2026-04-22T16:32:37.616Z</time></trkpt><trkpt lat="43.5617567" lon="11.2090427"><ele>296.0</ele><time>2026-04-22T16:32:38.617Z</time></trkpt><trkpt lat="43.561918" lon="11.2090796"><ele>296.0</ele><time>2026-04-22T16:32:39.617Z</time></trkpt><trkpt lat="43.5620765" lon="11.2091172"><ele>296.0</ele><time>2026-04-22T16:32:40.616Z</time></trkpt><trkpt lat="43.562228" lon="11.2091551"><ele>290.0</ele><time>2026-04-22T16:32:41.617Z</time></trkpt><trkpt lat="43.562378" lon="11.2091902"><ele>284.0</ele><time>2026-04-22T16:32:42.617Z</time></trkpt><trkpt lat="43.5625252" lon="11.2092174"><ele>278.0</ele><time>2026-04-22T16:32:43.616Z</time></trkpt><trkpt lat="43.5626725" lon="11.2092491"><ele>278.0</ele><time>2026-04-22T16:32:44.617Z</time></trkpt><trkpt lat="43.5628196" lon="11.2092895"><ele>278.0</ele><time>2026-04-22T16:32:45.616Z</time></trkpt><trkpt lat="43.5629689" lon="11.2093472"><ele>278.0</ele><time>2026-04-22T16:32:46.616Z</time></trkpt><trkpt lat="43.5631235" lon="11.2094338"><ele>274.33333333333337</ele><time>2026-04-22T16:32:47.617Z</time></trkpt><trkpt lat="43.5632876" lon="11.2095323"><ele>270.6666666666667</ele><time>2026-04-22T16:32:48.616Z</time></trkpt><trkpt lat="43.5634585" lon="11.2096453"><ele>267.0</ele><time>2026-04-22T16:32:49.616Z</time></trkpt><trkpt lat="43.5636324" lon="11.2097505"><ele>265.6666666666667</ele><time>2026-04-22T16:32:50.616Z</time></trkpt><trkpt lat="43.5638082" lon="11.2098514"><ele>264.33333333333337</ele><time>2026-04-22T16:32:51.616Z</time></trkpt><trkpt lat="43.5639743" lon="11.2099548"><ele>263.0</ele><time>2026-04-22T16:32:52.616Z</time></trkpt><trkpt lat="43.5641344" lon="11.2100467"><ele>263.0</ele><time>2026-04-22T16:32:53.616Z</time></trkpt><trkpt lat="43.5642903" lon="11.2101213"><ele>263.0</ele><time>2026-04-22T16:32:54.617Z</time></trkpt><trkpt lat="43.5644478" lon="11.2101661"><ele>263.0</ele><time>2026-04-22T16:32:55.616Z</time></trkpt><trkpt lat="43.5646079" lon="11.2101917"><ele>259.33333333333337</ele><time>2026-04-22T16:32:56.616Z</time></trkpt><trkpt lat="43.5647742" lon="11.2101991"><ele>255.66666666666669</ele><time>2026-04-22T16:32:57.616Z</time></trkpt><trkpt lat="43.5649444" lon="11.2101964"><ele>252.0</ele><time>2026-04-22T16:32:58.617Z</time></trkpt><trkpt lat="43.5651076" lon="11.2101971"><ele>252.0</ele><time>2026-04-22T16:32:59.617Z</time></trkpt><trkpt lat="43.5652684" lon="11.210195"><ele>252.0</ele><time>2026-04-22T16:33:00.616Z</time></trkpt><trkpt lat="43.565425" lon="11.2101983"><ele>252.0</ele><time>2026-04-22T16:33:01.617Z</time></trkpt><trkpt lat="43.5655785" lon="11.2101984"><ele>250.0</ele><time>2026-04-22T16:33:02.616Z</time></trkpt><trkpt lat="43.5657231" lon="11.2101771"><ele>248.0</ele><time>2026-04-22T16:33:03.616Z</time></trkpt><trkpt lat="43.5658666" lon="11.210171"><ele>246.0</ele><time>2026-04-22T16:33:04.616Z</time></trkpt><trkpt lat="43.5660143" lon="11.2101672"><ele>244.0</ele><time>2026-04-22T16:33:05.616Z</time></trkpt><trkpt lat="43.5661533" lon="11.2101781"><ele>242.5</ele><time>2026-04-22T16:33:06.617Z</time></trkpt><trkpt lat="43.5662888" lon="11.2102119"><ele>241.0</ele><time>2026-04-22T16:33:07.617Z</time></trkpt><trkpt lat="43.566425" lon="11.210276"><ele>239.5</ele><time>2026-04-22T16:33:08.616Z</time></trkpt><trkpt lat="43.5665611" lon="11.2103828"><ele>238.0</ele><time>2026-04-22T16:33:09.616Z</time></trkpt><trkpt lat="43.5666929" lon="11.2105076"><ele>238.0</ele><time>2026-04-22T16:33:10.616Z</time></trkpt><trkpt lat="43.5668386" lon="11.2106465"><ele>238.0</ele><time>2026-04-22T16:33:11.616Z</time></trkpt><trkpt lat="43.5669822" lon="11.2107701"><ele>238.0</ele><time>2026-04-22T16:33:12.616Z</time></trkpt><trkpt lat="43.5671263" lon="11.2108896"><ele>238.0</ele><time>2026-04-22T16:33:13.617Z</time></trkpt><trkpt lat="43.5672636" lon="11.2109999"><ele>238.0</ele><time>2026-04-22T16:33:14.617Z</time></trkpt><trkpt lat="43.5674032" lon="11.2110937"><ele>238.0</ele><time>2026-04-22T16:33:15.617Z</time></trkpt><trkpt lat="43.5675343" lon="11.2111757"><ele>238.0</ele><time>2026-04-22T16:33:16.616Z</time></trkpt><trkpt lat="43.5676575" lon="11.2112775"><ele>238.0</ele><time>2026-04-22T16:33:17.617Z</time></trkpt><trkpt lat="43.5677744" lon="11.2114098"><ele>238.0</ele><time>2026-04-22T16:33:18.616Z</time></trkpt><trkpt lat="43.5678837" lon="11.2115645"><ele>234.33333333333331</ele><time>2026-04-22T16:33:19.617Z</time></trkpt><trkpt lat="43.5679656" lon="11.2117712"><ele>230.66666666666669</ele><time>2026-04-22T16:33:20.617Z</time></trkpt><trkpt lat="43.5680634" lon="11.2119462"><ele>227.0</ele><time>2026-04-22T16:33:21.617Z</time></trkpt><trkpt lat="43.5681831" lon="11.212128"><ele>227.0</ele><time>2026-04-22T16:33:22.616Z</time></trkpt><trkpt lat="43.5683168" lon="11.2123063"><ele>227.0</ele><time>2026-04-22T16:33:23.617Z</time></trkpt><trkpt lat="43.5684467" lon="11.2124728"><ele>227.0</ele><time>2026-04-22T16:33:24.617Z</time></trkpt><trkpt lat="43.5685691" lon="11.2126294"><ele>226.25</ele><time>2026-04-22T16:33:25.616Z</time></trkpt><trkpt lat="43.5686808" lon="11.2127717"><ele>225.5</ele><time>2026-04-22T16:33:26.617Z</time></trkpt><trkpt lat="43.5687918" lon="11.2128842"><ele>224.75</ele><time>2026-04-22T16:33:27.616Z</time></trkpt><trkpt lat="43.5689113" lon="11.2129707"><ele>224.0</ele><time>2026-04-22T16:33:28.616Z</time></trkpt><trkpt lat="43.5690417" lon="11.213041"><ele>220.75</ele><time>2026-04-22T16:33:29.617Z</time></trkpt><trkpt lat="43.5691726" lon="11.2130967"><ele>217.5</ele><time>2026-04-22T16:33:30.617Z</time></trkpt><trkpt lat="43.5692964" lon="11.2131476"><ele>214.25</ele><time>2026-04-22T16:33:31.616Z</time></trkpt><trkpt lat="43.5694129" lon="11.2132127"><ele>211.0</ele><time>2026-04-22T16:33:32.616Z</time></trkpt><trkpt lat="43.5695237" lon="11.2132888"><ele>207.8</ele><time>2026-04-22T16:33:33.617Z</time></trkpt><trkpt lat="43.569624" lon="11.2133812"><ele>204.60000000000002</ele><time>2026-04-22T16:33:34.617Z</time></trkpt><trkpt lat="43.5697065" lon="11.2134879"><ele>201.4</ele><time>2026-04-22T16:33:35.616Z</time></trkpt><trkpt lat="43.5697774" lon="11.2135992"><ele>198.2</ele><time>2026-04-22T16:33:36.616Z</time></trkpt><trkpt lat="43.5698262" lon="11.2137209"><ele>195.0</ele><time>2026-04-22T16:33:37.616Z</time></trkpt><trkpt lat="43.5698427" lon="11.2138676"><ele>194.25</ele><time>2026-04-22T16:33:38.616Z</time></trkpt><trkpt lat="43.5698352" lon="11.2140229"><ele>193.5</ele><time>2026-04-22T16:33:39.617Z</time></trkpt><trkpt lat="43.5698023" lon="11.2141784"><ele>192.75</ele><time>2026-04-22T16:33:40.616Z</time></trkpt><trkpt lat="43.5697506" lon="11.214328"><ele>192.0</ele><time>2026-04-22T16:33:41.616Z</time></trkpt><trkpt lat="43.5696874" lon="11.214465"><ele>192.0</ele><time>2026-04-22T16:33:42.616Z</time></trkpt><trkpt lat="43.5696144" lon="11.2145968"><ele>192.0</ele><time>2026-04-22T16:33:43.617Z</time></trkpt><trkpt lat="43.569535" lon="11.2147264"><ele>192.0</ele><time>2026-04-22T16:33:44.616Z</time></trkpt><trkpt lat="43.569453" lon="11.2148519"><ele>192.0</ele><time>2026-04-22T16:33:45.616Z</time></trkpt><trkpt lat="43.5693759" lon="11.2149726"><ele>192.83333333333334</ele><time>2026-04-22T16:33:46.616Z</time></trkpt><trkpt lat="43.5693038" lon="11.2150757"><ele>193.66666666666669</ele><time>2026-04-22T16:33:47.616Z</time></trkpt><trkpt lat="43.5692439" lon="11.2151617"><ele>194.5</ele><time>2026-04-22T16:33:48.616Z</time></trkpt><trkpt lat="43.5691946" lon="11.2152373"><ele>195.33333333333334</ele><time>2026-04-22T16:33:49.616Z</time></trkpt><trkpt lat="43.5691544" lon="11.2153386"><ele>196.16666666666669</ele><time>2026-04-22T16:33:51.616Z</time></trkpt><trkpt lat="43.5691667" lon="11.2154428"><ele>197.0</ele><time>2026-04-22T16:33:54.617Z</time></trkpt><trkpt lat="43.5692543" lon="11.2154587"><ele>197.0</ele><time>2026-04-22T16:33:56.617Z</time></trkpt><trkpt lat="43.5693232" lon="11.2154328"><ele>197.0</ele><time>2026-04-22T16:33:57.616Z</time></trkpt><trkpt lat="43.5694172" lon="11.215408"><ele>197.0</ele><time>2026-04-22T16:33:58.616Z</time></trkpt><trkpt lat="43.5695191" lon="11.2153635"><ele>197.0</ele><time>2026-04-22T16:33:59.616Z</time></trkpt><trkpt lat="43.5696335" lon="11.2153179"><ele>197.0</ele><time>2026-04-22T16:34:00.615Z</time></trkpt><trkpt lat="43.5697633" lon="11.2152557"><ele>194.25</ele><time>2026-04-22T16:34:01.615Z</time></trkpt><trkpt lat="43.5698962" lon="11.2151962"><ele>191.5</ele><time>2026-04-22T16:34:02.616Z</time></trkpt><trkpt lat="43.5700379" lon="11.2151391"><ele>188.75</ele><time>2026-04-22T16:34:03.615Z</time></trkpt><trkpt lat="43.5701715" lon="11.2150778"><ele>186.0</ele><time>2026-04-22T16:34:04.615Z</time></trkpt><trkpt lat="43.5703052" lon="11.2150257"><ele>185.0</ele><time>2026-04-22T16:34:05.615Z</time></trkpt><trkpt lat="43.5704411" lon="11.2150023"><ele>184.0</ele><time>2026-04-22T16:34:06.615Z</time></trkpt><trkpt lat="43.5705773" lon="11.2150077"><ele>183.0</ele><time>2026-04-22T16:34:07.616Z</time></trkpt><trkpt lat="43.5707096" lon="11.2150404"><ele>182.0</ele><time>2026-04-22T16:34:08.615Z</time></trkpt><trkpt lat="43.5708349" lon="11.2150862"><ele>182.0</ele><time>2026-04-22T16:34:09.616Z</time></trkpt><trkpt lat="43.5709563" lon="11.2151557"><ele>182.0</ele><time>2026-04-22T16:34:10.615Z</time></trkpt><trkpt lat="43.5710682" lon="11.2152525"><ele>182.0</ele><time>2026-04-22T16:34:11.615Z</time></trkpt><trkpt lat="43.5711712" lon="11.2153782"><ele>182.0</ele><time>2026-04-22T16:34:12.616Z</time></trkpt><trkpt lat="43.5712772" lon="11.2155092"><ele>181.33333333333331</ele><time>2026-04-22T16:34:13.616Z</time></trkpt><trkpt lat="43.5713869" lon="11.2156583"><ele>180.66666666666666</ele><time>2026-04-22T16:34:14.615Z</time></trkpt><trkpt lat="43.5714986" lon="11.2158091"><ele>180.0</ele><time>2026-04-22T16:34:15.616Z</time></trkpt><trkpt lat="43.5716105" lon="11.2159682"><ele>180.0</ele><time>2026-04-22T16:34:16.616Z</time></trkpt><trkpt lat="43.5717247" lon="11.2161204"><ele>180.0</ele><time>2026-04-22T16:34:17.616Z</time></trkpt><trkpt lat="43.571845" lon="11.2162553"><ele>180.0</ele><time>2026-04-22T16:34:18.616Z</time></trkpt><trkpt lat="43.5719838" lon="11.2163798"><ele>179.66666666666666</ele><time>2026-04-22T16:34:19.615Z</time></trkpt><trkpt lat="43.572139" lon="11.2164832"><ele>179.33333333333331</ele><time>2026-04-22T16:34:20.615Z</time></trkpt><trkpt lat="43.5723048" lon="11.2165638"><ele>179.0</ele><time>2026-04-22T16:34:21.615Z</time></trkpt><trkpt lat="43.5724757" lon="11.2166169"><ele>180.33333333333331</ele><time>2026-04-22T16:34:22.615Z</time></trkpt><trkpt lat="43.5726613" lon="11.2166368"><ele>181.66666666666666</ele><time>2026-04-22T16:34:23.615Z</time></trkpt><trkpt lat="43.5728124" lon="11.2165783"><ele>183.0</ele><time>2026-04-22T16:34:24.616Z</time></trkpt><trkpt lat="43.5730029" lon="11.2165282"><ele>181.66666666666666</ele><time>2026-04-22T16:34:25.616Z</time></trkpt><trkpt lat="43.5731815" lon="11.2164513"><ele>180.33333333333331</ele><time>2026-04-22T16:34:26.615Z</time></trkpt><trkpt lat="43.5733487" lon="11.2163557"><ele>179.0</ele><time>2026-04-22T16:34:27.615Z</time></trkpt><trkpt lat="43.5735239" lon="11.2162285"><ele>178.33333333333331</ele><time>2026-04-22T16:34:28.615Z</time></trkpt><trkpt lat="43.5736995" lon="11.2161029"><ele>177.66666666666666</ele><time>2026-04-22T16:34:29.616Z</time></trkpt><trkpt lat="43.5738822" lon="11.2160002"><ele>177.0</ele><time>2026-04-22T16:34:30.616Z</time></trkpt><trkpt lat="43.5740784" lon="11.2159006"><ele>177.0</ele><time>2026-04-22T16:34:31.616Z</time></trkpt><trkpt lat="43.5742809" lon="11.2158071"><ele>177.0</ele><time>2026-04-22T16:34:32.615Z</time></trkpt><trkpt lat="43.5744855" lon="11.2157165"><ele>177.0</ele><time>2026-04-22T16:34:33.615Z</time></trkpt><trkpt lat="43.5746956" lon="11.2156242"><ele>176.66666666666666</ele><time>2026-04-22T16:34:34.615Z</time></trkpt><trkpt lat="43.574907" lon="11.2155391"><ele>176.33333333333331</ele><time>2026-04-22T16:34:35.615Z</time></trkpt><trkpt lat="43.5751218" lon="11.2154506"><ele>176.0</ele><time>2026-04-22T16:34:36.615Z</time></trkpt><trkpt lat="43.5753396" lon="11.2153604"><ele>176.33333333333331</ele><time>2026-04-22T16:34:37.615Z</time></trkpt><trkpt lat="43.5755525" lon="11.2152671"><ele>176.66666666666666</ele><time>2026-04-22T16:34:38.616Z</time></trkpt><trkpt lat="43.575764" lon="11.2151698"><ele>177.0</ele><time>2026-04-22T16:34:39.615Z</time></trkpt><trkpt lat="43.5759684" lon="11.2150691"><ele>177.0</ele><time>2026-04-22T16:34:40.616Z</time></trkpt><trkpt lat="43.5761635" lon="11.2149841"><ele>177.0</ele><time>2026-04-22T16:34:41.616Z</time></trkpt><trkpt lat="43.5763452" lon="11.2149021"><ele>177.0</ele><time>2026-04-22T16:34:42.616Z</time></trkpt><trkpt lat="43.576526" lon="11.214826"><ele>176.33333333333334</ele><time>2026-04-22T16:34:43.615Z</time></trkpt><trkpt lat="43.5767" lon="11.2147513"><ele>175.66666666666669</ele><time>2026-04-22T16:34:44.615Z</time></trkpt><trkpt lat="43.5768732" lon="11.214679"><ele>175.0</ele><time>2026-04-22T16:34:45.615Z</time></trkpt><trkpt lat="43.5770501" lon="11.2146095"><ele>175.0</ele><time>2026-04-22T16:34:46.615Z</time></trkpt><trkpt lat="43.5772048" lon="11.2145374"><ele>175.0</ele><time>2026-04-22T16:34:47.615Z</time></trkpt><trkpt lat="43.5773529" lon="11.2144528"><ele>175.0</ele><time>2026-04-22T16:34:48.616Z</time></trkpt><trkpt lat="43.5774916" lon="11.2143388"><ele>175.0</ele><time>2026-04-22T16:34:49.615Z</time></trkpt><trkpt lat="43.5776298" lon="11.2142021"><ele>175.0</ele><time>2026-04-22T16:34:50.616Z</time></trkpt><trkpt lat="43.5777631" lon="11.21403"><ele>175.0</ele><time>2026-04-22T16:34:51.616Z</time></trkpt><trkpt lat="43.5779013" lon="11.2138309"><ele>175.33333333333334</ele><time>2026-04-22T16:34:52.615Z</time></trkpt><trkpt lat="43.5780417" lon="11.2136297"><ele>175.66666666666666</ele><time>2026-04-22T16:34:53.615Z</time></trkpt><trkpt lat="43.578174" lon="11.2134415"><ele>176.0</ele><time>2026-04-22T16:34:54.615Z</time></trkpt><trkpt lat="43.5782971" lon="11.2132635"><ele>174.33333333333331</ele><time>2026-04-22T16:34:55.616Z</time></trkpt><trkpt lat="43.5784181" lon="11.2130986"><ele>172.66666666666666</ele><time>2026-04-22T16:34:56.616Z</time></trkpt><trkpt lat="43.5785389" lon="11.2129498"><ele>171.0</ele><time>2026-04-22T16:34:57.615Z</time></trkpt><trkpt lat="43.5786665" lon="11.2128145"><ele>172.33333333333334</ele><time>2026-04-22T16:34:58.616Z</time></trkpt><trkpt lat="43.5788101" lon="11.2126888"><ele>173.66666666666669</ele><time>2026-04-22T16:34:59.616Z</time></trkpt><trkpt lat="43.5789745" lon="11.2125989"><ele>175.0</ele><time>2026-04-22T16:35:00.616Z</time></trkpt><trkpt lat="43.5791496" lon="11.2125097"><ele>175.0</ele><time>2026-04-22T16:35:01.615Z</time></trkpt><trkpt lat="43.5793182" lon="11.212418"><ele>175.0</ele><time>2026-04-22T16:35:02.616Z</time></trkpt><trkpt lat="43.5794886" lon="11.2123337"><ele>175.0</ele><time>2026-04-22T16:35:03.615Z</time></trkpt><trkpt lat="43.5796521" lon="11.2122537"><ele>174.66666666666669</ele><time>2026-04-22T16:35:04.615Z</time></trkpt><trkpt lat="43.5798042" lon="11.2121846"><ele>174.33333333333334</ele><time>2026-04-22T16:35:05.615Z</time></trkpt><trkpt lat="43.5799527" lon="11.212128"><ele>174.0</ele><time>2026-04-22T16:35:06.616Z</time></trkpt><trkpt lat="43.5801101" lon="11.2120893"><ele>174.0</ele><time>2026-04-22T16:35:07.616Z</time></trkpt><trkpt lat="43.5802735" lon="11.2120583"><ele>174.0</ele><time>2026-04-22T16:35:08.615Z</time></trkpt><trkpt lat="43.5804408" lon="11.2120335"><ele>174.0</ele><time>2026-04-22T16:35:09.615Z</time></trkpt><trkpt lat="43.5806043" lon="11.2120031"><ele>174.0</ele><time>2026-04-22T16:35:10.615Z</time></trkpt><trkpt lat="43.5807617" lon="11.2119715"><ele>174.0</ele><time>2026-04-22T16:35:11.615Z</time></trkpt><trkpt lat="43.580912" lon="11.2119468"><ele>174.0</ele><time>2026-04-22T16:35:12.616Z</time></trkpt><trkpt lat="43.5810584" lon="11.2119376"><ele>174.66666666666666</ele><time>2026-04-22T16:35:13.616Z</time></trkpt><trkpt lat="43.5812091" lon="11.2119572"><ele>175.33333333333331</ele><time>2026-04-22T16:35:14.615Z</time></trkpt><trkpt lat="43.5813611" lon="11.212007"><ele>176.0</ele><time>2026-04-22T16:35:15.616Z</time></trkpt><trkpt lat="43.5815098" lon="11.2120378"><ele>176.0</ele><time>2026-04-22T16:35:16.616Z</time></trkpt><trkpt lat="43.5816645" lon="11.21202"><ele>176.0</ele><time>2026-04-22T16:35:17.615Z</time></trkpt><trkpt lat="43.5818169" lon="11.2119761"><ele>176.0</ele><time>2026-04-22T16:35:18.616Z</time></trkpt><trkpt lat="43.5819712" lon="11.211916"><ele>176.66666666666666</ele><time>2026-04-22T16:35:19.615Z</time></trkpt><trkpt lat="43.582127" lon="11.2118457"><ele>177.33333333333334</ele><time>2026-04-22T16:35:20.616Z</time></trkpt><trkpt lat="43.5822666" lon="11.2117753"><ele>178.0</ele><time>2026-04-22T16:35:21.615Z</time></trkpt><trkpt lat="43.5824036" lon="11.2117087"><ele>178.0</ele><time>2026-04-22T16:35:22.616Z</time></trkpt><trkpt lat="43.5825415" lon="11.2116523"><ele>178.0</ele><time>2026-04-22T16:35:23.615Z</time></trkpt><trkpt lat="43.5826682" lon="11.2116007"><ele>178.0</ele><time>2026-04-22T16:35:24.616Z</time></trkpt><trkpt lat="43.5827798" lon="11.2115537"><ele>178.0</ele><time>2026-04-22T16:35:25.616Z</time></trkpt><trkpt lat="43.5828737" lon="11.2115062"><ele>177.33333333333334</ele><time>2026-04-22T16:35:26.615Z</time></trkpt><trkpt lat="43.5829526" lon="11.2114716"><ele>176.66666666666669</ele><time>2026-04-22T16:35:27.616Z</time></trkpt><trkpt lat="43.583017" lon="11.2114439"><ele>176.0</ele><time>2026-04-22T16:35:28.615Z</time></trkpt><trkpt lat="43.5831094" lon="11.2114101"><ele>175.33333333333334</ele><time>2026-04-22T16:35:30.616Z</time></trkpt><trkpt lat="43.583207" lon="11.2113741"><ele>174.66666666666666</ele><time>2026-04-22T16:35:32.615Z</time></trkpt><trkpt lat="43.5832808" lon="11.2113335"><ele>174.0</ele><time>2026-04-22T16:35:33.616Z</time></trkpt><trkpt lat="43.5833775" lon="11.2112757"><ele>174.0</ele><time>2026-04-22T16:35:34.616Z</time></trkpt><trkpt lat="43.5834868" lon="11.2111966"><ele>174.0</ele><time>2026-04-22T16:35:35.616Z</time></trkpt><trkpt lat="43.5836115" lon="11.2110919"><ele>174.0</ele><time>2026-04-22T16:35:36.615Z</time></trkpt><trkpt lat="43.5837524" lon="11.2109804"><ele>174.0</ele><time>2026-04-22T16:35:37.616Z</time></trkpt><trkpt lat="43.5839097" lon="11.2108467"><ele>174.0</ele><time>2026-04-22T16:35:38.615Z</time></trkpt><trkpt lat="43.5841016" lon="11.2107041"><ele>174.0</ele><time>2026-04-22T16:35:39.616Z</time></trkpt><trkpt lat="43.5842828" lon="11.2105791"><ele>174.0</ele><time>2026-04-22T16:35:40.615Z</time></trkpt><trkpt lat="43.5844758" lon="11.2104616"><ele>173.5</ele><time>2026-04-22T16:35:41.615Z</time></trkpt><trkpt lat="43.5846805" lon="11.2103387"><ele>173.0</ele><time>2026-04-22T16:35:42.615Z</time></trkpt><trkpt lat="43.5849011" lon="11.2101952"><ele>173.0</ele><time>2026-04-22T16:35:43.615Z</time></trkpt><trkpt lat="43.5851096" lon="11.2100512"><ele>173.0</ele><time>2026-04-22T16:35:44.615Z</time></trkpt><trkpt lat="43.5853242" lon="11.2099"><ele>173.66666666666666</ele><time>2026-04-22T16:35:45.616Z</time></trkpt><trkpt lat="43.5855227" lon="11.2097633"><ele>174.33333333333334</ele><time>2026-04-22T16:35:46.616Z</time></trkpt><trkpt lat="43.5856961" lon="11.2096355"><ele>175.0</ele><time>2026-04-22T16:35:47.615Z</time></trkpt><trkpt lat="43.5858503" lon="11.2095208"><ele>175.0</ele><time>2026-04-22T16:35:48.616Z</time></trkpt><trkpt lat="43.5859954" lon="11.2094095"><ele>175.0</ele><time>2026-04-22T16:35:49.616Z</time></trkpt><trkpt lat="43.5861469" lon="11.2092885"><ele>175.0</ele><time>2026-04-22T16:35:50.615Z</time></trkpt><trkpt lat="43.5862957" lon="11.2091666"><ele>174.33333333333334</ele><time>2026-04-22T16:35:51.615Z</time></trkpt><trkpt lat="43.58645" lon="11.2090487"><ele>173.66666666666666</ele><time>2026-04-22T16:35:52.615Z</time></trkpt><trkpt lat="43.5866366" lon="11.2089508"><ele>173.0</ele><time>2026-04-22T16:35:53.615Z</time></trkpt><trkpt lat="43.5868485" lon="11.2088404"><ele>174.66666666666666</ele><time>2026-04-22T16:35:54.616Z</time></trkpt><trkpt lat="43.5870322" lon="11.208729"><ele>176.33333333333334</ele><time>2026-04-22T16:35:55.615Z</time></trkpt><trkpt lat="43.5872066" lon="11.2086203"><ele>178.0</ele><time>2026-04-22T16:35:56.615Z</time></trkpt><trkpt lat="43.5873657" lon="11.2085208"><ele>178.0</ele><time>2026-04-22T16:35:57.616Z</time></trkpt><trkpt lat="43.5875151" lon="11.2084258"><ele>178.0</ele><time>2026-04-22T16:35:58.615Z</time></trkpt><trkpt lat="43.5876456" lon="11.2083424"><ele>178.0</ele><time>2026-04-22T16:35:59.615Z</time></trkpt><trkpt lat="43.587768" lon="11.2082649"><ele>178.0</ele><time>2026-04-22T16:36:00.615Z</time></trkpt><trkpt lat="43.5878883" lon="11.2081902"><ele>177.5</ele><time>2026-04-22T16:36:01.615Z</time></trkpt><trkpt lat="43.5880061" lon="11.2081238"><ele>177.0</ele><time>2026-04-22T16:36:02.615Z</time></trkpt><trkpt lat="43.5881235" lon="11.2080651"><ele>176.5</ele><time>2026-04-22T16:36:03.615Z</time></trkpt><trkpt lat="43.5882463" lon="11.2080103"><ele>176.0</ele><time>2026-04-22T16:36:04.615Z</time></trkpt><trkpt lat="43.5883608" lon="11.207963"><ele>176.0</ele><time>2026-04-22T16:36:05.616Z</time></trkpt><trkpt lat="43.5884848" lon="11.2079145"><ele>176.0</ele><time>2026-04-22T16:36:06.616Z</time></trkpt><trkpt lat="43.5886212" lon="11.2078658"><ele>176.0</ele><time>2026-04-22T16:36:07.616Z</time></trkpt><trkpt lat="43.5887682" lon="11.207805"><ele>176.0</ele><time>2026-04-22T16:36:08.615Z</time></trkpt><trkpt lat="43.5889074" lon="11.2077451"><ele>177.66666666666666</ele><time>2026-04-22T16:36:09.615Z</time></trkpt><trkpt lat="43.5890498" lon="11.2076853"><ele>179.33333333333334</ele><time>2026-04-22T16:36:10.615Z</time></trkpt><trkpt lat="43.5892004" lon="11.2076247"><ele>181.0</ele><time>2026-04-22T16:36:11.615Z</time></trkpt><trkpt lat="43.5893575" lon="11.2075501"><ele>181.0</ele><time>2026-04-22T16:36:12.615Z</time></trkpt><trkpt lat="43.5895099" lon="11.2074488"><ele>181.0</ele><time>2026-04-22T16:36:13.616Z</time></trkpt><trkpt lat="43.589675" lon="11.2072982"><ele>181.0</ele><time>2026-04-22T16:36:14.615Z</time></trkpt><trkpt lat="43.5898336" lon="11.2071189"><ele>179.0</ele><time>2026-04-22T16:36:15.616Z</time></trkpt><trkpt lat="43.5899714" lon="11.2069285"><ele>177.0</ele><time>2026-04-22T16:36:16.616Z</time></trkpt><trkpt lat="43.5901079" lon="11.2067307"><ele>175.0</ele><time>2026-04-22T16:36:17.615Z</time></trkpt><trkpt lat="43.5902418" lon="11.2065413"><ele>174.33333333333334</ele><time>2026-04-22T16:36:18.615Z</time></trkpt><trkpt lat="43.5903634" lon="11.2063526"><ele>173.66666666666666</ele><time>2026-04-22T16:36:19.615Z</time></trkpt><trkpt lat="43.5904767" lon="11.2061766"><ele>173.0</ele><time>2026-04-22T16:36:20.616Z</time></trkpt><trkpt lat="43.5905793" lon="11.2060062"><ele>173.0</ele><time>2026-04-22T16:36:21.616Z</time></trkpt><trkpt lat="43.5906678" lon="11.2058417"><ele>173.0</ele><time>2026-04-22T16:36:22.615Z</time></trkpt><trkpt lat="43.5907572" lon="11.2056883"><ele>173.0</ele><time>2026-04-22T16:36:23.615Z</time></trkpt><trkpt lat="43.590857" lon="11.2055506"><ele>173.0</ele><time>2026-04-22T16:36:24.615Z</time></trkpt><trkpt lat="43.5909786" lon="11.2054359"><ele>171.33333333333331</ele><time>2026-04-22T16:36:25.616Z</time></trkpt><trkpt lat="43.5911092" lon="11.2053299"><ele>169.66666666666666</ele><time>2026-04-22T16:36:26.616Z</time></trkpt><trkpt lat="43.5912478" lon="11.205206"><ele>168.0</ele><time>2026-04-22T16:36:27.616Z</time></trkpt><trkpt lat="43.5914078" lon="11.2050637"><ele>167.66666666666666</ele><time>2026-04-22T16:36:28.615Z</time></trkpt><trkpt lat="43.5915353" lon="11.2048602"><ele>167.33333333333331</ele><time>2026-04-22T16:36:29.616Z</time></trkpt><trkpt lat="43.5916984" lon="11.2046629"><ele>167.0</ele><time>2026-04-22T16:36:30.615Z</time></trkpt><trkpt lat="43.5918667" lon="11.2044608"><ele>164.0</ele><time>2026-04-22T16:36:31.615Z</time></trkpt><trkpt lat="43.592047" lon="11.2042403"><ele>161.0</ele><time>2026-04-22T16:36:32.615Z</time></trkpt><trkpt lat="43.5922413" lon="11.2040053"><ele>159.5</ele><time>2026-04-22T16:36:33.615Z</time></trkpt><trkpt lat="43.5924519" lon="11.2037544"><ele>158.0</ele><time>2026-04-22T16:36:34.615Z</time></trkpt><trkpt lat="43.5926532" lon="11.2035149"><ele>159.5</ele><time>2026-04-22T16:36:35.615Z</time></trkpt><trkpt lat="43.5928469" lon="11.203289"><ele>161.0</ele><time>2026-04-22T16:36:36.615Z</time></trkpt><trkpt lat="43.5930306" lon="11.2030907"><ele>161.33333333333331</ele><time>2026-04-22T16:36:37.615Z</time></trkpt><trkpt lat="43.5932048" lon="11.2029136"><ele>161.66666666666666</ele><time>2026-04-22T16:36:38.616Z</time></trkpt><trkpt lat="43.5933661" lon="11.202745"><ele>162.0</ele><time>2026-04-22T16:36:39.616Z</time></trkpt><trkpt lat="43.5935144" lon="11.2025863"><ele>162.0</ele><time>2026-04-22T16:36:40.615Z</time></trkpt><trkpt lat="43.5936582" lon="11.2024352"><ele>162.0</ele><time>2026-04-22T16:36:41.616Z</time></trkpt><trkpt lat="43.5937891" lon="11.2023015"><ele>162.0</ele><time>2026-04-22T16:36:42.615Z</time></trkpt><trkpt lat="43.5939154" lon="11.2021824"><ele>162.0</ele><time>2026-04-22T16:36:43.616Z</time></trkpt><trkpt lat="43.5940292" lon="11.2020777"><ele>162.0</ele><time>2026-04-22T16:36:44.616Z</time></trkpt><trkpt lat="43.5941237" lon="11.2020052"><ele>162.0</ele><time>2026-04-22T16:36:45.615Z</time></trkpt><trkpt lat="43.5942161" lon="11.2019548"><ele>162.0</ele><time>2026-04-22T16:36:46.615Z</time></trkpt><trkpt lat="43.5943088" lon="11.2019456"><ele>162.0</ele><time>2026-04-22T16:36:47.615Z</time></trkpt><trkpt lat="43.5944189" lon="11.2019664"><ele>160.66666666666666</ele><time>2026-04-22T16:36:48.616Z</time></trkpt><trkpt lat="43.5945477" lon="11.2020137"><ele>159.33333333333331</ele><time>2026-04-22T16:36:49.615Z</time></trkpt><trkpt lat="43.5947048" lon="11.2020762"><ele>158.0</ele><time>2026-04-22T16:36:50.615Z</time></trkpt><trkpt lat="43.5948651" lon="11.2021423"><ele>158.0</ele><time>2026-04-22T16:36:51.616Z</time></trkpt><trkpt lat="43.5950419" lon="11.2022211"><ele>158.0</ele><time>2026-04-22T16:36:52.615Z</time></trkpt><trkpt lat="43.5952249" lon="11.2023078"><ele>158.0</ele><time>2026-04-22T16:36:53.615Z</time></trkpt><trkpt lat="43.5953968" lon="11.2023869"><ele>160.66666666666666</ele><time>2026-04-22T16:36:54.615Z</time></trkpt><trkpt lat="43.5955663" lon="11.2024472"><ele>163.33333333333334</ele><time>2026-04-22T16:36:55.615Z</time></trkpt><trkpt lat="43.5957378" lon="11.2024622"><ele>166.0</ele><time>2026-04-22T16:36:56.615Z</time></trkpt><trkpt lat="43.5959077" lon="11.2024559"><ele>166.0</ele><time>2026-04-22T16:36:57.615Z</time></trkpt><trkpt lat="43.5960693" lon="11.2024358"><ele>166.0</ele><time>2026-04-22T16:36:58.616Z</time></trkpt><trkpt lat="43.5962187" lon="11.202419"><ele>166.0</ele><time>2026-04-22T16:36:59.615Z</time></trkpt><trkpt lat="43.5963601" lon="11.2023835"><ele>164.66666666666669</ele><time>2026-04-22T16:37:00.615Z</time></trkpt><trkpt lat="43.5964914" lon="11.202309"><ele>163.33333333333334</ele><time>2026-04-22T16:37:01.616Z</time></trkpt><trkpt lat="43.5966226" lon="11.2021956"><ele>162.0</ele><time>2026-04-22T16:37:02.616Z</time></trkpt><trkpt lat="43.596747" lon="11.2020385"><ele>162.0</ele><time>2026-04-22T16:37:03.616Z</time></trkpt><trkpt lat="43.596882" lon="11.2018577"><ele>162.0</ele><time>2026-04-22T16:37:04.615Z</time></trkpt><trkpt lat="43.5970138" lon="11.2016767"><ele>162.0</ele><time>2026-04-22T16:37:05.616Z</time></trkpt><trkpt lat="43.5971415" lon="11.2014907"><ele>163.0</ele><time>2026-04-22T16:37:06.616Z</time></trkpt><trkpt lat="43.5972636" lon="11.2012913"><ele>164.0</ele><time>2026-04-22T16:37:07.616Z</time></trkpt><trkpt lat="43.5973788" lon="11.2010708"><ele>165.0</ele><time>2026-04-22T16:37:08.615Z</time></trkpt><trkpt lat="43.5974988" lon="11.200826"><ele>165.0</ele><time>2026-04-22T16:37:09.616Z</time></trkpt><trkpt lat="43.5976245" lon="11.2005792"><ele>165.0</ele><time>2026-04-22T16:37:10.615Z</time></trkpt><trkpt lat="43.5977438" lon="11.2003464"><ele>165.0</ele><time>2026-04-22T16:37:11.615Z</time></trkpt><trkpt lat="43.5978564" lon="11.200129"><ele>165.0</ele><time>2026-04-22T16:37:12.615Z</time></trkpt><trkpt lat="43.5979948" lon="11.1999268"><ele>165.0</ele><time>2026-04-22T16:37:13.616Z</time></trkpt><trkpt lat="43.5981408" lon="11.1997254"><ele>165.0</ele><time>2026-04-22T16:37:14.615Z</time></trkpt><trkpt lat="43.5982637" lon="11.1995453"><ele>164.66666666666666</ele><time>2026-04-22T16:37:15.615Z</time></trkpt><trkpt lat="43.598396" lon="11.1993949"><ele>164.33333333333331</ele><time>2026-04-22T16:37:16.615Z</time></trkpt><trkpt lat="43.5985532" lon="11.1992652"><ele>164.0</ele><time>2026-04-22T16:37:17.615Z</time></trkpt><trkpt lat="43.5987224" lon="11.199153"><ele>164.0</ele><time>2026-04-22T16:37:18.615Z</time></trkpt><trkpt lat="43.598907" lon="11.1990297"><ele>164.0</ele><time>2026-04-22T16:37:19.615Z</time></trkpt><trkpt lat="43.5990874" lon="11.198891"><ele>164.0</ele><time>2026-04-22T16:37:20.615Z</time></trkpt><trkpt lat="43.5992628" lon="11.1987494"><ele>164.0</ele><time>2026-04-22T16:37:21.615Z</time></trkpt><trkpt lat="43.5994349" lon="11.1986123"><ele>164.0</ele><time>2026-04-22T16:37:22.615Z</time></trkpt><trkpt lat="43.5995894" lon="11.198487"><ele>164.0</ele><time>2026-04-22T16:37:23.616Z</time></trkpt><trkpt lat="43.5997365" lon="11.1983654"><ele>164.0</ele><time>2026-04-22T16:37:24.615Z</time></trkpt><trkpt lat="43.5998704" lon="11.1982185"><ele>164.0</ele><time>2026-04-22T16:37:25.616Z</time></trkpt><trkpt lat="43.5999932" lon="11.1980712"><ele>164.0</ele><time>2026-04-22T16:37:26.615Z</time></trkpt><trkpt lat="43.600104" lon="11.1979346"><ele>162.33333333333331</ele><time>2026-04-22T16:37:27.615Z</time></trkpt><trkpt lat="43.6002307" lon="11.1978125"><ele>160.66666666666666</ele><time>2026-04-22T16:37:28.615Z</time></trkpt><trkpt lat="43.6003747" lon="11.1977141"><ele>159.0</ele><time>2026-04-22T16:37:29.616Z</time></trkpt><trkpt lat="43.6005393" lon="11.1976265"><ele>159.0</ele><time>2026-04-22T16:37:30.616Z</time></trkpt><trkpt lat="43.6007188" lon="11.1975398"><ele>159.0</ele><time>2026-04-22T16:37:31.615Z</time></trkpt><trkpt lat="43.6008909" lon="11.1974473"><ele>159.0</ele><time>2026-04-22T16:37:32.615Z</time></trkpt><trkpt lat="43.6010604" lon="11.1973494"><ele>158.66666666666666</ele><time>2026-04-22T16:37:33.616Z</time></trkpt><trkpt lat="43.6012295" lon="11.197233"><ele>158.33333333333331</ele><time>2026-04-22T16:37:34.616Z</time></trkpt><trkpt lat="43.6013902" lon="11.1970975"><ele>158.0</ele><time>2026-04-22T16:37:35.616Z</time></trkpt><trkpt lat="43.6015454" lon="11.1969405"><ele>158.0</ele><time>2026-04-22T16:37:36.615Z</time></trkpt><trkpt lat="43.601689" lon="11.1967886"><ele>158.0</ele><time>2026-04-22T16:37:37.615Z</time></trkpt><trkpt lat="43.6018331" lon="11.1966525"><ele>158.0</ele><time>2026-04-22T16:37:38.615Z</time></trkpt><trkpt lat="43.6019901" lon="11.1965287"><ele>156.66666666666666</ele><time>2026-04-22T16:37:39.616Z</time></trkpt><trkpt lat="43.6021629" lon="11.1963997"><ele>155.33333333333334</ele><time>2026-04-22T16:37:40.615Z</time></trkpt><trkpt lat="43.6023361" lon="11.1962744"><ele>154.0</ele><time>2026-04-22T16:37:41.615Z</time></trkpt><trkpt lat="43.6025201" lon="11.1961399"><ele>154.0</ele><time>2026-04-22T16:37:42.616Z</time></trkpt><trkpt lat="43.6027227" lon="11.1959883"><ele>154.0</ele><time>2026-04-22T16:37:43.615Z</time></trkpt><trkpt lat="43.6029234" lon="11.1958341"><ele>153.66666666666669</ele><time>2026-04-22T16:37:44.615Z</time></trkpt><trkpt lat="43.6031165" lon="11.1956874"><ele>153.33333333333334</ele><time>2026-04-22T16:37:45.616Z</time></trkpt><trkpt lat="43.6033125" lon="11.1955604"><ele>153.0</ele><time>2026-04-22T16:37:46.615Z</time></trkpt><trkpt lat="43.6035116" lon="11.1954443"><ele>152.0</ele><time>2026-04-22T16:37:47.616Z</time></trkpt><trkpt lat="43.603718" lon="11.1953398"><ele>151.0</ele><time>2026-04-22T16:37:48.616Z</time></trkpt><trkpt lat="43.603933" lon="11.1952497"><ele>150.0</ele><time>2026-04-22T16:37:49.615Z</time></trkpt><trkpt lat="43.6041524" lon="11.1951727"><ele>150.0</ele><time>2026-04-22T16:37:50.615Z</time></trkpt><trkpt lat="43.6043689" lon="11.1951027"><ele>150.0</ele><time>2026-04-22T16:37:51.615Z</time></trkpt><trkpt lat="43.6045843" lon="11.1950308"><ele>150.0</ele><time>2026-04-22T16:37:52.615Z</time></trkpt><trkpt lat="43.6048061" lon="11.1949537"><ele>149.66666666666666</ele><time>2026-04-22T16:37:53.615Z</time></trkpt><trkpt lat="43.6050158" lon="11.1948749"><ele>149.33333333333331</ele><time>2026-04-22T16:37:54.616Z</time></trkpt><trkpt lat="43.6052087" lon="11.1947825"><ele>149.0</ele><time>2026-04-22T16:37:55.615Z</time></trkpt><trkpt lat="43.6053948" lon="11.1946793"><ele>149.0</ele><time>2026-04-22T16:37:56.615Z</time></trkpt><trkpt lat="43.6055799" lon="11.1945808"><ele>149.0</ele><time>2026-04-22T16:37:57.615Z</time></trkpt><trkpt lat="43.6057588" lon="11.1944844"><ele>149.0</ele><time>2026-04-22T16:37:58.615Z</time></trkpt><trkpt lat="43.6059226" lon="11.1943952"><ele>149.0</ele><time>2026-04-22T16:37:59.615Z</time></trkpt><trkpt lat="43.6060833" lon="11.1943042"><ele>149.0</ele><time>2026-04-22T16:38:00.616Z</time></trkpt><trkpt lat="43.6062397" lon="11.1942192"><ele>149.0</ele><time>2026-04-22T16:38:01.616Z</time></trkpt><trkpt lat="43.6063964" lon="11.1941499"><ele>150.66666666666666</ele><time>2026-04-22T16:38:02.615Z</time></trkpt><trkpt lat="43.6065597" lon="11.194126"><ele>152.33333333333334</ele><time>2026-04-22T16:38:03.616Z</time></trkpt><trkpt lat="43.6067402" lon="11.1941446"><ele>154.0</ele><time>2026-04-22T16:38:04.615Z</time></trkpt><trkpt lat="43.6069113" lon="11.1941811"><ele>154.33333333333334</ele><time>2026-04-22T16:38:05.615Z</time></trkpt><trkpt lat="43.6070765" lon="11.1942152"><ele>154.66666666666666</ele><time>2026-04-22T16:38:06.615Z</time></trkpt><trkpt lat="43.6072468" lon="11.1942368"><ele>155.0</ele><time>2026-04-22T16:38:07.615Z</time></trkpt><trkpt lat="43.6074055" lon="11.1942517"><ele>155.0</ele><time>2026-04-22T16:38:08.616Z</time></trkpt><trkpt lat="43.6075516" lon="11.1942603"><ele>155.0</ele><time>2026-04-22T16:38:09.616Z</time></trkpt><trkpt lat="43.6076907" lon="11.1942649"><ele>155.0</ele><time>2026-04-22T16:38:10.615Z</time></trkpt><trkpt lat="43.6078227" lon="11.1942652"><ele>155.0</ele><time>2026-04-22T16:38:11.616Z</time></trkpt><trkpt lat="43.6079384" lon="11.1942686"><ele>155.33333333333331</ele><time>2026-04-22T16:38:12.616Z</time></trkpt><trkpt lat="43.6080348" lon="11.1942635"><ele>155.66666666666666</ele><time>2026-04-22T16:38:13.615Z</time></trkpt><trkpt lat="43.6081162" lon="11.1942502"><ele>156.0</ele><time>2026-04-22T16:38:14.616Z</time></trkpt><trkpt lat="43.6081802" lon="11.1942376"><ele>156.33333333333334</ele><time>2026-04-22T16:38:15.616Z</time></trkpt><trkpt lat="43.6082501" lon="11.1942252"><ele>156.66666666666669</ele><time>2026-04-22T16:38:17.616Z</time></trkpt><trkpt lat="43.6083066" lon="11.1942849"><ele>157.0</ele><time>2026-04-22T16:38:20.615Z</time></trkpt><trkpt lat="43.6082671" lon="11.1943986"><ele>156.99999999999997</ele><time>2026-04-22T16:38:22.616Z</time></trkpt><trkpt lat="43.6082145" lon="11.1944545"><ele>157.0</ele><time>2026-04-22T16:38:23.615Z</time></trkpt><trkpt lat="43.6081566" lon="11.1945087"><ele>157.0</ele><time>2026-04-22T16:38:24.616Z</time></trkpt><trkpt lat="43.6081081" lon="11.1945681"><ele>157.0</ele><time>2026-04-22T16:38:25.615Z</time></trkpt><trkpt lat="43.6080472" lon="11.19467"><ele>157.0</ele><time>2026-04-22T16:38:27.615Z</time></trkpt><trkpt lat="43.6080137" lon="11.194755"><ele>156.99999999999997</ele><time>2026-04-22T16:38:29.615Z</time></trkpt><trkpt lat="43.6080089" lon="11.194849"><ele>157.0</ele><time>2026-04-22T16:38:45.616Z</time></trkpt><trkpt lat="43.6080368" lon="11.1950053"><ele>159.5</ele><time>2026-04-22T16:38:47.615Z</time></trkpt><trkpt lat="43.6080603" lon="11.1951275"><ele>162.0</ele><time>2026-04-22T16:38:48.615Z</time></trkpt><trkpt lat="43.6080909" lon="11.1952735"><ele>164.5</ele><time>2026-04-22T16:38:49.615Z</time></trkpt><trkpt lat="43.6081298" lon="11.195447"><ele>167.0</ele><time>2026-04-22T16:38:50.616Z</time></trkpt><trkpt lat="43.608166" lon="11.1956248"><ele>168.0</ele><time>2026-04-22T16:38:51.615Z</time></trkpt><trkpt lat="43.6082021" lon="11.1957974"><ele>169.0</ele><time>2026-04-22T16:38:52.616Z</time></trkpt><trkpt lat="43.608229" lon="11.1959558"><ele>170.0</ele><time>2026-04-22T16:38:53.615Z</time></trkpt><trkpt lat="43.6082468" lon="11.1961298"><ele>171.0</ele><time>2026-04-22T16:38:54.615Z</time></trkpt><trkpt lat="43.6082655" lon="11.1962698"><ele>171.0</ele><time>2026-04-22T16:38:55.615Z</time></trkpt><trkpt lat="43.6082884" lon="11.1964089"><ele>171.0</ele><time>2026-04-22T16:38:56.615Z</time></trkpt><trkpt lat="43.6082999" lon="11.1965083"><ele>171.0</ele><time>2026-04-22T16:38:57.615Z</time></trkpt><trkpt lat="43.6083144" lon="11.1966609"><ele>171.0</ele><time>2026-04-22T16:38:59.615Z</time></trkpt><trkpt lat="43.6083451" lon="11.1967675"><ele>171.0</ele><time>2026-04-22T16:39:00.616Z</time></trkpt><trkpt lat="43.6084179" lon="11.1968918"><ele>171.60000000000002</ele><time>2026-04-22T16:39:02.615Z</time></trkpt><trkpt lat="43.6085041" lon="11.1969833"><ele>172.2</ele><time>2026-04-22T16:39:04.616Z</time></trkpt><trkpt lat="43.6086245" lon="11.1970168"><ele>172.8</ele><time>2026-04-22T16:39:06.616Z</time></trkpt><trkpt lat="43.60869" lon="11.1969654"><ele>173.39999999999998</ele><time>2026-04-22T16:39:07.615Z</time></trkpt><trkpt lat="43.6087668" lon="11.1968893"><ele>174.0</ele><time>2026-04-22T16:39:08.615Z</time></trkpt><trkpt lat="43.6088345" lon="11.1968031"><ele>177.39999999999998</ele><time>2026-04-22T16:39:09.615Z</time></trkpt><trkpt lat="43.6088952" lon="11.1967214"><ele>180.8</ele><time>2026-04-22T16:39:10.616Z</time></trkpt><trkpt lat="43.6089568" lon="11.1966356"><ele>184.2</ele><time>2026-04-22T16:39:11.615Z</time></trkpt><trkpt lat="43.6090053" lon="11.1965555"><ele>187.60000000000002</ele><time>2026-04-22T16:39:12.615Z</time></trkpt><trkpt lat="43.6090269" lon="11.1963931"><ele>191.0</ele><time>2026-04-22T16:39:14.615Z</time></trkpt><trkpt lat="43.6090304" lon="11.1962022"><ele>191.0</ele><time>2026-04-22T16:39:16.615Z</time></trkpt><trkpt lat="43.6090139" lon="11.196077"><ele>191.0</ele><time>2026-04-22T16:39:17.615Z</time></trkpt><trkpt lat="43.6090056" lon="11.195969"><ele>191.0</ele><time>2026-04-22T16:39:18.615Z</time></trkpt><trkpt lat="43.6090026" lon="11.1958625"><ele>191.0</ele><time>2026-04-22T16:39:19.615Z</time></trkpt><trkpt lat="43.609013" lon="11.1957522"><ele>191.0</ele><time>2026-04-22T16:39:20.616Z</time></trkpt><trkpt lat="43.6090164" lon="11.1956578"><ele>191.0</ele><time>2026-04-22T16:39:21.616Z</time></trkpt><trkpt lat="43.6091503" lon="11.1955849"><ele>190.0</ele><time>2026-04-22T16:39:23.615Z</time></trkpt><trkpt lat="43.6092697" lon="11.1955276"><ele>189.0</ele><time>2026-04-22T16:39:25.616Z</time></trkpt><trkpt lat="43.6093327" lon="11.19551"><ele>188.0</ele><time>2026-04-22T16:39:26.615Z</time></trkpt><trkpt lat="43.6094022" lon="11.1954906"><ele>187.0</ele><time>2026-04-22T16:39:27.616Z</time></trkpt><trkpt lat="43.6094784" lon="11.1954828"><ele>186.0</ele><time>2026-04-22T16:39:28.616Z</time></trkpt><trkpt lat="43.609559" lon="11.1954907"><ele>185.0</ele><time>2026-04-22T16:39:29.615Z</time></trkpt><trkpt lat="43.6096233" lon="11.1955233"><ele>185.0</ele><time>2026-04-22T16:39:30.616Z</time></trkpt><trkpt lat="43.6096688" lon="11.1955926"><ele>185.0</ele><time>2026-04-22T16:39:31.616Z</time></trkpt><trkpt lat="43.6096927" lon="11.1956833"><ele>185.0</ele><time>2026-04-22T16:39:32.616Z</time></trkpt><trkpt lat="43.6096987" lon="11.1957915"><ele>185.0</ele><time>2026-04-22T16:39:33.615Z</time></trkpt><trkpt lat="43.6096972" lon="11.1959181"><ele>185.0</ele><time>2026-04-22T16:39:34.615Z</time></trkpt><trkpt lat="43.6096917" lon="11.1960425"><ele>185.0</ele><time>2026-04-22T16:39:35.615Z</time></trkpt><trkpt lat="43.6096937" lon="11.196162"><ele>187.2</ele><time>2026-04-22T16:39:36.616Z</time></trkpt><trkpt lat="43.6096973" lon="11.1962726"><ele>189.4</ele><time>2026-04-22T16:39:37.615Z</time></trkpt><trkpt lat="43.6097045" lon="11.1963673"><ele>191.60000000000002</ele><time>2026-04-22T16:39:38.616Z</time></trkpt><trkpt lat="43.6097239" lon="11.1965308"><ele>193.8</ele><time>2026-04-22T16:39:40.615Z</time></trkpt><trkpt lat="43.6097153" lon="11.1966599"><ele>196.0</ele><time>2026-04-22T16:39:42.616Z</time></trkpt><trkpt lat="43.6096749" lon="11.1967763"><ele>198.75</ele><time>2026-04-22T16:39:44.615Z</time></trkpt><trkpt lat="43.6095975" lon="11.1968842"><ele>201.5</ele><time>2026-04-22T16:39:46.615Z</time></trkpt><trkpt lat="43.6095196" lon="11.1970214"><ele>204.25</ele><time>2026-04-22T16:39:48.616Z</time></trkpt><trkpt lat="43.6095056" lon="11.1971904"><ele>207.0</ele><time>2026-04-22T16:39:50.615Z</time></trkpt><trkpt lat="43.6095518" lon="11.1973298"><ele>211.0</ele><time>2026-04-22T16:39:52.615Z</time></trkpt><trkpt lat="43.6096319" lon="11.1974623"><ele>215.0</ele><time>2026-04-22T16:39:54.616Z</time></trkpt><trkpt lat="43.6096724" lon="11.1976045"><ele>219.0</ele><time>2026-04-22T16:39:55.615Z</time></trkpt><trkpt lat="43.6097614" lon="11.1977056"><ele>223.0</ele><time>2026-04-22T16:39:57.615Z</time></trkpt><trkpt lat="43.6098304" lon="11.197764"><ele>227.0</ele><time>2026-04-22T16:39:58.615Z</time></trkpt><trkpt lat="43.6099079" lon="11.1978116"><ele>227.0</ele><time>2026-04-22T16:39:59.615Z</time></trkpt><trkpt lat="43.610007" lon="11.1978398"><ele>227.0</ele><time>2026-04-22T16:40:00.616Z</time></trkpt><trkpt lat="43.6101134" lon="11.1978445"><ele>227.0</ele><time>2026-04-22T16:40:01.615Z</time></trkpt><trkpt lat="43.6101898" lon="11.1978418"><ele>227.0</ele><time>2026-04-22T16:40:02.615Z</time></trkpt><trkpt lat="43.6102377" lon="11.1977823"><ele>227.0</ele><time>2026-04-22T16:40:04.615Z</time></trkpt><trkpt lat="43.6101422" lon="11.1976016"><ele>227.0</ele><time>2026-04-22T16:40:07.615Z</time></trkpt><trkpt lat="43.6102064" lon="11.197731"><ele>227.0</ele><time>2026-04-22T16:40:09.615Z</time></trkpt><trkpt lat="43.610298" lon="11.1978321"><ele>227.0</ele><time>2026-04-22T16:40:11.615Z</time></trkpt><trkpt lat="43.6104061" lon="11.197907"><ele>227.0</ele><time>2026-04-22T16:40:13.616Z</time></trkpt><trkpt lat="43.6104653" lon="11.1979433"><ele>227.0</ele><time>2026-04-22T16:40:14.615Z</time></trkpt><trkpt lat="43.6105219" lon="11.1979814"><ele>227.0</ele><time>2026-04-22T16:40:15.615Z</time></trkpt><trkpt lat="43.6106239" lon="11.198048"><ele>227.0</ele><time>2026-04-22T16:40:17.615Z</time></trkpt><trkpt lat="43.610722" lon="11.1981394"><ele>227.0</ele><time>2026-04-22T16:40:19.615Z</time></trkpt><trkpt lat="43.6107862" lon="11.1982387"><ele>227.0</ele><time>2026-04-22T16:40:21.616Z</time></trkpt><trkpt lat="43.610829" lon="11.1983588"><ele>227.0</ele><time>2026-04-22T16:40:23.616Z</time></trkpt><trkpt lat="43.6108649" lon="11.1984932"><ele>229.83333333333334</ele><time>2026-04-22T16:40:25.615Z</time></trkpt><trkpt lat="43.610906" lon="11.1985908"><ele>232.66666666666669</ele><time>2026-04-22T16:40:27.615Z</time></trkpt><trkpt lat="43.6109601" lon="11.1986681"><ele>235.5</ele><time>2026-04-22T16:40:29.616Z</time></trkpt><trkpt lat="43.611014" lon="11.1987414"><ele>238.33333333333331</ele><time>2026-04-22T16:40:31.616Z</time></trkpt><trkpt lat="43.6110697" lon="11.1988358"><ele>241.16666666666666</ele><time>2026-04-22T16:40:33.616Z</time></trkpt><trkpt lat="43.611109" lon="11.1989185"><ele>244.0</ele><time>2026-04-22T16:40:35.616Z</time></trkpt><trkpt lat="43.6111466" lon="11.1990119"><ele>246.33333333333331</ele><time>2026-04-22T16:40:37.615Z</time></trkpt><trkpt lat="43.6111969" lon="11.1991187"><ele>248.66666666666666</ele><time>2026-04-22T16:40:39.615Z</time></trkpt><trkpt lat="43.6112514" lon="11.1991885"><ele>251.0</ele><time>2026-04-22T16:40:41.615Z</time></trkpt><trkpt lat="43.6113184" lon="11.199253"><ele>253.33333333333331</ele><time>2026-04-22T16:40:43.615Z</time></trkpt><trkpt lat="43.6113887" lon="11.1993258"><ele>255.66666666666666</ele><time>2026-04-22T16:40:45.615Z</time></trkpt><trkpt lat="43.6114434" lon="11.1993988"><ele>258.0</ele><time>2026-04-22T16:40:47.616Z</time></trkpt><trkpt lat="43.6114812" lon="11.1994694"><ele>258.0</ele><time>2026-04-22T16:40:49.615Z</time></trkpt><trkpt lat="43.611539" lon="11.199576"><ele>258.0</ele><time>2026-04-22T16:40:52.615Z</time></trkpt><trkpt lat="43.6116011" lon="11.1996482"><ele>258.0</ele><time>2026-04-22T16:40:54.615Z</time></trkpt><trkpt lat="43.6116565" lon="11.1997384"><ele>258.0</ele><time>2026-04-22T16:40:56.616Z</time></trkpt><trkpt lat="43.6117168" lon="11.1998405"><ele>258.0</ele><time>2026-04-22T16:40:58.616Z</time></trkpt><trkpt lat="43.6117914" lon="11.1999368"><ele>259.6</ele><time>2026-04-22T16:41:00.616Z</time></trkpt><trkpt lat="43.6118692" lon="11.200018"><ele>261.20000000000005</ele><time>2026-04-22T16:41:02.616Z</time></trkpt><trkpt lat="43.6119595" lon="11.2001035"><ele>262.8</ele><time>2026-04-22T16:41:04.616Z</time></trkpt><trkpt lat="43.6120519" lon="11.2002015"><ele>264.40000000000003</ele><time>2026-04-22T16:41:06.615Z</time></trkpt><trkpt lat="43.6121401" lon="11.2003036"><ele>266.0</ele><time>2026-04-22T16:41:08.615Z</time></trkpt><trkpt lat="43.6122356" lon="11.2004118"><ele>267.0</ele><time>2026-04-22T16:41:10.615Z</time></trkpt><trkpt lat="43.6123271" lon="11.2005189"><ele>268.0</ele><time>2026-04-22T16:41:12.616Z</time></trkpt><trkpt lat="43.6124025" lon="11.2006078"><ele>269.0</ele><time>2026-04-22T16:41:14.615Z</time></trkpt><trkpt lat="43.612477" lon="11.2006955"><ele>270.0</ele><time>2026-04-22T16:41:16.616Z</time></trkpt><trkpt lat="43.6125567" lon="11.2007845"><ele>271.0</ele><time>2026-04-22T16:41:18.615Z</time></trkpt><trkpt lat="43.6126441" lon="11.200868"><ele>273.75</ele><time>2026-04-22T16:41:20.616Z</time></trkpt><trkpt lat="43.6127358" lon="11.2009432"><ele>276.5</ele><time>2026-04-22T16:41:22.615Z</time></trkpt><trkpt lat="43.6128373" lon="11.2010181"><ele>279.25</ele><time>2026-04-22T16:41:24.615Z</time></trkpt><trkpt lat="43.6129467" lon="11.2010888"><ele>282.0</ele><time>2026-04-22T16:41:26.615Z</time></trkpt><trkpt lat="43.613044" lon="11.2011519"><ele>283.0</ele><time>2026-04-22T16:41:28.615Z</time></trkpt><trkpt lat="43.6131124" lon="11.2011974"><ele>284.0</ele><time>2026-04-22T16:41:30.616Z</time></trkpt><trkpt lat="43.6131767" lon="11.2012307"><ele>285.0</ele><time>2026-04-22T16:41:32.616Z</time></trkpt><trkpt lat="43.6132609" lon="11.2012888"><ele>286.0</ele><time>2026-04-22T16:41:54.616Z</time></trkpt><trkpt lat="43.6133499" lon="11.201342"><ele>287.0</ele><time>2026-04-22T16:41:56.616Z</time></trkpt><trkpt lat="43.6134388" lon="11.2014082"><ele>288.0</ele><time>2026-04-22T16:41:58.615Z</time></trkpt><trkpt lat="43.6135165" lon="11.2014664"><ele>288.5</ele><time>2026-04-22T16:42:00.616Z</time></trkpt><trkpt lat="43.6135788" lon="11.2015197"><ele>289.0</ele><time>2026-04-22T16:42:02.616Z</time></trkpt><trkpt lat="43.6136652" lon="11.2015645"><ele>289.5</ele><time>2026-04-22T16:42:05.616Z</time></trkpt><trkpt lat="43.6137538" lon="11.2015368"><ele>290.0</ele><time>2026-04-22T16:42:07.615Z</time></trkpt><trkpt lat="43.6138255" lon="11.2014953"><ele>290.5</ele><time>2026-04-22T16:42:09.615Z</time></trkpt><trkpt lat="43.6139133" lon="11.2015258"><ele>291.0</ele><time>2026-04-22T16:42:13.616Z</time></trkpt><trkpt lat="43.6140045" lon="11.2016359"><ele>291.2857142857143</ele><time>2026-04-22T16:42:15.616Z</time></trkpt><trkpt lat="43.614044" lon="11.2017111"><ele>291.57142857142856</ele><time>2026-04-22T16:42:16.615Z</time></trkpt><trkpt lat="43.6140796" lon="11.2017896"><ele>291.85714285714283</ele><time>2026-04-22T16:42:17.615Z</time></trkpt><trkpt lat="43.6141185" lon="11.2018643"><ele>292.1428571428571</ele><time>2026-04-22T16:42:18.615Z</time></trkpt><trkpt lat="43.6141637" lon="11.2019383"><ele>292.42857142857144</ele><time>2026-04-22T16:42:19.615Z</time></trkpt><trkpt lat="43.6142164" lon="11.2020123"><ele>292.71428571428567</ele><time>2026-04-22T16:42:20.615Z</time></trkpt><trkpt lat="43.6142695" lon="11.2020862"><ele>293.0</ele><time>2026-04-22T16:42:21.616Z</time></trkpt><trkpt lat="43.6143268" lon="11.2021593"><ele>293.0</ele><time>2026-04-22T16:42:22.615Z</time></trkpt><trkpt lat="43.6143976" lon="11.2022461"><ele>293.0</ele><time>2026-04-22T16:42:23.616Z</time></trkpt><trkpt lat="43.6144781" lon="11.2023469"><ele>293.0</ele><time>2026-04-22T16:42:24.615Z</time></trkpt><trkpt lat="43.6145664" lon="11.2024632"><ele>293.0</ele><time>2026-04-22T16:42:25.615Z</time></trkpt><trkpt lat="43.6146722" lon="11.2026087"><ele>292.25</ele><time>2026-04-22T16:42:26.615Z</time></trkpt><trkpt lat="43.6147868" lon="11.2027632"><ele>291.5</ele><time>2026-04-22T16:42:27.616Z</time></trkpt><trkpt lat="43.6148957" lon="11.2029036"><ele>290.75</ele><time>2026-04-22T16:42:28.615Z</time></trkpt><trkpt lat="43.614999" lon="11.2030262"><ele>290.0</ele><time>2026-04-22T16:42:29.615Z</time></trkpt><trkpt lat="43.6150941" lon="11.2031411"><ele>289.0</ele><time>2026-04-22T16:42:30.616Z</time></trkpt><trkpt lat="43.6151846" lon="11.2032493"><ele>288.0</ele><time>2026-04-22T16:42:31.615Z</time></trkpt><trkpt lat="43.6152655" lon="11.2033194"><ele>287.0</ele><time>2026-04-22T16:42:32.615Z</time></trkpt><trkpt lat="43.6153487" lon="11.2034121"><ele>286.0</ele><time>2026-04-22T16:42:33.616Z</time></trkpt><trkpt lat="43.6154784" lon="11.2035363"><ele>286.0</ele><time>2026-04-22T16:42:36.615Z</time></trkpt><trkpt lat="43.6155307" lon="11.2035959"><ele>286.0</ele><time>2026-04-22T16:42:37.615Z</time></trkpt><trkpt lat="43.6155764" lon="11.2036679"><ele>286.0</ele><time>2026-04-22T16:42:38.615Z</time></trkpt><trkpt lat="43.6155072" lon="11.2034376"><ele>286.0</ele><time>2026-04-22T16:42:41.616Z</time></trkpt><trkpt lat="43.6155564" lon="11.203502"><ele>286.0</ele><time>2026-04-22T16:42:42.615Z</time></trkpt><trkpt lat="43.6156074" lon="11.2035643"><ele>285.99999999999994</ele><time>2026-04-22T16:42:43.615Z</time></trkpt><trkpt lat="43.6156581" lon="11.2036274"><ele>286.0</ele><time>2026-04-22T16:42:44.615Z</time></trkpt><trkpt lat="43.6157116" lon="11.203698"><ele>286.0</ele><time>2026-04-22T16:42:45.615Z</time></trkpt><trkpt lat="43.6157662" lon="11.2037682"><ele>286.0</ele><time>2026-04-22T16:42:46.615Z</time></trkpt><trkpt lat="43.6158218" lon="11.2038421"><ele>286.0</ele><time>2026-04-22T16:42:47.615Z</time></trkpt><trkpt lat="43.6158737" lon="11.2039134"><ele>285.99999999999994</ele><time>2026-04-22T16:42:48.616Z</time></trkpt><trkpt lat="43.6159199" lon="11.2039802"><ele>286.0</ele><time>2026-04-22T16:42:49.616Z</time></trkpt><trkpt lat="43.6159607" lon="11.2040492"><ele>287.8</ele><time>2026-04-22T16:42:50.615Z</time></trkpt><trkpt lat="43.6160395" lon="11.2041895"><ele>289.6</ele><time>2026-04-22T16:42:52.616Z</time></trkpt><trkpt lat="43.6160824" lon="11.2042655"><ele>291.4</ele><time>2026-04-22T16:42:53.616Z</time></trkpt><trkpt lat="43.6161494" lon="11.2043791"><ele>293.2</ele><time>2026-04-22T16:42:55.616Z</time></trkpt><trkpt lat="43.616129" lon="11.204518"><ele>295.0</ele><time>2026-04-22T16:43:54.614Z</time></trkpt><trkpt lat="43.616065" lon="11.2045717"><ele>295.0</ele><time>2026-04-22T16:43:55.615Z</time></trkpt><trkpt lat="43.6159919" lon="11.2046064"><ele>295.0</ele><time>2026-04-22T16:43:56.615Z</time></trkpt><trkpt lat="43.6159078" lon="11.2046704"><ele>295.0</ele><time>2026-04-22T16:43:57.614Z</time></trkpt><trkpt lat="43.6158196" lon="11.2047395"><ele>295.0</ele><time>2026-04-22T16:43:58.615Z</time></trkpt><trkpt lat="43.6157227" lon="11.2048105"><ele>295.0</ele><time>2026-04-22T16:43:59.614Z</time></trkpt><trkpt lat="43.6156278" lon="11.2048834"><ele>294.75</ele><time>2026-04-22T16:44:00.614Z</time></trkpt><trkpt lat="43.6155292" lon="11.2049702"><ele>294.5</ele><time>2026-04-22T16:44:01.615Z</time></trkpt><trkpt lat="43.6154317" lon="11.2050592"><ele>294.25</ele><time>2026-04-22T16:44:02.615Z</time></trkpt><trkpt lat="43.6153287" lon="11.2051493"><ele>294.0</ele><time>2026-04-22T16:44:03.614Z</time></trkpt><trkpt lat="43.6152169" lon="11.2052358"><ele>294.0</ele><time>2026-04-22T16:44:04.614Z</time></trkpt><trkpt lat="43.615107" lon="11.2053215"><ele>294.0</ele><time>2026-04-22T16:44:05.614Z</time></trkpt><trkpt lat="43.6149997" lon="11.2054041"><ele>294.0</ele><time>2026-04-22T16:44:06.615Z</time></trkpt><trkpt lat="43.6148942" lon="11.2054904"><ele>294.0</ele><time>2026-04-22T16:44:07.614Z</time></trkpt><trkpt lat="43.6147975" lon="11.205572"><ele>294.0</ele><time>2026-04-22T16:44:08.614Z</time></trkpt><trkpt lat="43.6147062" lon="11.2056479"><ele>294.0</ele><time>2026-04-22T16:44:09.614Z</time></trkpt><trkpt lat="43.6146241" lon="11.2057217"><ele>294.0</ele><time>2026-04-22T16:44:10.615Z</time></trkpt><trkpt lat="43.6145554" lon="11.2057971"><ele>294.0</ele><time>2026-04-22T16:44:11.615Z</time></trkpt><trkpt lat="43.6144967" lon="11.2058863"><ele>294.0</ele><time>2026-04-22T16:44:12.615Z</time></trkpt><trkpt lat="43.6144564" lon="11.2060083"><ele>294.75</ele><time>2026-04-22T16:44:13.614Z</time></trkpt><trkpt lat="43.6144335" lon="11.2061523"><ele>295.5</ele><time>2026-04-22T16:44:14.615Z</time></trkpt><trkpt lat="43.6144319" lon="11.2063261"><ele>296.25</ele><time>2026-04-22T16:44:15.615Z</time></trkpt><trkpt lat="43.6144378" lon="11.2065209"><ele>297.0</ele><time>2026-04-22T16:44:16.615Z</time></trkpt><trkpt lat="43.6144434" lon="11.2067381"><ele>297.0</ele><time>2026-04-22T16:44:17.614Z</time></trkpt><trkpt lat="43.6144536" lon="11.2069562"><ele>297.0</ele><time>2026-04-22T16:44:18.614Z</time></trkpt><trkpt lat="43.6144791" lon="11.2070982"><ele>297.0</ele><time>2026-04-22T16:44:19.615Z</time></trkpt><trkpt lat="43.6144886" lon="11.2073327"><ele>297.0</ele><time>2026-04-22T16:44:20.614Z</time></trkpt><trkpt lat="43.6144898" lon="11.2075646"><ele>297.0</ele><time>2026-04-22T16:44:21.614Z</time></trkpt><trkpt lat="43.6144992" lon="11.2077783"><ele>297.0</ele><time>2026-04-22T16:44:22.615Z</time></trkpt><trkpt lat="43.6144959" lon="11.2079918"><ele>297.0</ele><time>2026-04-22T16:44:23.615Z</time></trkpt><trkpt lat="43.6144751" lon="11.2082094"><ele>295.3333333333333</ele><time>2026-04-22T16:44:24.615Z</time></trkpt><trkpt lat="43.6144418" lon="11.2084362"><ele>293.66666666666663</ele><time>2026-04-22T16:44:25.615Z</time></trkpt><trkpt lat="43.6143991" lon="11.2086652"><ele>292.0</ele><time>2026-04-22T16:44:26.615Z</time></trkpt><trkpt lat="43.6143537" lon="11.208889"><ele>293.66666666666663</ele><time>2026-04-22T16:44:27.615Z</time></trkpt><trkpt lat="43.6143116" lon="11.2091007"><ele>295.3333333333333</ele><time>2026-04-22T16:44:28.615Z</time></trkpt><trkpt lat="43.6142649" lon="11.2093371"><ele>297.0</ele><time>2026-04-22T16:44:29.614Z</time></trkpt><trkpt lat="43.6142505" lon="11.209541"><ele>297.0</ele><time>2026-04-22T16:44:30.614Z</time></trkpt><trkpt lat="43.6142356" lon="11.2097443"><ele>297.0</ele><time>2026-04-22T16:44:31.614Z</time></trkpt><trkpt lat="43.6142096" lon="11.2099511"><ele>297.0</ele><time>2026-04-22T16:44:32.615Z</time></trkpt><trkpt lat="43.6141847" lon="11.2101576"><ele>297.5</ele><time>2026-04-22T16:44:33.615Z</time></trkpt><trkpt lat="43.6141566" lon="11.2103577"><ele>298.0</ele><time>2026-04-22T16:44:34.615Z</time></trkpt><trkpt lat="43.6141243" lon="11.2105554"><ele>298.5</ele><time>2026-04-22T16:44:35.615Z</time></trkpt><trkpt lat="43.6140845" lon="11.210754"><ele>299.0</ele><time>2026-04-22T16:44:36.614Z</time></trkpt><trkpt lat="43.6140311" lon="11.2109577"><ele>299.0</ele><time>2026-04-22T16:44:37.615Z</time></trkpt><trkpt lat="43.6139673" lon="11.2111608"><ele>299.0</ele><time>2026-04-22T16:44:38.615Z</time></trkpt><trkpt lat="43.6139056" lon="11.2113438"><ele>299.0</ele><time>2026-04-22T16:44:39.615Z</time></trkpt><trkpt lat="43.6138436" lon="11.2115212"><ele>299.0</ele><time>2026-04-22T16:44:40.614Z</time></trkpt><trkpt lat="43.6137875" lon="11.2116839"><ele>298.75</ele><time>2026-04-22T16:44:41.615Z</time></trkpt><trkpt lat="43.613707" lon="11.2118493"><ele>298.5</ele><time>2026-04-22T16:44:42.615Z</time></trkpt><trkpt lat="43.6136216" lon="11.2120022"><ele>298.25</ele><time>2026-04-22T16:44:43.614Z</time></trkpt><trkpt lat="43.6135298" lon="11.2121477"><ele>298.0</ele><time>2026-04-22T16:44:44.615Z</time></trkpt><trkpt lat="43.6134401" lon="11.2122844"><ele>296.75</ele><time>2026-04-22T16:44:45.615Z</time></trkpt><trkpt lat="43.6133533" lon="11.2124144"><ele>295.5</ele><time>2026-04-22T16:44:46.614Z</time></trkpt><trkpt lat="43.6132678" lon="11.2125232"><ele>294.25</ele><time>2026-04-22T16:44:47.614Z</time></trkpt><trkpt lat="43.6131831" lon="11.2126228"><ele>293.0</ele><time>2026-04-22T16:44:48.614Z</time></trkpt><trkpt lat="43.6131005" lon="11.2127069"><ele>293.0</ele><time>2026-04-22T16:44:49.614Z</time></trkpt><trkpt lat="43.6130189" lon="11.212773"><ele>293.0</ele><time>2026-04-22T16:44:50.614Z</time></trkpt><trkpt lat="43.6129356" lon="11.2128305"><ele>293.0</ele><time>2026-04-22T16:44:51.614Z</time></trkpt><trkpt lat="43.6128429" lon="11.2128866"><ele>293.0</ele><time>2026-04-22T16:44:52.614Z</time></trkpt><trkpt lat="43.6127456" lon="11.2129438"><ele>293.0</ele><time>2026-04-22T16:44:53.615Z</time></trkpt><trkpt lat="43.6126398" lon="11.2130021"><ele>293.0</ele><time>2026-04-22T16:44:54.614Z</time></trkpt><trkpt lat="43.6125477" lon="11.2130568"><ele>293.0</ele><time>2026-04-22T16:44:55.614Z</time></trkpt><trkpt lat="43.6124651" lon="11.2131026"><ele>293.0</ele><time>2026-04-22T16:44:56.615Z</time></trkpt><trkpt lat="43.6123836" lon="11.2131493"><ele>293.0</ele><time>2026-04-22T16:44:57.615Z</time></trkpt><trkpt lat="43.6123104" lon="11.2131951"><ele>293.0</ele><time>2026-04-22T16:44:58.614Z</time></trkpt><trkpt lat="43.6122425" lon="11.2132458"><ele>293.0</ele><time>2026-04-22T16:44:59.614Z</time></trkpt><trkpt lat="43.6121694" lon="11.213293"><ele>293.5</ele><time>2026-04-22T16:45:00.615Z</time></trkpt><trkpt lat="43.6120851" lon="11.2133189"><ele>294.0</ele><time>2026-04-22T16:45:01.614Z</time></trkpt><trkpt lat="43.6119987" lon="11.2133375"><ele>294.5</ele><time>2026-04-22T16:45:02.614Z</time></trkpt><trkpt lat="43.6119162" lon="11.2133588"><ele>295.0</ele><time>2026-04-22T16:45:03.614Z</time></trkpt><trkpt lat="43.6118358" lon="11.2133821"><ele>295.5</ele><time>2026-04-22T16:45:04.614Z</time></trkpt><trkpt lat="43.6117615" lon="11.2133992"><ele>296.0</ele><time>2026-04-22T16:45:05.615Z</time></trkpt><trkpt lat="43.6116959" lon="11.213414"><ele>296.5</ele><time>2026-04-22T16:45:06.615Z</time></trkpt><trkpt lat="43.6115891" lon="11.2134689"><ele>297.0</ele><time>2026-04-22T16:45:08.614Z</time></trkpt><trkpt lat="43.6115233" lon="11.2135343"><ele>297.5</ele><time>2026-04-22T16:45:10.614Z</time></trkpt><trkpt lat="43.61149" lon="11.2136371"><ele>298.0</ele><time>2026-04-22T16:45:12.614Z</time></trkpt><trkpt lat="43.6115043" lon="11.2137569"><ele>298.5</ele><time>2026-04-22T16:45:14.615Z</time></trkpt><trkpt lat="43.6115049" lon="11.2138503"><ele>299.0</ele><time>2026-04-22T16:45:17.614Z</time></trkpt><trkpt lat="43.611445" lon="11.2139019"><ele>299.0</ele><time>2026-04-22T16:45:19.615Z</time></trkpt><trkpt lat="43.6113219" lon="11.2138931"><ele>299.0</ele><time>2026-04-22T16:45:21.615Z</time></trkpt><trkpt lat="43.6112513" lon="11.2138789"><ele>299.0</ele><time>2026-04-22T16:45:22.614Z</time></trkpt><trkpt lat="43.6111741" lon="11.2138646"><ele>299.0</ele><time>2026-04-22T16:45:23.614Z</time></trkpt><trkpt lat="43.6110844" lon="11.2138571"><ele>299.0</ele><time>2026-04-22T16:45:24.614Z</time></trkpt><trkpt lat="43.6110105" lon="11.2138969"><ele>299.0</ele><time>2026-04-22T16:45:25.615Z</time></trkpt><trkpt lat="43.610919" lon="11.2139682"><ele>297.75</ele><time>2026-04-22T16:45:26.614Z</time></trkpt><trkpt lat="43.6108146" lon="11.2140756"><ele>296.5</ele><time>2026-04-22T16:45:27.615Z</time></trkpt><trkpt lat="43.6107079" lon="11.2141978"><ele>295.25</ele><time>2026-04-22T16:45:28.614Z</time></trkpt><trkpt lat="43.6105814" lon="11.2143284"><ele>294.0</ele><time>2026-04-22T16:45:29.614Z</time></trkpt><trkpt lat="43.6104449" lon="11.2144591"><ele>293.0</ele><time>2026-04-22T16:45:30.614Z</time></trkpt><trkpt lat="43.6102965" lon="11.2145799"><ele>292.0</ele><time>2026-04-22T16:45:31.615Z</time></trkpt><trkpt lat="43.6101244" lon="11.2146644"><ele>291.0</ele><time>2026-04-22T16:45:32.615Z</time></trkpt><trkpt lat="43.6099568" lon="11.2147798"><ele>293.3333333333333</ele><time>2026-04-22T16:45:33.614Z</time></trkpt><trkpt lat="43.609814" lon="11.2148982"><ele>295.66666666666663</ele><time>2026-04-22T16:45:34.615Z</time></trkpt><trkpt lat="43.6096735" lon="11.2150381"><ele>298.0</ele><time>2026-04-22T16:45:35.615Z</time></trkpt><trkpt lat="43.6095292" lon="11.2151821"><ele>298.3333333333333</ele><time>2026-04-22T16:45:36.614Z</time></trkpt><trkpt lat="43.6093877" lon="11.2153545"><ele>298.6666666666667</ele><time>2026-04-22T16:45:37.615Z</time></trkpt><trkpt lat="43.6092514" lon="11.2155368"><ele>299.0</ele><time>2026-04-22T16:45:38.615Z</time></trkpt><trkpt lat="43.6091144" lon="11.2157161"><ele>299.0</ele><time>2026-04-22T16:45:39.614Z</time></trkpt><trkpt lat="43.6089742" lon="11.215894"><ele>299.0</ele><time>2026-04-22T16:45:40.615Z</time></trkpt><trkpt lat="43.6088279" lon="11.2160802"><ele>299.0</ele><time>2026-04-22T16:45:41.614Z</time></trkpt><trkpt lat="43.6086788" lon="11.2162698"><ele>298.6666666666667</ele><time>2026-04-22T16:45:42.615Z</time></trkpt><trkpt lat="43.6085294" lon="11.2164498"><ele>298.3333333333333</ele><time>2026-04-22T16:45:43.614Z</time></trkpt><trkpt lat="43.6083902" lon="11.2166309"><ele>298.0</ele><time>2026-04-22T16:45:44.615Z</time></trkpt><trkpt lat="43.6082574" lon="11.2168033"><ele>297.66666666666663</ele><time>2026-04-22T16:45:45.614Z</time></trkpt><trkpt lat="43.6081245" lon="11.2169759"><ele>297.3333333333333</ele><time>2026-04-22T16:45:46.614Z</time></trkpt><trkpt lat="43.6079919" lon="11.2171416"><ele>297.0</ele><time>2026-04-22T16:45:47.614Z</time></trkpt><trkpt lat="43.6078568" lon="11.2172922"><ele>294.6666666666667</ele><time>2026-04-22T16:45:48.614Z</time></trkpt><trkpt lat="43.607716" lon="11.217423"><ele>292.33333333333337</ele><time>2026-04-22T16:45:49.615Z</time></trkpt><trkpt lat="43.6075653" lon="11.2175213"><ele>290.0</ele><time>2026-04-22T16:45:50.614Z</time></trkpt><trkpt lat="43.6074106" lon="11.217602"><ele>290.0</ele><time>2026-04-22T16:45:51.614Z</time></trkpt><trkpt lat="43.6072554" lon="11.217666"><ele>290.0</ele><time>2026-04-22T16:45:52.614Z</time></trkpt><trkpt lat="43.6070969" lon="11.2177171"><ele>290.0</ele><time>2026-04-22T16:45:53.615Z</time></trkpt><trkpt lat="43.606937" lon="11.2177597"><ele>290.33333333333337</ele><time>2026-04-22T16:45:54.614Z</time></trkpt><trkpt lat="43.606775" lon="11.2178096"><ele>290.6666666666667</ele><time>2026-04-22T16:45:55.614Z</time></trkpt><trkpt lat="43.6065974" lon="11.2178729"><ele>291.0</ele><time>2026-04-22T16:45:56.614Z</time></trkpt><trkpt lat="43.606408" lon="11.2179437"><ele>291.0</ele><time>2026-04-22T16:45:57.614Z</time></trkpt><trkpt lat="43.6062121" lon="11.21803"><ele>291.0</ele><time>2026-04-22T16:45:58.614Z</time></trkpt><trkpt lat="43.6060247" lon="11.218115"><ele>291.0</ele><time>2026-04-22T16:45:59.614Z</time></trkpt><trkpt lat="43.6058354" lon="11.2181946"><ele>288.3333333333333</ele><time>2026-04-22T16:46:00.614Z</time></trkpt><trkpt lat="43.6056577" lon="11.2182732"><ele>285.66666666666663</ele><time>2026-04-22T16:46:01.615Z</time></trkpt><trkpt lat="43.6054905" lon="11.2183498"><ele>283.0</ele><time>2026-04-22T16:46:02.614Z</time></trkpt><trkpt lat="43.6053303" lon="11.2184122"><ele>284.66666666666663</ele><time>2026-04-22T16:46:03.614Z</time></trkpt><trkpt lat="43.6051729" lon="11.2184467"><ele>286.3333333333333</ele><time>2026-04-22T16:46:04.614Z</time></trkpt><trkpt lat="43.6050134" lon="11.2184554"><ele>288.0</ele><time>2026-04-22T16:46:05.614Z</time></trkpt><trkpt lat="43.6048393" lon="11.2184298"><ele>288.0</ele><time>2026-04-22T16:46:06.615Z</time></trkpt><trkpt lat="43.6046862" lon="11.2184235"><ele>288.0</ele><time>2026-04-22T16:46:07.614Z</time></trkpt><trkpt lat="43.6045153" lon="11.218439"><ele>288.0</ele><time>2026-04-22T16:46:08.614Z</time></trkpt><trkpt lat="43.6043474" lon="11.2184737"><ele>288.0</ele><time>2026-04-22T16:46:09.615Z</time></trkpt><trkpt lat="43.6041936" lon="11.2185188"><ele>288.0</ele><time>2026-04-22T16:46:10.615Z</time></trkpt><trkpt lat="43.6040506" lon="11.2185722"><ele>288.0</ele><time>2026-04-22T16:46:11.614Z</time></trkpt><trkpt lat="43.6039231" lon="11.218644"><ele>288.0</ele><time>2026-04-22T16:46:12.614Z</time></trkpt><trkpt lat="43.6038095" lon="11.2187391"><ele>288.0</ele><time>2026-04-22T16:46:13.614Z</time></trkpt><trkpt lat="43.6037082" lon="11.2188725"><ele>288.0</ele><time>2026-04-22T16:46:14.614Z</time></trkpt><trkpt lat="43.6036056" lon="11.2190464"><ele>288.0</ele><time>2026-04-22T16:46:15.614Z</time></trkpt><trkpt lat="43.6034991" lon="11.2192438"><ele>289.0</ele><time>2026-04-22T16:46:16.615Z</time></trkpt><trkpt lat="43.603371" lon="11.2194693"><ele>290.0</ele><time>2026-04-22T16:46:17.614Z</time></trkpt><trkpt lat="43.6032335" lon="11.2197187"><ele>291.0</ele><time>2026-04-22T16:46:18.614Z</time></trkpt><trkpt lat="43.6030918" lon="11.219978"><ele>291.0</ele><time>2026-04-22T16:46:19.614Z</time></trkpt><trkpt lat="43.6029554" lon="11.2202207"><ele>291.0</ele><time>2026-04-22T16:46:20.614Z</time></trkpt><trkpt lat="43.6028268" lon="11.2204436"><ele>291.0</ele><time>2026-04-22T16:46:21.615Z</time></trkpt><trkpt lat="43.6027105" lon="11.2206504"><ele>292.6666666666667</ele><time>2026-04-22T16:46:22.615Z</time></trkpt><trkpt lat="43.6026013" lon="11.2208489"><ele>294.33333333333337</ele><time>2026-04-22T16:46:23.614Z</time></trkpt><trkpt lat="43.6024959" lon="11.2210305"><ele>296.0</ele><time>2026-04-22T16:46:24.614Z</time></trkpt><trkpt lat="43.6023945" lon="11.221202"><ele>296.0</ele><time>2026-04-22T16:46:25.614Z</time></trkpt><trkpt lat="43.6023015" lon="11.2213638"><ele>296.0</ele><time>2026-04-22T16:46:26.614Z</time></trkpt><trkpt lat="43.6022219" lon="11.2215453"><ele>296.0</ele><time>2026-04-22T16:46:27.615Z</time></trkpt><trkpt lat="43.6021574" lon="11.2217527"><ele>295.33333333333337</ele><time>2026-04-22T16:46:28.614Z</time></trkpt><trkpt lat="43.6021077" lon="11.221993"><ele>294.6666666666667</ele><time>2026-04-22T16:46:29.615Z</time></trkpt><trkpt lat="43.6020583" lon="11.2222584"><ele>294.0</ele><time>2026-04-22T16:46:30.614Z</time></trkpt><trkpt lat="43.6020112" lon="11.2225245"><ele>296.3333333333333</ele><time>2026-04-22T16:46:31.615Z</time></trkpt><trkpt lat="43.6019605" lon="11.2227654"><ele>298.66666666666663</ele><time>2026-04-22T16:46:32.615Z</time></trkpt><trkpt lat="43.6019246" lon="11.2229931"><ele>301.0</ele><time>2026-04-22T16:46:33.615Z</time></trkpt><trkpt lat="43.601881" lon="11.2232007"><ele>302.66666666666663</ele><time>2026-04-22T16:46:34.614Z</time></trkpt><trkpt lat="43.6018218" lon="11.2234007"><ele>304.3333333333333</ele><time>2026-04-22T16:46:35.615Z</time></trkpt><trkpt lat="43.6017538" lon="11.2235934"><ele>306.0</ele><time>2026-04-22T16:46:36.615Z</time></trkpt><trkpt lat="43.6016991" lon="11.223775"><ele>306.0</ele><time>2026-04-22T16:46:37.614Z</time></trkpt><trkpt lat="43.6016045" lon="11.223951"><ele>306.0</ele><time>2026-04-22T16:46:38.614Z</time></trkpt><trkpt lat="43.6014744" lon="11.2241355"><ele>306.0</ele><time>2026-04-22T16:46:39.614Z</time></trkpt><trkpt lat="43.6013407" lon="11.224311"><ele>306.3333333333333</ele><time>2026-04-22T16:46:40.614Z</time></trkpt><trkpt lat="43.6012061" lon="11.2245014"><ele>306.66666666666663</ele><time>2026-04-22T16:46:41.614Z</time></trkpt><trkpt lat="43.6010741" lon="11.224696"><ele>307.0</ele><time>2026-04-22T16:46:42.615Z</time></trkpt><trkpt lat="43.6009372" lon="11.2248815"><ele>305.66666666666663</ele><time>2026-04-22T16:46:43.614Z</time></trkpt><trkpt lat="43.6008073" lon="11.2250452"><ele>304.3333333333333</ele><time>2026-04-22T16:46:44.614Z</time></trkpt><trkpt lat="43.6006755" lon="11.2251967"><ele>303.0</ele><time>2026-04-22T16:46:45.615Z</time></trkpt><trkpt lat="43.6005494" lon="11.2253406"><ele>303.0</ele><time>2026-04-22T16:46:46.614Z</time></trkpt><trkpt lat="43.6004262" lon="11.2254891"><ele>303.0</ele><time>2026-04-22T16:46:47.615Z</time></trkpt><trkpt lat="43.6003077" lon="11.2256356"><ele>303.0</ele><time>2026-04-22T16:46:48.614Z</time></trkpt><trkpt lat="43.6001658" lon="11.2257865"><ele>303.0</ele><time>2026-04-22T16:46:49.615Z</time></trkpt><trkpt lat="43.6000258" lon="11.2259422"><ele>303.0</ele><time>2026-04-22T16:46:50.614Z</time></trkpt><trkpt lat="43.5998863" lon="11.2260933"><ele>303.0</ele><time>2026-04-22T16:46:51.615Z</time></trkpt><trkpt lat="43.5997431" lon="11.2262443"><ele>303.0</ele><time>2026-04-22T16:46:52.614Z</time></trkpt><trkpt lat="43.5995964" lon="11.2264168"><ele>303.0</ele><time>2026-04-22T16:46:53.614Z</time></trkpt><trkpt lat="43.5994694" lon="11.226594"><ele>303.0</ele><time>2026-04-22T16:46:54.614Z</time></trkpt><trkpt lat="43.5993295" lon="11.226781"><ele>302.75</ele><time>2026-04-22T16:46:55.614Z</time></trkpt><trkpt lat="43.5992202" lon="11.2269385"><ele>302.5</ele><time>2026-04-22T16:46:56.615Z</time></trkpt><trkpt lat="43.5991131" lon="11.2270831"><ele>302.25</ele><time>2026-04-22T16:46:57.614Z</time></trkpt><trkpt lat="43.5990177" lon="11.2272186"><ele>302.0</ele><time>2026-04-22T16:46:58.615Z</time></trkpt><trkpt lat="43.5989259" lon="11.2273446"><ele>302.2</ele><time>2026-04-22T16:46:59.614Z</time></trkpt><trkpt lat="43.5988337" lon="11.2274573"><ele>302.4</ele><time>2026-04-22T16:47:00.614Z</time></trkpt><trkpt lat="43.5987426" lon="11.2275621"><ele>302.6</ele><time>2026-04-22T16:47:01.614Z</time></trkpt><trkpt lat="43.598661" lon="11.2276536"><ele>302.8</ele><time>2026-04-22T16:47:02.614Z</time></trkpt><trkpt lat="43.5985913" lon="11.2277346"><ele>303.0</ele><time>2026-04-22T16:47:03.615Z</time></trkpt><trkpt lat="43.5985196" lon="11.2278093"><ele>303.0</ele><time>2026-04-22T16:47:04.615Z</time></trkpt><trkpt lat="43.5984376" lon="11.2278873"><ele>303.0</ele><time>2026-04-22T16:47:05.615Z</time></trkpt><trkpt lat="43.5983551" lon="11.2279845"><ele>303.0</ele><time>2026-04-22T16:47:06.614Z</time></trkpt><trkpt lat="43.5982695" lon="11.2281066"><ele>303.0</ele><time>2026-04-22T16:47:07.614Z</time></trkpt><trkpt lat="43.5981822" lon="11.2282445"><ele>302.25</ele><time>2026-04-22T16:47:08.614Z</time></trkpt><trkpt lat="43.5980947" lon="11.2283825"><ele>301.5</ele><time>2026-04-22T16:47:09.614Z</time></trkpt><trkpt lat="43.598023" lon="11.2285124"><ele>300.75</ele><time>2026-04-22T16:47:10.615Z</time></trkpt><trkpt lat="43.5979759" lon="11.2286434"><ele>300.0</ele><time>2026-04-22T16:47:11.614Z</time></trkpt><trkpt lat="43.5979566" lon="11.2287814"><ele>300.0</ele><time>2026-04-22T16:47:12.615Z</time></trkpt><trkpt lat="43.5979653" lon="11.2289341"><ele>300.0</ele><time>2026-04-22T16:47:13.614Z</time></trkpt><trkpt lat="43.5979846" lon="11.2291104"><ele>300.0</ele><time>2026-04-22T16:47:14.614Z</time></trkpt><trkpt lat="43.5980114" lon="11.2292995"><ele>300.0</ele><time>2026-04-22T16:47:15.615Z</time></trkpt><trkpt lat="43.5980471" lon="11.2295135"><ele>298.6666666666667</ele><time>2026-04-22T16:47:16.615Z</time></trkpt><trkpt lat="43.5980812" lon="11.2297167"><ele>297.33333333333337</ele><time>2026-04-22T16:47:17.614Z</time></trkpt><trkpt lat="43.5981182" lon="11.2299278"><ele>296.0</ele><time>2026-04-22T16:47:18.614Z</time></trkpt><trkpt lat="43.5981559" lon="11.2301484"><ele>294.6666666666667</ele><time>2026-04-22T16:47:19.615Z</time></trkpt><trkpt lat="43.5981986" lon="11.230386"><ele>293.3333333333333</ele><time>2026-04-22T16:47:20.615Z</time></trkpt><trkpt lat="43.5982216" lon="11.2305781"><ele>292.0</ele><time>2026-04-22T16:47:21.615Z</time></trkpt><trkpt lat="43.5982436" lon="11.2307658"><ele>291.0</ele><time>2026-04-22T16:47:22.614Z</time></trkpt><trkpt lat="43.5982693" lon="11.2309462"><ele>290.0</ele><time>2026-04-22T16:47:23.615Z</time></trkpt><trkpt lat="43.5983017" lon="11.2311141"><ele>289.0</ele><time>2026-04-22T16:47:24.614Z</time></trkpt><trkpt lat="43.5983449" lon="11.2312609"><ele>288.0</ele><time>2026-04-22T16:47:25.614Z</time></trkpt><trkpt lat="43.5984128" lon="11.23139"><ele>287.0</ele><time>2026-04-22T16:47:26.615Z</time></trkpt><trkpt lat="43.5984981" lon="11.2315029"><ele>286.0</ele><time>2026-04-22T16:47:27.614Z</time></trkpt><trkpt lat="43.598603" lon="11.2315948"><ele>285.0</ele><time>2026-04-22T16:47:28.615Z</time></trkpt><trkpt lat="43.598702" lon="11.2316644"><ele>284.0</ele><time>2026-04-22T16:47:29.614Z</time></trkpt><trkpt lat="43.5988145" lon="11.2316798"><ele>283.75</ele><time>2026-04-22T16:47:30.614Z</time></trkpt><trkpt lat="43.598949" lon="11.2316553"><ele>283.5</ele><time>2026-04-22T16:47:31.615Z</time></trkpt><trkpt lat="43.5990883" lon="11.2316229"><ele>283.25</ele><time>2026-04-22T16:47:32.615Z</time></trkpt><trkpt lat="43.5992348" lon="11.2316109"><ele>283.0</ele><time>2026-04-22T16:47:33.614Z</time></trkpt><trkpt lat="43.5993689" lon="11.2316296"><ele>285.25</ele><time>2026-04-22T16:47:34.614Z</time></trkpt><trkpt lat="43.5995033" lon="11.231699"><ele>287.5</ele><time>2026-04-22T16:47:35.615Z</time></trkpt><trkpt lat="43.5996008" lon="11.2317813"><ele>289.75</ele><time>2026-04-22T16:47:36.615Z</time></trkpt><trkpt lat="43.5997132" lon="11.2319411"><ele>292.0</ele><time>2026-04-22T16:47:37.615Z</time></trkpt><trkpt lat="43.5998229" lon="11.2320935"><ele>292.0</ele><time>2026-04-22T16:47:38.615Z</time></trkpt><trkpt lat="43.5999458" lon="11.2322263"><ele>292.0</ele><time>2026-04-22T16:47:39.614Z</time></trkpt><trkpt lat="43.6000645" lon="11.2323159"><ele>292.0</ele><time>2026-04-22T16:47:40.615Z</time></trkpt><trkpt lat="43.6001756" lon="11.2324072"><ele>292.0</ele><time>2026-04-22T16:47:41.615Z</time></trkpt><trkpt lat="43.6002709" lon="11.2325204"><ele>293.0</ele><time>2026-04-22T16:47:42.614Z</time></trkpt><trkpt lat="43.6003536" lon="11.2326501"><ele>294.0</ele><time>2026-04-22T16:47:43.614Z</time></trkpt><trkpt lat="43.6004331" lon="11.2327909"><ele>295.0</ele><time>2026-04-22T16:47:44.615Z</time></trkpt><trkpt lat="43.6004991" lon="11.2329344"><ele>296.0</ele><time>2026-04-22T16:47:45.614Z</time></trkpt><trkpt lat="43.6005725" lon="11.2330574"><ele>297.5</ele><time>2026-04-22T16:47:46.614Z</time></trkpt><trkpt lat="43.6006533" lon="11.2331632"><ele>299.0</ele><time>2026-04-22T16:47:47.615Z</time></trkpt><trkpt lat="43.6007364" lon="11.2332554"><ele>300.5</ele><time>2026-04-22T16:47:48.615Z</time></trkpt><trkpt lat="43.6008379" lon="11.2333464"><ele>302.0</ele><time>2026-04-22T16:47:49.615Z</time></trkpt><trkpt lat="43.600949" lon="11.2334458"><ele>302.0</ele><time>2026-04-22T16:47:50.614Z</time></trkpt><trkpt lat="43.6010625" lon="11.2335703"><ele>302.0</ele><time>2026-04-22T16:47:51.615Z</time></trkpt><trkpt lat="43.6011693" lon="11.2337207"><ele>302.0</ele><time>2026-04-22T16:47:52.614Z</time></trkpt><trkpt lat="43.6012786" lon="11.2338802"><ele>300.33333333333337</ele><time>2026-04-22T16:47:53.615Z</time></trkpt><trkpt lat="43.6013954" lon="11.2340645"><ele>298.6666666666667</ele><time>2026-04-22T16:47:54.615Z</time></trkpt><trkpt lat="43.6015186" lon="11.2342291"><ele>297.0</ele><time>2026-04-22T16:47:55.615Z</time></trkpt><trkpt lat="43.6016398" lon="11.2343739"><ele>297.0</ele><time>2026-04-22T16:47:56.615Z</time></trkpt><trkpt lat="43.6017637" lon="11.2345083"><ele>297.0</ele><time>2026-04-22T16:47:57.615Z</time></trkpt><trkpt lat="43.6018973" lon="11.2346288"><ele>297.0</ele><time>2026-04-22T16:47:58.614Z</time></trkpt><trkpt lat="43.6020476" lon="11.2347418"><ele>299.3333333333333</ele><time>2026-04-22T16:47:59.615Z</time></trkpt><trkpt lat="43.6022074" lon="11.2348554"><ele>301.66666666666663</ele><time>2026-04-22T16:48:00.615Z</time></trkpt><trkpt lat="43.602363" lon="11.2349708"><ele>304.0</ele><time>2026-04-22T16:48:01.614Z</time></trkpt><trkpt lat="43.6025029" lon="11.2350717"><ele>304.0</ele><time>2026-04-22T16:48:02.614Z</time></trkpt><trkpt lat="43.6026246" lon="11.2351573"><ele>304.0</ele><time>2026-04-22T16:48:03.614Z</time></trkpt><trkpt lat="43.6027434" lon="11.2352069"><ele>304.0</ele><time>2026-04-22T16:48:04.614Z</time></trkpt><trkpt lat="43.6028674" lon="11.2352105"><ele>304.0</ele><time>2026-04-22T16:48:05.614Z</time></trkpt><trkpt lat="43.6029968" lon="11.2351857"><ele>308.0</ele><time>2026-04-22T16:48:06.615Z</time></trkpt><trkpt lat="43.6031298" lon="11.2351488"><ele>312.0</ele><time>2026-04-22T16:48:07.614Z</time></trkpt><trkpt lat="43.6032768" lon="11.2351113"><ele>316.0</ele><time>2026-04-22T16:48:08.614Z</time></trkpt><trkpt lat="43.6034404" lon="11.2350684"><ele>316.0</ele><time>2026-04-22T16:48:09.615Z</time></trkpt><trkpt lat="43.6035942" lon="11.2350153"><ele>316.0</ele><time>2026-04-22T16:48:10.614Z</time></trkpt><trkpt lat="43.6037404" lon="11.234966"><ele>316.0</ele><time>2026-04-22T16:48:11.614Z</time></trkpt><trkpt lat="43.6038611" lon="11.2349312"><ele>316.0</ele><time>2026-04-22T16:48:12.615Z</time></trkpt><trkpt lat="43.6039687" lon="11.2349176"><ele>318.4</ele><time>2026-04-22T16:48:13.614Z</time></trkpt><trkpt lat="43.6040777" lon="11.2349337"><ele>320.8</ele><time>2026-04-22T16:48:14.615Z</time></trkpt><trkpt lat="43.6041675" lon="11.234967"><ele>323.2</ele><time>2026-04-22T16:48:15.614Z</time></trkpt><trkpt lat="43.6042672" lon="11.2350176"><ele>325.59999999999997</ele><time>2026-04-22T16:48:16.614Z</time></trkpt><trkpt lat="43.6043606" lon="11.2350681"><ele>328.0</ele><time>2026-04-22T16:48:17.614Z</time></trkpt><trkpt lat="43.6044568" lon="11.2351126"><ele>328.4</ele><time>2026-04-22T16:48:18.614Z</time></trkpt><trkpt lat="43.604553" lon="11.2351297"><ele>328.79999999999995</ele><time>2026-04-22T16:48:19.614Z</time></trkpt><trkpt lat="43.6046509" lon="11.2351349"><ele>329.2</ele><time>2026-04-22T16:48:20.614Z</time></trkpt><trkpt lat="43.6047443" lon="11.2351405"><ele>329.6</ele><time>2026-04-22T16:48:21.614Z</time></trkpt><trkpt lat="43.6048347" lon="11.2351437"><ele>330.0</ele><time>2026-04-22T16:48:22.614Z</time></trkpt><trkpt lat="43.6049248" lon="11.2351437"><ele>330.0</ele><time>2026-04-22T16:48:23.614Z</time></trkpt><trkpt lat="43.605011" lon="11.2351443"><ele>330.0</ele><time>2026-04-22T16:48:24.614Z</time></trkpt><trkpt lat="43.6050927" lon="11.2351437"><ele>330.0</ele><time>2026-04-22T16:48:25.614Z</time></trkpt><trkpt lat="43.6051989" lon="11.2351437"><ele>330.0</ele><time>2026-04-22T16:48:26.615Z</time></trkpt><trkpt lat="43.6053023" lon="11.2351442"><ele>330.0</ele><time>2026-04-22T16:48:27.615Z</time></trkpt><trkpt lat="43.6054031" lon="11.2351418"><ele>328.0</ele><time>2026-04-22T16:48:28.615Z</time></trkpt><trkpt lat="43.6054967" lon="11.2351496"><ele>326.0</ele><time>2026-04-22T16:48:29.615Z</time></trkpt><trkpt lat="43.6055841" lon="11.2351798"><ele>324.0</ele><time>2026-04-22T16:48:30.614Z</time></trkpt><trkpt lat="43.6056496" lon="11.2352425"><ele>322.0</ele><time>2026-04-22T16:48:31.614Z</time></trkpt><trkpt lat="43.6056949" lon="11.2353305"><ele>320.0</ele><time>2026-04-22T16:48:32.615Z</time></trkpt><trkpt lat="43.605723" lon="11.2354348"><ele>318.0</ele><time>2026-04-22T16:48:33.615Z</time></trkpt><trkpt lat="43.6057543" lon="11.2355443"><ele>318.2</ele><time>2026-04-22T16:48:34.614Z</time></trkpt><trkpt lat="43.6057813" lon="11.2356588"><ele>318.4</ele><time>2026-04-22T16:48:35.614Z</time></trkpt><trkpt lat="43.6058347" lon="11.2357861"><ele>318.59999999999997</ele><time>2026-04-22T16:48:36.614Z</time></trkpt><trkpt lat="43.6058974" lon="11.2359236"><ele>318.8</ele><time>2026-04-22T16:48:37.614Z</time></trkpt><trkpt lat="43.605975" lon="11.2360497"><ele>319.0</ele><time>2026-04-22T16:48:38.615Z</time></trkpt><trkpt lat="43.6060599" lon="11.2361844"><ele>318.66666666666663</ele><time>2026-04-22T16:48:39.615Z</time></trkpt><trkpt lat="43.6061795" lon="11.2363155"><ele>318.3333333333333</ele><time>2026-04-22T16:48:40.614Z</time></trkpt><trkpt lat="43.6062987" lon="11.2364503"><ele>318.0</ele><time>2026-04-22T16:48:41.614Z</time></trkpt><trkpt lat="43.6064112" lon="11.2365863"><ele>319.3333333333333</ele><time>2026-04-22T16:48:42.615Z</time></trkpt><trkpt lat="43.606521" lon="11.2367222"><ele>320.66666666666663</ele><time>2026-04-22T16:48:43.615Z</time></trkpt><trkpt lat="43.6066287" lon="11.2368682"><ele>322.0</ele><time>2026-04-22T16:48:44.614Z</time></trkpt><trkpt lat="43.6067378" lon="11.2370129"><ele>322.0</ele><time>2026-04-22T16:48:45.615Z</time></trkpt><trkpt lat="43.6068445" lon="11.2371598"><ele>322.0</ele><time>2026-04-22T16:48:46.615Z</time></trkpt><trkpt lat="43.6069507" lon="11.237282"><ele>322.0</ele><time>2026-04-22T16:48:47.614Z</time></trkpt><trkpt lat="43.607056" lon="11.2373823"><ele>322.0</ele><time>2026-04-22T16:48:48.615Z</time></trkpt><trkpt lat="43.6071612" lon="11.2374745"><ele>324.40000000000003</ele><time>2026-04-22T16:48:49.615Z</time></trkpt><trkpt lat="43.6072673" lon="11.237564"><ele>326.8</ele><time>2026-04-22T16:48:50.615Z</time></trkpt><trkpt lat="43.6073625" lon="11.2376587"><ele>329.2</ele><time>2026-04-22T16:48:51.614Z</time></trkpt><trkpt lat="43.6074421" lon="11.2377432"><ele>331.6</ele><time>2026-04-22T16:48:52.614Z</time></trkpt><trkpt lat="43.6075274" lon="11.2378204"><ele>334.0</ele><time>2026-04-22T16:48:53.614Z</time></trkpt><trkpt lat="43.6076241" lon="11.2379127"><ele>334.0</ele><time>2026-04-22T16:48:54.614Z</time></trkpt><trkpt lat="43.6077279" lon="11.2380198"><ele>334.0</ele><time>2026-04-22T16:48:55.614Z</time></trkpt><trkpt lat="43.6078356" lon="11.2381355"><ele>334.0</ele><time>2026-04-22T16:48:56.614Z</time></trkpt><trkpt lat="43.6079252" lon="11.2382345"><ele>334.0</ele><time>2026-04-22T16:48:57.615Z</time></trkpt><trkpt lat="43.6080035" lon="11.2383209"><ele>335.5</ele><time>2026-04-22T16:48:58.615Z</time></trkpt><trkpt lat="43.6080731" lon="11.2383957"><ele>337.0</ele><time>2026-04-22T16:48:59.615Z</time></trkpt><trkpt lat="43.6081499" lon="11.2384442"><ele>338.5</ele><time>2026-04-22T16:49:00.614Z</time></trkpt><trkpt lat="43.6082272" lon="11.2384572"><ele>340.0</ele><time>2026-04-22T16:49:01.615Z</time></trkpt><trkpt lat="43.6083052" lon="11.2384471"><ele>341.5</ele><time>2026-04-22T16:49:03.614Z</time></trkpt><trkpt lat="43.6083845" lon="11.2384704"><ele>343.0</ele><time>2026-04-22T16:49:10.614Z</time></trkpt><trkpt lat="43.6084992" lon="11.2385534"><ele>343.0</ele><time>2026-04-22T16:49:12.615Z</time></trkpt><trkpt lat="43.6085616" lon="11.2386424"><ele>343.0</ele><time>2026-04-22T16:49:13.615Z</time></trkpt><trkpt lat="43.6086511" lon="11.2387419"><ele>343.0</ele><time>2026-04-22T16:49:14.614Z</time></trkpt><trkpt lat="43.6087653" lon="11.2388433"><ele>343.0</ele><time>2026-04-22T16:49:15.614Z</time></trkpt><trkpt lat="43.60888" lon="11.2389515"><ele>345.25</ele><time>2026-04-22T16:49:16.614Z</time></trkpt><trkpt lat="43.6089988" lon="11.2390464"><ele>347.5</ele><time>2026-04-22T16:49:17.615Z</time></trkpt><trkpt lat="43.609125" lon="11.2391226"><ele>349.75</ele><time>2026-04-22T16:49:18.614Z</time></trkpt><trkpt lat="43.6092518" lon="11.2391729"><ele>352.0</ele><time>2026-04-22T16:49:19.615Z</time></trkpt><trkpt lat="43.6093867" lon="11.239192"><ele>347.66666666666663</ele><time>2026-04-22T16:49:20.615Z</time></trkpt><trkpt lat="43.6095311" lon="11.2391767"><ele>343.3333333333333</ele><time>2026-04-22T16:49:21.615Z</time></trkpt><trkpt lat="43.609685" lon="11.2391376"><ele>339.0</ele><time>2026-04-22T16:49:22.615Z</time></trkpt><trkpt lat="43.609842" lon="11.2391085"><ele>339.0</ele><time>2026-04-22T16:49:23.614Z</time></trkpt><trkpt lat="43.6099946" lon="11.2390866"><ele>339.0</ele><time>2026-04-22T16:49:24.615Z</time></trkpt><trkpt lat="43.6101404" lon="11.2390672"><ele>339.0</ele><time>2026-04-22T16:49:25.614Z</time></trkpt><trkpt lat="43.6102776" lon="11.2390418"><ele>339.0</ele><time>2026-04-22T16:49:26.615Z</time></trkpt><trkpt lat="43.6104027" lon="11.2390069"><ele>337.0</ele><time>2026-04-22T16:49:27.614Z</time></trkpt><trkpt lat="43.6105239" lon="11.2389652"><ele>335.0</ele><time>2026-04-22T16:49:28.614Z</time></trkpt><trkpt lat="43.610635" lon="11.2389602"><ele>333.0</ele><time>2026-04-22T16:49:29.615Z</time></trkpt><trkpt lat="43.6107438" lon="11.2389935"><ele>331.0</ele><time>2026-04-22T16:49:30.614Z</time></trkpt><trkpt lat="43.6108555" lon="11.2390555"><ele>331.0</ele><time>2026-04-22T16:49:31.614Z</time></trkpt><trkpt lat="43.6109712" lon="11.2391603"><ele>331.0</ele><time>2026-04-22T16:49:32.614Z</time></trkpt><trkpt lat="43.6110958" lon="11.2392963"><ele>331.0</ele><time>2026-04-22T16:49:33.614Z</time></trkpt><trkpt lat="43.6112262" lon="11.2394577"><ele>328.3333333333333</ele><time>2026-04-22T16:49:34.615Z</time></trkpt><trkpt lat="43.6113753" lon="11.2396379"><ele>325.6666666666667</ele><time>2026-04-22T16:49:35.614Z</time></trkpt><trkpt lat="43.6115252" lon="11.2398234"><ele>323.0</ele><time>2026-04-22T16:49:36.614Z</time></trkpt><trkpt lat="43.6116651" lon="11.2399961"><ele>323.0</ele><time>2026-04-22T16:49:37.614Z</time></trkpt><trkpt lat="43.6117996" lon="11.2401453"><ele>323.0</ele><time>2026-04-22T16:49:38.615Z</time></trkpt><trkpt lat="43.6119065" lon="11.2402837"><ele>323.0</ele><time>2026-04-22T16:49:39.614Z</time></trkpt><trkpt lat="43.6120065" lon="11.2404033"><ele>323.75</ele><time>2026-04-22T16:49:40.614Z</time></trkpt><trkpt lat="43.6120986" lon="11.2405105"><ele>324.5</ele><time>2026-04-22T16:49:41.615Z</time></trkpt><trkpt lat="43.6122007" lon="11.2406015"><ele>325.25</ele><time>2026-04-22T16:49:42.615Z</time></trkpt><trkpt lat="43.6123173" lon="11.2406761"><ele>326.0</ele><time>2026-04-22T16:49:43.615Z</time></trkpt><trkpt lat="43.6124467" lon="11.2407512"><ele>328.6666666666667</ele><time>2026-04-22T16:49:44.614Z</time></trkpt><trkpt lat="43.612584" lon="11.2408376"><ele>331.3333333333333</ele><time>2026-04-22T16:49:45.614Z</time></trkpt><trkpt lat="43.6127271" lon="11.2409348"><ele>334.0</ele><time>2026-04-22T16:49:46.614Z</time></trkpt><trkpt lat="43.6128736" lon="11.2410445"><ele>334.25</ele><time>2026-04-22T16:49:47.615Z</time></trkpt><trkpt lat="43.6130156" lon="11.2411789"><ele>334.5</ele><time>2026-04-22T16:49:48.614Z</time></trkpt><trkpt lat="43.6130787" lon="11.241187"><ele>334.75</ele><time>2026-04-22T16:49:49.615Z</time></trkpt><trkpt lat="43.6132416" lon="11.2413226"><ele>335.0</ele><time>2026-04-22T16:49:50.615Z</time></trkpt><trkpt lat="43.6134142" lon="11.2414703"><ele>335.33333333333337</ele><time>2026-04-22T16:49:51.615Z</time></trkpt><trkpt lat="43.6135961" lon="11.2416316"><ele>335.6666666666667</ele><time>2026-04-22T16:49:52.614Z</time></trkpt><trkpt lat="43.613771" lon="11.2417784"><ele>336.0</ele><time>2026-04-22T16:49:53.615Z</time></trkpt><trkpt lat="43.6139392" lon="11.2419345"><ele>333.6666666666667</ele><time>2026-04-22T16:49:54.615Z</time></trkpt><trkpt lat="43.6141048" lon="11.2420861"><ele>331.33333333333337</ele><time>2026-04-22T16:49:55.615Z</time></trkpt><trkpt lat="43.6142751" lon="11.2422303"><ele>329.0</ele><time>2026-04-22T16:49:56.615Z</time></trkpt><trkpt lat="43.6144363" lon="11.2423768"><ele>326.0</ele><time>2026-04-22T16:49:57.615Z</time></trkpt><trkpt lat="43.6145891" lon="11.2425116"><ele>323.0</ele><time>2026-04-22T16:49:58.614Z</time></trkpt><trkpt lat="43.614722" lon="11.24263"><ele>320.0</ele><time>2026-04-22T16:49:59.615Z</time></trkpt><trkpt lat="43.6148501" lon="11.2427284"><ele>320.0</ele><time>2026-04-22T16:50:00.614Z</time></trkpt><trkpt lat="43.6149729" lon="11.2428105"><ele>320.0</ele><time>2026-04-22T16:50:01.614Z</time></trkpt><trkpt lat="43.6150704" lon="11.2429094"><ele>320.0</ele><time>2026-04-22T16:50:02.614Z</time></trkpt><trkpt lat="43.6151631" lon="11.2430209"><ele>320.0</ele><time>2026-04-22T16:50:03.615Z</time></trkpt><trkpt lat="43.6152563" lon="11.2431517"><ele>318.0</ele><time>2026-04-22T16:50:04.614Z</time></trkpt><trkpt lat="43.6153473" lon="11.2432926"><ele>316.0</ele><time>2026-04-22T16:50:05.614Z</time></trkpt><trkpt lat="43.6154351" lon="11.2434379"><ele>314.0</ele><time>2026-04-22T16:50:06.615Z</time></trkpt><trkpt lat="43.615521" lon="11.2435867"><ele>312.0</ele><time>2026-04-22T16:50:07.615Z</time></trkpt><trkpt lat="43.615603" lon="11.2437289"><ele>312.0</ele><time>2026-04-22T16:50:08.614Z</time></trkpt><trkpt lat="43.6156983" lon="11.2438427"><ele>312.0</ele><time>2026-04-22T16:50:09.615Z</time></trkpt><trkpt lat="43.6158205" lon="11.2439383"><ele>312.0</ele><time>2026-04-22T16:50:10.615Z</time></trkpt><trkpt lat="43.6159725" lon="11.2440115"><ele>312.0</ele><time>2026-04-22T16:50:11.615Z</time></trkpt><trkpt lat="43.6161254" lon="11.2440572"><ele>312.75</ele><time>2026-04-22T16:50:12.614Z</time></trkpt><trkpt lat="43.6162728" lon="11.2440923"><ele>313.5</ele><time>2026-04-22T16:50:13.614Z</time></trkpt><trkpt lat="43.6164064" lon="11.2441085"><ele>314.25</ele><time>2026-04-22T16:50:14.614Z</time></trkpt><trkpt lat="43.6165199" lon="11.2441263"><ele>315.0</ele><time>2026-04-22T16:50:15.614Z</time></trkpt><trkpt lat="43.6166338" lon="11.2441459"><ele>315.0</ele><time>2026-04-22T16:50:16.614Z</time></trkpt><trkpt lat="43.6167367" lon="11.2441578"><ele>315.0</ele><time>2026-04-22T16:50:17.614Z</time></trkpt><trkpt lat="43.6168259" lon="11.244181"><ele>315.0</ele><time>2026-04-22T16:50:18.614Z</time></trkpt><trkpt lat="43.6169144" lon="11.244214"><ele>315.0</ele><time>2026-04-22T16:50:19.614Z</time></trkpt><trkpt lat="43.6170102" lon="11.2442678"><ele>315.0</ele><time>2026-04-22T16:50:20.615Z</time></trkpt><trkpt lat="43.6171031" lon="11.2443469"><ele>315.25</ele><time>2026-04-22T16:50:21.614Z</time></trkpt><trkpt lat="43.6171982" lon="11.244454"><ele>315.5</ele><time>2026-04-22T16:50:22.614Z</time></trkpt><trkpt lat="43.6172998" lon="11.2445781"><ele>315.75</ele><time>2026-04-22T16:50:23.615Z</time></trkpt><trkpt lat="43.6174239" lon="11.2447047"><ele>316.0</ele><time>2026-04-22T16:50:24.615Z</time></trkpt><trkpt lat="43.6175774" lon="11.2448131"><ele>316.0</ele><time>2026-04-22T16:50:25.615Z</time></trkpt><trkpt lat="43.6177196" lon="11.2448914"><ele>316.0</ele><time>2026-04-22T16:50:26.614Z</time></trkpt><trkpt lat="43.6178433" lon="11.2449996"><ele>316.0</ele><time>2026-04-22T16:50:27.615Z</time></trkpt><trkpt lat="43.6179583" lon="11.2450999"><ele>316.0</ele><time>2026-04-22T16:50:28.614Z</time></trkpt><trkpt lat="43.6180639" lon="11.2451802"><ele>314.75</ele><time>2026-04-22T16:50:29.614Z</time></trkpt><trkpt lat="43.6181734" lon="11.2452298"><ele>313.5</ele><time>2026-04-22T16:50:30.615Z</time></trkpt><trkpt lat="43.6182978" lon="11.2452432"><ele>312.25</ele><time>2026-04-22T16:50:31.615Z</time></trkpt><trkpt lat="43.6184383" lon="11.2452248"><ele>311.0</ele><time>2026-04-22T16:50:32.614Z</time></trkpt><trkpt lat="43.6185759" lon="11.2451896"><ele>310.0</ele><time>2026-04-22T16:50:33.615Z</time></trkpt><trkpt lat="43.6187045" lon="11.2451607"><ele>309.0</ele><time>2026-04-22T16:50:34.614Z</time></trkpt><trkpt lat="43.6188299" lon="11.2451316"><ele>308.0</ele><time>2026-04-22T16:50:35.614Z</time></trkpt><trkpt lat="43.618948" lon="11.2451103"><ele>307.0</ele><time>2026-04-22T16:50:36.615Z</time></trkpt><trkpt lat="43.6190601" lon="11.2450954"><ele>307.0</ele><time>2026-04-22T16:50:37.614Z</time></trkpt><trkpt lat="43.6192046" lon="11.245045"><ele>307.0</ele><time>2026-04-22T16:50:38.615Z</time></trkpt><trkpt lat="43.6193328" lon="11.2450129"><ele>307.0</ele><time>2026-04-22T16:50:39.614Z</time></trkpt><trkpt lat="43.6194811" lon="11.2449725"><ele>307.0</ele><time>2026-04-22T16:50:40.614Z</time></trkpt><trkpt lat="43.6196038" lon="11.2449393"><ele>309.0</ele><time>2026-04-22T16:50:41.614Z</time></trkpt><trkpt lat="43.6197306" lon="11.2449062"><ele>311.0</ele><time>2026-04-22T16:50:42.615Z</time></trkpt><trkpt lat="43.6198471" lon="11.2448791"><ele>313.0</ele><time>2026-04-22T16:50:43.614Z</time></trkpt><trkpt lat="43.6199585" lon="11.2448549"><ele>315.0</ele><time>2026-04-22T16:50:44.614Z</time></trkpt><trkpt lat="43.620064" lon="11.2448378"><ele>315.0</ele><time>2026-04-22T16:50:45.614Z</time></trkpt><trkpt lat="43.6201663" lon="11.2448268"><ele>315.0</ele><time>2026-04-22T16:50:46.615Z</time></trkpt><trkpt lat="43.6202694" lon="11.2448288"><ele>315.0</ele><time>2026-04-22T16:50:47.614Z</time></trkpt><trkpt lat="43.620377" lon="11.2448585"><ele>315.0</ele><time>2026-04-22T16:50:48.614Z</time></trkpt><trkpt lat="43.6204845" lon="11.244887"><ele>315.0</ele><time>2026-04-22T16:50:49.615Z</time></trkpt><trkpt lat="43.620583" lon="11.2449145"><ele>315.3333333333333</ele><time>2026-04-22T16:50:50.615Z</time></trkpt><trkpt lat="43.6206555" lon="11.244945"><ele>315.6666666666667</ele><time>2026-04-22T16:50:51.615Z</time></trkpt><trkpt lat="43.6207207" lon="11.244975"><ele>316.0</ele><time>2026-04-22T16:50:52.615Z</time></trkpt><trkpt lat="43.6208367" lon="11.2450608"><ele>316.33333333333337</ele><time>2026-04-22T16:50:54.614Z</time></trkpt><trkpt lat="43.6209304" lon="11.2451095"><ele>316.6666666666667</ele><time>2026-04-22T16:50:56.614Z</time></trkpt><trkpt lat="43.6209904" lon="11.245147"><ele>317.0</ele><time>2026-04-22T16:50:59.614Z</time></trkpt><trkpt lat="43.621058" lon="11.2451798"><ele>317.0</ele><time>2026-04-22T16:51:03.614Z</time></trkpt><trkpt lat="43.6211266" lon="11.2452045"><ele>317.0</ele><time>2026-04-22T16:51:07.614Z</time></trkpt><trkpt lat="43.6212258" lon="11.2451618"><ele>317.0</ele><time>2026-04-22T16:51:09.614Z</time></trkpt><trkpt lat="43.6212939" lon="11.245103"><ele>317.0</ele><time>2026-04-22T16:51:10.615Z</time></trkpt><trkpt lat="43.6213778" lon="11.245025"><ele>317.0</ele><time>2026-04-22T16:51:11.614Z</time></trkpt><trkpt lat="43.6214763" lon="11.2449311"><ele>316.6</ele><time>2026-04-22T16:51:12.614Z</time></trkpt><trkpt lat="43.6215618" lon="11.2448063"><ele>316.2</ele><time>2026-04-22T16:51:13.615Z</time></trkpt><trkpt lat="43.621626" lon="11.2446663"><ele>315.8</ele><time>2026-04-22T16:51:14.615Z</time></trkpt><trkpt lat="43.6216577" lon="11.2445339"><ele>315.4</ele><time>2026-04-22T16:51:15.614Z</time></trkpt><trkpt lat="43.6216914" lon="11.2444139"><ele>315.0</ele><time>2026-04-22T16:51:16.614Z</time></trkpt><trkpt lat="43.6217238" lon="11.2443015"><ele>314.1666666666667</ele><time>2026-04-22T16:51:17.614Z</time></trkpt><trkpt lat="43.621754" lon="11.2441958"><ele>313.3333333333333</ele><time>2026-04-22T16:51:18.615Z</time></trkpt><trkpt lat="43.6217894" lon="11.2440995"><ele>312.5</ele><time>2026-04-22T16:51:19.614Z</time></trkpt><trkpt lat="43.6218352" lon="11.2440058"><ele>311.66666666666663</ele><time>2026-04-22T16:51:20.614Z</time></trkpt><trkpt lat="43.621912" lon="11.2439448"><ele>310.8333333333333</ele><time>2026-04-22T16:51:21.614Z</time></trkpt><trkpt lat="43.6219769" lon="11.243891"><ele>310.0</ele><time>2026-04-22T16:51:22.614Z</time></trkpt><trkpt lat="43.6220572" lon="11.2438711"><ele>309.8</ele><time>2026-04-22T16:51:23.614Z</time></trkpt><trkpt lat="43.6221386" lon="11.2438966"><ele>309.6</ele><time>2026-04-22T16:51:24.614Z</time></trkpt><trkpt lat="43.6222227" lon="11.24397"><ele>309.4</ele><time>2026-04-22T16:51:25.615Z</time></trkpt><trkpt lat="43.6223014" lon="11.2441023"><ele>309.2</ele><time>2026-04-22T16:51:26.614Z</time></trkpt><trkpt lat="43.6223851" lon="11.2442197"><ele>309.0</ele><time>2026-04-22T16:51:27.614Z</time></trkpt><trkpt lat="43.6224765" lon="11.2443439"><ele>309.0</ele><time>2026-04-22T16:51:28.614Z</time></trkpt><trkpt lat="43.622562" lon="11.244471"><ele>309.0</ele><time>2026-04-22T16:51:29.614Z</time></trkpt><trkpt lat="43.6226325" lon="11.2445821"><ele>309.0</ele><time>2026-04-22T16:51:30.614Z</time></trkpt><trkpt lat="43.6227174" lon="11.2446766"><ele>309.0</ele><time>2026-04-22T16:51:31.615Z</time></trkpt><trkpt lat="43.622794" lon="11.244729"><ele>309.0</ele><time>2026-04-22T16:51:32.615Z</time></trkpt><trkpt lat="43.6228763" lon="11.2447531"><ele>306.0</ele><time>2026-04-22T16:51:33.614Z</time></trkpt><trkpt lat="43.6229873" lon="11.2446876"><ele>303.0</ele><time>2026-04-22T16:51:35.615Z</time></trkpt><trkpt lat="43.6230663" lon="11.2445889"><ele>300.0</ele><time>2026-04-22T16:51:36.614Z</time></trkpt><trkpt lat="43.6231383" lon="11.2444294"><ele>297.0</ele><time>2026-04-22T16:51:37.614Z</time></trkpt><trkpt lat="43.6232363" lon="11.2442487"><ele>297.0</ele><time>2026-04-22T16:51:38.615Z</time></trkpt><trkpt lat="43.6233491" lon="11.2440293"><ele>297.0</ele><time>2026-04-22T16:51:39.615Z</time></trkpt><trkpt lat="43.6234596" lon="11.2437927"><ele>297.0</ele><time>2026-04-22T16:51:40.615Z</time></trkpt><trkpt lat="43.6235669" lon="11.2435803"><ele>298.0</ele><time>2026-04-22T16:51:41.614Z</time></trkpt><trkpt lat="43.6236941" lon="11.2434034"><ele>299.0</ele><time>2026-04-22T16:51:42.614Z</time></trkpt><trkpt lat="43.6238087" lon="11.243236"><ele>300.0</ele><time>2026-04-22T16:51:43.614Z</time></trkpt><trkpt lat="43.6239565" lon="11.2431056"><ele>300.0</ele><time>2026-04-22T16:51:44.615Z</time></trkpt><trkpt lat="43.6240607" lon="11.2429817"><ele>300.0</ele><time>2026-04-22T16:51:45.615Z</time></trkpt><trkpt lat="43.6241724" lon="11.2428668"><ele>300.0</ele><time>2026-04-22T16:51:46.614Z</time></trkpt><trkpt lat="43.62428" lon="11.2427776"><ele>300.0</ele><time>2026-04-22T16:51:47.614Z</time></trkpt><trkpt lat="43.6243874" lon="11.242688"><ele>301.25</ele><time>2026-04-22T16:51:48.615Z</time></trkpt><trkpt lat="43.6244922" lon="11.2425761"><ele>302.5</ele><time>2026-04-22T16:51:49.615Z</time></trkpt><trkpt lat="43.6245869" lon="11.2424482"><ele>303.75</ele><time>2026-04-22T16:51:50.614Z</time></trkpt><trkpt lat="43.6246791" lon="11.2423392"><ele>305.0</ele><time>2026-04-22T16:51:51.614Z</time></trkpt><trkpt lat="43.6247693" lon="11.242247"><ele>305.0</ele><time>2026-04-22T16:51:52.614Z</time></trkpt><trkpt lat="43.6248719" lon="11.2421603"><ele>305.0</ele><time>2026-04-22T16:51:53.614Z</time></trkpt><trkpt lat="43.6249798" lon="11.2421022"><ele>305.0</ele><time>2026-04-22T16:51:54.614Z</time></trkpt><trkpt lat="43.6251043" lon="11.2420698"><ele>305.0</ele><time>2026-04-22T16:51:55.614Z</time></trkpt><trkpt lat="43.6252579" lon="11.2420529"><ele>307.33333333333337</ele><time>2026-04-22T16:51:56.614Z</time></trkpt><trkpt lat="43.6254123" lon="11.2420471"><ele>309.6666666666667</ele><time>2026-04-22T16:51:57.615Z</time></trkpt><trkpt lat="43.6255898" lon="11.2420336"><ele>312.0</ele><time>2026-04-22T16:51:58.614Z</time></trkpt><trkpt lat="43.6257623" lon="11.2419983"><ele>312.0</ele><time>2026-04-22T16:51:59.614Z</time></trkpt><trkpt lat="43.6259083" lon="11.2419747"><ele>312.0</ele><time>2026-04-22T16:52:00.615Z</time></trkpt><trkpt lat="43.626045" lon="11.2419479"><ele>312.0</ele><time>2026-04-22T16:52:01.614Z</time></trkpt><trkpt lat="43.6261687" lon="11.2419124"><ele>312.0</ele><time>2026-04-22T16:52:02.615Z</time></trkpt><trkpt lat="43.6262841" lon="11.2418802"><ele>312.8</ele><time>2026-04-22T16:52:03.614Z</time></trkpt><trkpt lat="43.6263997" lon="11.2418433"><ele>313.6</ele><time>2026-04-22T16:52:04.614Z</time></trkpt><trkpt lat="43.6264934" lon="11.2418007"><ele>314.40000000000003</ele><time>2026-04-22T16:52:05.614Z</time></trkpt><trkpt lat="43.6266037" lon="11.2417794"><ele>315.2</ele><time>2026-04-22T16:52:06.614Z</time></trkpt><trkpt lat="43.6267018" lon="11.2417559"><ele>316.0</ele><time>2026-04-22T16:52:07.614Z</time></trkpt><trkpt lat="43.626796" lon="11.2417279"><ele>316.0</ele><time>2026-04-22T16:52:08.615Z</time></trkpt><trkpt lat="43.6268845" lon="11.2416927"><ele>316.0</ele><time>2026-04-22T16:52:09.614Z</time></trkpt><trkpt lat="43.626957" lon="11.2416308"><ele>316.0</ele><time>2026-04-22T16:52:10.615Z</time></trkpt><trkpt lat="43.6270193" lon="11.241537"><ele>316.0</ele><time>2026-04-22T16:52:11.614Z</time></trkpt><trkpt lat="43.627072" lon="11.2414109"><ele>316.0</ele><time>2026-04-22T16:52:12.614Z</time></trkpt><trkpt lat="43.6271233" lon="11.2412699"><ele>315.0</ele><time>2026-04-22T16:52:13.614Z</time></trkpt><trkpt lat="43.6271774" lon="11.2411156"><ele>314.0</ele><time>2026-04-22T16:52:14.614Z</time></trkpt><trkpt lat="43.6272406" lon="11.2409605"><ele>313.0</ele><time>2026-04-22T16:52:15.613Z</time></trkpt><trkpt lat="43.6273007" lon="11.2408041"><ele>312.0</ele><time>2026-04-22T16:52:16.614Z</time></trkpt><trkpt lat="43.6273572" lon="11.2406387"><ele>310.75</ele><time>2026-04-22T16:52:17.613Z</time></trkpt><trkpt lat="43.6274098" lon="11.2404909"><ele>309.5</ele><time>2026-04-22T16:52:18.613Z</time></trkpt><trkpt lat="43.6274841" lon="11.240308"><ele>308.25</ele><time>2026-04-22T16:52:19.613Z</time></trkpt><trkpt lat="43.6275506" lon="11.2401428"><ele>307.0</ele><time>2026-04-22T16:52:20.613Z</time></trkpt><trkpt lat="43.6276103" lon="11.2399882"><ele>307.0</ele><time>2026-04-22T16:52:21.613Z</time></trkpt><trkpt lat="43.6276602" lon="11.2398348"><ele>307.0</ele><time>2026-04-22T16:52:22.613Z</time></trkpt><trkpt lat="43.6276988" lon="11.2396872"><ele>307.0</ele><time>2026-04-22T16:52:23.613Z</time></trkpt><trkpt lat="43.6277364" lon="11.2395464"><ele>307.0</ele><time>2026-04-22T16:52:24.613Z</time></trkpt><trkpt lat="43.6277797" lon="11.2394151"><ele>307.0</ele><time>2026-04-22T16:52:25.613Z</time></trkpt><trkpt lat="43.627841" lon="11.2393026"><ele>307.25</ele><time>2026-04-22T16:52:26.613Z</time></trkpt><trkpt lat="43.6279108" lon="11.239202"><ele>307.5</ele><time>2026-04-22T16:52:27.613Z</time></trkpt><trkpt lat="43.6280057" lon="11.239104"><ele>307.75</ele><time>2026-04-22T16:52:28.613Z</time></trkpt><trkpt lat="43.628114" lon="11.2390071"><ele>308.0</ele><time>2026-04-22T16:52:29.614Z</time></trkpt><trkpt lat="43.628229" lon="11.238916"><ele>305.0</ele><time>2026-04-22T16:52:30.614Z</time></trkpt><trkpt lat="43.6283572" lon="11.2388314"><ele>302.0</ele><time>2026-04-22T16:52:31.614Z</time></trkpt><trkpt lat="43.6284925" lon="11.238762"><ele>299.0</ele><time>2026-04-22T16:52:32.613Z</time></trkpt><trkpt lat="43.6286242" lon="11.2387115"><ele>296.0</ele><time>2026-04-22T16:52:33.614Z</time></trkpt><trkpt lat="43.6287626" lon="11.2386624"><ele>296.0</ele><time>2026-04-22T16:52:34.613Z</time></trkpt><trkpt lat="43.6288956" lon="11.2386133"><ele>296.0</ele><time>2026-04-22T16:52:35.613Z</time></trkpt><trkpt lat="43.62902" lon="11.2385704"><ele>296.0</ele><time>2026-04-22T16:52:36.613Z</time></trkpt><trkpt lat="43.6291398" lon="11.238532"><ele>296.0</ele><time>2026-04-22T16:52:37.614Z</time></trkpt><trkpt lat="43.6292492" lon="11.2384709"><ele>296.0</ele><time>2026-04-22T16:52:38.613Z</time></trkpt><trkpt lat="43.6293392" lon="11.2383868"><ele>296.0</ele><time>2026-04-22T16:52:39.613Z</time></trkpt><trkpt lat="43.6294025" lon="11.2382735"><ele>296.0</ele><time>2026-04-22T16:52:40.614Z</time></trkpt><trkpt lat="43.629439" lon="11.2381348"><ele>296.0</ele><time>2026-04-22T16:52:41.613Z</time></trkpt><trkpt lat="43.629453" lon="11.2379896"><ele>296.0</ele><time>2026-04-22T16:52:42.614Z</time></trkpt><trkpt lat="43.6294686" lon="11.2378539"><ele>296.40000000000003</ele><time>2026-04-22T16:52:43.613Z</time></trkpt><trkpt lat="43.629509" lon="11.2377431"><ele>296.8</ele><time>2026-04-22T16:52:44.614Z</time></trkpt><trkpt lat="43.6295859" lon="11.2376601"><ele>297.20000000000005</ele><time>2026-04-22T16:52:45.613Z</time></trkpt><trkpt lat="43.6296894" lon="11.2375767"><ele>297.6</ele><time>2026-04-22T16:52:46.613Z</time></trkpt><trkpt lat="43.6298038" lon="11.2374722"><ele>298.0</ele><time>2026-04-22T16:52:47.613Z</time></trkpt><trkpt lat="43.6299208" lon="11.2373681"><ele>297.66666666666663</ele><time>2026-04-22T16:52:48.614Z</time></trkpt><trkpt lat="43.6300409" lon="11.2372205"><ele>297.3333333333333</ele><time>2026-04-22T16:52:49.614Z</time></trkpt><trkpt lat="43.6301897" lon="11.2370747"><ele>297.0</ele><time>2026-04-22T16:52:50.613Z</time></trkpt><trkpt lat="43.6303463" lon="11.2369337"><ele>297.0</ele><time>2026-04-22T16:52:51.613Z</time></trkpt><trkpt lat="43.6305241" lon="11.2367413"><ele>297.0</ele><time>2026-04-22T16:52:52.614Z</time></trkpt><trkpt lat="43.6306983" lon="11.2365929"><ele>297.0</ele><time>2026-04-22T16:52:53.613Z</time></trkpt><trkpt lat="43.6308741" lon="11.236476"><ele>295.0</ele><time>2026-04-22T16:52:54.613Z</time></trkpt><trkpt lat="43.6310437" lon="11.2363827"><ele>293.0</ele><time>2026-04-22T16:52:55.614Z</time></trkpt><trkpt lat="43.6312095" lon="11.2362848"><ele>291.0</ele><time>2026-04-22T16:52:56.613Z</time></trkpt><trkpt lat="43.6313739" lon="11.2361886"><ele>290.6666666666667</ele><time>2026-04-22T16:52:57.613Z</time></trkpt><trkpt lat="43.6315408" lon="11.2361081"><ele>290.33333333333337</ele><time>2026-04-22T16:52:58.613Z</time></trkpt><trkpt lat="43.6317105" lon="11.2360306"><ele>290.0</ele><time>2026-04-22T16:52:59.613Z</time></trkpt><trkpt lat="43.6318809" lon="11.2359594"><ele>289.0</ele><time>2026-04-22T16:53:00.613Z</time></trkpt><trkpt lat="43.6320506" lon="11.2358866"><ele>288.0</ele><time>2026-04-22T16:53:01.613Z</time></trkpt><trkpt lat="43.6322217" lon="11.2358148"><ele>287.0</ele><time>2026-04-22T16:53:02.614Z</time></trkpt><trkpt lat="43.6323869" lon="11.2357312"><ele>286.33333333333337</ele><time>2026-04-22T16:53:03.613Z</time></trkpt><trkpt lat="43.6325477" lon="11.2356335"><ele>285.6666666666667</ele><time>2026-04-22T16:53:04.613Z</time></trkpt><trkpt lat="43.6327037" lon="11.2355118"><ele>285.0</ele><time>2026-04-22T16:53:05.614Z</time></trkpt><trkpt lat="43.6328529" lon="11.2353565"><ele>285.0</ele><time>2026-04-22T16:53:06.614Z</time></trkpt><trkpt lat="43.6329763" lon="11.2351635"><ele>285.0</ele><time>2026-04-22T16:53:07.614Z</time></trkpt><trkpt lat="43.6330771" lon="11.2349374"><ele>285.0</ele><time>2026-04-22T16:53:08.613Z</time></trkpt><trkpt lat="43.6331566" lon="11.2346818"><ele>284.5</ele><time>2026-04-22T16:53:09.614Z</time></trkpt><trkpt lat="43.6332189" lon="11.2343931"><ele>284.0</ele><time>2026-04-22T16:53:10.614Z</time></trkpt><trkpt lat="43.6332728" lon="11.2340799"><ele>284.0</ele><time>2026-04-22T16:53:11.614Z</time></trkpt><trkpt lat="43.6333363" lon="11.2337588"><ele>284.0</ele><time>2026-04-22T16:53:12.613Z</time></trkpt><trkpt lat="43.6333914" lon="11.2334119"><ele>283.5</ele><time>2026-04-22T16:53:13.613Z</time></trkpt><trkpt lat="43.6334404" lon="11.2330884"><ele>283.0</ele><time>2026-04-22T16:53:14.613Z</time></trkpt><trkpt lat="43.633491" lon="11.2327869"><ele>283.0</ele><time>2026-04-22T16:53:15.613Z</time></trkpt><trkpt lat="43.6335351" lon="11.2325092"><ele>283.0</ele><time>2026-04-22T16:53:16.613Z</time></trkpt><trkpt lat="43.6335696" lon="11.2322624"><ele>283.0</ele><time>2026-04-22T16:53:17.614Z</time></trkpt><trkpt lat="43.633607" lon="11.2320532"><ele>284.4</ele><time>2026-04-22T16:53:18.613Z</time></trkpt><trkpt lat="43.633636" lon="11.231886"><ele>285.8</ele><time>2026-04-22T16:53:19.613Z</time></trkpt><trkpt lat="43.633667" lon="11.2317417"><ele>287.2</ele><time>2026-04-22T16:53:20.613Z</time></trkpt><trkpt lat="43.6337035" lon="11.231627"><ele>288.6</ele><time>2026-04-22T16:53:21.613Z</time></trkpt><trkpt lat="43.6337387" lon="11.231528"><ele>290.0</ele><time>2026-04-22T16:53:22.613Z</time></trkpt><trkpt lat="43.6337774" lon="11.2314555"><ele>290.4</ele><time>2026-04-22T16:53:23.614Z</time></trkpt><trkpt lat="43.633858" lon="11.2313794"><ele>290.8</ele><time>2026-04-22T16:53:25.613Z</time></trkpt><trkpt lat="43.633888" lon="11.2312894"><ele>291.2</ele><time>2026-04-22T16:53:27.614Z</time></trkpt><trkpt lat="43.633823" lon="11.2312306"><ele>291.6</ele><time>2026-04-22T16:53:29.613Z</time></trkpt><trkpt lat="43.6336331" lon="11.2312762"><ele>292.0</ele><time>2026-04-22T16:53:31.613Z</time></trkpt><trkpt lat="43.6335154" lon="11.2312361"><ele>292.75</ele><time>2026-04-22T16:53:32.613Z</time></trkpt><trkpt lat="43.6333852" lon="11.2311788"><ele>293.5</ele><time>2026-04-22T16:53:33.614Z</time></trkpt><trkpt lat="43.6332544" lon="11.2311043"><ele>294.25</ele><time>2026-04-22T16:53:34.614Z</time></trkpt><trkpt lat="43.6331255" lon="11.2310313"><ele>295.0</ele><time>2026-04-22T16:53:35.613Z</time></trkpt><trkpt lat="43.6330052" lon="11.2309725"><ele>295.0</ele><time>2026-04-22T16:53:36.614Z</time></trkpt><trkpt lat="43.6328974" lon="11.2309157"><ele>295.0</ele><time>2026-04-22T16:53:37.613Z</time></trkpt><trkpt lat="43.6327989" lon="11.2308613"><ele>295.0</ele><time>2026-04-22T16:53:38.613Z</time></trkpt><trkpt lat="43.6326995" lon="11.2307902"><ele>295.0</ele><time>2026-04-22T16:53:39.614Z</time></trkpt><trkpt lat="43.6326026" lon="11.2307096"><ele>295.0</ele><time>2026-04-22T16:53:40.613Z</time></trkpt><trkpt lat="43.6325099" lon="11.230617"><ele>294.8</ele><time>2026-04-22T16:53:41.613Z</time></trkpt><trkpt lat="43.6324169" lon="11.2305272"><ele>294.6</ele><time>2026-04-22T16:53:42.613Z</time></trkpt><trkpt lat="43.6323289" lon="11.2304458"><ele>294.4</ele><time>2026-04-22T16:53:43.614Z</time></trkpt><trkpt lat="43.632244" lon="11.2303682"><ele>294.2</ele><time>2026-04-22T16:53:44.613Z</time></trkpt><trkpt lat="43.6321612" lon="11.23029"><ele>294.0</ele><time>2026-04-22T16:53:45.614Z</time></trkpt><trkpt lat="43.6320846" lon="11.2302215"><ele>294.0</ele><time>2026-04-22T16:53:46.613Z</time></trkpt><trkpt lat="43.6320141" lon="11.2301615"><ele>294.0</ele><time>2026-04-22T16:53:47.613Z</time></trkpt><trkpt lat="43.6319408" lon="11.2301088"><ele>294.0</ele><time>2026-04-22T16:53:48.614Z</time></trkpt><trkpt lat="43.6318655" lon="11.2300583"><ele>294.0</ele><time>2026-04-22T16:53:49.613Z</time></trkpt><trkpt lat="43.6317932" lon="11.2299983"><ele>294.0</ele><time>2026-04-22T16:53:50.613Z</time></trkpt><trkpt lat="43.6317267" lon="11.2299491"><ele>294.0</ele><time>2026-04-22T16:53:51.614Z</time></trkpt><trkpt lat="43.6316645" lon="11.2299098"><ele>293.8333333333333</ele><time>2026-04-22T16:53:52.613Z</time></trkpt><trkpt lat="43.6316025" lon="11.229864"><ele>293.6666666666667</ele><time>2026-04-22T16:53:53.613Z</time></trkpt><trkpt lat="43.6315384" lon="11.2298243"><ele>293.5</ele><time>2026-04-22T16:53:54.613Z</time></trkpt><trkpt lat="43.6314502" lon="11.2297045"><ele>293.33333333333337</ele><time>2026-04-22T16:53:56.613Z</time></trkpt><trkpt lat="43.6314462" lon="11.229599"><ele>293.1666666666667</ele><time>2026-04-22T16:53:57.614Z</time></trkpt><trkpt lat="43.6314528" lon="11.2295021"><ele>293.0</ele><time>2026-04-22T16:53:58.614Z</time></trkpt><trkpt lat="43.6315003" lon="11.2293837"><ele>297.0</ele><time>2026-04-22T16:54:00.613Z</time></trkpt><trkpt lat="43.6315672" lon="11.2293609"><ele>297.0</ele><time>2026-04-22T16:54:03.614Z</time></trkpt><trkpt lat="43.6316245" lon="11.2294376"><ele>297.0</ele><time>2026-04-22T16:54:44.613Z</time></trkpt><trkpt lat="43.6316107" lon="11.2295337"><ele>297.0</ele><time>2026-04-22T16:54:48.613Z</time></trkpt><trkpt lat="43.6316107" lon="11.2295337"><ele>297.0</ele><time>2026-04-22T16:54:48.613Z</time></trkpt></trkseg></trk></gpx>